# Wetter Temperatur Luftdruck Luftfeuchtigkeit Sichtweite Windgeschwindigkeit Windrichtung Zeit
1 Clouds -5 1024 91 0 1.03 319 09:42 14.07.2020
2 Clouds -5 1025 92 0 1.15 313 09:23 14.07.2020
3 Clouds -5 1025 92 0 1.15 313 08:59 14.07.2020
4 Clouds -5 1025 92 0 1.15 313 08:40 14.07.2020
5 Clouds -4 1025 92 0 1.17 324 08:22 14.07.2020
6 Clouds -4 1025 92 0 1.17 324 07:50 14.07.2020
7 Clouds -5 1025 92 0 1.29 315 07:20 14.07.2020
8 Clouds -5 1025 92 0 1.29 315 06:59 14.07.2020
9 Clouds -5 1025 92 0 1.42 318 06:27 14.07.2020
10 Clouds -5 1025 92 0 1.42 318 05:54 14.07.2020
11 Clouds -4 1025 92 0 1.37 313 04:54 14.07.2020
12 Clouds -4 1025 92 0 1.37 313 04:34 14.07.2020
13 Clouds -4 1026 93 0 1.41 303 03:31 14.07.2020
14 Clouds -3 1025 93 0 1.62 284 02:29 14.07.2020
15 Clouds -3 1025 93 0 1.46 285 01:41 14.07.2020
16 Clouds -2 1025 93 0 1.58 281 01:23 14.07.2020
17 Clouds -2 1025 93 0 1.58 281 00:43 14.07.2020
18 Clouds 1 1024 94 10000 2.1 330 00:23 14.07.2020
19 Clouds 1 1024 94 10000 2.1 330 23:39 13.07.2020
20 Clouds 1 1024 94 10000 2.1 330 23:20 13.07.2020
21 Clouds -1 1025 94 0 1.86 267 22:57 13.07.2020
22 Clouds 4 1023 69 10000 3.1 320 22:39 13.07.2020
23 Clouds 4 1023 69 10000 3.1 320 22:19 13.07.2020
24 Clouds 4 1023 69 10000 3.1 320 21:54 13.07.2020
25 Clouds 4 1023 69 10000 3.1 320 21:36 13.07.2020
26 Clouds 4 1023 69 10000 3.1 320 21:18 13.07.2020
27 Clouds 4 1023 69 10000 3.1 320 21:18 13.07.2020
28 Clouds 1 1025 92 0 1.53 253 20:42 13.07.2020
29 Clouds 4 1025 69 10000 2.1 300 20:23 13.07.2020
30 Clouds 4 1025 69 10000 2.1 300 19:58 13.07.2020
31 Clouds 4 1025 69 10000 2.1 300 19:39 13.07.2020
32 Clouds 4 1025 69 10000 2.1 300 19:21 13.07.2020
33 Clouds 0 1025 94 0 1.83 252 18:55 13.07.2020
34 Clouds 0 1025 94 0 1.83 252 18:36 13.07.2020
35 Clouds -1 1026 94 0 2.11 274 18:18 13.07.2020
36 Clouds -1 1026 94 0 2.11 274 17:42 13.07.2020
37 Clouds -2 1026 94 0 2.32 280 17:21 13.07.2020
38 Clouds -2 1026 94 0 2.32 280 16:59 13.07.2020
39 Clouds -2 1026 94 0 2.32 280 16:40 13.07.2020
40 Clouds -4 1027 93 0 2.4 288 16:20 13.07.2020
41 Clouds -4 1027 93 0 2.4 288 15:57 13.07.2020
42 Clouds -4 1027 93 0 2.4 288 15:38 13.07.2020
43 Clouds -6 1027 93 0 2.72 292 15:19 13.07.2020
44 Clouds -6 1027 93 0 2.72 292 14:57 13.07.2020
45 Clouds -6 1027 93 0 2.72 292 14:38 13.07.2020
46 Clouds -7 1027 93 0 2.89 297 14:19 13.07.2020
47 Clouds -7 1026 93 0 2.68 298 13:43 13.07.2020
48 Clouds -7 1026 93 0 2.67 298 13:22 13.07.2020
49 Clouds -7 1026 93 0 2.67 298 12:56 13.07.2020
50 Clouds -7 1026 93 0 2.67 298 12:38 13.07.2020
51 Clear -7 1025 93 0 2.95 295 12:18 13.07.2020
52 Clear -7 1025 93 0 2.95 295 11:41 13.07.2020
53 Clear -6 1025 93 0 2.95 292 11:23 13.07.2020
54 Clear -6 1025 93 0 2.95 292 10:47 13.07.2020
55 Clear -6 1025 92 0 3.05 293 10:22 13.07.2020
56 Clear -6 1025 92 0 3.05 293 09:59 13.07.2020
57 Clear -6 1025 92 0 3.05 293 09:40 13.07.2020
58 Clear -6 1025 92 0 3.16 293 09:21 13.07.2020
59 Clear -6 1025 92 0 3.16 293 08:49 13.07.2020
60 Clear -6 1025 92 0 3.16 293 08:30 13.07.2020
61 Clear -6 1024 92 0 3.16 294 07:31 13.07.2020
62 Clear -6 1024 92 0 3.14 294 06:54 13.07.2020
63 Clear -6 1024 92 0 3.14 294 06:36 13.07.2020
64 Clear -6 1024 92 0 3.1 294 05:44 13.07.2020
65 Clear -6 1024 92 0 3.15 293 04:25 13.07.2020
66 Clear -5 1023 92 0 3 285 01:46 13.07.2020
67 Clear -4 1022 92 0 3.24 288 01:24 13.07.2020
68 Clear -4 1022 92 0 3.24 288 00:45 13.07.2020
69 Clear -3 1021 91 0 3.19 287 00:24 13.07.2020
70 Clear -3 1021 91 0 3.19 287 23:44 12.07.2020
71 Clear -2 1020 91 0 3.04 282 23:23 12.07.2020
72 Clear -2 1020 91 0 3.04 282 22:58 12.07.2020
73 Clear -2 1020 91 0 3.04 282 22:37 12.07.2020
74 Clear 0 1019 91 0 2.71 276 22:19 12.07.2020
75 Clear 0 1019 91 0 2.71 276 21:57 12.07.2020
76 Clear 0 1019 91 0 2.71 276 21:39 12.07.2020
77 Clear 1 1019 87 0 2.72 271 21:19 12.07.2020
78 Clouds 1 1019 86 0 2.95 272 20:42 12.07.2020
79 Clouds 1 1019 87 0 2.91 264 20:20 12.07.2020
80 Clouds 1 1019 87 0 2.91 264 19:59 12.07.2020
81 Clouds 1 1019 87 0 2.91 264 19:40 12.07.2020
82 Clouds 1 1019 89 0 3.07 268 19:21 12.07.2020
83 Clouds 1 1019 89 0 3.07 268 18:55 12.07.2020
84 Clouds 1 1019 89 0 3.07 268 18:37 12.07.2020
85 Clouds 0 1019 93 0 3.01 278 18:18 12.07.2020
86 Clouds 0 1019 93 0 3.01 278 17:38 12.07.2020
87 Clouds -2 1019 94 0 2.96 277 17:20 12.07.2020
88 Clouds -2 1019 94 0 2.96 277 16:48 12.07.2020
89 Clouds -3 1019 93 0 2.99 285 16:23 12.07.2020
90 Clouds -3 1019 93 0 2.99 285 15:51 12.07.2020
91 Clouds -3 1019 93 0 2.99 285 15:31 12.07.2020
92 Clear -5 1019 93 0 3.12 287 14:58 12.07.2020
93 Clear -5 1019 93 0 3.12 287 14:40 12.07.2020
94 Clouds -5 1018 93 0 3.24 284 14:22 12.07.2020
95 Clouds -5 1018 93 0 3.24 284 13:40 12.07.2020
96 Clouds -4 1017 93 0 3.36 293 13:21 12.07.2020
97 Clouds -4 1017 93 0 3.36 293 12:57 12.07.2020
98 Clouds -4 1017 93 0 3.36 293 12:57 12.07.2020
99 Clouds -4 1017 93 0 3.36 293 12:38 12.07.2020
100 Clouds -4 1017 93 0 3.36 293 12:38 12.07.2020
101 Clouds -4 1017 93 0 3.36 293 12:38 12.07.2020
102 Clouds -4 1016 92 0 3.08 287 12:18 12.07.2020
103 Clouds -4 1016 92 0 3.08 287 11:44 12.07.2020
104 Clouds -4 1015 92 0 2.9 280 11:21 12.07.2020
105 Clouds -4 1015 92 0 2.9 280 10:45 12.07.2020
106 Clouds -4 1015 93 0 2.94 278 10:23 12.07.2020
107 Clouds -4 1015 93 0 2.94 278 09:59 12.07.2020
108 Clouds -4 1015 93 0 2.94 278 09:40 12.07.2020
109 Clouds -3 1015 93 0 2.81 280 09:21 12.07.2020
110 Clouds -3 1015 93 0 2.81 280 08:55 12.07.2020
111 Clouds -3 1015 93 0 2.81 280 08:36 12.07.2020
112 Clouds -3 1014 94 0 2.41 281 08:18 12.07.2020
113 Clouds -3 1014 94 0 2.41 281 08:18 12.07.2020
114 Clouds -3 1014 94 0 2.41 281 07:45 12.07.2020
115 Snow -2 1013 94 0 2.18 296 07:22 12.07.2020
116 Snow -2 1013 94 0 2.18 296 06:51 12.07.2020
117 Snow -2 1013 95 0 2.38 296 06:22 12.07.2020
118 Snow -2 1013 95 0 2.38 296 05:42 12.07.2020
119 Snow -2 1013 94 0 3.03 306 04:56 12.07.2020
120 Clouds -3 1013 93 0 3.8 315 04:26 12.07.2020
121 Clouds -3 1013 93 0 3.8 315 03:34 12.07.2020
122 Clouds -3 1012 93 0 3.82 326 02:55 12.07.2020
123 Clouds -3 1012 91 0 3.58 302 01:46 12.07.2020
124 Clouds -3 1012 92 0 3.34 306 00:52 12.07.2020
125 Clouds -2 1011 93 0 3.01 317 00:23 12.07.2020
126 Clouds -2 1011 93 0 3.01 317 23:57 11.07.2020
127 Clouds -2 1011 93 0 3.01 317 23:39 11.07.2020
128 Snow 0 1010 94 0 2.95 301 23:20 11.07.2020
129 Snow 0 1010 94 0 2.95 301 23:20 11.07.2020
130 Snow 0 1010 94 0 2.95 301 22:46 11.07.2020
131 Snow 0 1010 92 0 2.77 286 22:26 11.07.2020
132 Snow 0 1010 92 0 2.77 286 21:59 11.07.2020
133 Snow 0 1010 92 0 2.77 286 21:40 11.07.2020
134 Snow 1 1009 86 0 4.21 276 21:22 11.07.2020
135 Snow 1 1008 87 0 4.26 278 20:56 11.07.2020
136 Snow 1 1008 87 0 4.26 278 20:38 11.07.2020
137 Snow 1 1008 90 0 4.57 286 20:20 11.07.2020
138 Snow 1 1008 90 0 4.57 286 19:56 11.07.2020
139 Snow 1 1008 90 0 4.57 286 19:56 11.07.2020
140 Snow 1 1008 90 0 4.57 286 19:38 11.07.2020
141 Snow 1 1008 91 0 4.1 296 19:20 11.07.2020
142 Snow 1 1008 91 0 4.1 296 18:55 11.07.2020
143 Snow 1 1008 91 0 4.1 296 18:36 11.07.2020
144 Snow 1 1008 91 0 3.62 292 18:18 11.07.2020
145 Snow 1 1008 91 0 3.62 292 17:41 11.07.2020
146 Snow 0 1008 93 0 3.67 295 17:21 11.07.2020
147 Snow 0 1008 93 0 3.67 295 16:59 11.07.2020
148 Snow 0 1008 93 0 3.67 295 16:38 11.07.2020
149 Snow -1 1008 94 0 4.28 286 16:19 11.07.2020
150 Snow -1 1008 94 0 4.28 286 16:19 11.07.2020
151 Snow -1 1003 86 800 3.6 230 15:57 11.07.2020
152 Snow -1 1003 86 800 3.6 230 15:37 11.07.2020
153 Snow -1 1003 86 800 3.6 230 15:18 11.07.2020
154 Snow -2 1007 94 0 3.74 291 14:43 11.07.2020
155 Snow -2 1007 94 0 3.38 292 14:23 11.07.2020
156 Snow -1 1006 95 0 3.19 298 13:44 11.07.2020
157 Snow -1 1005 95 0 2.51 300 13:23 11.07.2020
158 Snow -1 1005 95 0 2.51 300 12:59 11.07.2020
159 Snow -1 1005 95 0 2.51 300 12:41 11.07.2020
160 Snow -1 1004 95 0 3.2 299 12:23 11.07.2020
161 Snow -1 1004 95 0 3.2 299 11:58 11.07.2020
162 Snow -1 1004 95 0 3.2 299 11:40 11.07.2020
163 Snow -1 1004 95 0 4.59 307 11:19 11.07.2020
164 Snow -1 1004 95 0 4.59 307 10:45 11.07.2020
165 Snow -1 1004 94 0 4.07 303 10:26 11.07.2020
166 Snow -1 1004 94 0 4.07 303 09:56 11.07.2020
167 Snow -1 1004 94 0 4.07 303 09:36 11.07.2020
168 Snow 1 1004 91 0 4.51 266 09:18 11.07.2020
169 Snow 0 1005 93 0 5.47 263 08:37 11.07.2020
170 Snow 1 1004 89 0 4.91 266 08:19 11.07.2020
171 Snow 1 1004 89 0 4.91 266 07:46 11.07.2020
172 Snow 2 1004 88 0 6.54 282 07:27 11.07.2020
173 Snow 2 1004 88 0 6.54 282 06:56 11.07.2020
174 Snow 2 1004 87 0 6.33 303 06:22 11.07.2020
175 Snow 2 1004 87 0 6.33 303 05:36 11.07.2020
176 Snow 2 1005 88 0 4.54 317 04:56 11.07.2020
177 Snow 2 1005 88 0 4.54 317 04:33 11.07.2020
178 Snow 0 1004 92 10000 2.1 140 03:32 11.07.2020
179 Snow 0 1004 92 10000 2.1 140 02:40 11.07.2020
180 Snow 0 1005 95 4100 1.5 120 01:49 11.07.2020
181 Snow 0 1005 95 4100 1.5 120 01:18 11.07.2020
182 Snow 1 1007 95 5000 2.1 330 00:41 11.07.2020
183 Snow 1 1007 94 5000 2.1 330 00:22 11.07.2020
184 Snow 0 1008 94 2200 1.5 290 23:57 10.07.2020
185 Snow 0 1008 94 2200 1.5 290 23:39 10.07.2020
186 Snow 0 1008 93 2200 1.5 290 23:19 10.07.2020
187 Snow 1 1009 93 2500 0.5 0 22:45 10.07.2020
188 Snow 1 1009 90 2500 0.5 0 22:21 10.07.2020
189 Snow 1 1009 90 4000 1.5 300 21:56 10.07.2020
190 Snow 1 1009 90 4000 1.5 300 21:36 10.07.2020
191 Snow 1 1009 84 4000 1.5 300 21:18 10.07.2020
192 Snow 1 1009 84 4000 1.5 300 21:18 10.07.2020
193 Clear 2 1010 84 0 3.66 299 20:41 10.07.2020
194 Snow 2 1011 84 5000 3.6 240 20:22 10.07.2020
195 Snow 2 1011 84 5000 3.6 240 19:57 10.07.2020
196 Snow 2 1011 84 5000 3.6 240 19:57 10.07.2020
197 Snow 2 1011 84 5000 3.6 240 19:39 10.07.2020
198 Snow 2 1011 87 5000 3.6 240 19:20 10.07.2020
199 Rain 3 1011 87 10000 4.1 270 18:41 10.07.2020
200 Rain 3 1011 92 10000 4.1 270 18:21 10.07.2020
201 Clear 0 1012 92 0 2.67 290 17:58 10.07.2020
202 Rain 1 1010 86 10000 1.5 290 17:39 10.07.2020
203 Rain 1 1010 86 10000 1.5 290 17:20 10.07.2020
204 Rain 1 1010 86 10000 1.5 290 16:43 10.07.2020
205 Rain 1 1010 86 10000 1.5 290 16:21 10.07.2020
206 Clouds 0 1010 93 10000 2.8 295 15:48 10.07.2020
207 Clouds 0 1010 92 10000 2.75 293 15:26 10.07.2020
208 Clear 0 1010 92 10000 1 0 14:59 10.07.2020
209 Clear 0 1010 92 10000 1 0 14:40 10.07.2020
210 Clouds 0 1010 92 10000 1 0 14:20 10.07.2020
211 Clouds 0 1010 92 10000 1 0 14:20 10.07.2020
212 Clouds 1 1009 92 10000 2.6 260 13:57 10.07.2020
213 Clouds 1 1009 92 10000 2.6 260 13:38 10.07.2020
214 Clouds 1 1009 93 10000 2.6 260 13:20 10.07.2020
215 Clouds 1 1008 93 10000 2.6 290 12:56 10.07.2020
216 Clouds 1 1008 93 10000 2.6 290 12:37 10.07.2020
217 Clouds 1 1008 93 10000 2.6 290 12:19 10.07.2020
218 Clouds 0 1007 93 10000 2.6 280 11:39 10.07.2020
219 Clouds 0 1007 94 10000 2.6 280 11:19 10.07.2020
220 Clouds 1 1006 94 10000 3.1 290 10:55 10.07.2020
221 Clouds 1 1006 94 10000 3.1 290 10:37 10.07.2020
222 Clouds 1 1006 95 10000 3.1 290 10:18 10.07.2020
223 Clouds 1 1005 95 10000 3.1 290 09:39 10.07.2020
224 Clouds 1 1005 95 10000 3.1 290 09:20 10.07.2020
225 Rain 1 1004 100 10000 3.6 290 08:58 10.07.2020
226 Rain 1 1004 100 10000 3.6 290 08:40 10.07.2020
227 Rain 1 1004 100 10000 3.6 290 08:21 10.07.2020
228 Rain 1 1003 100 10000 3.1 280 07:43 10.07.2020
229 Rain 1 1003 100 10000 3.1 280 07:23 10.07.2020
230 Rain 1 1003 100 10000 2.6 290 06:51 10.07.2020
231 Rain 1 1003 100 10000 2.6 290 06:27 10.07.2020
232 Rain 1 1002 100 5000 3.1 290 05:19 10.07.2020
233 Rain 1 1001 100 10000 3.1 300 03:39 10.07.2020
234 Rain 1 1001 100 10000 2.6 290 02:53 10.07.2020
235 Rain 1 1001 94 10000 3.1 300 01:50 10.07.2020
236 Rain 1 1001 94 8000 3.1 280 00:49 10.07.2020
237 Rain 1 1001 90 8000 3.1 280 00:21 10.07.2020
238 Rain 1 1000 100 5000 2.6 290 23:49 09.07.2020
239 Rain 1 1000 100 5000 2.6 290 23:24 09.07.2020
240 Fog 1 1000 100 10000 2.1 270 22:59 09.07.2020
241 Fog 1 1000 100 10000 2.1 270 22:41 09.07.2020
242 Fog 1 1000 100 10000 2.1 270 22:21 09.07.2020
243 Mist 1 999 100 4000 3.1 290 21:57 09.07.2020
244 Mist 1 999 100 4000 3.1 290 21:38 09.07.2020
245 Mist 1 999 100 4000 3.1 290 21:19 09.07.2020
246 Rain 1 998 87 4500 2.6 280 20:45 09.07.2020
247 Rain 1 998 87 4500 2.6 280 20:26 09.07.2020
248 Fog 0 998 87 200 1.5 290 19:58 09.07.2020
249 Snow 0 998 87 200 1.5 290 19:40 09.07.2020
250 Snow 0 998 87 200 1.5 290 19:21 09.07.2020
251 Snow 0 997 87 600 2.64 301 18:43 09.07.2020
252 Snow 0 997 91 600 1.88 267 18:22 09.07.2020
253 Fog 0 997 91 600 1.88 267 17:56 09.07.2020
254 Snow 0 997 91 600 1.88 267 17:38 09.07.2020
255 Snow 0 997 92 600 2.32 248 17:19 09.07.2020
256 Snow 0 997 92 900 1 0 16:55 09.07.2020
257 Snow 0 997 92 900 1 0 16:37 09.07.2020
258 Snow 0 997 93 900 1 0 16:19 09.07.2020
259 Snow 0 998 93 500 1.43 354 15:54 09.07.2020
260 Snow 0 998 93 500 1.43 354 15:36 09.07.2020
261 Fog 0 998 96 500 0.66 42 15:18 09.07.2020
262 Snow 0 999 96 4300 1 130 14:54 09.07.2020
263 Snow 0 999 96 4300 1 130 14:36 09.07.2020
264 Snow 0 999 96 4300 1 130 14:18 09.07.2020
265 Snow 0 1000 96 2600 0.77 31 13:41 09.07.2020
266 Snow 0 1000 95 2600 2.65 32 13:20 09.07.2020
267 Snow 0 1002 95 7000 0.5 0 12:57 09.07.2020
268 Snow 0 1002 95 7000 0.5 0 12:39 09.07.2020
269 Snow 0 1002 95 7000 0.5 0 12:20 09.07.2020
270 Rain 0 1004 95 5000 1 0 11:44 09.07.2020
271 Rain 0 1004 94 5000 1 0 11:26 09.07.2020
272 Snow 0 1006 94 4200 2.72 357 10:59 09.07.2020
273 Snow 0 1006 94 4200 2.72 357 10:41 09.07.2020
274 Snow 0 1006 94 4200 2.9 339 10:23 09.07.2020
275 Snow 0 1007 94 3400 2.1 280 09:58 09.07.2020
276 Snow 0 1007 94 3400 2.1 280 09:39 09.07.2020
277 Snow 0 1007 94 3400 2.1 280 09:21 09.07.2020
278 Snow 0 1008 94 6000 3.27 329 08:43 09.07.2020
279 Snow 0 1008 94 6000 3.97 338 08:24 09.07.2020
280 Snow 0 1009 94 10000 3.97 338 07:47 09.07.2020
281 Snow 0 1009 94 10000 4.18 340 07:22 09.07.2020
282 Snow 0 1010 94 3000 4.18 340 06:41 09.07.2020
283 Snow 0 1010 93 3000 4.45 337 06:19 09.07.2020
284 Snow 0 1011 93 900 3.91 334 04:29 09.07.2020
285 Snow 0 1012 93 3500 1 290 03:25 09.07.2020
286 Snow 0 1013 92 2100 3.64 331 02:19 09.07.2020
287 Snow 1 1013 92 2900 1 0 01:32 09.07.2020
288 Rain 1 1013 100 9000 1 0 00:46 09.07.2020
289 Rain 1 1013 100 9000 1 0 00:23 09.07.2020
290 Snow 1 1014 100 5000 0.5 0 23:46 08.07.2020
291 Snow 1 1014 100 5000 0.5 0 23:27 08.07.2020
292 Rain 2 1014 93 9000 2.1 280 22:57 08.07.2020
293 Rain 2 1014 93 9000 2.1 280 22:38 08.07.2020
294 Rain 2 1014 93 9000 2.1 280 22:20 08.07.2020
295 Fog 2 1015 93 4000 2.6 0 21:57 08.07.2020
296 Snow 2 1015 93 4000 2.6 0 21:38 08.07.2020
297 Snow 2 1015 93 4000 2.6 0 21:20 08.07.2020
298 Rain 2 1015 93 5000 2.6 0 20:43 08.07.2020
299 Rain 2 1015 93 5000 2.6 0 20:25 08.07.2020
300 Snow 1 1014 76 4000 2.6 320 19:58 08.07.2020
301 Snow 1 1014 76 4000 2.6 320 19:39 08.07.2020
302 Snow 1 1014 76 4000 2.6 320 19:21 08.07.2020
303 Snow 0 1014 76 1500 2.6 280 18:42 08.07.2020
304 Snow 0 1014 79 1500 2.6 280 18:21 08.07.2020
305 Mist 1 1014 79 3500 2.1 280 17:59 08.07.2020
306 Snow 1 1014 79 3500 2.1 280 17:40 08.07.2020
307 Mist 1 1014 85 3500 2.1 280 17:21 08.07.2020
308 Clouds 2 1014 85 0 3.57 305 16:58 08.07.2020
309 Clouds 2 1014 85 0 3.57 305 16:38 08.07.2020
310 Clouds 2 1014 85 0 3.57 305 16:38 08.07.2020
311 Clouds 0 1014 94 0 3.32 312 16:19 08.07.2020
312 Snow 1 1013 94 1800 1.5 290 15:58 08.07.2020
313 Snow 1 1013 94 1800 1.5 290 15:38 08.07.2020
314 Snow 1 1013 94 1800 1.5 290 15:38 08.07.2020
315 Snow 1 1013 93 1800 1.5 290 15:19 08.07.2020
316 Rain 2 1012 93 10000 3.1 280 14:42 08.07.2020
317 Rain 2 1012 93 10000 3.1 280 14:23 08.07.2020
318 Rain 2 1011 93 10000 1.5 0 13:57 08.07.2020
319 Rain 2 1011 93 10000 1.5 0 13:38 08.07.2020
320 Rain 2 1011 93 10000 1.5 0 13:18 08.07.2020
321 Rain 1 1010 100 10000 1 270 12:41 08.07.2020
322 Rain 1 1010 100 10000 1 270 12:20 08.07.2020
323 Rain 2 1010 93 10000 1 0 11:55 08.07.2020
324 Rain 2 1010 93 10000 1 0 11:37 08.07.2020
325 Rain 2 1010 93 10000 1 0 11:19 08.07.2020
326 Rain 1 1010 100 10000 0.5 0 10:42 08.07.2020
327 Rain 1 1010 100 10000 0.5 0 10:23 08.07.2020
328 Rain 1 1009 100 10000 2.1 280 09:45 08.07.2020
329 Rain 1 1009 100 10000 2.1 280 09:25 08.07.2020
330 Snow 1 1009 100 8000 2.6 290 08:44 08.07.2020
331 Snow 1 1009 100 8000 2.6 290 08:25 08.07.2020
332 Rain 1 1009 100 10000 2.6 310 07:57 08.07.2020
333 Rain 1 1009 100 10000 2.6 310 07:38 08.07.2020
334 Rain 1 1009 100 10000 2.6 310 07:19 08.07.2020
335 Snow 1 1009 100 6000 2.1 300 06:43 08.07.2020
336 Snow 1 1009 100 6000 2.1 300 06:24 08.07.2020
337 Rain 2 1008 93 10000 3.1 270 05:44 08.07.2020
338 Rain 2 1008 93 10000 3.1 270 05:44 08.07.2020
339 Rain 1 1008 100 8000 2.1 260 04:43 08.07.2020
340 Rain 0 1007 94 10000 2.6 0 03:30 08.07.2020
341 Snow 0 1007 93 8000 0.5 0 01:59 08.07.2020
342 Snow 0 1007 93 8000 0.5 0 01:37 08.07.2020
343 Snow 0 1007 93 5000 0.5 0 00:46 08.07.2020
344 Snow 0 1007 92 5000 0.5 0 00:19 08.07.2020
345 Snow 0 1007 92 2000 3.6 110 23:43 07.07.2020
346 Snow 0 1007 91 2000 3.6 110 23:21 07.07.2020
347 Snow 0 1007 91 2000 5.7 120 22:54 07.07.2020
348 Snow 0 1007 91 2000 5.7 120 22:36 07.07.2020
349 Snow 0 1007 86 2000 5.7 120 22:18 07.07.2020
350 Snow 0 1008 86 3000 5.1 130 21:41 07.07.2020
351 Snow 0 1008 86 3000 5.1 130 21:41 07.07.2020
352 Snow 0 1008 82 3000 5.1 130 21:22 07.07.2020
353 Snow 1 1009 80 4000 1.5 0 20:59 07.07.2020
354 Snow 1 1009 80 4000 1.5 0 20:41 07.07.2020
355 Snow 1 1009 80 4000 1.5 0 20:23 07.07.2020
356 Clouds 0 1010 81 10000 4.1 120 19:55 07.07.2020
357 Clouds 0 1010 81 10000 4.1 120 19:36 07.07.2020
358 Clouds 0 1010 83 10000 4.1 120 19:18 07.07.2020
359 Clouds 1 1013 74 10000 3.1 130 18:54 07.07.2020
360 Clouds 1 1013 74 10000 3.1 130 18:36 07.07.2020
361 Clouds 1 1013 74 10000 3.1 130 18:18 07.07.2020
362 Clouds 0 1014 86 10000 4.1 130 17:40 07.07.2020
363 Clouds 0 1014 88 10000 4.1 130 17:22 07.07.2020
364 Clouds -1 1014 80 10000 1.02 11 16:58 07.07.2020
365 Clouds -1 1014 80 10000 1.02 11 16:40 07.07.2020
366 Clouds -1 1014 80 10000 1.6 18 16:20 07.07.2020
367 Clouds -1 1014 86 10000 1.6 18 15:42 07.07.2020
368 Clouds -1 1014 86 10000 1.27 18 15:21 07.07.2020
369 Clouds -1 1015 86 10000 1.27 18 14:56 07.07.2020
370 Clouds -1 1015 86 10000 1.27 18 14:38 07.07.2020
371 Clouds -1 1015 86 10000 1.42 7 14:19 07.07.2020
372 Clouds -1 1016 86 10000 1.28 3 13:40 07.07.2020
373 Clouds -1 1016 86 10000 1.43 6 13:19 07.07.2020
374 Clouds -1 1016 86 10000 1.43 6 12:41 07.07.2020
375 Clouds -1 1016 86 10000 1.4 358 12:22 07.07.2020
376 Clouds -1 1016 86 10000 1.4 358 11:58 07.07.2020
377 Clouds -1 1016 86 10000 1.4 358 11:40 07.07.2020
378 Clouds -1 1016 86 10000 1.58 4 11:20 07.07.2020
379 Clouds -1 1017 86 10000 1.58 4 10:57 07.07.2020
380 Clouds -1 1017 86 10000 1.58 4 10:37 07.07.2020
381 Clouds -1 1017 86 10000 1.71 3 10:18 07.07.2020
382 Clouds -1 1018 92 10000 1.71 3 09:40 07.07.2020
383 Clouds -1 1018 92 10000 1.64 4 09:20 07.07.2020
384 Clear -1 1018 92 10000 1.7 4 08:42 07.07.2020
385 Clear -1 1018 92 10000 1.69 17 08:23 07.07.2020
386 Clear -1 1019 92 10000 1.69 17 07:47 07.07.2020
387 Clear -1 1019 92 10000 2.01 32 07:24 07.07.2020
388 Clear -1 1019 92 10000 2.01 32 06:49 07.07.2020
389 Clear -1 1019 92 10000 2.01 32 06:31 07.07.2020
390 Clear -2 1020 92 10000 1.82 24 05:54 07.07.2020
391 Clear -2 1020 92 10000 1.92 36 05:23 07.07.2020
392 Clear -2 1020 100 10000 1.92 36 04:40 07.07.2020
393 Fog -1 1020 92 600 1.97 39 03:40 07.07.2020
394 Clouds -2 1020 100 10000 1.94 43 02:27 07.07.2020
395 Clouds -1 1020 92 10000 1 0 01:23 07.07.2020
396 Clouds -1 1020 100 10000 1.5 300 00:43 07.07.2020
397 Clear -1 1020 100 10000 1.5 300 00:24 07.07.2020
398 Clouds 1 1020 80 10000 1.5 320 23:55 06.07.2020
399 Clouds 1 1020 80 10000 1.5 320 23:36 06.07.2020
400 Clouds 1 1020 80 10000 1.5 320 23:18 06.07.2020
401 Smoke 2 1020 80 10000 2.6 350 22:41 06.07.2020
402 Smoke 2 1020 80 10000 2.6 350 22:20 06.07.2020
403 Clouds 3 1021 74 10000 1.5 360 21:57 06.07.2020
404 Clouds 3 1021 74 10000 1.5 360 21:38 06.07.2020
405 Clouds 3 1021 74 10000 1.5 360 21:19 06.07.2020
406 Clouds 4 1021 69 10000 1.5 0 20:59 06.07.2020
407 Clouds 4 1021 69 10000 1.5 0 20:37 06.07.2020
408 Clouds 4 1021 69 10000 1.5 0 20:19 06.07.2020
409 Clouds 3 1022 74 10000 0.5 0 19:56 06.07.2020
410 Clouds 3 1022 74 10000 0.5 0 19:37 06.07.2020
411 Clouds 3 1022 74 10000 0.5 0 19:19 06.07.2020
412 Clouds 1 1023 80 10000 1.36 74 18:41 06.07.2020
413 Clouds 1 1023 80 10000 1.12 67 18:23 06.07.2020
414 Clouds 0 1023 89 10000 2.6 120 17:59 06.07.2020
415 Clouds 0 1023 89 10000 2.6 120 17:41 06.07.2020
416 Clouds 0 1023 89 10000 2.6 120 17:41 06.07.2020
417 Clouds 0 1023 91 10000 2.6 120 17:20 06.07.2020
418 Clouds -1 1023 92 10000 2.1 130 16:44 06.07.2020
419 Clouds -1 1023 92 10000 2.1 130 16:25 06.07.2020
420 Clouds -1 1023 92 10000 1 0 15:59 06.07.2020
421 Clouds -1 1023 92 10000 1 0 15:41 06.07.2020
422 Clouds -1 1023 92 10000 1 0 15:23 06.07.2020
423 Clear -1 1023 92 10000 1.5 120 14:55 06.07.2020
424 Clear -1 1023 92 10000 1.5 120 14:37 06.07.2020
425 Clear -1 1023 92 10000 1.5 120 14:37 06.07.2020
426 Clear -1 1023 92 10000 1.5 120 14:18 06.07.2020
427 Clear 0 1023 90 10000 2.1 160 13:44 06.07.2020
428 Clear 0 1023 90 10000 2.1 160 13:24 06.07.2020
429 Clear 0 1023 90 10000 3.1 130 12:54 06.07.2020
430 Clear 0 1023 90 10000 3.1 130 12:36 06.07.2020
431 Clear 0 1023 90 10000 3.1 130 12:18 06.07.2020
432 Clear 0 1023 90 10000 2.1 120 11:41 06.07.2020
433 Clear 0 1023 90 10000 2.1 120 11:23 06.07.2020
434 Clear 0 1023 90 10000 2.6 140 10:59 06.07.2020
435 Clear 0 1023 90 10000 2.6 140 10:40 06.07.2020
436 Clear 0 1023 91 10000 2.6 140 10:19 06.07.2020
437 Clear 0 1023 91 10000 1.5 180 09:46 06.07.2020
438 Clear 0 1023 91 10000 1.5 180 09:22 06.07.2020
439 Clear 0 1023 91 10000 2.6 140 08:59 06.07.2020
440 Clear 0 1023 91 10000 2.6 140 08:40 06.07.2020
441 Clear 0 1023 91 10000 2.6 140 08:21 06.07.2020
442 Clear 1 1023 100 10000 2.6 120 07:48 06.07.2020
443 Clear 1 1023 100 10000 2.6 120 07:29 06.07.2020
444 Clear 1 1023 100 10000 1.07 317 06:49 06.07.2020
445 Clear 1 1023 100 10000 1.07 317 06:31 06.07.2020
446 Clear 1 1023 100 10000 1.18 314 05:44 06.07.2020
447 Clear 1 1023 100 10000 1.23 323 05:25 06.07.2020
448 Clear 1 1023 92 10000 0.5 0 03:52 06.07.2020
449 Clouds 1 1022 100 10000 1.07 327 02:25 06.07.2020
450 Clouds 2 1022 100 10000 1.5 330 01:44 06.07.2020
451 Clouds 2 1022 100 10000 1.5 320 00:39 06.07.2020
452 Clouds 2 1022 100 10000 1.5 320 00:21 06.07.2020
453 Clouds 3 1021 93 10000 1 310 23:44 05.07.2020
454 Clouds 3 1021 93 10000 1 310 23:26 05.07.2020
455 Clouds 4 1021 86 10000 2.6 350 22:59 05.07.2020
456 Clouds 4 1021 86 10000 2.6 350 22:40 05.07.2020
457 Clouds 4 1021 86 10000 2.6 350 22:20 05.07.2020
458 Clouds 4 1021 86 10000 1.5 320 21:57 05.07.2020
459 Clouds 4 1021 86 10000 1.5 320 21:39 05.07.2020
460 Clouds 4 1021 86 10000 1.5 320 21:18 05.07.2020
461 Clouds 4 1021 86 10000 0.46 220 20:57 05.07.2020
462 Clouds 4 1021 86 10000 0.46 220 20:39 05.07.2020
463 Clouds 4 1021 86 10000 0.78 243 20:20 05.07.2020
464 Clouds 4 1021 80 10000 0.78 243 19:43 05.07.2020
465 Clouds 4 1021 80 10000 1.05 246 19:21 05.07.2020
466 Clouds 4 1021 86 10000 1.05 246 18:57 05.07.2020
467 Clouds 4 1021 86 10000 1.05 246 18:38 05.07.2020
468 Clouds 4 1021 86 10000 1.08 262 18:20 05.07.2020
469 Clouds 3 1021 93 10000 1 0 17:43 05.07.2020
470 Clouds 3 1021 93 10000 1 0 17:20 05.07.2020
471 Clouds 2 1020 100 10000 1.18 272 16:59 05.07.2020
472 Clouds 2 1020 100 10000 1.18 272 16:40 05.07.2020
473 Clouds 2 1020 100 10000 1.22 285 16:21 05.07.2020
474 Clouds 2 1019 100 10000 1.22 285 15:41 05.07.2020
475 Clouds 2 1019 100 10000 1.2 290 15:20 05.07.2020
476 Rain 2 1019 93 10000 1.2 290 14:57 05.07.2020
477 Rain 2 1019 93 10000 1.2 290 14:38 05.07.2020
478 Rain 2 1019 93 10000 1.06 277 14:20 05.07.2020
479 Clouds 2 1018 93 10000 1.06 277 13:41 05.07.2020
480 Clouds 2 1018 93 10000 1.03 286 13:23 05.07.2020
481 Clouds 2 1017 100 10000 1.03 286 12:46 05.07.2020
482 Clouds 2 1017 100 10000 0.83 284 12:22 05.07.2020
483 Rain 2 1017 100 10000 0.83 284 11:57 05.07.2020
484 Rain 2 1017 100 10000 0.83 284 11:38 05.07.2020
485 Rain 2 1017 100 10000 0.83 284 11:38 05.07.2020
486 Rain 2 1017 100 10000 0.84 290 11:19 05.07.2020
487 Rain 2 1017 93 10000 0.84 290 10:55 05.07.2020
488 Rain 2 1017 93 10000 0.84 290 10:37 05.07.2020
489 Rain 2 1017 93 10000 0.75 299 10:18 05.07.2020
490 Rain 2 1017 93 10000 0.75 299 09:41 05.07.2020
491 Rain 2 1017 93 10000 0.73 346 09:20 05.07.2020
492 Rain 2 1016 93 10000 0.5 341 08:57 05.07.2020
493 Rain 2 1016 93 10000 0.5 341 08:38 05.07.2020
494 Rain 2 1016 93 10000 0.74 5 08:18 05.07.2020
495 Rain 2 1016 100 6000 0.74 5 07:39 05.07.2020
496 Rain 2 1016 100 6000 1.18 22 07:21 05.07.2020
497 Rain 2 1016 100 10000 1.18 22 06:30 05.07.2020
498 Clouds 2 1015 100 10000 1.33 44 04:24 05.07.2020
499 Clouds 2 1013 100 10000 1.31 45 02:59 05.07.2020
500 Clouds 2 1013 100 10000 1.31 45 02:37 05.07.2020
501 Rain 2 1013 100 10000 1.34 59 01:44 05.07.2020
502 Rain 2 1013 100 10000 1.34 57 01:26 05.07.2020
503 Rain 3 1012 93 10000 1.5 150 00:51 05.07.2020
504 Rain 3 1012 93 10000 1.5 150 00:30 05.07.2020
505 Rain 3 1011 93 10000 2.6 110 23:56 04.07.2020
506 Rain 3 1011 93 10000 2.6 110 23:32 04.07.2020
507 Rain 3 1010 93 10000 4.1 120 22:59 04.07.2020
508 Rain 3 1010 93 10000 4.1 120 22:40 04.07.2020
509 Rain 3 1010 93 10000 4.1 120 22:22 04.07.2020
510 Rain 4 1010 86 10000 3.6 120 21:58 04.07.2020
511 Rain 4 1010 86 10000 3.6 120 21:39 04.07.2020
512 Rain 4 1010 86 10000 3.6 120 21:20 04.07.2020
513 Rain 4 1010 86 10000 4.6 120 20:42 04.07.2020
514 Rain 4 1010 86 10000 4.6 120 20:21 04.07.2020
515 Clouds 3 1009 93 10000 6.2 120 19:56 04.07.2020
516 Clouds 3 1009 93 10000 6.2 120 19:37 04.07.2020
517 Clouds 3 1009 93 10000 6.2 120 19:19 04.07.2020
518 Snow 0 1009 84 3800 3.1 50 18:43 04.07.2020
519 Snow 0 1009 86 3800 3.1 50 18:22 04.07.2020
520 Snow 0 1009 86 3800 3.1 50 17:45 04.07.2020
521 Snow 0 1009 89 3800 3.1 50 17:26 04.07.2020
522 Rain 3 1009 86 10000 4.6 110 16:59 04.07.2020
523 Rain 3 1009 86 10000 4.6 110 16:59 04.07.2020
524 Rain 3 1009 86 10000 4.6 110 16:39 04.07.2020
525 Rain 3 1009 86 10000 4.6 110 16:21 04.07.2020
526 Clouds 2 1009 93 10000 3.6 110 15:56 04.07.2020
527 Clouds 2 1009 93 10000 3.6 110 15:37 04.07.2020
528 Clouds 2 1009 93 10000 3.6 110 15:19 04.07.2020
529 Clouds 3 1009 86 10000 3.1 100 14:38 04.07.2020
530 Snow 3 1009 86 10000 3.1 100 14:20 04.07.2020
531 Rain 3 1008 93 10000 3.1 120 13:59 04.07.2020
532 Rain 3 1008 93 10000 3.1 120 13:41 04.07.2020
533 Rain 3 1008 93 10000 3.1 120 13:18 04.07.2020
534 Rain 3 1008 93 10000 2.6 110 12:43 04.07.2020
535 Rain 3 1008 93 10000 2.6 110 12:21 04.07.2020
536 Clouds 3 1008 93 10000 3.6 120 11:56 04.07.2020
537 Clouds 3 1008 93 10000 3.6 120 11:38 04.07.2020
538 Snow 3 1008 93 10000 3.6 120 11:19 04.07.2020
539 Snow 3 1008 93 10000 1.5 290 10:42 04.07.2020
540 Clouds 3 1008 93 10000 1.5 290 10:22 04.07.2020
541 Rain 3 1008 93 10000 0.9 8 09:59 04.07.2020
542 Rain 3 1008 93 10000 0.35 11 09:37 04.07.2020
543 Rain 3 1008 93 10000 1.01 341 09:19 04.07.2020
544 Snow 2 1008 100 10000 1 0 08:47 04.07.2020
545 Clouds 2 1008 100 10000 1 0 08:28 04.07.2020
546 Rain 2 1008 100 10000 1.23 92 07:49 04.07.2020
547 Rain 2 1008 100 10000 1.23 92 07:31 04.07.2020
548 Snow 2 1008 100 10000 0.59 153 06:55 04.07.2020
549 Snow 2 1008 100 10000 0.24 350 06:23 04.07.2020
550 Snow 2 1008 100 10000 0.5 0 05:36 04.07.2020
551 Snow 3 1007 100 10000 1.5 0 04:44 04.07.2020
552 Snow 3 1007 93 10000 0.78 100 03:18 04.07.2020
553 Clouds 3 1006 93 10000 0.03 169 02:23 04.07.2020
554 Clouds 3 1005 93 10000 0.03 169 01:31 04.07.2020
555 Clouds 3 1005 100 10000 1 0 00:42 04.07.2020
556 Clouds 3 1005 100 10000 1 0 00:22 04.07.2020
557 Clouds 4 1005 93 10000 1.5 300 23:40 03.07.2020
558 Clouds 4 1005 93 10000 1.5 300 23:19 03.07.2020
559 Clouds 5 1005 86 10000 1.5 290 22:55 03.07.2020
560 Clouds 5 1005 86 10000 1.5 290 22:37 03.07.2020
561 Clouds 5 1005 86 10000 1.5 290 22:19 03.07.2020
562 Clouds 5 1005 86 8000 1.5 100 21:41 03.07.2020
563 Clouds 5 1005 86 8000 1.5 100 21:20 03.07.2020
564 Clouds 4 1006 93 7000 1.5 280 20:55 03.07.2020
565 Clouds 4 1006 93 7000 1.5 280 20:37 03.07.2020
566 Clouds 4 1006 93 7000 1.5 280 20:18 03.07.2020
567 Fog 3 1007 93 900 2.6 310 19:41 03.07.2020
568 Fog 3 1007 93 900 2.6 310 19:19 03.07.2020
569 Fog 2 1008 100 900 0.5 0 18:54 03.07.2020
570 Fog 2 1008 100 900 0.5 0 18:36 03.07.2020
571 Fog 2 1008 100 900 0.5 0 18:18 03.07.2020
572 Fog 2 1008 100 400 1 0 17:41 03.07.2020
573 Fog 2 1008 100 400 1 0 17:21 03.07.2020
574 Mist 2 1008 93 3000 2.1 290 16:41 03.07.2020
575 Fog 2 1008 93 3000 2.1 290 16:41 03.07.2020
576 Fog 2 1008 93 3000 2.1 290 16:41 03.07.2020
577 Mist 2 1008 93 3000 2.1 290 16:23 03.07.2020
578 Fog 2 1008 100 10000 1 270 15:47 03.07.2020
579 Fog 2 1008 100 10000 1 270 15:25 03.07.2020
580 Clouds 2 1008 100 10000 0.81 302 14:58 03.07.2020
581 Clouds 2 1008 100 10000 0.81 302 14:39 03.07.2020
582 Clouds 2 1008 100 10000 1.32 321 14:21 03.07.2020
583 Clouds 2 1008 100 10000 1.5 320 13:47 03.07.2020
584 Rain 2 1008 100 10000 1.5 320 13:29 03.07.2020
585 Rain 2 1008 100 10000 2.6 280 12:57 03.07.2020
586 Rain 2 1008 100 10000 2.6 280 12:38 03.07.2020
587 Snow 2 1008 100 10000 2.6 280 12:19 03.07.2020
588 Rain 3 1008 93 10000 2.1 280 11:42 03.07.2020
589 Rain 3 1008 93 10000 2.1 280 11:23 03.07.2020
590 Rain 3 1009 93 10000 2.1 270 10:58 03.07.2020
591 Rain 3 1009 93 10000 2.1 270 10:39 03.07.2020
592 Rain 3 1009 93 10000 2.1 270 10:20 03.07.2020
593 Rain 3 1009 100 10000 1.5 310 09:54 03.07.2020
594 Rain 3 1009 100 10000 1.5 310 09:36 03.07.2020
595 Rain 3 1009 100 10000 1.5 310 09:18 03.07.2020
596 Rain 3 1009 100 10000 1.5 340 08:39 03.07.2020
597 Rain 3 1009 100 10000 1.5 340 08:18 03.07.2020
598 Rain 3 1010 100 10000 1.5 340 07:48 03.07.2020
599 Rain 3 1010 100 10000 1.5 340 07:26 03.07.2020
600 Rain 4 1010 93 10000 1.5 280 06:49 03.07.2020
601 Rain 4 1010 93 10000 1.5 280 06:18 03.07.2020
602 Rain 5 1010 93 10000 2.6 280 04:48 03.07.2020
603 Rain 5 1011 93 10000 2.1 290 03:26 03.07.2020
604 Rain 5 1011 93 10000 3.1 290 02:45 03.07.2020
605 Rain 5 1011 93 10000 3.1 290 02:23 03.07.2020
606 Rain 5 1012 93 10000 2.6 300 01:27 03.07.2020
607 Rain 5 1013 100 10000 2.6 300 00:44 03.07.2020
608 Rain 5 1013 100 10000 2.6 300 00:21 03.07.2020
609 Rain 6 1014 93 10000 3.1 290 23:43 02.07.2020
610 Rain 6 1014 93 10000 3.1 290 23:20 02.07.2020
611 Rain 6 1014 93 9000 3.1 290 22:57 02.07.2020
612 Rain 6 1014 93 9000 3.1 290 22:39 02.07.2020
613 Rain 6 1014 93 9000 3.1 290 22:20 02.07.2020
614 Rain 6 1014 93 9000 3.1 290 22:20 02.07.2020
615 Rain 7 1014 87 10000 3.1 280 21:54 02.07.2020
616 Rain 7 1014 87 10000 3.1 280 21:36 02.07.2020
617 Rain 7 1014 87 10000 3.1 280 21:18 02.07.2020
618 Rain 7 1015 81 10000 2.1 0 20:42 02.07.2020
619 Rain 7 1015 81 10000 2.1 0 20:20 02.07.2020
620 Rain 8 1015 87 10000 3.1 310 19:56 02.07.2020
621 Rain 8 1015 87 10000 3.1 310 19:38 02.07.2020
622 Rain 8 1015 87 10000 3.1 310 19:20 02.07.2020
623 Rain 7 1016 87 10000 1.5 0 18:56 02.07.2020
624 Rain 7 1016 87 10000 1.5 0 18:37 02.07.2020
625 Rain 7 1016 87 10000 1.5 0 18:19 02.07.2020
626 Rain 6 1016 93 8000 2.6 280 17:39 02.07.2020
627 Rain 6 1016 93 8000 2.6 280 17:20 02.07.2020
628 Rain 6 1016 93 8000 2.6 280 16:56 02.07.2020
629 Rain 6 1016 93 8000 2.6 280 16:37 02.07.2020
630 Rain 6 1016 93 8000 2.6 280 16:19 02.07.2020
631 Rain 5 1015 100 10000 1 0 15:39 02.07.2020
632 Rain 5 1015 100 10000 1 0 15:21 02.07.2020
633 Rain 4 1014 100 10000 2.6 280 14:47 02.07.2020
634 Rain 4 1014 100 10000 2.6 280 14:29 02.07.2020
635 Rain 4 1014 100 10000 2.6 290 13:58 02.07.2020
636 Rain 4 1014 100 10000 2.6 290 13:58 02.07.2020
637 Rain 4 1014 100 10000 2.6 290 13:40 02.07.2020
638 Rain 4 1014 100 10000 2.6 290 13:21 02.07.2020
639 Rain 4 1014 100 10000 3.1 280 12:59 02.07.2020
640 Rain 4 1014 100 10000 3.1 280 12:39 02.07.2020
641 Rain 4 1014 100 10000 3.1 280 12:21 02.07.2020
642 Rain 3 1014 100 10000 2.1 280 11:44 02.07.2020
643 Rain 3 1014 100 10000 2.1 280 11:26 02.07.2020
644 Rain 3 1015 100 10000 1.5 340 10:48 02.07.2020
645 Rain 3 1015 100 10000 1.5 340 10:28 02.07.2020
646 Rain 3 1015 100 10000 1.5 340 10:28 02.07.2020
647 Rain 3 1015 100 10000 1.5 340 10:28 02.07.2020
648 Rain 3 1015 100 2900 2.94 324 09:59 02.07.2020
649 Rain 3 1015 100 2900 2.94 324 09:40 02.07.2020
650 Rain 3 1015 100 2900 2.45 338 09:20 02.07.2020
651 Rain 3 1014 100 10000 1 0 08:55 02.07.2020
652 Rain 3 1014 100 10000 1 0 08:37 02.07.2020
653 Rain 3 1014 100 10000 1 0 08:18 02.07.2020
654 Rain 3 1015 100 10000 2.1 120 07:40 02.07.2020
655 Rain 3 1015 100 10000 2.1 120 07:19 02.07.2020
656 Rain 3 1015 100 10000 2.1 130 06:40 02.07.2020
657 Rain 3 1015 100 10000 2.1 130 06:20 02.07.2020
658 Rain 3 1015 100 10000 3.1 130 05:44 02.07.2020
659 Rain 3 1015 100 10000 2.34 335 03:57 02.07.2020
660 Rain 3 1015 100 10000 2.34 335 03:31 02.07.2020
661 Rain 4 1015 93 10000 0.5 0 00:54 02.07.2020
662 Rain 4 1015 93 10000 0.5 0 00:25 02.07.2020
663 Rain 5 1014 86 10000 2.1 110 23:48 01.07.2020
664 Rain 5 1014 86 10000 2.1 110 23:30 01.07.2020
665 Rain 5 1015 86 10000 2.1 120 22:57 01.07.2020
666 Rain 5 1015 86 10000 2.1 120 22:38 01.07.2020
667 Rain 5 1015 86 10000 2.1 120 22:19 01.07.2020
668 Clouds 5 1014 86 10000 3.6 120 21:58 01.07.2020
669 Clouds 5 1014 86 10000 3.6 120 21:40 01.07.2020
670 Clouds 5 1014 86 10000 3.6 120 21:21 01.07.2020
671 Clouds 5 1014 86 10000 3.6 120 21:21 01.07.2020
672 Clouds 5 1014 86 10000 3.1 120 20:55 01.07.2020
673 Clouds 5 1014 86 10000 3.1 120 20:55 01.07.2020
674 Clouds 5 1014 86 10000 3.1 120 20:36 01.07.2020
675 Clouds 5 1014 86 10000 3.1 120 20:18 01.07.2020
676 Clouds 5 1015 80 10000 3.6 120 19:42 01.07.2020
677 Clouds 5 1015 80 10000 3.6 120 19:24 01.07.2020
678 Clouds 4 1016 86 10000 1.5 110 18:59 01.07.2020
679 Clouds 4 1016 86 10000 1.5 110 18:40 01.07.2020
680 Clouds 4 1016 86 10000 1.5 110 18:21 01.07.2020
681 Clouds 4 1016 86 10000 2.1 100 17:55 01.07.2020
682 Clouds 4 1016 86 10000 2.1 100 17:37 01.07.2020
683 Clouds 4 1016 86 10000 2.1 100 17:18 01.07.2020
684 Clouds 2 1015 100 10000 1.25 307 16:42 01.07.2020
685 Clouds 2 1015 100 10000 1.15 345 16:24 01.07.2020
686 Clouds 2 1015 93 10000 1.5 280 15:43 01.07.2020
687 Clouds 2 1015 93 10000 1.5 280 15:25 01.07.2020
688 Clouds 2 1015 93 10000 0.5 0 14:58 01.07.2020
689 Clouds 2 1015 93 10000 0.5 0 14:39 01.07.2020
690 Clouds 2 1015 93 10000 0.5 0 14:20 01.07.2020
691 Rain 2 1015 93 10000 2.1 270 13:55 01.07.2020
692 Rain 2 1015 93 10000 2.1 270 13:36 01.07.2020
693 Rain 2 1015 93 10000 2.1 270 13:18 01.07.2020
694 Rain 2 1014 93 10000 0.5 0 12:41 01.07.2020
695 Rain 2 1014 93 10000 0.5 0 12:23 01.07.2020
696 Rain 2 1014 93 10000 1.5 0 11:58 01.07.2020
697 Rain 2 1014 93 10000 1.5 0 11:40 01.07.2020
698 Rain 2 1014 93 10000 1.5 0 11:21 01.07.2020
699 Rain 2 1015 93 10000 3.1 120 10:43 01.07.2020
700 Rain 2 1015 93 10000 3.1 120 10:24 01.07.2020
701 Rain 2 1015 93 10000 4.1 110 09:59 01.07.2020
702 Rain 2 1015 93 10000 4.1 110 09:59 01.07.2020
703 Rain 2 1015 93 10000 4.1 110 09:38 01.07.2020
704 Rain 2 1015 93 10000 4.1 110 09:20 01.07.2020
705 Rain 3 1015 86 10000 7.2 130 08:57 01.07.2020
706 Rain 3 1015 86 10000 7.2 130 08:38 01.07.2020
707 Rain 3 1015 86 10000 7.2 130 08:19 01.07.2020
708 Rain 3 1015 86 10000 7.2 130 08:19 01.07.2020
709 Clouds 3 1016 86 10000 6.2 120 07:40 01.07.2020
710 Snow 3 1016 86 10000 6.2 120 07:21 01.07.2020
711 Snow 3 1016 86 10000 6.2 120 07:21 01.07.2020
712 Rain 3 1017 86 10000 3.6 110 06:50 01.07.2020
713 Rain 3 1017 86 10000 3.6 110 06:28 01.07.2020
714 Rain 3 1018 86 10000 3.1 90 05:28 01.07.2020
715 Clouds 3 1019 86 10000 3.1 260 03:48 01.07.2020
716 Clouds 3 1019 86 10000 3.1 260 03:28 01.07.2020
717 Rain 4 1019 80 10000 2.6 120 02:41 01.07.2020
718 Clouds 5 1019 65 10000 5.7 120 01:49 01.07.2020
719 Clouds 5 1019 90 10000 4.6 120 00:45 01.07.2020
720 Clouds 5 1019 87 10000 4.6 120 00:25 01.07.2020
721 Clouds 5 1020 87 10000 3.1 90 23:42 30.06.2020
722 Clouds 5 1020 85 10000 3.1 90 23:23 30.06.2020
723 Clouds 2 1022 85 0 1.67 71 22:59 30.06.2020
724 Clouds 2 1022 85 0 1.67 71 22:40 30.06.2020
725 Clouds 3 1022 86 0 1.14 48 22:18 30.06.2020
726 Clouds 3 1022 86 0 1.14 48 21:41 30.06.2020
727 Clouds 5 1021 85 10000 4.1 120 21:19 30.06.2020
728 Clouds 5 1021 85 10000 4.1 120 20:54 30.06.2020
729 Clouds 5 1021 85 10000 4.1 120 20:36 30.06.2020
730 Clouds 5 1021 85 10000 4.1 120 20:18 30.06.2020
731 Clouds 6 1022 60 10000 4.1 100 19:41 30.06.2020
732 Clouds 6 1022 60 10000 4.1 100 19:19 30.06.2020
733 Clouds 5 1023 75 10000 1.5 300 18:43 30.06.2020
734 Clouds 5 1023 75 10000 1.5 300 18:21 30.06.2020
735 Clouds 2 1023 93 10000 1 0 17:59 30.06.2020
736 Clouds 2 1023 93 10000 1 0 17:37 30.06.2020
737 Clouds 2 1023 93 10000 1 0 17:18 30.06.2020
738 Clouds 3 1023 86 10000 1 0 16:43 30.06.2020
739 Clouds 3 1023 86 10000 1 0 16:23 30.06.2020
740 Clouds 1 1023 100 10000 0.68 34 15:57 30.06.2020
741 Clouds 1 1023 100 10000 0.68 34 15:39 30.06.2020
742 Clouds 1 1023 100 10000 0.69 11 15:21 30.06.2020
743 Clouds 2 1023 93 10000 0.69 11 14:47 30.06.2020
744 Clouds 2 1023 93 10000 0.54 16 14:23 30.06.2020
745 Clouds 2 1023 93 10000 0.62 36 13:59 30.06.2020
746 Clouds 2 1023 93 10000 0.62 36 13:39 30.06.2020
747 Clouds 2 1023 93 10000 0.37 17 13:20 30.06.2020
748 Clouds 2 1022 93 10000 1.5 290 12:57 30.06.2020
749 Clouds 2 1022 93 10000 1.5 290 12:39 30.06.2020
750 Clouds 2 1022 93 10000 1.5 290 12:20 30.06.2020
751 Clouds 3 1022 94 10000 0.5 0 11:57 30.06.2020
752 Clouds 3 1022 94 10000 0.5 0 11:38 30.06.2020
753 Clouds 3 1022 93 10000 0.5 0 11:18 30.06.2020
754 Clouds 3 1022 93 10000 0.24 279 10:54 30.06.2020
755 Snow 3 1016 69 10000 2.6 0 16:38 28.06.2020
756 Snow 3 1016 69 10000 2.6 0 16:18 28.06.2020
757 Snow 2 1016 74 10000 3.6 0 15:54 28.06.2020
758 Snow 2 1016 74 10000 3.6 0 15:36 28.06.2020
759 Snow 2 1016 74 10000 3.6 0 15:18 28.06.2020
760 Snow 2 1016 80 10000 6.2 0 14:41 28.06.2020
761 Snow 2 1016 80 10000 6.2 0 14:23 28.06.2020
762 Snow 2 1016 80 10000 7.2 0 13:40 28.06.2020
763 Snow 2 1016 80 10000 7.2 0 13:21 28.06.2020
764 Snow 3 1016 74 10000 3.1 0 12:58 28.06.2020
765 Snow 3 1016 74 10000 3.1 0 12:38 28.06.2020
766 Snow 3 1016 74 10000 3.1 0 12:19 28.06.2020
767 Snow 4 1016 64 10000 6.2 130 11:59 28.06.2020
768 Snow 4 1016 64 10000 6.2 130 11:40 28.06.2020
769 Snow 4 1016 64 10000 6.2 130 11:20 28.06.2020
770 Snow 3 1017 69 10000 3.1 0 10:58 28.06.2020
771 Snow 3 1017 69 10000 3.1 0 10:40 28.06.2020
772 Snow 3 1017 69 10000 3.1 0 10:21 28.06.2020
773 Snow 3 1017 69 10000 3.1 0 10:21 28.06.2020
774 Snow 3 1018 74 10000 6.2 0 09:41 28.06.2020
775 Snow 3 1018 74 10000 6.2 0 09:22 28.06.2020
776 Snow 3 1018 74 10000 4.1 0 08:55 28.06.2020
777 Snow 3 1018 74 10000 4.1 0 08:35 28.06.2020
778 Rain 3 1018 74 10000 3.1 0 07:55 28.06.2020
779 Rain 3 1018 74 10000 3.1 0 07:31 28.06.2020
780 Rain 4 1019 69 10000 4.1 0 06:55 28.06.2020
781 Rain 4 1019 69 10000 4.1 0 06:32 28.06.2020
782 Clouds 3 1019 74 10000 3.6 0 05:30 28.06.2020
783 Clouds 2 1019 80 10000 5.7 120 03:52 28.06.2020
784 Clouds 2 1020 80 10000 5.1 120 02:51 28.06.2020
785 Clouds 2 1020 80 10000 5.1 120 02:19 28.06.2020
786 Clouds 2 1020 80 10000 2.6 110 01:27 28.06.2020
787 Clouds 2 1020 80 10000 4.1 120 00:51 28.06.2020
788 Clouds 2 1020 80 10000 4.1 120 00:27 28.06.2020
789 Clouds 2 1020 80 10000 4.6 120 23:43 27.06.2020
790 Clouds 2 1020 80 10000 4.6 120 23:24 27.06.2020
791 Clouds 3 1020 69 10000 5.1 110 22:59 27.06.2020
792 Clouds 3 1020 69 10000 5.1 110 22:40 27.06.2020
793 Clouds 3 1020 69 10000 5.1 110 22:40 27.06.2020
794 Clouds 3 1020 69 10000 5.1 110 22:22 27.06.2020
795 Clouds 2 1020 80 10000 5.1 120 21:56 27.06.2020
796 Clouds 2 1020 80 10000 5.1 120 21:38 27.06.2020
797 Clouds 2 1020 80 10000 5.1 120 21:19 27.06.2020
798 Snow -2 1019 100 1500 3.6 50 20:44 27.06.2020
799 Snow -2 1019 100 1500 3.6 50 20:19 27.06.2020
800 Snow -2 1019 100 1500 3.6 50 19:56 27.06.2020
801 Snow -2 1019 100 2500 3.6 50 19:37 27.06.2020
802 Snow -2 1020 92 1400 3.1 70 19:18 27.06.2020
803 Snow -2 1020 92 1800 2.6 70 18:46 27.06.2020
804 Snow -2 1020 92 1800 2.6 70 18:28 27.06.2020
805 Snow -3 1020 92 2500 3.1 50 17:57 27.06.2020
806 Snow -3 1020 92 2500 3.1 50 17:38 27.06.2020
807 Snow -3 1020 92 2500 3.1 50 17:19 27.06.2020
808 Snow -3 1020 92 2500 3.1 50 16:46 27.06.2020
809 Clouds 0 1022 93 10000 4.1 120 16:27 27.06.2020
810 Snow -4 1020 92 10000 3.1 50 15:55 27.06.2020
811 Snow -4 1020 92 10000 3.1 50 15:55 27.06.2020
812 Snow -4 1020 92 10000 3.1 50 15:37 27.06.2020
813 Snow -4 1020 92 10000 3.1 50 15:18 27.06.2020
814 Clouds 0 1022 94 10000 4.6 120 14:42 27.06.2020
815 Clouds 0 1022 94 10000 4.6 120 14:24 27.06.2020
816 Clouds 1 1022 74 10000 5.1 120 13:57 27.06.2020
817 Clouds 1 1022 74 10000 5.1 120 13:37 27.06.2020
818 Clouds 1 1022 74 10000 5.1 120 13:19 27.06.2020
819 Clouds 1 1022 74 10000 5.1 120 13:19 27.06.2020
820 Clouds 1 1022 74 10000 5.1 130 12:56 27.06.2020
821 Clouds 1 1022 74 10000 5.1 130 12:37 27.06.2020
822 Clouds 1 1022 74 10000 5.1 130 12:19 27.06.2020
823 Clouds 1 1022 69 10000 5.7 120 11:41 27.06.2020
824 Clouds 1 1022 69 10000 5.7 120 11:23 27.06.2020
825 Clouds 1 1022 69 10000 7.2 120 10:57 27.06.2020
826 Clouds 1 1022 69 10000 7.2 120 10:38 27.06.2020
827 Clouds 1 1022 69 10000 7.2 120 10:18 27.06.2020
828 Clouds 1 1022 69 10000 4.6 110 09:41 27.06.2020
829 Clouds 1 1022 69 10000 4.6 110 09:21 27.06.2020
830 Clouds 1 1023 69 10000 4.1 90 08:46 27.06.2020
831 Clouds 1 1023 69 10000 4.1 90 08:23 27.06.2020
832 Clouds 1 1023 64 10000 4.1 70 07:55 27.06.2020
833 Clouds 1 1023 64 10000 4.1 70 07:37 27.06.2020
834 Clouds 1 1023 64 10000 4.1 70 07:18 27.06.2020
835 Clouds 1 1023 64 10000 3.1 0 06:35 27.06.2020
836 Clouds 1 1023 64 10000 3.6 60 05:33 27.06.2020
837 Snow 2 1023 59 10000 4.1 30 04:19 27.06.2020
838 Snow 2 1023 64 10000 3.1 0 03:51 27.06.2020
839 Clouds 1 1023 69 10000 2.6 0 02:47 27.06.2020
840 Snow 1 1023 69 10000 2.6 0 02:27 27.06.2020
841 Snow 1 1022 69 10000 1.5 0 01:40 27.06.2020
842 Snow 1 1022 69 10000 2.6 80 00:52 27.06.2020
843 Snow 2 1022 64 10000 3.6 0 23:57 26.06.2020
844 Snow 2 1022 64 10000 3.6 0 23:38 26.06.2020
845 Snow 2 1022 64 10000 3.6 0 23:20 26.06.2020
846 Clouds 2 1021 64 10000 4.6 30 22:43 26.06.2020
847 Clouds 2 1021 64 10000 4.6 30 22:24 26.06.2020
848 Clouds 2 1021 64 10000 3.6 0 21:58 26.06.2020
849 Clouds 2 1021 64 10000 3.6 0 21:40 26.06.2020
850 Clouds 2 1021 64 10000 3.6 0 21:40 26.06.2020
851 Clouds 2 1021 64 10000 3.6 0 21:21 26.06.2020
852 Snow 2 1021 64 9000 4.6 40 20:58 26.06.2020
853 Snow 2 1021 64 9000 4.6 40 20:38 26.06.2020
854 Snow -3 1020 92 500 2.1 50 20:18 26.06.2020
855 Snow -3 1020 92 500 2.1 50 19:40 26.06.2020
856 Snow 1 1022 74 6000 4.1 0 19:20 26.06.2020
857 Snow 1 1022 69 9000 4.6 0 18:42 26.06.2020
858 Snow 1 1022 69 9000 4.6 0 18:23 26.06.2020
859 Snow 1 1022 69 4000 4.1 120 17:46 26.06.2020
860 Snow 1 1022 69 4000 4.1 120 17:28 26.06.2020
861 Snow 1 1022 69 7000 4.6 110 16:59 26.06.2020
862 Snow 1 1022 69 7000 4.6 110 16:41 26.06.2020
863 Snow 1 1022 69 7000 4.6 110 16:22 26.06.2020
864 Snow 0 1021 94 4000 5.1 130 15:41 26.06.2020
865 Snow 0 1021 94 4000 5.1 130 15:22 26.06.2020
866 Snow -1 1021 92 8000 6.2 130 14:58 26.06.2020
867 Snow -1 1021 92 8000 6.2 130 14:39 26.06.2020
868 Snow -1 1021 92 8000 6.2 130 14:21 26.06.2020
869 Snow 0 1021 95 9000 5.7 120 13:46 26.06.2020
870 Snow 0 1021 95 9000 5.7 120 13:24 26.06.2020
871 Snow 0 1021 95 10000 6.2 130 12:56 26.06.2020
872 Snow 0 1021 95 10000 6.2 130 12:38 26.06.2020
873 Snow 0 1021 95 10000 6.2 130 12:19 26.06.2020
874 Snow 1 1021 69 10000 5.1 120 11:56 26.06.2020
875 Snow 1 1021 69 10000 5.1 120 11:38 26.06.2020
876 Snow 1 1021 69 10000 5.1 120 11:19 26.06.2020
877 Snow 1 1021 69 10000 5.1 120 10:56 26.06.2020
878 Snow 1 1021 69 10000 5.1 120 10:37 26.06.2020
879 Snow 1 1021 69 10000 5.1 120 10:37 26.06.2020
880 Snow 1 1021 69 10000 5.1 120 10:37 26.06.2020
881 Clouds 1 1021 69 10000 5.1 120 10:18 26.06.2020
882 Clouds 2 1021 64 10000 5.1 120 09:41 26.06.2020
883 Clouds 2 1021 64 10000 5.1 120 09:20 26.06.2020
884 Clouds 2 1021 69 10000 4.6 110 08:46 26.06.2020
885 Clouds 2 1021 69 10000 4.6 110 08:27 26.06.2020
886 Clouds 2 1021 69 10000 4.1 110 07:48 26.06.2020
887 Clouds 2 1021 69 10000 4.1 110 07:23 26.06.2020
888 Clouds 2 1021 74 10000 4.1 100 06:52 26.06.2020
889 Clouds 2 1021 74 10000 4.1 100 06:30 26.06.2020
890 Clouds 2 1021 80 10000 6.2 120 05:53 26.06.2020
891 Clouds 2 1021 80 10000 6.2 120 05:21 26.06.2020
892 Snow 2 1020 93 10000 5.7 120 02:32 26.06.2020
893 Snow 3 1020 93 10000 2.6 110 01:35 26.06.2020
894 Snow 3 1020 93 10000 2.1 110 00:50 26.06.2020
895 Snow 3 1020 93 10000 2.1 110 00:30 26.06.2020
896 Clouds 4 1020 86 10000 2.1 120 23:47 25.06.2020
897 Clouds 4 1020 86 10000 2.1 120 23:22 25.06.2020
898 Clouds 4 1020 86 10000 2.1 120 23:22 25.06.2020
899 Rain 4 1019 86 10000 1.5 130 22:58 25.06.2020
900 Rain 4 1019 86 10000 1.5 130 22:39 25.06.2020
901 Haze 4 1019 86 10000 1.5 130 22:20 25.06.2020
902 Rain 4 1019 86 10000 1.5 110 21:57 25.06.2020
903 Rain 4 1019 86 10000 1.5 110 21:39 25.06.2020
904 Rain 4 1019 86 10000 1.5 110 21:20 25.06.2020
905 Clouds 4 1019 86 10000 0.79 92 20:56 25.06.2020
906 Clouds 4 1019 86 10000 0.79 92 20:37 25.06.2020
907 Clouds 4 1019 86 10000 1 177 20:19 25.06.2020
908 Fog 4 1020 93 10000 1 0 19:41 25.06.2020
909 Fog 4 1020 93 10000 1 0 19:20 25.06.2020
910 Clouds 2 1021 84 0 0.88 219 18:58 25.06.2020
911 Clouds 2 1021 84 0 0.88 219 18:38 25.06.2020
912 Clouds 2 1021 85 0 0.82 271 18:19 25.06.2020
913 Clouds 2 1021 85 0 0.82 271 17:44 25.06.2020
914 Snow 1 1020 100 3000 2.1 270 17:20 25.06.2020
915 Snow 1 1020 100 3000 2.1 270 17:20 25.06.2020
916 Snow 1 1020 100 3000 2.1 270 16:58 25.06.2020
917 Snow 1 1020 100 3000 2.1 270 16:37 25.06.2020
918 Snow 1 1020 100 3000 2.1 270 16:18 25.06.2020
919 Fog 1 1019 100 7000 1.5 290 15:41 25.06.2020
920 Fog 1 1019 100 7000 1.5 290 15:22 25.06.2020
921 Rain 2 1019 93 10000 0.5 0 14:44 25.06.2020
922 Rain 2 1019 93 10000 0.5 0 14:25 25.06.2020
923 Rain 1 1018 100 10000 1.5 300 13:57 25.06.2020
924 Rain 1 1018 100 10000 1.5 300 13:38 25.06.2020
925 Rain 1 1018 100 10000 1.5 300 13:19 25.06.2020
926 Rain 1 1017 100 10000 1 0 12:45 25.06.2020
927 Rain 1 1017 100 10000 1 0 12:21 25.06.2020
928 Rain 1 1017 100 10000 1.5 280 11:58 25.06.2020
929 Rain 1 1017 100 10000 1.5 280 11:38 25.06.2020
930 Rain 1 1017 100 10000 1.5 280 11:20 25.06.2020
931 Rain 2 1017 93 10000 2.6 270 10:42 25.06.2020
932 Rain 2 1017 93 10000 2.6 270 10:23 25.06.2020
933 Clouds 1 1017 94 10000 2.1 290 09:41 25.06.2020
934 Clouds 1 1017 94 10000 2.1 290 09:23 25.06.2020
935 Clouds 1 1017 94 8000 1 0 08:47 25.06.2020
936 Clouds 1 1017 94 8000 1 0 08:21 25.06.2020
937 Clouds 0 1017 94 10000 2.1 290 07:56 25.06.2020
938 Clouds 0 1017 94 10000 2.1 290 07:38 25.06.2020
939 Clouds 0 1017 94 10000 2.1 290 07:19 25.06.2020
940 Clouds 1 1017 100 8000 3.1 290 06:28 25.06.2020
941 Clouds 2 1017 93 10000 2.1 0 05:53 25.06.2020
942 Clouds 2 1016 93 10000 3.1 280 04:56 25.06.2020
943 Clouds 2 1016 93 10000 2.6 280 03:35 25.06.2020
944 Clouds 3 1015 86 10000 2.1 280 02:44 25.06.2020
945 Clouds 3 1015 86 10000 2.1 280 02:18 25.06.2020
946 Clouds 4 1015 80 10000 2.6 290 01:29 25.06.2020
947 Rain 4 1014 86 10000 1.5 0 00:47 25.06.2020
948 Rain 4 1014 86 10000 1.5 0 00:22 25.06.2020
949 Clouds 5 1014 80 10000 1.5 0 23:45 24.06.2020
950 Clouds 5 1014 80 10000 1.5 0 23:26 24.06.2020
951 Clouds 5 1013 86 10000 3.1 310 22:59 24.06.2020
952 Clouds 5 1013 86 10000 3.1 310 22:59 24.06.2020
953 Clouds 5 1013 86 10000 3.1 310 22:41 24.06.2020
954 Clouds 5 1013 86 10000 3.1 310 22:20 24.06.2020
955 Rain 5 1013 86 10000 2.6 330 21:56 24.06.2020
956 Rain 5 1013 86 10000 2.6 330 21:37 24.06.2020
957 Rain 5 1013 86 10000 2.6 330 21:18 24.06.2020
958 Rain 4 1013 86 10000 2.6 310 20:58 24.06.2020
959 Rain 4 1013 86 10000 2.6 310 20:39 24.06.2020
960 Rain 4 1013 86 10000 2.6 310 20:20 24.06.2020
961 Clouds 4 1014 86 10000 1 0 19:57 24.06.2020
962 Clouds 4 1014 86 10000 1 0 19:36 24.06.2020
963 Clouds 4 1014 86 10000 1 0 19:18 24.06.2020
964 Clouds 3 1015 86 10000 0.5 0 18:57 24.06.2020
965 Clouds 3 1015 86 10000 0.5 0 18:38 24.06.2020
966 Clouds 3 1015 86 10000 0.5 0 18:19 24.06.2020
967 Mist 2 1015 93 10000 1.82 288 17:43 24.06.2020
968 Mist 2 1015 93 10000 1.86 293 17:21 24.06.2020
969 Mist 1 1014 100 10000 1 120 16:58 24.06.2020
970 Mist 1 1014 100 10000 1 120 16:40 24.06.2020
971 Mist 1 1014 100 10000 1 120 16:21 24.06.2020
972 Mist 1 1014 100 10000 1.78 293 15:58 24.06.2020
973 Mist 1 1014 100 10000 1.78 293 15:39 24.06.2020
974 Mist 1 1014 100 10000 1.78 293 15:39 24.06.2020
975 Mist 1 1014 100 10000 1.63 289 15:20 24.06.2020
976 Mist 1 1014 100 10000 1.63 289 15:20 24.06.2020
977 Clear 1 1014 100 10000 1.63 289 14:54 24.06.2020
978 Clear 1 1014 100 10000 1.63 289 14:36 24.06.2020
979 Clouds 1 1014 100 10000 1.56 288 14:18 24.06.2020
980 Clouds 1 1013 100 10000 1.4 277 13:41 24.06.2020
981 Clouds 1 1013 100 10000 1.35 275 13:19 24.06.2020
982 Clouds -2 1015 93 0 1.35 275 12:41 24.06.2020
983 Clouds 1 1013 100 10000 1.33 269 12:20 24.06.2020
984 Clouds 1 1013 100 10000 1.33 269 11:57 24.06.2020
985 Clouds 1 1013 100 10000 1.33 269 11:38 24.06.2020
986 Clouds 1 1013 100 10000 1.33 269 11:38 24.06.2020
987 Clouds 1 1013 100 10000 1.53 266 11:19 24.06.2020
988 Clouds 2 1013 93 10000 1 0 10:43 24.06.2020
989 Clouds 2 1013 93 10000 1 0 10:19 24.06.2020
990 Clouds 2 1013 93 10000 1 0 10:19 24.06.2020
991 Clouds 2 1012 93 10000 1 0 09:44 24.06.2020
992 Clouds 2 1012 93 10000 1 0 09:23 24.06.2020
993 Clouds 2 1012 93 10000 1.5 260 08:45 24.06.2020
994 Clouds 2 1012 93 10000 1.5 260 08:26 24.06.2020
995 Clouds 2 1011 93 10000 1.5 260 07:55 24.06.2020
996 Clouds 2 1011 93 10000 1.5 260 07:37 24.06.2020
997 Clouds 2 1011 93 10000 1.5 260 07:18 24.06.2020
998 Clouds 2 1011 93 10000 1.5 280 06:39 24.06.2020
999 Clouds 2 1011 93 10000 1.5 280 06:21 24.06.2020
1000 Clouds 2 1010 100 9000 1.5 270 05:30 24.06.2020
1001 Mist 2 1009 100 4000 2.1 290 04:36 24.06.2020
1002 Clouds 1 1009 100 6000 1 290 03:35 24.06.2020
1003 Mist 1 1008 100 3400 1 0 02:51 24.06.2020
1004 Clouds 1 1007 100 10000 1.5 300 01:45 24.06.2020
1005 Clouds 1 1007 100 10000 1.5 330 00:48 24.06.2020
1006 Clouds 1 1007 100 10000 1.5 330 00:27 24.06.2020
1007 Clouds 1 1007 100 10000 1.5 330 00:27 24.06.2020
1008 Smoke 2 1006 100 10000 1.5 310 23:46 23.06.2020
1009 Smoke 2 1006 100 10000 1.5 310 23:20 23.06.2020
1010 Clouds 2 1006 100 10000 1 0 22:54 23.06.2020
1011 Clouds 2 1006 100 10000 1 0 22:36 23.06.2020
1012 Clouds 2 1006 100 10000 1 0 22:18 23.06.2020
1013 Smoke 2 1006 93 10000 2.1 350 21:41 23.06.2020
1014 Smoke 2 1006 93 10000 2.1 350 21:20 23.06.2020
1015 Fog 3 1006 93 10000 2.1 310 20:56 23.06.2020
1016 Fog 3 1006 93 10000 2.1 310 20:37 23.06.2020
1017 Fog 3 1006 93 10000 2.1 310 20:18 23.06.2020
1018 Mist 2 1006 100 4000 2.1 310 19:45 23.06.2020
1019 Mist 2 1006 100 4000 2.1 310 19:27 23.06.2020
1020 Rain 1 1006 100 4000 1.5 290 18:42 23.06.2020
1021 Snow 0 1003 86 3000 1.27 274 18:19 23.06.2020
1022 Snow 0 1003 86 3000 1.27 274 17:58 23.06.2020
1023 Snow 0 1003 86 3000 1.27 274 17:39 23.06.2020
1024 Snow 0 1003 87 3000 1.2 261 17:20 23.06.2020
1025 Snow 0 1003 87 3000 1.2 261 17:20 23.06.2020
1026 Snow 0 1003 87 3000 1.2 261 16:55 23.06.2020
1027 Snow 0 1006 87 1200 2.6 300 16:36 23.06.2020
1028 Snow 0 1006 89 1200 2.6 300 16:18 23.06.2020
1029 Clouds 0 1005 89 3000 1.77 297 15:43 23.06.2020
1030 Clouds 0 1005 92 3000 0.98 355 15:24 23.06.2020
1031 Snow 0 1005 92 6000 2.6 290 14:56 23.06.2020
1032 Snow 0 1005 92 6000 2.6 290 14:37 23.06.2020
1033 Snow 0 1005 93 6000 2.6 290 14:18 23.06.2020
1034 Snow 0 1005 93 3700 1 280 13:45 23.06.2020
1035 Snow 0 1005 92 3700 1 280 13:26 23.06.2020
1036 Rain 1 1005 100 10000 1.5 270 12:59 23.06.2020
1037 Rain 1 1005 100 10000 1.5 270 12:39 23.06.2020
1038 Rain 1 1005 100 10000 1.5 270 12:19 23.06.2020
1039 Rain 1 1004 100 10000 1.29 336 11:43 23.06.2020
1040 Rain 1 1004 100 10000 1.24 299 11:23 23.06.2020
1041 Snow 1 1005 95 10000 1.24 299 10:58 23.06.2020
1042 Snow 1 1005 95 10000 1.24 299 10:40 23.06.2020
1043 Snow 1 1005 91 10000 1.66 353 10:22 23.06.2020
1044 Snow 1 1005 91 8000 1.5 280 09:56 23.06.2020
1045 Clouds 1 1005 94 8000 1.5 280 09:38 23.06.2020
1046 Snow 1 1005 89 8000 1.5 280 09:18 23.06.2020
1047 Snow 1 1005 100 9000 2.1 270 08:44 23.06.2020
1048 Snow 1 1005 100 9000 2.1 270 08:25 23.06.2020
1049 Rain 2 1005 100 9000 1.5 310 07:46 23.06.2020
1050 Rain 2 1005 100 9000 1.5 310 07:24 23.06.2020
1051 Rain 2 1005 100 10000 2.38 340 06:52 23.06.2020
1052 Rain 2 1005 100 10000 2.38 340 06:32 23.06.2020
1053 Snow 2 1005 93 10000 1 290 05:48 23.06.2020
1054 Clouds 2 1005 93 10000 1.5 330 04:42 23.06.2020
1055 Rain 3 1005 100 9000 2.85 326 03:20 23.06.2020
1056 Rain 3 1004 93 10000 1 0 02:46 23.06.2020
1057 Rain 3 1004 93 10000 1 0 02:27 23.06.2020
1058 Clouds 3 1004 93 10000 1.5 300 01:44 23.06.2020
1059 Clouds 3 1004 93 10000 1.5 300 01:21 23.06.2020
1060 Rain 4 1004 86 10000 3.1 280 00:38 23.06.2020
1061 Rain 4 1004 86 10000 3.1 280 00:18 23.06.2020
1062 Clouds 5 1004 86 10000 3.6 300 23:39 22.06.2020
1063 Clouds 5 1004 86 10000 3.6 300 23:19 22.06.2020
1064 Rain 4 1004 100 9000 2.6 310 22:58 22.06.2020
1065 Rain 4 1004 100 9000 2.6 310 22:40 22.06.2020
1066 Rain 4 1004 100 9000 2.6 310 22:40 22.06.2020
1067 Rain 4 1004 100 9000 2.6 310 22:20 22.06.2020
1068 Rain 5 1003 86 9000 2.1 360 21:58 22.06.2020
1069 Rain 5 1003 86 9000 2.1 360 21:39 22.06.2020
1070 Rain 5 1003 86 9000 2.1 360 21:21 22.06.2020
1071 Rain 4 1004 93 9000 1 0 20:44 22.06.2020
1072 Rain 4 1004 93 9000 1 0 20:44 22.06.2020
1073 Rain 4 1004 93 9000 1 0 20:26 22.06.2020
1074 Rain 3 1004 93 7000 2.1 310 19:59 22.06.2020
1075 Rain 3 1004 93 7000 2.1 310 19:41 22.06.2020
1076 Rain 3 1004 93 7000 2.1 310 19:19 22.06.2020
1077 Rain 4 1004 86 4000 2.6 0 18:42 22.06.2020
1078 Rain 4 1004 86 4000 2.6 0 18:23 22.06.2020
1079 Rain 5 1002 93 9000 2.1 270 17:57 22.06.2020
1080 Rain 5 1002 93 9000 2.1 270 17:39 22.06.2020
1081 Rain 5 1002 93 9000 2.1 270 17:21 22.06.2020
1082 Rain 4 1002 100 9000 1 0 16:57 22.06.2020
1083 Rain 4 1002 100 9000 1 0 16:38 22.06.2020
1084 Rain 4 1002 100 9000 1 0 16:18 22.06.2020
1085 Clouds 2 1004 84 0 2.51 281 15:44 22.06.2020
1086 Rain 4 1000 93 10000 2.1 270 15:26 22.06.2020
1087 Rain 4 1000 93 10000 2.1 270 14:58 22.06.2020
1088 Rain 4 1000 93 10000 2.1 270 14:38 22.06.2020
1089 Rain 4 1000 93 10000 2.1 270 14:19 22.06.2020
1090 Rain 4 999 93 10000 2.6 280 13:54 22.06.2020
1091 Rain 4 999 93 10000 2.6 280 13:36 22.06.2020
1092 Rain 4 999 93 10000 2.6 280 13:18 22.06.2020
1093 Rain 4 1000 93 10000 1.5 300 12:41 22.06.2020
1094 Rain 4 1000 93 10000 1.5 300 12:22 22.06.2020
1095 Rain 4 1000 93 10000 1.5 270 11:38 22.06.2020
1096 Rain 4 1000 93 10000 1.5 270 11:19 22.06.2020
1097 Rain 4 1001 93 10000 2.1 280 10:57 22.06.2020
1098 Rain 4 1001 93 10000 2.1 280 10:38 22.06.2020
1099 Rain 4 1001 93 10000 2.1 280 10:19 22.06.2020
1100 Clouds 4 1002 93 10000 1 0 09:57 22.06.2020
1101 Clouds 4 1002 93 10000 1 0 09:38 22.06.2020
1102 Clouds 4 1002 93 10000 1 0 09:19 22.06.2020
1103 Clouds 4 1003 93 10000 1 0 08:56 22.06.2020
1104 Clouds 4 1003 93 10000 1 0 08:37 22.06.2020
1105 Clouds 4 1003 93 10000 1 0 08:18 22.06.2020
1106 Clouds 4 1003 93 10000 1 0 08:18 22.06.2020
1107 Rain 4 1004 93 10000 2.47 347 07:46 22.06.2020
1108 Rain 4 1004 93 10000 2.66 353 07:25 22.06.2020
1109 Clouds 4 1005 93 10000 1 0 06:39 22.06.2020
1110 Clouds 4 1005 93 10000 1 0 06:20 22.06.2020
1111 Rain 4 1006 93 10000 1.5 300 05:42 22.06.2020
1112 Clouds 4 1008 93 10000 0.5 0 03:41 22.06.2020
1113 Clouds 5 1009 86 10000 1 0 01:48 22.06.2020
1114 Clouds 6 1010 81 10000 0.5 0 00:54 22.06.2020
1115 Clouds 6 1010 81 10000 0.5 0 00:29 22.06.2020
1116 Clouds 7 1010 75 10000 2.7 356 23:56 21.06.2020
1117 Clouds 7 1010 75 10000 2.7 356 23:37 21.06.2020
1118 Clouds 7 1010 75 10000 2.16 347 23:19 21.06.2020
1119 Clouds 9 1011 57 10000 1 0 22:55 21.06.2020
1120 Clouds 9 1011 57 10000 1 0 22:36 21.06.2020
1121 Clouds 9 1011 57 10000 1 0 22:18 21.06.2020
1122 Clouds 10 1011 53 10000 5.7 270 21:55 21.06.2020
1123 Clouds 10 1011 53 10000 5.7 270 21:37 21.06.2020
1124 Clouds 10 1011 53 10000 5.7 270 21:18 21.06.2020
1125 Clouds 10 1013 53 10000 4.1 290 20:40 21.06.2020
1126 Clouds 10 1013 53 10000 4.1 290 20:40 21.06.2020
1127 Clouds 10 1013 53 10000 4.1 290 20:20 21.06.2020
1128 Clouds 9 1013 66 10000 2.1 330 19:59 21.06.2020
1129 Clouds 9 1013 66 10000 2.1 330 19:40 21.06.2020
1130 Clouds 9 1013 66 10000 2.1 330 19:20 21.06.2020
1131 Clouds 7 1014 75 10000 2.6 350 18:55 21.06.2020
1132 Clouds 7 1014 75 10000 2.6 350 18:37 21.06.2020
1133 Clouds 7 1014 75 10000 2.6 350 18:19 21.06.2020
1134 Clouds 6 1015 81 10000 2.6 290 17:41 21.06.2020
1135 Clouds 6 1015 81 10000 2.6 290 17:21 21.06.2020
1136 Clouds 5 1015 80 10000 2.1 0 16:57 21.06.2020
1137 Clouds 5 1015 80 10000 2.1 0 16:39 21.06.2020
1138 Clouds 5 1015 80 10000 2.1 0 16:20 21.06.2020
1139 Clouds 3 1014 100 10000 2.6 280 15:40 21.06.2020
1140 Clouds 3 1014 100 10000 2.6 280 15:21 21.06.2020
1141 Rain 4 1014 93 10000 0.5 0 14:55 21.06.2020
1142 Rain 4 1014 93 10000 0.5 0 14:37 21.06.2020
1143 Rain 4 1014 93 10000 0.5 0 14:18 21.06.2020
1144 Rain 4 1014 93 10000 2.6 280 13:42 21.06.2020
1145 Rain 4 1014 93 10000 2.6 280 13:23 21.06.2020
1146 Rain 4 1013 86 10000 2.1 320 12:58 21.06.2020
1147 Rain 4 1013 86 10000 2.1 320 12:58 21.06.2020
1148 Rain 4 1013 86 10000 2.1 320 12:58 21.06.2020
1149 Rain 4 1013 86 10000 2.1 320 12:58 21.06.2020
1150 Rain 4 1013 86 10000 2.1 320 12:39 21.06.2020
1151 Rain 4 1013 86 10000 2.1 320 12:21 21.06.2020
1152 Clouds 4 1013 86 10000 3.1 300 11:42 21.06.2020
1153 Clouds 4 1013 86 10000 3.1 300 11:24 21.06.2020
1154 Clouds 5 1013 80 10000 2.1 0 10:58 21.06.2020
1155 Clouds 5 1013 80 10000 2.1 0 10:39 21.06.2020
1156 Clouds 5 1013 80 10000 2.1 0 10:21 21.06.2020
1157 Clouds 4 1012 86 10000 2.6 290 09:44 21.06.2020
1158 Clouds 4 1012 86 10000 2.6 290 09:24 21.06.2020
1159 Clouds 4 1011 86 10000 2.1 310 08:59 21.06.2020
1160 Clouds 4 1011 86 10000 2.1 310 08:41 21.06.2020
1161 Clouds 4 1011 86 10000 2.1 310 08:20 21.06.2020
1162 Rain 3 1011 93 10000 3.6 280 07:58 21.06.2020
1163 Rain 3 1011 93 10000 3.6 280 07:39 21.06.2020
1164 Rain 3 1011 93 10000 3.6 280 07:18 21.06.2020
1165 Clouds 4 1010 86 10000 3.1 0 06:45 21.06.2020
1166 Rain 4 1009 93 10000 3.1 280 05:57 21.06.2020
1167 Rain 3 1008 93 10000 2.6 300 04:45 21.06.2020
1168 Clouds 2 1007 100 10000 2.6 280 03:20 21.06.2020
1169 Clouds 2 1006 100 10000 2.1 280 02:38 21.06.2020
1170 Clouds 2 1005 100 10000 2.6 290 01:47 21.06.2020
1171 Clouds 2 1005 100 10000 2.6 290 01:20 21.06.2020
1172 Clouds 2 1004 100 10000 3.1 280 00:46 21.06.2020
1173 Clouds 2 1004 100 10000 3.1 280 00:26 21.06.2020
1174 Clouds 3 1002 100 10000 2.1 300 23:46 20.06.2020
1175 Clouds 3 1002 100 10000 2.1 300 23:23 20.06.2020
1176 Rain 3 1001 93 10000 1.5 280 22:59 20.06.2020
1177 Rain 3 1001 93 10000 1.5 280 22:41 20.06.2020
1178 Rain 3 1001 93 10000 1.5 280 22:21 20.06.2020
1179 Rain 3 1001 93 10000 3.1 280 21:58 20.06.2020
1180 Rain 3 1001 93 10000 3.1 280 21:40 20.06.2020
1181 Rain 3 1001 93 10000 3.1 280 21:21 20.06.2020
1182 Rain 3 1000 93 10000 4.1 310 20:59 20.06.2020
1183 Rain 3 1000 93 10000 4.1 310 20:41 20.06.2020
1184 Rain 3 1000 93 10000 4.1 310 20:21 20.06.2020
1185 Rain 2 999 100 10000 2.6 270 19:59 20.06.2020
1186 Rain 2 999 100 10000 2.6 270 19:40 20.06.2020
1187 Rain 2 999 100 10000 2.6 270 19:20 20.06.2020
1188 Rain 3 1000 93 10000 2.1 280 18:43 20.06.2020
1189 Rain 3 1000 93 10000 2.1 280 18:21 20.06.2020
1190 Rain 3 1000 93 10000 2.6 280 17:57 20.06.2020
1191 Rain 3 1000 93 10000 2.6 280 17:39 20.06.2020
1192 Rain 3 1000 93 10000 2.6 280 17:39 20.06.2020
1193 Rain 3 1000 93 10000 2.6 280 17:20 20.06.2020
1194 Rain 3 1000 93 10000 2.6 280 17:20 20.06.2020
1195 Rain 3 999 100 8000 1.5 290 16:42 20.06.2020
1196 Rain 3 999 100 8000 1.5 290 16:19 20.06.2020
1197 Rain 3 999 100 10000 2.1 300 15:58 20.06.2020
1198 Rain 3 999 100 10000 2.1 300 15:40 20.06.2020
1199 Rain 3 999 100 10000 2.1 300 15:18 20.06.2020
1200 Rain 3 1000 100 8000 3.01 359 14:43 20.06.2020
1201 Rain 3 1000 100 8000 3.06 358 14:21 20.06.2020
1202 Rain 3 1000 100 10000 1 0 13:42 20.06.2020
1203 Rain 3 1000 100 10000 1 0 13:24 20.06.2020
1204 Rain 4 1000 93 10000 1.5 280 12:57 20.06.2020
1205 Rain 4 1000 93 10000 1.5 280 12:38 20.06.2020
1206 Rain 4 1000 93 10000 1.5 280 12:38 20.06.2020
1207 Rain 4 1000 93 10000 1.5 280 12:19 20.06.2020
1208 Rain 4 1000 93 10000 1.5 280 12:19 20.06.2020
1209 Rain 3 1001 100 10000 1.5 300 11:55 20.06.2020
1210 Rain 3 1001 100 10000 1.5 300 11:36 20.06.2020
1211 Rain 3 1001 100 10000 1.5 300 11:18 20.06.2020
1212 Rain 3 1003 100 10000 2.1 280 10:42 20.06.2020
1213 Rain 3 1003 100 10000 2.1 280 10:20 20.06.2020
1214 Rain 3 1003 100 10000 0.5 0 09:54 20.06.2020
1215 Rain 3 1003 100 10000 0.5 0 09:36 20.06.2020
1216 Rain 3 1003 100 10000 0.5 0 09:18 20.06.2020
1217 Rain 4 1004 93 7000 0.5 0 08:43 20.06.2020
1218 Rain 4 1004 93 7000 0.5 0 08:25 20.06.2020
1219 Rain 4 1005 93 9000 1.5 300 07:51 20.06.2020
1220 Rain 4 1005 93 9000 1.5 300 07:51 20.06.2020
1221 Rain 4 1005 93 9000 1.5 300 07:26 20.06.2020
1222 Rain 4 1006 93 10000 1.5 140 06:49 20.06.2020
1223 Rain 4 1006 93 10000 1.5 140 06:22 20.06.2020
1224 Rain 4 1006 93 10000 1 0 05:48 20.06.2020
1225 Rain 4 1006 93 7000 1 0 04:29 20.06.2020
1226 Rain 5 1007 86 10000 2.6 0 01:58 20.06.2020
1227 Rain 5 1007 86 10000 2.6 0 01:40 20.06.2020
1228 Clouds 4 1007 93 10000 1 0 00:49 20.06.2020
1229 Clouds 4 1007 93 10000 1 0 00:20 20.06.2020
1230 Clouds 5 1007 86 10000 2.1 290 23:46 19.06.2020
1231 Clouds 5 1007 86 10000 2.1 290 23:20 19.06.2020
1232 Rain 5 1007 93 10000 2.6 300 22:56 19.06.2020
1233 Rain 5 1007 93 10000 2.6 300 22:38 19.06.2020
1234 Rain 5 1007 93 10000 2.6 300 22:20 19.06.2020
1235 Rain 5 1007 86 10000 2.6 340 21:55 19.06.2020
1236 Rain 5 1007 86 10000 2.6 340 21:37 19.06.2020
1237 Rain 5 1007 86 10000 2.6 340 21:18 19.06.2020
1238 Rain 5 1007 86 4000 2.1 340 20:56 19.06.2020
1239 Rain 5 1007 86 4000 2.1 340 20:38 19.06.2020
1240 Rain 5 1007 86 4000 2.1 340 20:20 19.06.2020
1241 Rain 5 1006 80 4000 2.1 210 19:54 19.06.2020
1242 Rain 5 1006 80 4000 2.1 210 19:36 19.06.2020
1243 Rain 5 1006 80 4000 2.1 210 19:18 19.06.2020
1244 Rain 6 1005 81 8000 4.6 280 18:40 19.06.2020
1245 Rain 6 1005 81 8000 4.6 280 18:21 19.06.2020
1246 Rain 5 1005 86 8000 2.6 330 17:43 19.06.2020
1247 Rain 5 1005 86 8000 2.6 330 17:23 19.06.2020
1248 Rain 4 1004 93 4000 1.5 290 16:58 19.06.2020
1249 Rain 4 1004 93 4000 1.5 290 16:40 19.06.2020
1250 Rain 4 1004 93 4000 1.5 290 16:22 19.06.2020
1251 Rain 4 1002 93 7000 2.6 310 15:47 19.06.2020
1252 Rain 4 1002 93 7000 2.6 310 15:27 19.06.2020
1253 Rain 4 1002 93 10000 2.6 310 14:58 19.06.2020
1254 Rain 4 1002 93 10000 2.6 310 14:40 19.06.2020
1255 Rain 4 1002 93 10000 2.6 310 14:21 19.06.2020
1256 Rain 5 1001 86 10000 2.6 0 13:58 19.06.2020
1257 Rain 5 1001 86 10000 2.6 0 13:40 19.06.2020
1258 Rain 5 1001 86 10000 2.6 0 13:22 19.06.2020
1259 Rain 5 1000 86 10000 2.6 240 12:45 19.06.2020
1260 Rain 5 1000 86 10000 2.6 240 12:21 19.06.2020
1261 Rain 5 999 93 10000 2.1 0 11:55 19.06.2020
1262 Rain 5 999 93 10000 2.1 0 11:36 19.06.2020
1263 Rain 5 999 93 10000 2.1 0 11:18 19.06.2020
1264 Rain 5 999 93 10000 2.1 320 10:41 19.06.2020
1265 Rain 5 999 93 10000 2.1 320 10:21 19.06.2020
1266 Rain 4 998 100 10000 1 0 09:54 19.06.2020
1267 Rain 4 998 100 10000 1 0 09:36 19.06.2020
1268 Rain 4 998 100 10000 1 0 09:18 19.06.2020
1269 Rain 4 997 100 10000 1 0 08:39 19.06.2020
1270 Rain 4 997 100 10000 1 0 08:20 19.06.2020
1271 Rain 4 997 100 8000 1 0 07:41 19.06.2020
1272 Rain 4 997 100 8000 1 0 07:22 19.06.2020
1273 Rain 4 997 100 10000 3.18 317 06:47 19.06.2020
1274 Rain 4 997 100 10000 2.98 321 06:21 19.06.2020
1275 Rain 4 996 93 10000 2.6 130 05:28 19.06.2020
1276 Rain 4 996 100 10000 0.5 0 03:37 19.06.2020
1277 Rain 4 995 100 9000 1 0 02:19 19.06.2020
1278 Rain 5 996 93 10000 1.5 310 00:44 19.06.2020
1279 Rain 5 996 93 10000 1.5 310 00:44 19.06.2020
1280 Rain 5 996 93 10000 1.5 310 00:22 19.06.2020
1281 Rain 6 995 93 7000 0.5 0 23:57 18.06.2020
1282 Rain 6 995 93 7000 0.5 0 23:38 18.06.2020
1283 Rain 6 995 93 7000 0.5 0 23:20 18.06.2020
1284 Rain 7 995 87 10000 2.97 307 22:40 18.06.2020
1285 Rain 7 995 87 10000 3.11 313 22:20 18.06.2020
1286 Rain 7 995 87 10000 3.11 313 22:20 18.06.2020
1287 Rain 7 996 93 10000 1.5 320 21:56 18.06.2020
1288 Rain 7 996 93 10000 1.5 320 21:37 18.06.2020
1289 Rain 7 996 93 10000 1.5 320 21:18 18.06.2020
1290 Clouds 7 997 87 10000 2.1 160 20:40 18.06.2020
1291 Clouds 7 997 87 10000 2.1 160 20:20 18.06.2020
1292 Clouds 7 997 93 10000 1 0 19:57 18.06.2020
1293 Clouds 7 997 93 10000 1 0 19:38 18.06.2020
1294 Clouds 7 997 93 10000 1 0 19:19 18.06.2020
1295 Clouds 7 998 93 10000 2.6 280 18:39 18.06.2020
1296 Clouds 7 998 93 10000 2.6 280 18:21 18.06.2020
1297 Clouds 6 998 93 10000 1.5 280 17:54 18.06.2020
1298 Clouds 6 998 93 10000 1.5 280 17:36 18.06.2020
1299 Clouds 6 998 93 10000 1.5 280 17:18 18.06.2020
1300 Clouds 5 998 93 10000 1 0 16:41 18.06.2020
1301 Clouds 5 998 93 10000 1 0 16:23 18.06.2020
1302 Rain 4 998 100 10000 3.25 298 15:57 18.06.2020
1303 Fog 4 998 100 10000 3.25 298 15:39 18.06.2020
1304 Rain 4 998 100 10000 2.3 301 15:20 18.06.2020
1305 Rain 5 998 100 10000 2.1 290 14:56 18.06.2020
1306 Rain 5 998 100 10000 2.1 290 14:37 18.06.2020
1307 Rain 5 998 100 10000 2.1 290 14:19 18.06.2020
1308 Rain 5 997 100 7000 0.5 0 13:47 18.06.2020
1309 Rain 5 997 100 7000 0.5 0 13:27 18.06.2020
1310 Rain 5 996 93 3500 2.1 110 12:56 18.06.2020
1311 Rain 5 996 93 3500 2.1 110 12:38 18.06.2020
1312 Rain 5 996 93 3500 2.1 110 12:19 18.06.2020
1313 Rain 3 998 81 0 3.34 333 11:47 18.06.2020
1314 Rain 4 999 100 10000 2.47 322 11:21 18.06.2020
1315 Rain 4 999 100 10000 2.47 322 10:58 18.06.2020
1316 Rain 4 999 100 10000 2.47 322 10:38 18.06.2020
1317 Rain 4 999 100 10000 2.74 334 10:18 18.06.2020
1318 Rain 4 1000 100 10000 1.5 0 09:44 18.06.2020
1319 Rain 4 1000 100 10000 1.5 0 09:24 18.06.2020
1320 Clouds 4 1001 100 10000 1 0 08:42 18.06.2020
1321 Clouds 4 1001 100 10000 1 0 08:24 18.06.2020
1322 Rain 4 1003 100 10000 1 0 08:00 18.06.2020
1323 Rain 4 1003 100 10000 1 0 07:41 18.06.2020
1324 Rain 4 1003 100 10000 1 0 07:23 18.06.2020
1325 Rain 4 1004 100 10000 1 0 06:29 18.06.2020
1326 Clouds 5 1005 93 10000 1.5 290 04:27 18.06.2020
1327 Clouds 4 1006 93 10000 2.32 349 03:26 18.06.2020
1328 Clouds 5 1007 93 10000 2.1 290 01:40 18.06.2020
1329 Clouds 5 1007 93 10000 2.1 290 01:18 18.06.2020
1330 Clouds 5 1007 93 10000 2.1 290 01:18 18.06.2020
1331 Clouds 5 1006 93 10000 2.07 325 00:49 18.06.2020
1332 Clouds 5 1006 93 10000 1.72 332 00:24 18.06.2020
1333 Clouds 6 1006 93 10000 2.1 340 23:47 17.06.2020
1334 Clouds 6 1006 93 10000 2.1 340 23:23 17.06.2020
1335 Haze 8 1005 87 10000 1.5 340 22:59 17.06.2020
1336 Haze 8 1005 87 10000 1.5 340 22:40 17.06.2020
1337 Haze 8 1005 87 10000 1.5 340 22:21 17.06.2020
1338 Clouds 9 1006 87 10000 1.5 300 21:57 17.06.2020
1339 Clouds 8 1006 87 10000 2.1 290 21:39 17.06.2020
1340 Clouds 8 1006 87 10000 2.1 290 21:39 17.06.2020
1341 Clouds 8 1006 87 10000 2.1 290 21:20 17.06.2020
1342 Clouds 8 1006 87 10000 2.1 290 20:39 17.06.2020
1343 Clouds 8 1006 87 10000 2.1 290 20:20 17.06.2020
1344 Clouds 8 1006 87 10000 2.1 290 20:20 17.06.2020
1345 Clouds 7 1006 87 10000 1 0 19:59 17.06.2020
1346 Clouds 7 1006 87 10000 1 0 19:39 17.06.2020
1347 Clouds 7 1006 87 10000 1 0 19:19 17.06.2020
1348 Mist 6 1007 93 10000 1.5 310 18:45 17.06.2020
1349 Mist 6 1007 93 10000 1.5 310 18:27 17.06.2020
1350 Mist 5 1008 93 10000 0.5 0 17:46 17.06.2020
1351 Mist 5 1008 93 10000 0.5 0 17:23 17.06.2020
1352 Mist 4 1008 100 10000 1.5 160 16:58 17.06.2020
1353 Mist 4 1008 100 10000 1.5 160 16:39 17.06.2020
1354 Mist 4 1008 100 10000 1.5 160 16:21 17.06.2020
1355 Mist 4 1008 93 10000 2.6 150 15:58 17.06.2020
1356 Mist 4 1008 93 10000 2.6 150 15:39 17.06.2020
1357 Mist 4 1008 93 10000 2.6 150 15:19 17.06.2020
1358 Clouds 4 1008 100 10000 3.1 140 14:57 17.06.2020
1359 Clouds 4 1008 100 10000 3.1 140 14:39 17.06.2020
1360 Clouds 4 1008 100 10000 3.1 140 14:19 17.06.2020
1361 Clouds 4 1008 100 8000 1.5 110 13:56 17.06.2020
1362 Clouds 4 1008 100 8000 1.5 110 13:37 17.06.2020
1363 Clouds 4 1008 100 8000 1.5 110 13:18 17.06.2020
1364 Rain 4 1008 100 10000 1 0 12:42 17.06.2020
1365 Rain 4 1008 100 10000 1 0 12:22 17.06.2020
1366 Clouds 4 1008 100 6000 1.5 290 11:45 17.06.2020
1367 Clouds 4 1008 100 6000 1.5 290 11:26 17.06.2020
1368 Mist 3 1009 100 1800 1.77 312 10:59 17.06.2020
1369 Mist 3 1009 100 1800 1.77 312 10:38 17.06.2020
1370 Mist 3 1009 100 1800 1.83 319 10:19 17.06.2020
1371 Fog 4 1009 100 650 0.5 0 09:56 17.06.2020
1372 Fog 4 1009 100 650 0.5 0 09:37 17.06.2020
1373 Fog 4 1009 100 650 0.5 0 09:19 17.06.2020
1374 Fog 4 1010 100 500 1.3 317 08:44 17.06.2020
1375 Fog 4 1010 100 500 1.04 310 08:20 17.06.2020
1376 Fog 4 1010 100 750 1.04 310 07:44 17.06.2020
1377 Fog 4 1010 100 750 1.44 309 07:24 17.06.2020
1378 Mist 4 1010 100 1100 1.44 309 06:59 17.06.2020
1379 Mist 4 1010 100 1100 1.44 309 06:41 17.06.2020
1380 Mist 4 1010 100 1100 1.02 315 06:22 17.06.2020
1381 Fog 4 1010 100 500 1.02 315 05:49 17.06.2020
1382 Fog 4 1010 100 450 1.22 343 04:38 17.06.2020
1383 Mist 4 1010 93 3500 2.1 290 02:21 17.06.2020
1384 Clouds 5 1010 93 10000 1.12 3 00:53 17.06.2020
1385 Clouds 5 1010 93 10000 1.12 3 00:30 17.06.2020
1386 Haze 6 1010 100 10000 1 0 23:58 16.06.2020
1387 Haze 6 1010 100 10000 1 0 23:40 16.06.2020
1388 Haze 6 1010 100 10000 1 0 23:22 16.06.2020
1389 Haze 8 1010 93 10000 1.36 28 22:57 16.06.2020
1390 Haze 8 1010 93 10000 1.36 28 22:38 16.06.2020
1391 Haze 8 1010 93 10000 0.59 347 22:19 16.06.2020
1392 Haze 8 1010 87 10000 3.1 300 21:57 16.06.2020
1393 Haze 8 1010 87 10000 3.1 300 21:39 16.06.2020
1394 Haze 8 1010 87 10000 3.1 300 21:20 16.06.2020
1395 Haze 7 1010 93 10000 3.6 290 20:43 16.06.2020
1396 Haze 7 1010 93 10000 3.6 290 20:19 16.06.2020
1397 Haze 7 1010 93 10000 3.6 290 20:19 16.06.2020
1398 Haze 5 1010 93 10000 1 0 19:58 16.06.2020
1399 Haze 5 1010 93 10000 1 0 19:58 16.06.2020
1400 Haze 5 1010 93 10000 1 0 19:39 16.06.2020
1401 Haze 5 1010 93 10000 1 0 19:21 16.06.2020
1402 Fog 4 1011 93 10000 2.6 280 18:55 16.06.2020
1403 Fog 4 1011 93 10000 2.6 280 18:37 16.06.2020
1404 Fog 4 1011 93 10000 2.6 280 18:19 16.06.2020
1405 Fog 4 1011 93 10000 0.5 0 17:55 16.06.2020
1406 Fog 4 1011 93 10000 0.5 0 17:36 16.06.2020
1407 Fog 4 1011 93 10000 0.5 0 17:18 16.06.2020
1408 Fog 4 1011 93 10000 0.5 0 17:18 16.06.2020
1409 Mist 3 1011 100 2500 1.5 110 16:42 16.06.2020
1410 Mist 3 1011 100 2500 1.5 110 16:21 16.06.2020
1411 Mist 3 1010 93 1200 1.89 318 15:59 16.06.2020
1412 Mist 3 1010 93 1200 1.89 318 15:41 16.06.2020
1413 Mist 3 1010 93 1200 1.93 318 15:23 16.06.2020
1414 Clouds 3 1010 93 10000 2.6 0 15:00 16.06.2020
1415 Clouds 3 1010 93 10000 2.6 0 14:41 16.06.2020
1416 Clouds 3 1010 93 10000 2.6 0 14:23 16.06.2020
1417 Clouds 3 1009 100 10000 1 0 13:49 16.06.2020
1418 Clouds 3 1009 100 10000 1 0 13:26 16.06.2020
1419 Clouds 3 1008 100 10000 2.1 120 12:57 16.06.2020
1420 Clouds 3 1008 100 10000 2.1 120 12:38 16.06.2020
1421 Clouds 3 1008 100 10000 2.1 120 12:38 16.06.2020
1422 Clouds 3 1008 100 10000 2.1 120 12:20 16.06.2020
1423 Clouds 3 1007 100 10000 1 0 11:54 16.06.2020
1424 Clouds 3 1007 100 10000 1 0 11:36 16.06.2020
1425 Clouds 3 1007 100 10000 1 0 11:36 16.06.2020
1426 Clouds 3 1007 100 10000 1 0 11:18 16.06.2020
1427 Clouds 3 1007 100 10000 1 0 10:42 16.06.2020
1428 Clouds 3 1007 100 10000 1 0 10:21 16.06.2020
1429 Rain 3 1007 100 9000 3.1 120 09:57 16.06.2020
1430 Rain 3 1007 100 9000 3.1 120 09:39 16.06.2020
1431 Rain 3 1007 100 9000 3.1 120 09:20 16.06.2020
1432 Rain 3 1006 100 10000 1.5 170 08:41 16.06.2020
1433 Rain 3 1006 100 10000 1.5 170 08:22 16.06.2020
1434 Rain 2 1006 100 10000 1.69 335 07:46 16.06.2020
1435 Rain 2 1006 100 10000 1.51 360 07:26 16.06.2020
1436 Clouds 2 1007 79 0 1.51 360 06:47 16.06.2020
1437 Clouds 3 1006 100 10000 0.5 0 06:19 16.06.2020
1438 Clouds 3 1006 100 10000 0.5 0 05:32 16.06.2020
1439 Clouds 4 1006 100 10000 1.83 19 04:27 16.06.2020
1440 Clouds 4 1007 100 10000 1.5 290 02:49 16.06.2020
1441 Clouds 4 1006 100 10000 0.5 0 01:44 16.06.2020
1442 Clouds 4 1006 100 10000 0.5 0 01:19 16.06.2020
1443 Clouds 5 1006 93 10000 1.08 20 00:37 16.06.2020
1444 Clouds 5 1006 93 10000 1 62 00:18 16.06.2020
1445 Clouds 6 1007 93 10000 1 0 23:41 15.06.2020
1446 Clouds 6 1007 93 10000 1 0 23:21 15.06.2020
1447 Clouds 7 1007 75 10000 0.5 0 22:42 15.06.2020
1448 Clouds 7 1007 75 10000 0.5 0 22:23 15.06.2020
1449 Clouds 6 1007 87 10000 0.98 62 21:59 15.06.2020
1450 Clouds 6 1007 87 10000 0.98 62 21:38 15.06.2020
1451 Clouds 6 1007 87 10000 1.45 71 21:20 15.06.2020
1452 Clouds 6 1008 87 10000 0.5 0 20:59 15.06.2020
1453 Clouds 6 1008 87 10000 0.5 0 20:59 15.06.2020
1454 Clouds 6 1008 87 10000 0.5 0 20:39 15.06.2020
1455 Clouds 6 1008 87 10000 0.5 0 20:20 15.06.2020
1456 Clouds 5 1009 93 10000 2.6 130 19:59 15.06.2020
1457 Clouds 5 1009 93 10000 2.6 130 19:59 15.06.2020
1458 Clouds 5 1009 93 10000 2.6 130 19:40 15.06.2020
1459 Clouds 5 1009 93 10000 2.6 130 19:21 15.06.2020
1460 Mist 4 1010 100 10000 1.5 160 18:57 15.06.2020
1461 Mist 4 1010 100 10000 1.5 160 18:39 15.06.2020
1462 Mist 4 1010 100 10000 1.5 160 18:39 15.06.2020
1463 Mist 4 1010 100 10000 1.5 160 18:19 15.06.2020
1464 Mist 4 1010 100 8000 2.1 140 17:56 15.06.2020
1465 Mist 4 1010 100 8000 2.1 140 17:56 15.06.2020
1466 Mist 4 1010 100 8000 2.1 140 17:37 15.06.2020
1467 Mist 4 1010 100 8000 2.1 140 17:18 15.06.2020
1468 Mist 3 1011 100 10000 0.5 0 16:41 15.06.2020
1469 Mist 3 1011 100 10000 0.5 0 16:19 15.06.2020
1470 Mist 3 1011 100 10000 2.1 120 15:57 15.06.2020
1471 Mist 3 1011 100 10000 2.1 120 15:39 15.06.2020
1472 Mist 3 1011 100 10000 2.1 120 15:19 15.06.2020
1473 Clouds 3 1010 100 10000 1.5 150 14:42 15.06.2020
1474 Clouds 3 1010 100 10000 1.5 150 14:21 15.06.2020
1475 Fog 4 1010 100 800 1.5 130 13:59 15.06.2020
1476 Fog 4 1010 100 800 1.5 130 13:41 15.06.2020
1477 Fog 4 1010 100 800 1.5 130 13:22 15.06.2020
1478 Clouds 4 1010 100 10000 1.5 120 12:58 15.06.2020
1479 Clouds 4 1010 100 10000 1.5 120 12:39 15.06.2020
1480 Clouds 4 1010 100 10000 1.5 120 12:21 15.06.2020
1481 Clouds 4 1010 100 10000 0.5 120 11:44 15.06.2020
1482 Clouds 5 1010 93 10000 1 0 11:25 15.06.2020
1483 Clouds 5 1010 93 10000 1 0 10:45 15.06.2020
1484 Clouds 5 1010 93 10000 1 0 10:23 15.06.2020
1485 Clouds 5 1011 100 10000 0.92 53 09:57 15.06.2020
1486 Clouds 5 1011 100 10000 0.92 53 09:39 15.06.2020
1487 Clouds 5 1011 100 10000 1.15 68 09:20 15.06.2020
1488 Clouds 5 1011 100 10000 1.15 68 08:41 15.06.2020
1489 Clouds 5 1011 100 10000 1.13 65 08:23 15.06.2020
1490 Clouds 5 1011 100 10000 0.5 0 07:47 15.06.2020
1491 Clouds 5 1011 100 10000 0.5 0 07:28 15.06.2020
1492 Clouds 6 1012 100 10000 1.43 62 06:49 15.06.2020
1493 Clouds 6 1012 100 10000 1.3 59 06:25 15.06.2020
1494 Clouds 6 1012 100 10000 1.3 59 05:46 15.06.2020
1495 Clouds 6 1012 100 10000 1.28 53 05:26 15.06.2020
1496 Mist 6 1012 100 2200 1.19 55 04:20 15.06.2020
1497 Fog 6 1013 100 800 1.5 300 03:41 15.06.2020
1498 Clouds 6 1013 93 10000 1.5 52 02:54 15.06.2020
1499 Clouds 6 1013 100 10000 1.37 59 01:57 15.06.2020
1500 Clouds 6 1013 100 10000 1.37 59 01:34 15.06.2020
1501 Clouds 7 1013 93 10000 0.84 42 00:58 15.06.2020
1502 Clouds 7 1013 93 10000 0.84 42 00:39 15.06.2020
1503 Clouds 7 1013 93 10000 0.7 11 00:20 15.06.2020
1504 Clouds 8 1013 93 10000 0.5 0 23:46 14.06.2020
1505 Clouds 8 1013 93 10000 0.5 0 23:24 14.06.2020
1506 Clouds 9 1012 87 10000 0.8 341 22:58 14.06.2020
1507 Clouds 9 1012 87 10000 0.8 341 22:39 14.06.2020
1508 Clouds 9 1012 87 10000 0.83 341 22:20 14.06.2020
1509 Clouds 9 1012 87 10000 0.83 341 22:20 14.06.2020
1510 Clouds 9 1013 87 10000 1 0 21:57 14.06.2020
1511 Clouds 9 1013 87 10000 1 0 21:57 14.06.2020
1512 Clouds 9 1013 87 10000 1 0 21:38 14.06.2020
1513 Clouds 9 1013 87 10000 1 0 21:19 14.06.2020
1514 Clouds 9 1013 87 10000 1.5 310 20:58 14.06.2020
1515 Clouds 9 1013 87 10000 1.5 310 20:38 14.06.2020
1516 Clouds 9 1013 87 10000 1.5 310 20:20 14.06.2020
1517 Clouds 8 1013 87 10000 1 0 19:59 14.06.2020
1518 Clouds 8 1013 87 10000 1 0 19:38 14.06.2020
1519 Clouds 8 1013 87 10000 1 0 19:19 14.06.2020
1520 Rain 8 1014 93 10000 1.04 331 18:57 14.06.2020
1521 Rain 8 1014 93 10000 1.04 331 18:38 14.06.2020
1522 Rain 8 1014 93 10000 1.18 353 18:19 14.06.2020
1523 Rain 7 1014 93 10000 1 0 17:57 14.06.2020
1524 Rain 7 1014 93 10000 1 0 17:38 14.06.2020
1525 Rain 7 1014 93 10000 1 0 17:19 14.06.2020
1526 Clouds 6 1014 100 10000 2.1 290 16:41 14.06.2020
1527 Clouds 6 1014 100 10000 2.1 290 16:20 14.06.2020
1528 Clouds 5 1013 100 10000 2.6 290 15:58 14.06.2020
1529 Clouds 5 1013 100 10000 2.6 290 15:40 14.06.2020
1530 Rain 5 1013 100 10000 2.6 290 15:18 14.06.2020
1531 Rain 5 1013 100 10000 1.5 270 14:58 14.06.2020
1532 Rain 5 1013 100 10000 1.5 270 14:58 14.06.2020
1533 Rain 5 1013 100 10000 1.5 270 14:40 14.06.2020
1534 Rain 5 1013 100 10000 1.5 270 14:19 14.06.2020
1535 Rain 4 1013 100 10000 3.6 290 13:42 14.06.2020
1536 Rain 4 1013 100 10000 3.6 290 13:22 14.06.2020
1537 Rain 4 1012 100 10000 3.1 290 12:59 14.06.2020
1538 Rain 4 1012 100 10000 3.1 290 12:41 14.06.2020
1539 Rain 4 1012 100 10000 3.1 290 12:23 14.06.2020
1540 Rain 4 1012 100 10000 2.6 280 11:59 14.06.2020
1541 Rain 4 1012 100 10000 2.6 280 11:40 14.06.2020
1542 Rain 4 1012 100 10000 2.6 280 11:22 14.06.2020
1543 Rain 3 1012 100 7000 0.5 0 10:59 14.06.2020
1544 Rain 3 1012 100 7000 0.5 0 10:39 14.06.2020
1545 Rain 3 1012 100 7000 0.5 0 10:18 14.06.2020
1546 Fog 3 1013 100 900 1 0 09:43 14.06.2020
1547 Fog 3 1013 100 900 1 0 09:23 14.06.2020
1548 Mist 3 1013 100 2000 2.1 290 08:42 14.06.2020
1549 Mist 3 1013 100 2000 2.1 290 08:22 14.06.2020
1550 Mist 4 1014 100 2800 1.5 270 07:53 14.06.2020
1551 Mist 4 1014 100 2800 1.5 270 07:35 14.06.2020
1552 Mist 4 1015 100 2700 0.5 0 06:54 14.06.2020
1553 Clouds 4 1015 100 10000 0.5 0 05:54 14.06.2020
1554 Clouds 4 1015 100 10000 0.5 0 05:29 14.06.2020
1555 Clouds 4 1016 100 8000 2.56 335 04:38 14.06.2020
1556 Clouds 4 1016 100 10000 2.68 336 03:54 14.06.2020
1557 Clouds 4 1016 100 10000 2.23 333 02:35 14.06.2020
1558 Rain 5 1017 100 10000 1 0 01:55 14.06.2020
1559 Rain 5 1017 100 10000 1 0 01:26 14.06.2020
1560 Rain 5 1017 100 10000 1 0 00:47 14.06.2020
1561 Rain 5 1017 100 10000 1 0 00:20 14.06.2020
1562 Rain 5 1017 100 10000 1 0 00:20 14.06.2020
1563 Rain 6 1017 93 10000 2.52 347 23:46 13.06.2020
1564 Rain 6 1017 93 10000 2.69 355 23:26 13.06.2020
1565 Rain 7 1017 81 10000 1.5 250 22:58 13.06.2020
1566 Rain 7 1017 81 10000 1.5 250 22:38 13.06.2020
1567 Rain 7 1017 81 10000 1.5 250 22:18 13.06.2020
1568 Rain 7 1018 81 10000 2.6 310 21:57 13.06.2020
1569 Rain 7 1018 81 10000 2.6 310 21:38 13.06.2020
1570 Rain 7 1018 81 10000 2.6 310 21:20 13.06.2020
1571 Rain 6 1018 87 10000 1.5 290 20:43 13.06.2020
1572 Rain 6 1018 87 10000 1.5 290 20:20 13.06.2020
1573 Rain 6 1019 87 10000 2.1 290 19:58 13.06.2020
1574 Rain 6 1019 87 10000 2.1 290 19:36 13.06.2020
1575 Rain 6 1019 87 10000 2.1 290 19:18 13.06.2020
1576 Rain 5 1020 93 10000 2.6 270 18:55 13.06.2020
1577 Rain 5 1020 93 10000 2.6 270 18:37 13.06.2020
1578 Rain 5 1020 93 10000 2.6 270 18:18 13.06.2020
1579 Clouds 5 1020 86 10000 2.6 280 17:42 13.06.2020
1580 Clouds 5 1020 86 10000 2.6 280 17:23 13.06.2020
1581 Rain 4 1020 93 10000 2.1 280 16:58 13.06.2020
1582 Rain 4 1020 93 10000 2.1 280 16:40 13.06.2020
1583 Rain 4 1020 93 10000 2.1 280 16:19 13.06.2020
1584 Rain 3 1020 93 10000 2.6 270 15:54 13.06.2020
1585 Rain 3 1020 93 10000 2.6 270 15:36 13.06.2020
1586 Rain 3 1020 93 10000 2.6 270 15:18 13.06.2020
1587 Rain 3 1020 93 10000 2.6 280 14:41 13.06.2020
1588 Rain 3 1020 93 10000 2.6 280 14:20 13.06.2020
1589 Clouds 3 1020 93 10000 2.6 280 13:44 13.06.2020
1590 Clouds 3 1020 93 10000 2.6 280 13:26 13.06.2020
1591 Rain 3 1021 93 10000 2.6 280 12:55 13.06.2020
1592 Rain 3 1021 93 10000 2.6 280 12:37 13.06.2020
1593 Rain 3 1021 93 10000 2.6 280 12:19 13.06.2020
1594 Rain 3 1021 86 10000 1.5 290 11:40 13.06.2020
1595 Rain 3 1021 86 10000 1.5 290 11:19 13.06.2020
1596 Clouds 4 1021 80 10000 3.6 290 10:57 13.06.2020
1597 Clouds 4 1021 80 10000 3.6 290 10:38 13.06.2020
1598 Clouds 4 1021 80 10000 3.6 290 10:19 13.06.2020
1599 Clouds 3 1021 94 10000 1.5 310 09:45 13.06.2020
1600 Clouds 3 1021 92 10000 1.5 310 09:27 13.06.2020
1601 Clouds 3 1021 92 10000 2.1 280 08:55 13.06.2020
1602 Clouds 3 1021 92 10000 2.1 280 08:37 13.06.2020
1603 Clouds 3 1021 93 10000 2.1 280 08:19 13.06.2020
1604 Clouds 3 1021 93 10000 3.1 290 07:42 13.06.2020
1605 Clouds 3 1021 93 10000 3.1 290 07:22 13.06.2020
1606 Clouds 4 1021 93 10000 2.6 0 06:38 13.06.2020
1607 Clouds 4 1021 93 10000 2.6 0 06:19 13.06.2020
1608 Clouds 4 1021 94 10000 1.5 0 05:27 13.06.2020
1609 Clouds 5 1020 65 10000 3.1 220 03:57 13.06.2020
1610 Clouds 4 1019 69 10000 2.1 0 02:55 13.06.2020
1611 Clouds 4 1019 69 10000 2.1 0 02:55 13.06.2020
1612 Clouds 4 1019 69 10000 2.1 0 02:36 13.06.2020
1613 Clear 5 1018 56 10000 3.1 300 01:47 13.06.2020
1614 Clear 5 1018 56 10000 3.1 300 01:21 13.06.2020
1615 Clear 4 1017 55 10000 2.6 0 00:44 13.06.2020
1616 Clear 4 1017 55 10000 2.6 0 00:26 13.06.2020
1617 Clear 5 1016 48 10000 2.6 280 23:42 12.06.2020
1618 Clear 5 1016 48 10000 2.6 280 23:19 12.06.2020
1619 Clear 6 1015 38 10000 5.1 280 22:59 12.06.2020
1620 Clear 6 1015 38 10000 5.1 280 22:40 12.06.2020
1621 Clear 6 1015 38 10000 5.1 280 22:19 12.06.2020
1622 Clear 6 1015 38 10000 5.1 280 22:19 12.06.2020
1623 Clouds 6 1014 45 10000 8.7 280 21:49 12.06.2020
1624 Clouds 6 1014 45 10000 8.7 280 21:26 12.06.2020
1625 Clouds 7 1013 45 10000 8.7 290 20:58 12.06.2020
1626 Clouds 7 1013 45 10000 8.7 290 20:58 12.06.2020
1627 Clouds 7 1013 45 10000 8.7 290 20:40 12.06.2020
1628 Clouds 7 1013 45 10000 8.7 290 20:22 12.06.2020
1629 Clouds 4 1014 72 0 5.36 270 19:56 12.06.2020
1630 Clouds 6 1011 56 10000 6.2 280 19:38 12.06.2020
1631 Clouds 6 1011 56 10000 6.2 280 19:18 12.06.2020
1632 Clouds 6 1011 56 10000 6.2 280 18:39 12.06.2020
1633 Clouds 6 1011 56 10000 6.2 280 18:18 12.06.2020
1634 Rain 5 1010 60 10000 6.2 270 17:47 12.06.2020
1635 Rain 5 1010 60 10000 6.2 270 17:27 12.06.2020
1636 Rain 5 1009 60 10000 6.7 270 16:59 12.06.2020
1637 Rain 5 1009 60 10000 6.7 270 16:40 12.06.2020
1638 Rain 5 1009 60 10000 6.7 270 16:19 12.06.2020
1639 Rain 4 1007 64 10000 5.7 270 15:45 12.06.2020
1640 Rain 4 1007 64 10000 5.7 270 15:25 12.06.2020
1641 Rain 3 1006 92 10000 4.1 280 14:55 12.06.2020
1642 Rain 3 1006 92 10000 4.1 280 14:36 12.06.2020
1643 Rain 3 1006 93 10000 4.1 280 14:18 12.06.2020
1644 Clouds 3 1004 86 10000 4.1 270 13:41 12.06.2020
1645 Clouds 3 1004 86 10000 4.1 270 13:20 12.06.2020
1646 Rain 3 1003 86 10000 3.1 270 12:40 12.06.2020
1647 Rain 3 1003 86 10000 3.1 270 12:20 12.06.2020
1648 Rain 3 1002 86 10000 2.1 230 11:57 12.06.2020
1649 Rain 3 1002 86 10000 2.1 230 11:38 12.06.2020
1650 Rain 3 1002 86 10000 2.1 230 11:19 12.06.2020
1651 Rain 2 1002 93 9000 2.6 0 10:45 12.06.2020
1652 Rain 2 1002 93 9000 2.6 0 10:24 12.06.2020
1653 Rain 4 1001 80 10000 6.2 270 09:45 12.06.2020
1654 Rain 4 1001 80 10000 6.2 270 09:21 12.06.2020
1655 Rain 5 999 80 10000 3.6 0 08:44 12.06.2020
1656 Rain 5 999 80 10000 3.6 0 08:25 12.06.2020
1657 Rain 3 998 100 10000 1.5 20 07:44 12.06.2020
1658 Rain 3 998 100 10000 1.5 20 07:25 12.06.2020
1659 Rain 4 997 86 10000 2.6 280 06:55 12.06.2020
1660 Rain 4 997 86 10000 2.6 280 06:26 12.06.2020
1661 Rain 4 995 93 10000 1 0 05:50 12.06.2020
1662 Rain 4 995 93 10000 1 0 05:29 12.06.2020
1663 Rain 4 995 100 10000 2.87 318 04:50 12.06.2020
1664 Rain 4 994 100 10000 3.02 316 02:55 12.06.2020
1665 Rain 4 994 100 10000 1.33 313 01:52 12.06.2020
1666 Rain 4 994 100 10000 2.13 322 01:25 12.06.2020
1667 Rain 4 992 93 10000 2.1 230 00:42 12.06.2020
1668 Rain 4 992 93 10000 2.1 230 00:24 12.06.2020
1669 Rain 5 992 93 6000 1.43 12 23:59 11.06.2020
1670 Rain 5 992 93 6000 1.43 12 23:40 11.06.2020
1671 Rain 5 992 93 6000 3.39 330 23:21 11.06.2020
1672 Rain 6 992 87 5000 0.5 0 22:57 11.06.2020
1673 Rain 6 992 87 5000 0.5 0 22:38 11.06.2020
1674 Rain 6 992 87 5000 0.5 0 22:19 11.06.2020
1675 Rain 6 992 87 5000 0.5 0 22:19 11.06.2020
1676 Rain 6 991 93 8000 1 0 21:54 11.06.2020
1677 Rain 6 991 93 8000 1 0 21:36 11.06.2020
1678 Rain 6 991 93 8000 1 0 21:18 11.06.2020
1679 Rain 6 991 93 10000 2.12 310 20:43 11.06.2020
1680 Rain 6 991 93 10000 2.65 327 20:21 11.06.2020
1681 Clouds 6 991 93 10000 2.65 327 19:44 11.06.2020
1682 Clouds 6 991 93 10000 1.69 332 19:23 11.06.2020
1683 Rain 6 992 87 10000 2.6 300 18:58 11.06.2020
1684 Rain 6 992 87 10000 2.6 300 18:40 11.06.2020
1685 Clouds 5 990 93 10000 9.3 320 18:20 11.06.2020
1686 Clouds 5 990 93 10000 9.3 320 17:56 11.06.2020
1687 Clouds 5 990 93 10000 9.3 320 17:37 11.06.2020
1688 Clouds 5 990 93 10000 9.3 320 17:19 11.06.2020
1689 Rain 7 991 93 5000 1.68 306 16:45 11.06.2020
1690 Rain 7 991 93 5000 1.68 306 16:45 11.06.2020
1691 Rain 7 991 93 5000 1.52 310 16:27 11.06.2020
1692 Rain 7 990 100 4000 1 0 15:59 11.06.2020
1693 Rain 7 990 100 4000 1 0 15:59 11.06.2020
1694 Rain 7 990 100 4000 1 0 15:40 11.06.2020
1695 Rain 7 990 100 4000 1 0 15:22 11.06.2020
1696 Rain 8 990 93 9000 1.5 320 14:46 11.06.2020
1697 Rain 8 990 93 9000 1.5 320 14:21 11.06.2020
1698 Rain 7 990 100 10000 1 0 13:57 11.06.2020
1699 Rain 7 990 100 10000 1 0 13:39 11.06.2020
1700 Rain 7 990 100 10000 1 0 13:21 11.06.2020
1701 Rain 7 989 100 10000 1.5 160 12:58 11.06.2020
1702 Rain 7 989 100 10000 1.5 160 12:39 11.06.2020
1703 Rain 7 989 100 10000 1.5 160 12:19 11.06.2020
1704 Rain 7 988 100 7000 2.9 279 11:57 11.06.2020
1705 Rain 7 988 100 7000 2.9 279 11:39 11.06.2020
1706 Rain 7 988 100 7000 3 313 11:20 11.06.2020
1707 Rain 7 989 100 9000 0.5 0 10:57 11.06.2020
1708 Rain 7 989 100 9000 0.5 0 10:38 11.06.2020
1709 Rain 7 989 100 9000 0.5 0 10:18 11.06.2020
1710 Rain 7 989 100 10000 1.5 130 09:42 11.06.2020
1711 Rain 7 989 100 10000 1.5 130 09:23 11.06.2020
1712 Rain 8 992 93 10000 2.1 0 08:44 11.06.2020
1713 Rain 8 992 93 10000 2.1 0 08:20 11.06.2020
1714 Rain 9 993 81 10000 1.5 0 07:43 11.06.2020
1715 Rain 9 993 81 10000 1.5 0 07:25 11.06.2020
1716 Rain 12 992 62 10000 6.2 0 06:52 11.06.2020
1717 Rain 12 992 62 10000 6.2 0 06:28 11.06.2020
1718 Rain 10 994 66 10000 3.1 0 05:36 11.06.2020
1719 Rain 11 996 62 10000 7.2 0 03:30 11.06.2020
1720 Rain 9 996 87 10000 2.6 340 02:52 11.06.2020
1721 Rain 9 996 87 10000 2.6 340 02:32 11.06.2020
1722 Rain 9 996 87 10000 2.1 0 01:47 11.06.2020
1723 Rain 9 996 87 10000 2.1 0 01:24 11.06.2020
1724 Rain 10 997 81 10000 3.1 0 00:49 11.06.2020
1725 Rain 10 997 81 10000 3.1 0 00:27 11.06.2020
1726 Rain 8 998 93 8000 2.1 300 23:46 10.06.2020
1727 Rain 8 998 93 8000 2.1 300 23:27 10.06.2020
1728 Rain 9 999 87 8000 3.1 320 22:56 10.06.2020
1729 Rain 9 999 87 8000 3.1 320 22:37 10.06.2020
1730 Rain 9 999 87 8000 3.1 320 22:37 10.06.2020
1731 Rain 9 999 87 8000 3.1 320 22:19 10.06.2020
1732 Rain 10 1000 76 9000 2.6 310 21:55 10.06.2020
1733 Rain 10 1000 76 9000 2.6 310 21:37 10.06.2020
1734 Rain 10 1000 76 9000 2.6 310 21:18 10.06.2020
1735 Rain 10 1000 76 9000 2.6 310 21:18 10.06.2020
1736 Rain 10 1000 76 9000 2.6 310 21:18 10.06.2020
1737 Rain 11 1000 66 9000 4.1 270 20:56 10.06.2020
1738 Rain 11 1000 66 9000 4.1 270 20:38 10.06.2020
1739 Rain 11 1000 66 9000 4.1 270 20:19 10.06.2020
1740 Rain 11 1001 66 9000 5.1 280 19:40 10.06.2020
1741 Rain 11 1001 66 9000 5.1 280 19:19 10.06.2020
1742 Rain 10 1002 61 9000 3.6 350 18:58 10.06.2020
1743 Rain 10 1002 61 9000 3.6 350 18:40 10.06.2020
1744 Rain 10 1002 61 9000 3.6 350 18:19 10.06.2020
1745 Rain 10 1003 57 10000 4.6 0 17:55 10.06.2020
1746 Rain 10 1003 57 10000 4.6 0 17:55 10.06.2020
1747 Rain 10 1003 57 10000 4.6 0 17:36 10.06.2020
1748 Rain 10 1003 57 10000 4.6 0 17:18 10.06.2020
1749 Clouds 9 1003 57 10000 3.1 0 16:56 10.06.2020
1750 Clouds 9 1003 57 10000 3.1 0 16:38 10.06.2020
1751 Clouds 9 1003 57 10000 3.1 0 16:18 10.06.2020
1752 Rain 9 1003 61 10000 3.1 0 15:39 10.06.2020
1753 Rain 9 1003 61 10000 3.1 0 15:21 10.06.2020
1754 Clouds 9 1003 61 10000 5.7 280 14:55 10.06.2020
1755 Clouds 9 1003 61 10000 5.7 280 14:37 10.06.2020
1756 Clouds 9 1003 61 10000 5.7 280 14:19 10.06.2020
1757 Clouds 10 1003 53 10000 7.2 280 13:40 10.06.2020
1758 Clouds 10 1003 53 10000 7.2 280 13:21 10.06.2020
1759 Clouds 9 1002 57 10000 7.2 0 12:43 10.06.2020
1760 Clouds 9 1002 57 10000 7.2 0 12:20 10.06.2020
1761 Clouds 9 1003 57 10000 6.7 0 11:56 10.06.2020
1762 Clouds 9 1003 57 10000 6.7 0 11:38 10.06.2020
1763 Clouds 9 1003 57 10000 6.7 0 11:19 10.06.2020
1764 Clouds 9 1004 49 10000 6.2 0 10:55 10.06.2020
1765 Clouds 9 1004 49 10000 6.2 0 10:36 10.06.2020
1766 Clouds 9 1004 49 10000 6.2 0 10:36 10.06.2020
1767 Clouds 9 1004 49 10000 6.2 0 10:18 10.06.2020
1768 Clouds 8 1004 52 10000 5.1 0 09:39 10.06.2020
1769 Clouds 8 1004 52 10000 5.1 0 09:21 10.06.2020
1770 Clouds 8 1005 52 10000 4.6 240 08:44 10.06.2020
1771 Clouds 8 1005 52 10000 4.6 240 08:23 10.06.2020
1772 Clouds 8 1005 49 10000 5.1 250 07:43 10.06.2020
1773 Clouds 8 1005 49 10000 5.1 250 07:24 10.06.2020
1774 Clouds 8 1004 85 10000 5.1 250 06:59 10.06.2020
1775 Clouds 8 1004 85 10000 5.1 250 06:40 10.06.2020
1776 Clouds 8 1004 85 10000 5.1 250 06:19 10.06.2020
1777 Clouds 8 1003 61 10000 6.2 270 05:54 10.06.2020
1778 Rain 8 1003 61 10000 6.2 270 05:19 10.06.2020
1779 Rain 8 1002 61 10000 5.1 0 04:29 10.06.2020
1780 Rain 7 1000 93 10000 2.6 330 02:46 10.06.2020
1781 Rain 7 998 93 10000 2.1 0 01:48 10.06.2020
1782 Rain 7 998 93 10000 2.1 0 01:21 10.06.2020
1783 Rain 7 997 87 9000 3.1 0 00:38 10.06.2020
1784 Rain 7 997 87 9000 3.1 0 00:20 10.06.2020
1785 Rain 7 996 87 6000 2.1 0 23:43 09.06.2020
1786 Rain 7 996 87 6000 2.1 0 23:23 09.06.2020
1787 Rain 4 998 83 0 5.48 321 22:57 09.06.2020
1788 Rain 4 998 83 0 5.48 321 22:57 09.06.2020
1789 Rain 7 997 81 4000 2.6 0 22:39 09.06.2020
1790 Rain 7 997 81 4000 2.6 0 22:20 09.06.2020
1791 Rain 7 997 81 4000 2.6 0 21:57 09.06.2020
1792 Rain 7 997 81 4000 2.6 0 21:39 09.06.2020
1793 Rain 7 997 81 4000 2.6 0 21:21 09.06.2020
1794 Rain 7 998 81 5000 2.6 0 20:58 09.06.2020
1795 Rain 7 998 81 5000 2.6 0 20:39 09.06.2020
1796 Rain 7 998 81 5000 2.6 0 20:21 09.06.2020
1797 Rain 6 1000 87 6000 3.1 0 19:59 09.06.2020
1798 Rain 6 1000 87 6000 3.1 0 19:39 09.06.2020
1799 Rain 6 1000 87 6000 3.1 0 19:20 09.06.2020
1800 Rain 6 999 72 0 8.73 290 18:58 09.06.2020
1801 Rain 7 1002 81 7000 6.7 260 18:39 09.06.2020
1802 Rain 7 1002 81 7000 6.7 260 18:21 09.06.2020
1803 Rain 7 1002 81 7000 6.7 260 17:56 09.06.2020
1804 Rain 7 1002 81 7000 6.7 260 17:37 09.06.2020
1805 Rain 7 1002 81 7000 6.7 260 17:19 09.06.2020
1806 Rain 7 1003 81 6000 3.1 0 16:43 09.06.2020
1807 Rain 7 1003 81 6000 3.1 0 16:23 09.06.2020
1808 Rain 6 1004 87 6000 2.1 0 15:57 09.06.2020
1809 Rain 6 1004 87 6000 2.1 0 15:38 09.06.2020
1810 Rain 6 1004 87 6000 2.1 0 15:20 09.06.2020
1811 Rain 6 1005 87 10000 4.6 250 14:55 09.06.2020
1812 Rain 6 1005 87 10000 4.6 250 14:36 09.06.2020
1813 Rain 6 1005 87 10000 4.6 250 14:18 09.06.2020
1814 Rain 7 1005 81 10000 5.7 250 13:42 09.06.2020
1815 Rain 7 1005 81 10000 5.7 250 13:21 09.06.2020
1816 Rain 8 1004 75 10000 6.2 240 12:58 09.06.2020
1817 Rain 8 1004 75 10000 6.2 240 12:40 09.06.2020
1818 Rain 8 1004 75 10000 6.2 240 12:18 09.06.2020
1819 Rain 7 1005 81 10000 6.7 250 11:55 09.06.2020
1820 Rain 7 1005 81 10000 6.7 250 11:37 09.06.2020
1821 Rain 7 1005 81 10000 6.7 250 11:18 09.06.2020
1822 Rain 8 1006 70 10000 6.7 250 10:43 09.06.2020
1823 Rain 8 1006 70 10000 6.7 250 10:25 09.06.2020
1824 Rain 7 1007 75 10000 4.1 0 09:44 09.06.2020
1825 Rain 7 1007 75 10000 4.1 0 09:25 09.06.2020
1826 Rain 7 1008 75 10000 5.7 260 08:57 09.06.2020
1827 Rain 7 1008 75 10000 5.7 260 08:38 09.06.2020
1828 Rain 7 1008 75 10000 5.7 260 08:20 09.06.2020
1829 Rain 7 1008 75 10000 5.7 0 07:38 09.06.2020
1830 Rain 7 1008 75 10000 5.7 0 07:20 09.06.2020
1831 Rain 6 1009 81 10000 5.1 260 06:54 09.06.2020
1832 Rain 6 1009 81 10000 5.1 260 06:35 09.06.2020
1833 Rain 7 1009 75 10000 6.2 250 05:35 09.06.2020
1834 Rain 6 1011 70 10000 3.6 0 03:34 09.06.2020
1835 Rain 6 1012 89 10000 3.6 0 01:43 09.06.2020
1836 Rain 6 1012 89 10000 3.6 0 01:19 09.06.2020
1837 Rain 6 1012 89 10000 3.1 290 00:50 09.06.2020
1838 Rain 6 1012 85 10000 3.1 290 00:21 09.06.2020
1839 Clouds 7 1013 56 10000 2.6 210 23:58 08.06.2020
1840 Clouds 7 1013 56 10000 2.6 210 23:38 08.06.2020
1841 Clouds 7 1013 56 10000 2.6 210 23:19 08.06.2020
1842 Clouds 8 1013 52 10000 3.6 0 22:42 08.06.2020
1843 Clouds 8 1013 52 10000 3.6 0 22:22 08.06.2020
1844 Clouds 8 1012 72 10000 7.2 270 21:58 08.06.2020
1845 Clouds 8 1012 72 10000 7.2 270 21:40 08.06.2020
1846 Clouds 8 1012 72 10000 7.2 270 21:40 08.06.2020
1847 Clouds 8 1012 67 10000 7.2 270 21:21 08.06.2020
1848 Clouds 7 1012 65 10000 8.7 280 20:57 08.06.2020
1849 Clouds 7 1012 65 10000 8.7 280 20:39 08.06.2020
1850 Clouds 7 1012 65 10000 8.7 280 20:20 08.06.2020
1851 Rain 7 1013 65 10000 5.1 270 19:44 08.06.2020
1852 Rain 7 1013 65 10000 5.1 270 19:22 08.06.2020
1853 Rain 6 1013 81 10000 4.6 270 18:59 08.06.2020
1854 Rain 6 1013 81 10000 4.6 270 18:40 08.06.2020
1855 Rain 6 1013 81 10000 4.6 270 18:18 08.06.2020
1856 Rain 5 1013 80 8000 4.1 310 17:55 08.06.2020
1857 Rain 5 1013 80 8000 4.1 310 17:37 08.06.2020
1858 Rain 5 1013 80 8000 4.1 310 17:37 08.06.2020
1859 Rain 5 1013 80 8000 4.1 310 17:18 08.06.2020
1860 Rain 5 1012 86 10000 3.1 320 16:44 08.06.2020
1861 Rain 5 1012 86 10000 3.1 320 16:23 08.06.2020
1862 Clouds 4 1011 93 10000 3.1 300 15:46 08.06.2020
1863 Clouds 4 1011 93 10000 3.1 300 15:23 08.06.2020
1864 Rain 4 1011 93 10000 2.6 280 14:59 08.06.2020
1865 Rain 4 1011 93 10000 2.6 280 14:41 08.06.2020
1866 Rain 4 1011 93 10000 2.6 280 14:21 08.06.2020
1867 Rain 4 1010 93 10000 1.5 310 13:44 08.06.2020
1868 Rain 4 1010 93 10000 1.5 310 13:26 08.06.2020
1869 Rain 4 1009 93 10000 1.5 0 12:54 08.06.2020
1870 Rain 4 1009 93 10000 1.5 0 12:36 08.06.2020
1871 Rain 4 1009 93 10000 1.5 0 12:18 08.06.2020
1872 Rain 4 1008 93 10000 2.6 290 11:42 08.06.2020
1873 Rain 4 1008 93 10000 2.6 290 11:23 08.06.2020
1874 Rain 4 1008 93 10000 1.5 20 10:59 08.06.2020
1875 Rain 4 1008 93 10000 1.5 20 10:40 08.06.2020
1876 Rain 4 1008 93 10000 1.5 20 10:21 08.06.2020
1877 Rain 5 1006 93 10000 1 0 09:58 08.06.2020
1878 Rain 5 1006 93 10000 1 0 09:40 08.06.2020
1879 Rain 5 1006 93 10000 1 0 09:21 08.06.2020
1880 Rain 5 1006 93 10000 2.1 170 08:47 08.06.2020
1881 Rain 5 1006 93 10000 2.1 170 08:22 08.06.2020
1882 Rain 6 1006 87 9000 2.1 0 07:46 08.06.2020
1883 Rain 6 1006 87 9000 2.1 0 07:24 08.06.2020
1884 Rain 7 1005 81 10000 2.6 160 06:50 08.06.2020
1885 Rain 7 1005 81 10000 2.6 160 06:30 08.06.2020
1886 Rain 7 1005 81 10000 2.6 200 05:51 08.06.2020
1887 Rain 8 1005 75 10000 1.5 0 04:29 08.06.2020
1888 Rain 7 1006 87 10000 1.5 0 02:32 08.06.2020
1889 Rain 8 1007 75 10000 1.5 0 01:49 08.06.2020
1890 Rain 8 1007 75 10000 1.5 0 01:30 08.06.2020
1891 Rain 9 1007 66 10000 2.6 0 00:30 08.06.2020
1892 Clouds 10 1007 57 10000 3.1 0 23:42 07.06.2020
1893 Clouds 10 1007 57 10000 3.1 0 23:20 07.06.2020
1894 Clouds 10 1007 57 10000 4.1 250 22:59 07.06.2020
1895 Clouds 10 1007 57 10000 4.1 250 22:39 07.06.2020
1896 Clouds 10 1007 57 10000 4.1 250 22:19 07.06.2020
1897 Clouds 11 1008 53 10000 2.1 0 21:59 07.06.2020
1898 Clouds 11 1008 53 10000 2.1 0 21:38 07.06.2020
1899 Clouds 11 1008 53 10000 2.1 0 21:38 07.06.2020
1900 Clouds 11 1008 53 10000 2.1 0 21:20 07.06.2020
1901 Clouds 11 1009 53 10000 3.1 0 20:55 07.06.2020
1902 Clouds 11 1009 53 10000 3.1 0 20:37 07.06.2020
1903 Clouds 11 1009 53 10000 3.1 0 20:18 07.06.2020
1904 Clouds 11 1009 57 10000 2.1 0 19:55 07.06.2020
1905 Clouds 11 1009 57 10000 2.1 0 19:37 07.06.2020
1906 Clouds 11 1009 57 10000 2.1 0 19:18 07.06.2020
1907 Clouds 9 1011 61 10000 0.5 0 18:40 07.06.2020
1908 Clouds 9 1011 61 10000 0.5 0 18:22 07.06.2020
1909 Clouds 9 1011 61 10000 1.5 340 17:59 07.06.2020
1910 Clouds 9 1011 61 10000 1.5 340 17:40 07.06.2020
1911 Clouds 9 1011 61 10000 1.5 340 17:21 07.06.2020
1912 Clouds 7 1012 75 10000 2.1 310 16:44 07.06.2020
1913 Clouds 7 1012 75 10000 2.1 310 16:22 07.06.2020
1914 Clouds 6 1012 81 10000 2.1 350 15:44 07.06.2020
1915 Clouds 6 1012 81 10000 2.1 350 15:22 07.06.2020
1916 Clouds 6 1013 81 10000 2.6 280 14:59 07.06.2020
1917 Clouds 6 1013 81 10000 2.6 280 14:59 07.06.2020
1918 Clouds 6 1013 81 10000 2.6 280 14:59 07.06.2020
1919 Clouds 6 1013 81 10000 2.6 280 14:36 07.06.2020
1920 Clouds 6 1013 81 10000 2.6 280 14:18 07.06.2020
1921 Clouds 5 1013 86 10000 2.1 320 13:42 07.06.2020
1922 Clouds 5 1013 86 10000 2.1 320 13:42 07.06.2020
1923 Clouds 5 1013 86 10000 2.1 320 13:42 07.06.2020
1924 Clouds 5 1013 86 10000 2.1 320 13:42 07.06.2020
1925 Clouds 5 1013 86 10000 2.1 320 13:19 07.06.2020
1926 Clouds 6 1013 75 10000 2.6 290 12:43 07.06.2020
1927 Clouds 6 1013 75 10000 2.6 290 12:25 07.06.2020
1928 Clouds 4 1013 93 10000 2.6 280 11:55 07.06.2020
1929 Clouds 4 1013 93 10000 2.6 280 11:37 07.06.2020
1930 Clouds 4 1013 93 10000 2.6 280 11:19 07.06.2020
1931 Clouds 3 1013 93 10000 2.1 300 10:54 07.06.2020
1932 Clouds 3 1013 93 10000 2.1 300 10:36 07.06.2020
1933 Clouds 3 1013 93 10000 2.1 300 10:18 07.06.2020
1934 Clouds 3 1013 86 10000 1 0 09:41 07.06.2020
1935 Clouds 3 1013 86 10000 1 0 09:21 07.06.2020
1936 Clouds 4 1013 80 10000 1 0 08:59 07.06.2020
1937 Clouds 4 1013 80 10000 1 0 08:40 07.06.2020
1938 Clouds 4 1013 80 10000 1 0 08:21 07.06.2020
1939 Clouds 4 1014 80 10000 1 0 07:41 07.06.2020
1940 Clouds 4 1014 80 10000 1 0 07:41 07.06.2020
1941 Clouds 4 1014 80 10000 1 0 07:41 07.06.2020
1942 Clouds 6 1013 86 10000 1.5 0 06:56 07.06.2020
1943 Clouds 7 1013 65 10000 4.1 0 05:57 07.06.2020
1944 Clear 7 1011 65 10000 4.6 180 04:22 07.06.2020
1945 Rain 7 1010 70 10000 6.7 270 03:48 07.06.2020
1946 Rain 7 1010 70 10000 6.7 270 03:48 07.06.2020
1947 Rain 6 1010 81 10000 6.2 280 02:19 07.06.2020
1948 Rain 5 1009 93 10000 2.1 0 01:26 07.06.2020
1949 Rain 5 1008 86 10000 2.1 270 00:48 07.06.2020
1950 Rain 5 1008 86 10000 2.1 270 00:21 07.06.2020
1951 Rain 6 1006 87 10000 3.1 290 23:59 06.06.2020
1952 Rain 6 1006 87 10000 3.1 290 23:38 06.06.2020
1953 Rain 6 1006 87 10000 3.1 290 23:20 06.06.2020
1954 Rain 6 1006 87 10000 3.1 290 23:20 06.06.2020
1955 Rain 6 1004 87 10000 6.7 270 22:56 06.06.2020
1956 Rain 6 1004 87 10000 6.7 270 22:38 06.06.2020
1957 Rain 6 1004 87 10000 6.7 270 22:19 06.06.2020
1958 Rain 7 1003 81 10000 5.1 260 21:47 06.06.2020
1959 Rain 7 1003 81 10000 5.1 260 21:23 06.06.2020
1960 Rain 8 1002 81 10000 5.1 260 20:58 06.06.2020
1961 Rain 8 1002 81 10000 5.1 260 20:40 06.06.2020
1962 Rain 8 1002 81 10000 5.1 260 20:19 06.06.2020
1963 Rain 9 1002 93 10000 0.5 0 19:57 06.06.2020
1964 Rain 9 1002 93 10000 0.5 0 19:38 06.06.2020
1965 Rain 9 1002 93 10000 0.5 0 19:20 06.06.2020
1966 Rain 9 1001 93 10000 2.7 287 18:55 06.06.2020
1967 Rain 9 1001 93 10000 2.7 287 18:36 06.06.2020
1968 Rain 9 1001 93 10000 2.23 319 18:18 06.06.2020
1969 Rain 8 1002 87 10000 1 0 17:41 06.06.2020
1970 Rain 8 1002 87 10000 1 0 17:19 06.06.2020
1971 Rain 7 1001 93 10000 1.5 0 16:55 06.06.2020
1972 Rain 7 1001 93 10000 1.5 0 16:55 06.06.2020
1973 Rain 7 1001 93 10000 1.5 0 16:36 06.06.2020
1974 Rain 7 1001 93 10000 1.5 0 16:18 06.06.2020
1975 Clouds 9 1000 61 10000 3.1 130 15:42 06.06.2020
1976 Clouds 9 1000 61 10000 3.1 130 15:20 06.06.2020
1977 Clouds 7 1001 75 10000 1.5 0 14:54 06.06.2020
1978 Clouds 7 1001 75 10000 1.5 0 14:36 06.06.2020
1979 Clouds 7 1001 75 10000 1.5 0 14:18 06.06.2020
1980 Clouds 5 1002 86 10000 1.5 130 13:41 06.06.2020
1981 Clouds 5 1002 86 10000 1.5 130 13:18 06.06.2020
1982 Clouds 6 1003 81 10000 1 0 12:43 06.06.2020
1983 Clouds 6 1003 81 10000 1 0 12:43 06.06.2020
1984 Clouds 6 1003 81 10000 1 0 12:43 06.06.2020
1985 Clouds 6 1003 81 10000 1 0 12:43 06.06.2020
1986 Clouds 6 1003 81 10000 1 0 12:43 06.06.2020
1987 Clouds 6 1003 81 10000 1 0 12:24 06.06.2020
1988 Clouds 7 1004 75 10000 0.5 0 11:59 06.06.2020
1989 Clouds 7 1004 75 10000 0.5 0 11:39 06.06.2020
1990 Clouds 7 1004 75 10000 0.5 0 11:20 06.06.2020
1991 Clouds 7 1005 81 10000 3.86 342 10:59 06.06.2020
1992 Clouds 7 1005 81 10000 3.86 342 10:39 06.06.2020
1993 Clouds 7 1005 81 10000 4.07 345 10:21 06.06.2020
1994 Clouds 8 1005 75 10000 4.07 345 09:58 06.06.2020
1995 Clouds 8 1005 75 10000 4.07 345 09:58 06.06.2020
1996 Clouds 8 1005 75 10000 4.07 345 09:40 06.06.2020
1997 Clouds 8 1005 75 10000 4.43 349 09:20 06.06.2020
1998 Clouds 9 1006 70 10000 1 0 08:40 06.06.2020
1999 Clouds 9 1006 70 10000 1 0 08:20 06.06.2020
2000 Clouds 11 1006 62 10000 2.1 0 07:45 06.06.2020
2001 Clouds 11 1006 62 10000 2.1 0 07:22 06.06.2020
2002 Clouds 13 1007 54 10000 2.6 0 06:47 06.06.2020
2003 Clouds 13 1007 54 10000 2.6 0 06:29 06.06.2020
2004 Clouds 13 1007 54 10000 2.6 0 05:54 06.06.2020
2005 Clouds 13 1007 54 10000 2.6 0 05:28 06.06.2020
2006 Clouds 13 1008 54 10000 2.6 230 04:43 06.06.2020
2007 Clouds 13 1008 54 10000 3.1 0 02:49 06.06.2020
2008 Clouds 14 1008 50 10000 3.6 250 01:54 06.06.2020
2009 Clouds 14 1008 50 10000 3.6 250 01:18 06.06.2020
2010 Clouds 14 1008 50 10000 5.7 270 00:43 06.06.2020
2011 Clouds 14 1008 50 10000 5.7 270 00:25 06.06.2020
2012 Clouds 14 1008 50 10000 7.7 260 23:40 05.06.2020
2013 Clouds 14 1008 50 10000 7.7 260 23:21 05.06.2020
2014 Clouds 14 1008 50 10000 9.8 280 22:59 05.06.2020
2015 Clouds 14 1008 50 10000 9.8 280 22:41 05.06.2020
2016 Clouds 14 1008 50 10000 9.8 280 22:23 05.06.2020
2017 Rain 14 1008 50 10000 9.3 270 21:58 05.06.2020
2018 Rain 14 1008 50 10000 9.3 270 21:40 05.06.2020
2019 Rain 14 1008 50 10000 9.3 270 21:19 05.06.2020
2020 Clouds 15 1009 47 10000 8.2 270 20:55 05.06.2020
2021 Clouds 15 1009 47 10000 8.2 270 20:37 05.06.2020
2022 Clouds 15 1009 47 10000 8.2 270 20:18 05.06.2020
2023 Clouds 15 1009 44 10000 7.7 270 19:40 05.06.2020
2024 Clouds 15 1009 44 10000 7.7 270 19:21 05.06.2020
2025 Clouds 14 1010 50 10000 8.2 270 18:40 05.06.2020
2026 Clouds 14 1010 50 10000 8.2 270 18:21 05.06.2020
2027 Clouds 14 1010 50 10000 6.7 280 17:59 05.06.2020
2028 Clouds 14 1010 50 10000 6.7 280 17:41 05.06.2020
2029 Clouds 14 1010 50 10000 6.7 280 17:22 05.06.2020
2030 Clouds 13 1010 50 10000 5.1 290 16:58 05.06.2020
2031 Clouds 13 1010 50 10000 5.1 290 16:37 05.06.2020
2032 Clouds 13 1010 50 10000 5.1 290 16:19 05.06.2020
2033 Clouds 13 1010 50 10000 7.2 280 15:39 05.06.2020
2034 Clouds 13 1010 50 10000 7.2 280 15:20 05.06.2020
2035 Clouds 13 1010 50 10000 6.7 270 14:57 05.06.2020
2036 Clouds 13 1010 50 10000 6.7 270 14:39 05.06.2020
2037 Clouds 13 1010 50 10000 6.7 270 14:21 05.06.2020
2038 Clouds 13 1010 54 10000 6.7 270 13:46 05.06.2020
2039 Clouds 13 1010 54 10000 6.7 270 13:27 05.06.2020
2040 Clouds 13 1010 54 10000 5.7 260 12:56 05.06.2020
2041 Clouds 13 1010 54 10000 5.7 260 12:37 05.06.2020
2042 Clouds 13 1010 54 10000 5.7 260 12:18 05.06.2020
2043 Clouds 13 1011 50 10000 7.2 280 11:42 05.06.2020
2044 Clouds 13 1011 50 10000 7.2 280 11:23 05.06.2020
2045 Clouds 13 1011 50 10000 6.7 270 10:57 05.06.2020
2046 Clouds 13 1011 50 10000 6.7 270 10:39 05.06.2020
2047 Clouds 13 1011 50 10000 6.7 270 10:19 05.06.2020
2048 Clouds 13 1011 54 10000 6.7 270 09:56 05.06.2020
2049 Clouds 13 1011 54 10000 6.7 270 09:37 05.06.2020
2050 Clouds 13 1011 54 10000 6.7 270 09:19 05.06.2020
2051 Clouds 14 1011 54 10000 7.7 250 08:56 05.06.2020
2052 Clouds 14 1011 54 10000 7.7 250 08:38 05.06.2020
2053 Clouds 14 1011 54 10000 7.7 250 08:18 05.06.2020
2054 Clouds 13 1012 58 10000 5.7 260 07:44 05.06.2020
2055 Clouds 13 1012 58 10000 5.7 260 07:25 05.06.2020
2056 Clouds 13 1012 58 10000 3.6 190 06:36 05.06.2020
2057 Clouds 13 1013 58 10000 4.6 210 05:22 05.06.2020
2058 Clouds 13 1012 58 10000 5.1 0 04:27 05.06.2020
2059 Clouds 12 1012 66 10000 3.6 0 03:29 05.06.2020
2060 Clouds 13 1012 62 10000 3.6 280 02:26 05.06.2020
2061 Clouds 12 1012 66 10000 5.7 0 01:56 05.06.2020
2062 Clouds 12 1012 66 10000 5.7 0 01:27 05.06.2020
2063 Clouds 6 1015 79 0 4.1 336 00:42 05.06.2020
2064 Rain 13 1012 62 10000 6.2 280 00:21 05.06.2020
2065 Rain 13 1012 62 10000 6.2 280 23:46 04.06.2020
2066 Rain 13 1012 62 10000 6.2 280 23:28 04.06.2020
2067 Rain 13 1011 62 10000 6.7 270 22:56 04.06.2020
2068 Rain 13 1011 62 10000 6.7 270 22:36 04.06.2020
2069 Rain 13 1011 62 10000 6.7 270 22:18 04.06.2020
2070 Rain 13 1012 62 10000 7.2 280 21:56 04.06.2020
2071 Rain 13 1012 62 10000 7.2 280 21:36 04.06.2020
2072 Rain 13 1012 62 10000 7.2 280 21:18 04.06.2020
2073 Rain 13 1012 62 10000 8.2 280 20:40 04.06.2020
2074 Rain 13 1012 62 10000 8.2 280 20:22 04.06.2020
2075 Rain 13 1013 58 10000 9.8 290 19:59 04.06.2020
2076 Rain 13 1013 58 10000 9.8 290 19:39 04.06.2020
2077 Rain 13 1013 58 10000 9.8 290 19:21 04.06.2020
2078 Clouds 13 1014 58 10000 8.7 290 18:56 04.06.2020
2079 Clouds 13 1014 58 10000 8.7 290 18:37 04.06.2020
2080 Clouds 13 1014 58 10000 8.7 290 18:19 04.06.2020
2081 Clouds 12 1014 58 10000 5.7 270 17:42 04.06.2020
2082 Clouds 12 1014 58 10000 5.7 270 17:21 04.06.2020
2083 Clouds 12 1014 58 10000 5.7 270 17:21 04.06.2020
2084 Clouds 11 1014 57 10000 5.1 260 16:55 04.06.2020
2085 Clouds 11 1014 57 10000 5.1 260 16:37 04.06.2020
2086 Clouds 11 1014 57 10000 5.1 260 16:18 04.06.2020
2087 Clouds 11 1015 57 10000 4.1 280 15:41 04.06.2020
2088 Clouds 11 1015 57 10000 4.1 280 15:22 04.06.2020
2089 Clouds 10 1014 57 10000 4.1 0 14:39 04.06.2020
2090 Clouds 10 1014 57 10000 4.1 0 14:20 04.06.2020
2091 Clouds 9 1014 49 10000 4.1 0 13:56 04.06.2020
2092 Clouds 9 1014 49 10000 4.1 0 13:37 04.06.2020
2093 Clouds 9 1014 49 10000 4.1 0 13:19 04.06.2020
2094 Clouds 9 1014 34 10000 6.2 250 12:54 04.06.2020
2095 Clouds 9 1014 34 10000 6.2 250 12:36 04.06.2020
2096 Clouds 9 1014 34 10000 6.2 250 12:18 04.06.2020
2097 Clouds 9 1015 21 10000 6.7 270 11:39 04.06.2020
2098 Clouds 9 1015 21 10000 6.7 270 11:20 04.06.2020
2099 Clouds 10 1016 15 10000 7.7 270 10:58 04.06.2020
2100 Clouds 10 1016 15 10000 7.7 270 10:38 04.06.2020
2101 Clouds 10 1016 15 10000 7.7 270 10:19 04.06.2020
2102 Clouds 10 1016 15 10000 5.1 250 09:45 04.06.2020
2103 Clouds 10 1016 15 10000 5.1 250 09:45 04.06.2020
2104 Clouds 10 1016 15 10000 5.1 250 09:27 04.06.2020
2105 Clouds 10 1016 16 10000 6.7 270 08:46 04.06.2020
2106 Clouds 10 1016 16 10000 6.7 270 08:27 04.06.2020
2107 Clouds 10 1016 18 10000 5.1 0 07:52 04.06.2020
2108 Clouds 10 1016 18 10000 5.1 0 07:29 04.06.2020
2109 Clouds 5 1017 41 10000 2.1 0 06:44 04.06.2020
2110 Clouds 5 1017 41 10000 2.1 0 06:26 04.06.2020
2111 Clouds 2 1018 74 10000 3.1 290 05:39 04.06.2020
2112 Clouds 2 1018 74 10000 3.1 290 05:20 04.06.2020
2113 Clouds 3 1019 76 10000 4.1 300 03:25 04.06.2020
2114 Clouds 3 1021 86 10000 2.6 290 01:57 04.06.2020
2115 Clear 3 1021 86 10000 2.6 290 01:20 04.06.2020
2116 Clear 3 1022 93 10000 2.6 310 00:49 04.06.2020
2117 Clear 4 1022 86 10000 2.1 330 23:48 03.06.2020
2118 Clear 4 1022 86 10000 2.1 330 23:21 03.06.2020
2119 Clear 4 1023 86 10000 2.6 300 22:59 03.06.2020
2120 Clear 4 1023 86 10000 2.6 300 22:39 03.06.2020
2121 Clear 4 1023 86 10000 2.6 300 22:19 03.06.2020
2122 Clear 4 1024 86 10000 2.1 310 21:57 03.06.2020
2123 Clear 4 1024 86 10000 2.1 310 21:39 03.06.2020
2124 Clear 4 1024 86 10000 2.1 310 21:21 03.06.2020
2125 Clouds 3 1025 86 10000 2.1 280 20:56 03.06.2020
2126 Clouds 3 1025 86 10000 2.1 280 20:37 03.06.2020
2127 Clouds 3 1025 86 10000 2.1 280 20:19 03.06.2020
2128 Clouds 2 1026 93 10000 1 0 19:56 03.06.2020
2129 Clouds 2 1026 93 10000 1 0 19:36 03.06.2020
2130 Clouds 2 1026 93 10000 1 0 19:18 03.06.2020
2131 Mist 1 1027 100 10000 1 0 18:43 03.06.2020
2132 Mist 1 1027 100 10000 1 0 18:22 03.06.2020
2133 Mist 1 1027 100 10000 1 0 18:22 03.06.2020
2134 Mist 1 1028 100 4000 1.5 20 17:57 03.06.2020
2135 Mist 1 1028 100 4000 1.5 20 17:37 03.06.2020
2136 Mist 1 1028 100 4000 1.5 20 17:19 03.06.2020
2137 Mist 0 1028 71 4000 1.5 80 16:42 03.06.2020
2138 Mist 0 1028 75 4000 1.5 80 16:21 03.06.2020
2139 Fog 0 1028 75 900 1.59 315 15:59 03.06.2020
2140 Fog 0 1028 75 900 1.59 315 15:41 03.06.2020
2141 Fog 0 1028 84 900 1.67 333 15:20 03.06.2020
2142 Clear 0 1028 84 7000 1 0 14:47 03.06.2020
2143 Clear 0 1028 87 7000 1 0 14:25 03.06.2020
2144 Clear 1 1028 100 10000 1.5 40 13:56 03.06.2020
2145 Clear 1 1028 100 10000 1.5 40 13:38 03.06.2020
2146 Clear 1 1028 100 10000 1.5 40 13:18 03.06.2020
2147 Clear 1 1028 100 6000 1 0 12:42 03.06.2020
2148 Clear 1 1028 100 6000 1 0 12:21 03.06.2020
2149 Mist 1 1027 100 1100 1.2 324 11:45 03.06.2020
2150 Mist 1 1027 100 1100 1 333 11:26 03.06.2020
2151 Mist 1 1027 100 1600 1 333 10:56 03.06.2020
2152 Mist 1 1027 100 1600 1 333 10:56 03.06.2020
2153 Mist 1 1027 100 1600 1 333 10:38 03.06.2020
2154 Mist 1 1027 100 1600 0.83 311 10:20 03.06.2020
2155 Mist 1 1027 100 1100 1.5 320 09:42 03.06.2020
2156 Mist 1 1027 100 1100 1.5 320 09:19 03.06.2020
2157 Fog 1 1026 100 800 1 330 08:47 03.06.2020
2158 Fog 1 1026 100 800 1 330 08:24 03.06.2020
2159 Fog 1 1026 100 500 1 0 07:58 03.06.2020
2160 Fog 1 1026 100 500 1 0 07:39 03.06.2020
2161 Fog 1 1026 100 500 1 0 07:18 03.06.2020
2162 Fog 2 1026 93 450 1.5 280 06:45 03.06.2020
2163 Fog 2 1026 93 450 1.5 280 06:27 03.06.2020
2164 Clouds 2 1025 84 0 0.99 19 05:45 03.06.2020
2165 Fog 2 1024 100 10000 1.5 270 04:30 03.06.2020
2166 Rain 2 1023 100 10000 1.5 300 03:42 03.06.2020
2167 Clouds 3 1022 93 10000 1.5 0 02:42 03.06.2020
2168 Clouds 4 1021 93 10000 1.5 330 01:46 03.06.2020
2169 Clouds 5 1020 86 10000 2.1 320 00:39 03.06.2020
2170 Clouds 5 1020 86 10000 2.1 320 00:21 03.06.2020
2171 Haze 6 1019 81 10000 2.1 320 23:46 02.06.2020
2172 Haze 6 1019 81 10000 2.1 320 23:27 02.06.2020
2173 Haze 8 1018 75 10000 2.1 320 22:55 02.06.2020
2174 Haze 8 1018 75 10000 2.1 320 22:36 02.06.2020
2175 Haze 8 1018 75 10000 2.1 320 22:18 02.06.2020
2176 Clouds 9 1017 76 10000 2.6 340 21:54 02.06.2020
2177 Clouds 9 1017 76 10000 2.6 340 21:36 02.06.2020
2178 Clouds 9 1017 76 10000 2.6 340 21:18 02.06.2020
2179 Clouds 11 1016 57 10000 3.6 320 20:42 02.06.2020
2180 Clouds 11 1016 57 10000 3.6 320 20:23 02.06.2020
2181 Clouds 11 1016 57 10000 3.6 320 20:23 02.06.2020
2182 Clouds 6 1018 74 0 0.49 40 19:58 02.06.2020
2183 Clouds 6 1018 74 0 0.49 40 19:39 02.06.2020
2184 Clouds 8 1016 87 10000 2.1 330 19:21 02.06.2020
2185 Clouds 8 1016 87 10000 2.1 330 18:55 02.06.2020
2186 Clouds 8 1016 87 10000 2.1 330 18:37 02.06.2020
2187 Clouds 8 1016 87 10000 2.1 330 18:18 02.06.2020
2188 Clouds 5 1016 100 10000 1.5 320 17:41 02.06.2020
2189 Clouds 5 1016 100 10000 1.5 320 17:22 02.06.2020
2190 Haze 5 1016 100 10000 2.6 280 16:56 02.06.2020
2191 Haze 5 1016 100 10000 2.6 280 16:38 02.06.2020
2192 Haze 5 1016 100 10000 2.6 280 16:20 02.06.2020
2193 Haze 5 1015 100 10000 2.1 270 15:44 02.06.2020
2194 Haze 5 1015 100 10000 2.1 270 15:24 02.06.2020
2195 Rain 5 1014 100 10000 0.5 0 14:49 02.06.2020
2196 Rain 5 1014 100 10000 0.5 0 14:30 02.06.2020
2197 Clouds 5 1013 100 10000 1 0 13:58 02.06.2020
2198 Clouds 5 1013 100 10000 1 0 13:38 02.06.2020
2199 Clouds 5 1013 100 10000 1 0 13:19 02.06.2020
2200 Rain 6 1013 93 10000 1.5 0 12:57 02.06.2020
2201 Rain 6 1013 93 10000 1.5 0 12:39 02.06.2020
2202 Rain 6 1013 93 10000 1.5 0 12:20 02.06.2020
2203 Rain 6 1013 93 10000 1.5 0 11:54 02.06.2020
2204 Rain 6 1013 93 10000 1.5 0 11:36 02.06.2020
2205 Rain 6 1013 93 10000 1.5 0 11:18 02.06.2020
2206 Rain 6 1013 100 10000 1 0 10:41 02.06.2020
2207 Rain 6 1013 100 10000 1 0 10:41 02.06.2020
2208 Rain 6 1013 100 10000 1 0 10:22 02.06.2020
2209 Rain 7 1013 87 10000 3.6 320 09:43 02.06.2020
2210 Rain 7 1013 87 10000 3.6 320 09:22 02.06.2020
2211 Rain 8 1012 81 10000 2.1 0 08:57 02.06.2020
2212 Rain 8 1012 81 10000 2.1 0 08:29 02.06.2020
2213 Rain 8 1011 81 10000 2.6 0 07:59 02.06.2020
2214 Rain 8 1011 81 10000 2.6 0 07:38 02.06.2020
2215 Rain 8 1011 81 10000 2.6 0 07:18 02.06.2020
2216 Rain 7 1011 93 10000 3.1 330 06:39 02.06.2020
2217 Rain 8 1012 87 10000 1.5 320 05:38 02.06.2020
2218 Rain 8 1012 87 10000 4.6 280 04:41 02.06.2020
2219 Rain 7 1011 93 10000 2.1 0 02:37 02.06.2020
2220 Rain 8 1012 87 10000 3.1 280 01:55 02.06.2020
2221 Rain 8 1013 93 10000 2.6 0 00:51 02.06.2020
2222 Rain 8 1013 93 10000 2.6 0 00:21 02.06.2020
2223 Rain 8 1014 93 10000 2.1 280 23:39 01.06.2020
2224 Rain 8 1014 93 10000 2.1 280 23:20 01.06.2020
2225 Rain 7 1014 93 6000 2.6 300 22:58 01.06.2020
2226 Rain 7 1014 93 6000 2.6 300 22:39 01.06.2020
2227 Rain 7 1014 93 6000 2.6 300 22:19 01.06.2020
2228 Rain 7 1014 93 6000 2.6 300 22:19 01.06.2020
2229 Fog 6 1015 93 10000 0.5 0 21:42 01.06.2020
2230 Fog 6 1015 93 10000 0.5 0 21:21 01.06.2020
2231 Drizzle 5 1015 93 8000 2.1 300 20:59 01.06.2020
2232 Drizzle 5 1015 93 8000 2.1 300 20:41 01.06.2020
2233 Drizzle 5 1015 93 8000 2.1 300 20:20 01.06.2020
2234 Fog 4 1017 93 10000 0.5 0 19:58 01.06.2020
2235 Fog 4 1017 93 10000 0.5 0 19:39 01.06.2020
2236 Fog 4 1017 93 10000 0.5 0 19:20 01.06.2020
2237 Fog 3 1018 100 10000 1 0 18:57 01.06.2020
2238 Fog 3 1018 100 10000 1 0 18:38 01.06.2020
2239 Fog 3 1018 100 10000 1 0 18:19 01.06.2020
2240 Fog 2 1019 100 10000 1.92 289 17:41 01.06.2020
2241 Fog 2 1019 100 10000 2.1 297 17:20 01.06.2020
2242 Mist 1 1020 100 4000 2.1 297 16:56 01.06.2020
2243 Mist 1 1020 100 4000 2.1 297 16:38 01.06.2020
2244 Fog -3 1018 100 100 1 50 16:18 01.06.2020
2245 Fog -3 1018 100 100 1 50 15:44 01.06.2020
2246 Fog -3 1018 100 100 1 50 15:21 01.06.2020
2247 Fog -3 1018 100 100 1 50 14:59 01.06.2020
2248 Fog -3 1018 100 100 1 50 14:59 01.06.2020
2249 Mist 1 1020 100 1900 0.5 0 14:41 01.06.2020
2250 Mist 1 1020 100 1900 0.5 0 14:21 01.06.2020
2251 Mist 1 1020 100 1900 0.5 0 14:21 01.06.2020
2252 Mist 1 1021 100 1100 1 0 13:56 01.06.2020
2253 Mist 1 1021 100 1100 1 0 13:37 01.06.2020
2254 Mist 1 1021 100 1100 1 0 13:19 01.06.2020
2255 Clouds 1 1021 100 10000 2.14 275 12:55 01.06.2020
2256 Clouds 1 1021 100 10000 2.14 275 12:37 01.06.2020
2257 Clouds 1 1021 100 10000 2.14 275 12:37 01.06.2020
2258 Clouds 1 1021 100 10000 2.05 283 12:18 01.06.2020
2259 Clouds 1 1022 100 10000 2.05 283 11:40 01.06.2020
2260 Clouds 1 1022 100 10000 1.97 282 11:22 01.06.2020
2261 Clouds 1 1023 100 10000 1 0 10:57 01.06.2020
2262 Clouds 1 1023 100 10000 1 0 10:37 01.06.2020
2263 Clouds 1 1023 100 10000 1 0 10:18 01.06.2020
2264 Mist 0 1023 83 2400 1 0 09:46 01.06.2020
2265 Mist 0 1023 82 2400 1 0 09:27 01.06.2020
2266 Mist 0 1023 82 1200 1.8 291 08:59 01.06.2020
2267 Mist 0 1023 82 1200 1.8 291 08:40 01.06.2020
2268 Mist 0 1023 81 1200 1.61 277 08:22 01.06.2020
2269 Mist 0 1024 81 1200 1.61 277 07:42 01.06.2020
2270 Mist 0 1024 81 1200 1.45 290 07:24 01.06.2020
2271 Fog 0 1024 81 600 1.45 290 06:51 01.06.2020
2272 Fog -1 1024 100 700 1.23 291 05:58 01.06.2020
2273 Fog -1 1024 100 700 1.17 281 05:22 01.06.2020
2274 Fog -1 1025 100 450 1.21 284 04:18 01.06.2020
2275 Fog -1 1025 100 550 1 290 03:42 01.06.2020
2276 Clear -1 1025 100 10000 0.93 300 02:57 01.06.2020
2277 Clouds 0 1025 82 10000 1 0 01:40 01.06.2020
2278 Clouds 0 1025 82 10000 1 0 01:18 01.06.2020
2279 Clouds 1 1025 82 10000 1.01 285 00:56 01.06.2020
2280 Clouds 1 1025 82 10000 1.01 285 00:37 01.06.2020
2281 Clouds 1 1025 81 10000 0.63 305 00:19 01.06.2020
2282 Clouds 2 1025 93 10000 1.5 340 23:41 31.05.2020
2283 Clouds 2 1025 93 10000 1.5 340 23:22 31.05.2020
2284 Clouds 3 1025 86 10000 1.5 0 22:58 31.05.2020
2285 Clouds 3 1025 86 10000 1.5 0 22:40 31.05.2020
2286 Clouds 3 1025 86 10000 1.5 0 22:21 31.05.2020
2287 Clouds 4 1025 80 10000 1.5 320 21:57 31.05.2020
2288 Clouds 4 1025 80 10000 1.5 320 21:38 31.05.2020
2289 Clouds 4 1025 80 10000 1.5 320 21:20 31.05.2020
2290 Clouds 2 1026 62 10000 2.6 100 20:42 31.05.2020
2291 Clouds 2 1026 62 10000 2.6 100 20:24 31.05.2020
2292 Clouds 2 1026 93 10000 4.1 110 19:56 31.05.2020
2293 Clouds 2 1026 93 10000 4.1 110 19:37 31.05.2020
2294 Clouds 2 1026 93 10000 4.1 110 19:19 31.05.2020
2295 Clouds 2 1027 64 10000 2.6 110 18:44 31.05.2020
2296 Clouds 2 1027 66 10000 2.6 110 18:25 31.05.2020
2297 Clouds 1 1028 66 10000 2.6 110 17:57 31.05.2020
2298 Clouds 1 1028 66 10000 2.6 110 17:39 31.05.2020
2299 Clouds 1 1028 68 10000 2.6 110 17:19 31.05.2020
2300 Clouds 1 1028 68 10000 2.6 120 16:40 31.05.2020
2301 Clouds 1 1028 69 10000 2.6 120 16:21 31.05.2020
2302 Clouds 1 1028 69 10000 2.6 120 16:21 31.05.2020
2303 Clouds 1 1027 69 10000 2.1 130 15:40 31.05.2020
2304 Clouds 1 1027 71 10000 2.1 130 15:22 31.05.2020
2305 Clouds 1 1026 71 10000 3.1 120 14:56 31.05.2020
2306 Clouds 1 1026 71 10000 3.1 120 14:38 31.05.2020
2307 Clouds 1 1026 75 10000 3.1 120 14:18 31.05.2020
2308 Clouds 1 1027 75 10000 2.1 100 13:54 31.05.2020
2309 Clouds 1 1027 75 10000 2.1 100 13:36 31.05.2020
2310 Clouds 1 1027 76 10000 2.1 100 13:18 31.05.2020
2311 Clouds 1 1026 100 10000 1.5 110 12:41 31.05.2020
2312 Clouds 1 1026 100 10000 1.5 110 12:22 31.05.2020
2313 Clouds 1 1026 100 10000 1 0 11:49 31.05.2020
2314 Clouds 1 1026 100 10000 1 0 11:24 31.05.2020
2315 Clouds 1 1026 100 10000 1 0 11:24 31.05.2020
2316 Clouds 1 1027 100 10000 1.5 130 10:58 31.05.2020
2317 Clouds 1 1027 100 10000 1.5 130 10:58 31.05.2020
2318 Clouds 1 1027 100 10000 1.5 130 10:39 31.05.2020
2319 Clouds 1 1027 100 10000 1.5 130 10:21 31.05.2020
2320 Clouds 1 1027 100 10000 2.6 130 09:46 31.05.2020
2321 Clouds 1 1027 100 10000 2.6 130 09:24 31.05.2020
2322 Clouds 2 1027 93 10000 1.14 249 08:59 31.05.2020
2323 Clouds 2 1027 93 10000 1.14 249 08:40 31.05.2020
2324 Clouds 2 1027 93 10000 1.03 256 08:22 31.05.2020
2325 Clouds 2 1027 93 10000 2.1 310 07:46 31.05.2020
2326 Clear 2 1027 93 10000 2.1 310 07:21 31.05.2020
2327 Clear 1 1027 100 10000 2.1 280 06:55 31.05.2020
2328 Clear 1 1027 100 10000 2.1 280 06:34 31.05.2020
2329 Clear 1 1027 100 10000 2.6 270 05:45 31.05.2020
2330 Clear 1 1027 100 10000 3.1 270 04:33 31.05.2020
2331 Clear 1 1027 100 10000 2.1 250 03:51 31.05.2020
2332 Clear 1 1027 100 10000 2.1 260 02:59 31.05.2020
2333 Clear 1 1026 100 10000 2.6 280 01:50 31.05.2020
2334 Clear 1 1026 100 10000 2.6 280 01:28 31.05.2020
2335 Clear 2 1026 93 10000 1.5 260 00:31 31.05.2020
2336 Clear 2 1026 93 10000 2.1 260 23:59 30.05.2020
2337 Clear 2 1026 93 10000 2.1 260 23:39 30.05.2020
2338 Clear 2 1026 93 10000 2.1 260 23:21 30.05.2020
2339 Clear 3 1026 86 10000 1 260 22:41 30.05.2020
2340 Clear 3 1026 86 10000 1 260 22:23 30.05.2020
2341 Clear 2 1027 93 10000 1.5 320 21:56 30.05.2020
2342 Clear 2 1027 93 10000 1.5 320 21:38 30.05.2020
2343 Clear 2 1027 93 10000 1.5 320 21:20 30.05.2020
2344 Clear 2 1027 59 10000 1.5 50 20:56 30.05.2020
2345 Clear 2 1027 59 10000 1.5 50 20:38 30.05.2020
2346 Clear 2 1027 58 10000 1.5 50 20:20 30.05.2020
2347 Clear 1 1028 58 10000 1 0 19:43 30.05.2020
2348 Clear 1 1028 60 10000 1 0 19:22 30.05.2020
2349 Clear 1 1028 60 10000 2.1 260 18:46 30.05.2020
2350 Clear 1 1028 63 10000 2.1 260 18:25 30.05.2020
2351 Clear 0 1029 63 10000 1 0 17:55 30.05.2020
2352 Clear 0 1029 63 10000 1 0 17:37 30.05.2020
2353 Clear 0 1029 68 10000 1 0 17:18 30.05.2020
2354 Clear 0 1029 68 10000 1.33 263 16:43 30.05.2020
2355 Clear 0 1029 74 10000 1.37 263 16:22 30.05.2020
2356 Clear 0 1029 74 10000 1.37 263 15:49 30.05.2020
2357 Clear 0 1029 74 10000 1.37 263 15:29 30.05.2020
2358 Clear 0 1029 81 10000 1.36 271 15:00 30.05.2020
2359 Clear 0 1029 81 10000 1.36 271 14:41 30.05.2020
2360 Clear 0 1029 87 10000 1.13 276 14:18 30.05.2020
2361 Clear 0 1029 87 10000 1.13 276 13:41 30.05.2020
2362 Clear 0 1029 87 10000 0.95 286 13:18 30.05.2020
2363 Clear 0 1029 87 10000 0.95 286 12:39 30.05.2020
2364 Clear 0 1029 87 10000 0.86 271 12:20 30.05.2020
2365 Mist 0 1029 87 4300 0.86 271 11:54 30.05.2020
2366 Mist 0 1029 87 4300 0.86 271 11:36 30.05.2020
2367 Mist 0 1029 87 4300 0.82 273 11:18 30.05.2020
2368 Mist 0 1029 87 1200 0.82 273 10:39 30.05.2020
2369 Mist 0 1029 87 1200 0.85 277 10:20 30.05.2020
2370 Mist 0 1029 87 1100 0.85 277 09:45 30.05.2020
2371 Mist 0 1029 91 1100 1.12 302 09:27 30.05.2020
2372 Fog 0 1029 91 900 1.12 302 08:46 30.05.2020
2373 Fog 0 1029 91 900 1.07 307 08:27 30.05.2020
2374 Fog -1 1030 100 600 1.07 307 07:41 30.05.2020
2375 Fog -1 1030 100 600 1.05 315 07:20 30.05.2020
2376 Fog -1 1030 100 400 1.05 315 06:31 30.05.2020
2377 Fog -1 1030 100 250 1.02 314 05:52 30.05.2020
2378 Fog -1 1030 100 250 1.09 319 05:19 30.05.2020
2379 Clear 1 1029 100 10000 0.5 0 02:56 30.05.2020
2380 Clouds 1 1029 100 10000 0.5 0 02:23 30.05.2020
2381 Clouds 2 1029 93 10000 0.69 336 01:20 30.05.2020
2382 Clouds 3 1028 93 10000 1 0 00:36 30.05.2020
2383 Clouds 3 1028 93 10000 1 0 00:18 30.05.2020
2384 Clouds 6 1028 81 10000 3.1 130 23:38 29.05.2020
2385 Clouds 6 1028 81 10000 3.1 130 23:19 29.05.2020
2386 Haze 6 1027 87 10000 0.5 0 22:55 29.05.2020
2387 Haze 6 1027 87 10000 0.5 0 22:36 29.05.2020
2388 Haze 6 1027 87 10000 0.5 0 22:18 29.05.2020
2389 Clouds 7 1027 70 10000 1.5 150 21:40 29.05.2020
2390 Clouds 7 1027 70 10000 1.5 150 21:21 29.05.2020
2391 Clouds 6 1027 81 10000 2.1 120 20:58 29.05.2020
2392 Clouds 6 1027 81 10000 2.1 120 20:39 29.05.2020
2393 Clouds 6 1027 81 10000 2.1 120 20:19 29.05.2020
2394 Clouds 4 1027 86 10000 1.5 340 19:43 29.05.2020
2395 Clouds 4 1027 86 10000 1.5 340 19:24 29.05.2020
2396 Clouds 5 1028 86 10000 2.1 320 18:48 29.05.2020
2397 Clouds 5 1028 86 10000 2.1 320 18:23 29.05.2020
2398 Fog 3 1028 100 10000 2.1 300 17:59 29.05.2020
2399 Fog 3 1028 100 10000 2.1 300 17:39 29.05.2020
2400 Fog 3 1028 100 10000 2.1 300 17:20 29.05.2020
2401 Fog 2 1028 100 300 1.5 290 16:47 29.05.2020
2402 Fog 2 1028 100 300 1.5 290 16:29 29.05.2020
2403 Fog 2 1027 100 300 1.5 320 15:59 29.05.2020
2404 Fog 2 1027 100 300 1.5 320 15:41 29.05.2020
2405 Fog 2 1027 100 300 1.5 320 15:21 29.05.2020
2406 Snow 2 1027 100 10000 1.5 270 14:57 29.05.2020
2407 Snow 2 1027 100 10000 1.5 270 14:38 29.05.2020
2408 Snow 2 1027 100 10000 1.5 270 14:19 29.05.2020
2409 Snow 2 1026 100 10000 2.23 190 13:41 29.05.2020
2410 Snow 2 1026 100 10000 2.51 181 13:21 29.05.2020
2411 Snow 2 1025 100 6000 0.5 0 12:55 29.05.2020
2412 Snow 2 1025 100 6000 0.5 0 12:37 29.05.2020
2413 Snow 2 1025 100 6000 0.5 0 12:18 29.05.2020
2414 Snow 3 1025 93 10000 1.5 250 11:42 29.05.2020
2415 Snow 3 1025 93 10000 1.5 250 11:24 29.05.2020
2416 Snow 3 1025 100 10000 1 0 10:43 29.05.2020
2417 Snow 3 1025 100 10000 1 0 10:24 29.05.2020
2418 Snow 3 1024 100 10000 1 0 09:56 29.05.2020
2419 Snow 3 1024 100 10000 1 0 09:38 29.05.2020
2420 Snow 3 1024 100 10000 1 0 09:19 29.05.2020
2421 Rain 3 1024 100 10000 1.5 310 08:46 29.05.2020
2422 Rain 3 1024 100 10000 1.5 310 08:22 29.05.2020
2423 Rain 3 1024 100 10000 1 300 07:46 29.05.2020
2424 Rain 3 1024 100 10000 1 300 07:28 29.05.2020
2425 Snow 3 1024 93 10000 1.5 280 06:52 29.05.2020
2426 Snow 3 1024 93 10000 1.5 280 06:30 29.05.2020
2427 Rain 3 1023 93 10000 1.5 320 05:58 29.05.2020
2428 Rain 3 1023 93 10000 1.5 320 05:24 29.05.2020
2429 Snow 3 1021 100 10000 1.48 234 01:48 29.05.2020
2430 Snow 3 1021 100 10000 2.2 240 01:25 29.05.2020
2431 Snow 4 1020 93 10000 0.5 0 00:49 29.05.2020
2432 Snow 4 1020 93 10000 0.5 0 00:23 29.05.2020
2433 Haze 5 1020 93 10000 1 0 23:41 28.05.2020
2434 Haze 5 1020 93 10000 1 0 23:20 28.05.2020
2435 Clouds 5 1018 86 10000 1.5 300 22:59 28.05.2020
2436 Clouds 5 1018 86 10000 1.5 300 22:39 28.05.2020
2437 Clouds 5 1018 86 10000 1.5 300 22:18 28.05.2020
2438 Clouds 5 1018 80 10000 2.1 260 21:54 28.05.2020
2439 Clouds 5 1018 80 10000 2.1 260 21:36 28.05.2020
2440 Clouds 5 1018 80 10000 2.1 260 21:18 28.05.2020
2441 Rain 5 1018 86 10000 2.1 300 20:40 28.05.2020
2442 Rain 5 1018 86 10000 2.1 300 20:19 28.05.2020
2443 Rain 4 1019 86 7000 4.1 340 19:58 28.05.2020
2444 Rain 4 1019 86 7000 4.1 340 19:58 28.05.2020
2445 Rain 4 1019 86 7000 4.1 340 19:40 28.05.2020
2446 Rain 4 1019 86 7000 4.1 340 19:20 28.05.2020
2447 Clouds 4 1018 86 10000 2.6 300 18:54 28.05.2020
2448 Clouds 4 1018 86 10000 2.6 300 18:36 28.05.2020
2449 Clouds 4 1018 86 10000 2.6 300 18:18 28.05.2020
2450 Rain 3 1018 93 10000 1.5 120 17:40 28.05.2020
2451 Rain 3 1018 93 10000 1.5 120 17:21 28.05.2020
2452 Rain 2 1018 93 10000 1.5 130 16:46 28.05.2020
2453 Rain 2 1018 93 10000 1.5 130 16:46 28.05.2020
2454 Rain 2 1018 93 10000 1.5 130 16:21 28.05.2020
2455 Clouds 1 1018 74 10000 1 0 15:54 28.05.2020
2456 Clouds 1 1018 74 10000 1 0 15:36 28.05.2020
2457 Clouds 1 1018 80 10000 1 0 15:18 28.05.2020
2458 Clouds 1 1017 80 10000 1 0 14:41 28.05.2020
2459 Clouds 1 1017 85 10000 1 0 14:22 28.05.2020
2460 Clouds 1 1017 100 10000 2.1 130 13:46 28.05.2020
2461 Clouds 1 1017 100 10000 2.1 130 13:27 28.05.2020
2462 Clouds 2 1017 93 10000 2.1 140 12:44 28.05.2020
2463 Clouds 2 1017 93 10000 2.1 140 12:20 28.05.2020
2464 Clouds 1 1017 100 10000 1.09 297 11:57 28.05.2020
2465 Clouds 1 1017 100 10000 1.09 297 11:57 28.05.2020
2466 Clouds 1 1017 100 10000 1.09 297 11:39 28.05.2020
2467 Clear 1 1017 100 10000 1.24 277 11:20 28.05.2020
2468 Clear 2 1017 100 8000 1 0 10:43 28.05.2020
2469 Clouds 2 1017 100 8000 1 0 10:25 28.05.2020
2470 Clouds 2 1017 93 9000 0.5 0 09:56 28.05.2020
2471 Clouds 2 1017 93 9000 0.5 0 09:38 28.05.2020
2472 Clouds 2 1017 93 9000 0.5 0 09:18 28.05.2020
2473 Clouds 1 1018 100 8000 1.25 278 08:43 28.05.2020
2474 Clouds 1 1018 100 8000 1.35 278 08:22 28.05.2020
2475 Clouds 2 1018 100 10000 1.35 278 07:41 28.05.2020
2476 Clouds 2 1018 100 10000 1.61 280 07:23 28.05.2020
2477 Clouds 3 1018 93 10000 1 0 06:44 28.05.2020
2478 Clouds 3 1018 93 10000 1 0 06:26 28.05.2020
2479 Clouds 3 1019 81 0 1.71 281 05:39 28.05.2020
2480 Clear 3 1020 80 0 1.63 285 04:37 28.05.2020
2481 Clear 3 1020 78 0 1.59 286 04:18 28.05.2020
2482 Clear 4 1020 77 0 1.37 299 02:56 28.05.2020
2483 Clear 4 1020 78 0 1.66 294 02:28 28.05.2020
2484 Clear 4 1020 76 0 1.56 302 01:45 28.05.2020
2485 Clear 4 1020 74 0 1.42 297 00:47 28.05.2020
2486 Rain 10 1018 61 10000 2.1 0 00:19 28.05.2020
2487 Rain 10 1018 61 10000 2.1 0 23:56 27.05.2020
2488 Rain 10 1018 61 10000 2.1 0 23:36 27.05.2020
2489 Rain 10 1018 61 10000 2.1 0 23:18 27.05.2020
2490 Clouds 10 1018 61 10000 2.6 290 22:41 27.05.2020
2491 Clouds 10 1018 61 10000 2.6 290 22:23 27.05.2020
2492 Rain 11 1018 53 10000 4.6 270 21:56 27.05.2020
2493 Rain 11 1018 53 10000 4.6 270 21:37 27.05.2020
2494 Rain 11 1018 53 10000 4.6 270 21:19 27.05.2020
2495 Clouds 11 1019 57 10000 4.1 260 20:56 27.05.2020
2496 Clouds 11 1019 57 10000 4.1 260 20:36 27.05.2020
2497 Clouds 11 1019 57 10000 4.1 260 20:18 27.05.2020
2498 Clouds 11 1019 57 10000 3.6 280 19:42 27.05.2020
2499 Clouds 11 1019 57 10000 3.6 280 19:20 27.05.2020
2500 Clouds 10 1019 66 10000 3.1 340 18:43 27.05.2020
2501 Clouds 10 1019 66 10000 3.1 340 18:20 27.05.2020
2502 Clouds 8 1019 70 10000 2.6 320 17:57 27.05.2020
2503 Clouds 8 1019 70 10000 2.6 320 17:38 27.05.2020
2504 Clouds 8 1019 70 10000 2.6 320 17:19 27.05.2020
2505 Rain 5 1019 80 10000 2.6 290 16:55 27.05.2020
2506 Rain 5 1019 80 10000 2.6 290 16:37 27.05.2020
2507 Rain 5 1019 80 10000 2.6 290 16:18 27.05.2020
2508 Rain 5 1019 80 10000 2.6 290 16:18 27.05.2020
2509 Clouds 4 1018 86 10000 2.6 300 15:46 27.05.2020
2510 Clouds 4 1018 86 10000 2.6 300 15:21 27.05.2020
2511 Clear 3 1018 93 10000 3.6 290 14:45 27.05.2020
2512 Clouds 3 1018 93 10000 3.6 290 14:22 27.05.2020
2513 Clouds 3 1018 93 10000 3.6 290 14:22 27.05.2020
2514 Clouds 3 1018 93 10000 3.6 290 14:22 27.05.2020
2515 Clouds 3 1018 93 10000 3.1 280 13:57 27.05.2020
2516 Clouds 3 1018 93 10000 3.1 280 13:38 27.05.2020
2517 Clouds 3 1018 93 10000 3.1 280 13:20 27.05.2020
2518 Clouds 3 1017 93 10000 4.1 290 12:41 27.05.2020
2519 Clouds 3 1017 93 10000 4.1 290 12:22 27.05.2020
2520 Clouds 4 1017 86 10000 2.6 280 11:41 27.05.2020
2521 Clouds 4 1017 86 10000 2.6 280 11:22 27.05.2020
2522 Clouds 5 1017 80 10000 2.1 270 10:59 27.05.2020
2523 Clouds 5 1017 80 10000 2.1 270 10:40 27.05.2020
2524 Clouds 5 1017 80 10000 2.1 270 10:22 27.05.2020
2525 Clouds 6 1016 75 10000 3.1 300 09:42 27.05.2020
2526 Clouds 6 1016 75 10000 3.1 300 09:23 27.05.2020
2527 Clouds 6 1016 75 10000 2.6 290 08:58 27.05.2020
2528 Clouds 6 1016 75 10000 2.6 290 08:40 27.05.2020
2529 Clouds 6 1016 75 10000 2.6 290 08:22 27.05.2020
2530 Clouds 5 1015 86 10000 3.1 290 07:51 27.05.2020
2531 Clouds 5 1015 86 10000 3.1 290 07:51 27.05.2020
2532 Clouds 5 1015 86 10000 3.1 290 07:33 27.05.2020
2533 Clouds 5 1015 86 10000 2.6 270 06:52 27.05.2020
2534 Clouds 5 1015 86 10000 2.6 270 06:24 27.05.2020
2535 Clouds 7 1015 75 10000 1.5 300 05:49 27.05.2020
2536 Clouds 7 1015 75 10000 1.5 300 05:22 27.05.2020
2537 Clouds 8 1013 81 10000 1 0 02:36 27.05.2020
2538 Clouds 9 1012 70 10000 1 0 01:55 27.05.2020
2539 Clouds 9 1012 70 10000 1 0 01:30 27.05.2020
2540 Clouds 12 1012 50 10000 2.1 0 00:47 27.05.2020
2541 Clouds 12 1012 50 10000 2.1 0 00:20 27.05.2020
2542 Clouds 7 1012 73 0 2.93 276 23:57 26.05.2020
2543 Clouds 14 1011 44 10000 3.6 0 23:38 26.05.2020
2544 Clouds 14 1011 44 10000 3.6 0 23:20 26.05.2020
2545 Clouds 14 1011 44 10000 3.6 0 22:41 26.05.2020
2546 Clouds 14 1011 44 10000 3.6 0 22:22 26.05.2020
2547 Clouds 16 1010 44 10000 5.7 260 21:59 26.05.2020
2548 Clouds 16 1010 44 10000 5.7 260 21:40 26.05.2020
2549 Clouds 16 1010 44 10000 5.7 260 21:40 26.05.2020
2550 Clouds 16 1010 44 10000 5.7 260 21:21 26.05.2020
2551 Clouds 16 1010 55 10000 5.1 270 20:56 26.05.2020
2552 Clouds 16 1010 55 10000 5.1 270 20:37 26.05.2020
2553 Clouds 16 1010 55 10000 5.1 270 20:19 26.05.2020
2554 Clouds 16 1010 55 10000 4.1 260 19:40 26.05.2020
2555 Clouds 16 1010 55 10000 4.1 260 19:20 26.05.2020
2556 Clouds 14 1010 76 10000 3.1 0 18:44 26.05.2020
2557 Clouds 14 1010 76 10000 3.1 0 18:25 26.05.2020
2558 Rain 12 1010 93 10000 2.6 310 17:59 26.05.2020
2559 Rain 12 1010 93 10000 2.6 310 17:59 26.05.2020
2560 Rain 12 1010 93 10000 2.6 310 17:38 26.05.2020
2561 Rain 12 1010 93 10000 2.6 310 17:20 26.05.2020
2562 Rain 11 1010 100 10000 2.6 290 16:45 26.05.2020
2563 Rain 11 1010 100 10000 2.6 290 16:20 26.05.2020
2564 Rain 9 1009 100 9000 2.6 290 15:55 26.05.2020
2565 Rain 9 1009 100 9000 2.6 290 15:37 26.05.2020
2566 Rain 9 1009 100 9000 2.6 290 15:19 26.05.2020
2567 Rain 8 1009 100 7000 1.5 280 14:43 26.05.2020
2568 Rain 8 1009 100 7000 1.5 280 14:43 26.05.2020
2569 Rain 8 1009 100 7000 1.5 280 14:23 26.05.2020
2570 Rain 7 1009 100 10000 2.1 280 13:56 26.05.2020
2571 Rain 7 1009 100 10000 2.1 280 13:37 26.05.2020
2572 Rain 7 1009 100 10000 2.1 280 13:18 26.05.2020
2573 Rain 6 1009 100 10000 2.05 302 12:42 26.05.2020
2574 Rain 6 1009 100 10000 2.58 310 12:20 26.05.2020
2575 Rain 5 1009 100 10000 1 0 11:58 26.05.2020
2576 Rain 5 1009 100 10000 1 0 11:40 26.05.2020
2577 Rain 5 1009 100 10000 1 0 11:18 26.05.2020
2578 Rain 5 1009 100 10000 0.5 0 10:42 26.05.2020
2579 Rain 5 1009 100 10000 0.5 0 10:19 26.05.2020
2580 Clear 3 1010 100 10000 3.1 280 09:40 26.05.2020
2581 Clear 3 1010 100 10000 3.1 280 09:20 26.05.2020
2582 Fog 3 1010 100 1000 4.1 290 08:43 26.05.2020
2583 Fog 3 1010 100 1000 4.1 290 08:22 26.05.2020
2584 Fog 3 1011 100 750 3.1 300 07:57 26.05.2020
2585 Fog 3 1011 100 750 3.1 300 07:37 26.05.2020
2586 Fog 3 1011 100 750 3.1 300 07:18 26.05.2020
2587 Mist 3 1011 100 2000 2.6 290 06:44 26.05.2020
2588 Mist 3 1012 100 1900 1.5 290 05:55 26.05.2020
2589 Mist 3 1012 100 1900 1.5 290 05:33 26.05.2020
2590 Mist 3 1012 100 4000 1 0 04:52 26.05.2020
2591 Mist 3 1012 100 4000 1 0 04:33 26.05.2020
2592 Mist 4 1013 100 2300 2.16 304 03:55 26.05.2020
2593 Clear 4 1013 100 10000 1.5 300 02:44 26.05.2020
2594 Clouds 5 1013 93 10000 1.71 302 01:48 26.05.2020
2595 Clouds 5 1013 93 10000 1.48 301 01:21 26.05.2020
2596 Clouds 6 1014 93 10000 1.5 300 00:37 26.05.2020
2597 Clouds 6 1014 93 10000 1.5 300 00:18 26.05.2020
2598 Clouds 7 1014 87 10000 1 0 23:55 25.05.2020
2599 Clouds 7 1014 87 10000 1 0 23:36 25.05.2020
2600 Clouds 7 1014 87 10000 1 0 23:18 25.05.2020
2601 Clouds 7 1014 87 10000 1 0 23:18 25.05.2020
2602 Clouds 9 1015 70 10000 2.6 350 22:54 25.05.2020
2603 Clouds 9 1015 70 10000 2.6 350 22:36 25.05.2020
2604 Clouds 9 1015 70 10000 2.6 350 22:18 25.05.2020
2605 Clouds 11 1016 66 10000 2.1 340 21:54 25.05.2020
2606 Clouds 11 1016 66 10000 2.1 340 21:36 25.05.2020
2607 Clouds 11 1016 66 10000 2.1 340 21:18 25.05.2020
2608 Clouds 12 1016 62 10000 0.36 334 20:41 25.05.2020
2609 Clouds 12 1016 62 10000 0.22 245 20:21 25.05.2020
2610 Clouds 10 1017 66 10000 2.6 110 19:58 25.05.2020
2611 Clouds 10 1017 66 10000 2.6 110 19:39 25.05.2020
2612 Clouds 10 1017 66 10000 2.6 110 19:18 25.05.2020
2613 Clouds 9 1019 76 10000 0.5 0 18:45 25.05.2020
2614 Clouds 9 1019 76 10000 0.5 0 18:22 25.05.2020
2615 Clouds 7 1019 87 10000 1.5 90 17:58 25.05.2020
2616 Clouds 7 1019 87 10000 1.5 90 17:39 25.05.2020
2617 Clouds 7 1019 87 10000 1.5 90 17:21 25.05.2020
2618 Clouds 6 1020 87 10000 1.5 150 16:56 25.05.2020
2619 Clouds 6 1020 87 10000 1.5 150 16:56 25.05.2020
2620 Clouds 6 1020 87 10000 1.5 150 16:37 25.05.2020
2621 Clouds 6 1020 87 10000 1.5 150 16:19 25.05.2020
2622 Clouds 5 1021 93 10000 0.42 349 15:42 25.05.2020
2623 Clouds 5 1021 93 10000 0.92 323 15:19 25.05.2020
2624 Clouds 5 1021 100 10000 0.92 323 14:44 25.05.2020
2625 Clouds 5 1021 100 10000 1.01 351 14:25 25.05.2020
2626 Clouds 5 1021 100 10000 0.96 345 13:59 25.05.2020
2627 Clouds 5 1021 100 10000 0.96 345 13:39 25.05.2020
2628 Clouds 5 1021 100 10000 0.66 341 13:20 25.05.2020
2629 Clouds 5 1021 100 10000 0.66 341 12:57 25.05.2020
2630 Clouds 5 1021 100 10000 0.66 341 12:37 25.05.2020
2631 Clouds 5 1021 100 10000 0.75 297 12:19 25.05.2020
2632 Clouds 5 1021 100 10000 1 0 11:39 25.05.2020
2633 Clouds 5 1021 100 10000 1 0 11:19 25.05.2020
2634 Clouds 5 1021 100 10000 1 0 11:19 25.05.2020
2635 Clouds 6 1021 93 10000 1.08 282 10:54 25.05.2020
2636 Clouds 6 1021 93 10000 1.08 282 10:36 25.05.2020
2637 Clear 6 1021 93 10000 1.44 282 10:18 25.05.2020
2638 Clear 6 1022 87 10000 2.6 300 09:41 25.05.2020
2639 Clear 6 1022 87 10000 2.6 300 09:41 25.05.2020
2640 Clouds 6 1022 87 10000 2.6 300 09:19 25.05.2020
2641 Clouds 6 1022 87 10000 2.6 290 08:59 25.05.2020
2642 Clouds 6 1022 87 10000 2.6 290 08:37 25.05.2020
2643 Clouds 6 1022 87 10000 2.6 290 08:18 25.05.2020
2644 Clouds 6 1022 87 10000 3.1 280 07:45 25.05.2020
2645 Clouds 6 1022 87 10000 3.1 280 07:21 25.05.2020
2646 Clouds 7 1022 81 10000 3.6 290 06:52 25.05.2020
2647 Clouds 7 1022 81 10000 3.6 290 06:31 25.05.2020
2648 Clouds 7 1022 81 10000 2.1 300 04:18 25.05.2020
2649 Clouds 7 1022 81 10000 2.6 290 03:23 25.05.2020
2650 Clouds 8 1021 75 10000 2.6 280 02:45 25.05.2020
2651 Clouds 11 1020 57 10000 4.6 260 01:54 25.05.2020
2652 Clouds 11 1020 57 10000 4.6 260 01:28 25.05.2020
2653 Clouds 11 1020 57 10000 4.6 260 01:28 25.05.2020
2654 Clouds 11 1019 57 10000 6.7 280 00:38 25.05.2020
2655 Clouds 11 1019 57 10000 6.7 280 00:19 25.05.2020
2656 Clouds 12 1018 54 10000 4.1 260 23:55 24.05.2020
2657 Clouds 12 1018 54 10000 4.1 260 23:36 24.05.2020
2658 Clouds 12 1018 54 10000 4.1 260 23:18 24.05.2020
2659 Clouds 12 1018 54 10000 4.1 260 23:18 24.05.2020
2660 Clouds 14 1017 47 10000 3.6 0 22:41 24.05.2020
2661 Clouds 14 1017 47 10000 3.6 0 22:19 24.05.2020
2662 Clouds 14 1016 44 10000 5.1 300 21:56 24.05.2020
2663 Clouds 14 1016 44 10000 5.1 300 21:38 24.05.2020
2664 Clouds 14 1016 44 10000 5.1 300 21:19 24.05.2020
2665 Clouds 14 1014 47 10000 9.8 280 20:44 24.05.2020
2666 Clouds 14 1014 47 10000 9.8 280 20:23 24.05.2020
2667 Clouds 14 1014 47 10000 8.7 280 19:59 24.05.2020
2668 Clouds 14 1014 47 10000 8.7 280 19:41 24.05.2020
2669 Clouds 14 1014 47 10000 8.7 280 19:19 24.05.2020
2670 Clouds 14 1012 47 10000 10.3 280 18:56 24.05.2020
2671 Clouds 14 1012 47 10000 10.3 280 18:37 24.05.2020
2672 Clouds 14 1012 47 10000 10.3 280 18:19 24.05.2020
2673 Clouds 15 1011 51 10000 9.8 290 17:41 24.05.2020
2674 Clouds 15 1011 51 10000 9.8 290 17:21 24.05.2020
2675 Clouds 14 1009 62 10000 7.7 280 16:57 24.05.2020
2676 Clouds 14 1009 62 10000 7.7 280 16:38 24.05.2020
2677 Clouds 14 1009 62 10000 7.7 280 16:20 24.05.2020
2678 Clouds 15 1007 67 10000 9.8 290 15:57 24.05.2020
2679 Clouds 15 1007 67 10000 9.8 290 15:38 24.05.2020
2680 Clouds 15 1007 67 10000 9.8 290 15:19 24.05.2020
2681 Rain 14 1006 76 10000 6.7 270 14:46 24.05.2020
2682 Rain 14 1006 76 10000 6.7 270 14:24 24.05.2020
2683 Rain 14 1005 82 10000 5.1 260 13:58 24.05.2020
2684 Rain 14 1005 82 10000 5.1 260 13:39 24.05.2020
2685 Rain 14 1005 82 10000 5.1 260 13:21 24.05.2020
2686 Rain 10 1005 100 10000 1 0 12:59 24.05.2020
2687 Rain 10 1005 100 10000 1 0 12:40 24.05.2020
2688 Rain 10 1005 100 10000 1 0 12:22 24.05.2020
2689 Rain 10 1005 100 10000 0.5 0 11:59 24.05.2020
2690 Rain 10 1005 100 10000 0.5 0 11:40 24.05.2020
2691 Rain 10 1005 100 10000 0.5 0 11:22 24.05.2020
2692 Rain 10 1006 100 8000 1.5 250 10:55 24.05.2020
2693 Rain 10 1006 100 8000 1.5 250 10:37 24.05.2020
2694 Rain 10 1006 100 8000 1.5 250 10:18 24.05.2020
2695 Rain 10 1007 100 7000 3.55 325 09:41 24.05.2020
2696 Rain 10 1007 100 7000 3.28 323 09:18 24.05.2020
2697 Rain 10 1008 100 3800 3.28 323 08:56 24.05.2020
2698 Rain 10 1008 100 3800 3.28 323 08:37 24.05.2020
2699 Rain 10 1008 100 3800 3.14 291 08:19 24.05.2020
2700 Rain 10 1010 93 10000 1.5 10 07:42 24.05.2020
2701 Rain 10 1010 93 10000 1.5 10 07:24 24.05.2020
2702 Rain 10 1010 93 10000 3.1 290 06:48 24.05.2020
2703 Rain 10 1010 93 10000 3.1 290 06:25 24.05.2020
2704 Mist 8 1013 100 3600 3.1 290 04:52 24.05.2020
2705 Clouds 9 1014 93 9000 3.6 290 03:41 24.05.2020
2706 Rain 9 1014 100 10000 1 0 02:31 24.05.2020
2707 Rain 9 1014 100 4000 1 0 01:46 24.05.2020
2708 Rain 9 1013 100 10000 2.1 270 00:39 24.05.2020
2709 Rain 9 1013 100 10000 2.1 270 00:21 24.05.2020
2710 Rain 9 1013 100 10000 0.5 0 23:43 23.05.2020
2711 Rain 9 1013 100 10000 0.5 0 23:23 23.05.2020
2712 Rain 9 1013 100 10000 3.19 280 22:57 23.05.2020
2713 Rain 9 1013 100 10000 3.19 280 22:38 23.05.2020
2714 Rain 9 1013 100 10000 3.74 290 22:20 23.05.2020
2715 Rain 9 1013 93 10000 3.74 290 21:57 23.05.2020
2716 Rain 9 1013 93 10000 3.74 290 21:37 23.05.2020
2717 Rain 9 1013 93 10000 4.12 296 21:19 23.05.2020
2718 Rain 9 1013 93 10000 4.68 296 21:19 23.05.2020
2719 Rain 9 1013 93 10000 1.5 320 20:56 23.05.2020
2720 Rain 9 1013 93 10000 1.5 320 20:37 23.05.2020
2721 Rain 9 1013 93 10000 1.5 320 20:18 23.05.2020
2722 Rain 9 1014 87 10000 3.1 270 19:41 23.05.2020
2723 Rain 9 1014 87 10000 3.1 270 19:19 23.05.2020
2724 Rain 8 1016 93 10000 1.5 300 18:57 23.05.2020
2725 Rain 8 1016 93 10000 1.5 300 18:39 23.05.2020
2726 Rain 8 1016 93 10000 1.5 300 18:20 23.05.2020
2727 Rain 8 1015 87 10000 3.1 330 17:55 23.05.2020
2728 Rain 8 1015 87 10000 3.1 330 17:37 23.05.2020
2729 Rain 8 1015 87 10000 3.1 330 17:18 23.05.2020
2730 Rain 8 1013 87 10000 1 0 16:55 23.05.2020
2731 Rain 8 1013 87 10000 1 0 16:37 23.05.2020
2732 Clouds 8 1013 87 10000 1 0 16:18 23.05.2020
2733 Rain 8 1015 75 10000 2.6 0 15:41 23.05.2020
2734 Rain 8 1015 75 10000 2.6 0 15:23 23.05.2020
2735 Rain 8 1015 65 10000 3.1 290 14:43 23.05.2020
2736 Rain 8 1015 65 10000 3.1 290 14:24 23.05.2020
2737 Rain 7 1017 75 10000 3.6 280 13:57 23.05.2020
2738 Rain 7 1017 75 10000 3.6 280 13:38 23.05.2020
2739 Rain 7 1017 75 10000 3.6 280 13:18 23.05.2020
2740 Clouds 10 1017 53 10000 2.1 0 12:42 23.05.2020
2741 Clouds 10 1017 53 10000 2.1 0 12:20 23.05.2020
2742 Clouds 10 1017 70 10000 5.1 280 11:59 23.05.2020
2743 Clouds 10 1017 70 10000 5.1 280 11:59 23.05.2020
2744 Clouds 10 1017 70 10000 5.1 280 11:40 23.05.2020
2745 Clouds 10 1017 70 10000 5.1 280 11:19 23.05.2020
2746 Clouds 9 1018 57 10000 3.6 290 10:56 23.05.2020
2747 Clouds 9 1018 57 10000 3.6 290 10:37 23.05.2020
2748 Clouds 9 1018 57 10000 3.6 290 10:18 23.05.2020
2749 Clouds 6 1018 87 10000 1.5 260 09:43 23.05.2020
2750 Clouds 6 1018 87 10000 1.5 260 09:24 23.05.2020
2751 Clouds 6 1019 87 10000 1 0 08:58 23.05.2020
2752 Clouds 6 1019 87 10000 1 0 08:38 23.05.2020
2753 Clouds 6 1019 87 10000 1 0 08:19 23.05.2020
2754 Clouds 5 1020 86 10000 2.6 290 07:45 23.05.2020
2755 Clouds 5 1020 86 10000 2.6 290 07:23 23.05.2020
2756 Clouds 5 1021 86 10000 4.6 290 06:43 23.05.2020
2757 Clouds 4 1021 93 10000 0.5 0 05:55 23.05.2020
2758 Clouds 4 1021 93 10000 2.1 290 03:55 23.05.2020
2759 Clouds 4 1021 93 10000 2.1 290 03:24 23.05.2020
2760 Clouds 5 1023 93 10000 3.6 310 02:33 23.05.2020
2761 Clouds 5 1023 93 10000 2.1 300 01:46 23.05.2020
2762 Clouds 5 1023 93 10000 2.1 300 01:18 23.05.2020
2763 Clouds 4 1023 100 10000 1.5 300 00:41 23.05.2020
2764 Clouds 6 1023 93 10000 1.5 290 23:59 22.05.2020
2765 Clouds 6 1023 93 10000 1.5 290 23:41 22.05.2020
2766 Clouds 6 1023 93 10000 1.5 290 23:22 22.05.2020
2767 Smoke 7 1024 81 9000 2.6 300 22:58 22.05.2020
2768 Smoke 7 1024 81 9000 2.6 300 22:39 22.05.2020
2769 Smoke 7 1024 81 9000 2.6 300 22:20 22.05.2020
2770 Smoke 6 1024 87 10000 1.5 300 21:46 22.05.2020
2771 Smoke 6 1024 87 10000 1.5 300 21:22 22.05.2020
2772 Clouds 4 1026 93 10000 1 0 20:56 22.05.2020
2773 Clouds 4 1026 93 10000 1 0 20:38 22.05.2020
2774 Clouds 4 1026 93 10000 1 0 20:19 22.05.2020
2775 Clouds 3 1027 93 10000 1 0 19:44 22.05.2020
2776 Clouds 3 1027 93 10000 1 0 19:25 22.05.2020
2777 Clouds 3 1028 100 10000 1 0 18:54 22.05.2020
2778 Clouds 3 1028 100 10000 1 0 18:36 22.05.2020
2779 Clouds 3 1028 100 10000 1 0 18:18 22.05.2020
2780 Mist 2 1028 100 10000 0.5 0 17:39 22.05.2020
2781 Mist 2 1028 100 10000 0.5 0 17:39 22.05.2020
2782 Mist 2 1028 100 10000 0.5 0 17:19 22.05.2020
2783 Mist 2 1029 100 10000 0.5 0 16:55 22.05.2020
2784 Smoke 2 1029 100 10000 0.5 0 16:37 22.05.2020
2785 Mist 2 1029 100 10000 0.5 0 16:19 22.05.2020
2786 Mist 2 1028 100 1500 1.37 282 15:42 22.05.2020
2787 Mist 2 1028 100 1500 1.37 282 15:42 22.05.2020
2788 Mist 2 1028 100 1500 1.37 314 15:21 22.05.2020
2789 Clouds 2 1028 100 10000 2.6 130 14:45 22.05.2020
2790 Clouds 2 1028 100 10000 2.6 130 14:26 22.05.2020
2791 Clouds 2 1028 100 10000 2.6 130 14:26 22.05.2020
2792 Clouds 2 1028 100 10000 1.5 120 13:50 22.05.2020
2793 Clouds 2 1028 100 10000 1.5 120 13:22 22.05.2020
2794 Clouds 2 1028 100 10000 1.5 120 13:22 22.05.2020
2795 Clouds 2 1028 100 10000 0.5 0 12:59 22.05.2020
2796 Clouds 2 1028 100 10000 0.5 0 12:39 22.05.2020
2797 Clouds 2 1028 100 10000 0.5 0 12:21 22.05.2020
2798 Clouds 1 1029 100 10000 1.45 309 11:44 22.05.2020
2799 Clouds 1 1029 100 10000 1.37 297 11:22 22.05.2020
2800 Clouds 1 1029 100 9000 1 310 10:57 22.05.2020
2801 Clouds 1 1029 100 9000 1 310 10:38 22.05.2020
2802 Clouds 1 1029 100 9000 1 310 10:19 22.05.2020
2803 Mist 1 1029 100 2500 1.31 303 09:47 22.05.2020
2804 Mist 1 1029 100 2500 1.29 305 09:21 22.05.2020
2805 Fog 1 1030 100 750 1 0 08:57 22.05.2020
2806 Fog 1 1030 100 750 1 0 08:39 22.05.2020
2807 Fog 1 1030 100 750 1 0 08:18 22.05.2020
2808 Fog 1 1030 100 700 1.14 308 07:48 22.05.2020
2809 Fog 1 1030 100 700 0.93 307 07:22 22.05.2020
2810 Fog 1 1030 100 600 0.93 307 06:46 22.05.2020
2811 Fog 1 1030 100 600 1.13 324 06:28 22.05.2020
2812 Fog 1 1030 100 550 1.13 324 05:35 22.05.2020
2813 Fog 1 1029 100 450 1.5 60 04:48 22.05.2020
2814 Fog 1 1029 100 400 0.79 303 03:50 22.05.2020
2815 Fog 1 1029 100 400 0.79 303 03:29 22.05.2020
2816 Clear 2 1028 93 10000 1 0 01:58 22.05.2020
2817 Clear 2 1028 93 10000 1 0 01:32 22.05.2020
2818 Clear 3 1027 93 10000 0.5 0 00:52 22.05.2020
2819 Clear 3 1027 93 10000 0.5 0 00:30 22.05.2020
2820 Clear 4 1027 93 10000 2.1 110 23:56 21.05.2020
2821 Clear 4 1027 93 10000 2.1 110 23:37 21.05.2020
2822 Clear 4 1027 93 10000 2.1 110 23:37 21.05.2020
2823 Clear 4 1027 93 10000 2.1 110 23:19 21.05.2020
2824 Clear 5 1026 86 10000 2.6 110 22:57 21.05.2020
2825 Clear 5 1026 86 10000 2.6 110 22:37 21.05.2020
2826 Clear 5 1026 86 10000 2.6 110 22:18 21.05.2020
2827 Clear 5 1027 93 10000 1 0 21:43 21.05.2020
2828 Clear 5 1027 93 10000 1 0 21:43 21.05.2020
2829 Clear 5 1027 93 10000 1 0 21:25 21.05.2020
2830 Clear 4 1027 93 10000 2.6 130 20:54 21.05.2020
2831 Clear 4 1027 93 10000 2.6 130 20:36 21.05.2020
2832 Clear 4 1027 93 10000 2.6 130 20:18 21.05.2020
2833 Clear 3 1027 100 10000 3.1 130 19:39 21.05.2020
2834 Clear 3 1027 100 10000 3.1 130 19:19 21.05.2020
2835 Clear 3 1028 100 10000 2.1 130 18:40 21.05.2020
2836 Clear 3 1028 100 10000 2.1 130 18:20 21.05.2020
2837 Clear 3 1028 100 10000 3.1 130 17:58 21.05.2020
2838 Clear 3 1028 100 10000 3.1 130 17:40 21.05.2020
2839 Clear 3 1028 100 10000 3.1 130 17:22 21.05.2020
2840 Mist 1 1027 100 2700 0.5 0 16:47 21.05.2020
2841 Mist 1 1027 100 2700 0.5 0 16:25 21.05.2020
2842 Fog 1 1026 100 900 1.08 255 15:55 21.05.2020
2843 Fog 1 1026 100 900 1.08 255 15:37 21.05.2020
2844 Fog 1 1026 100 900 0.97 285 15:18 21.05.2020
2845 Mist 1 1026 100 1100 0.97 285 14:39 21.05.2020
2846 Mist 1 1026 100 1100 0.97 276 14:18 21.05.2020
2847 Clouds 1 1025 100 6000 1.5 10 13:41 21.05.2020
2848 Clouds 1 1025 100 6000 1.5 10 13:22 21.05.2020
2849 Fog 2 1024 100 900 0.9 270 12:58 21.05.2020
2850 Fog 2 1024 100 900 0.9 270 12:37 21.05.2020
2851 Fog 2 1024 100 900 1.06 286 12:19 21.05.2020
2852 Clouds 2 1024 100 10000 1.06 286 11:42 21.05.2020
2853 Clouds 2 1024 100 10000 1.24 266 11:23 21.05.2020
2854 Mist 2 1024 100 3800 1 0 10:58 21.05.2020
2855 Mist 2 1024 100 3800 1 0 10:39 21.05.2020
2856 Mist 2 1024 100 3800 1 0 10:19 21.05.2020
2857 Mist 1 1023 100 1600 1 0 09:54 21.05.2020
2858 Mist 1 1023 100 1600 1 0 09:36 21.05.2020
2859 Mist 1 1023 100 1600 1 0 09:18 21.05.2020
2860 Fog 1 1023 100 450 1.5 290 08:42 21.05.2020
2861 Fog 1 1023 100 450 1.5 290 08:23 21.05.2020
2862 Fog 2 1022 100 300 2.1 290 07:44 21.05.2020
2863 Fog 2 1022 100 300 2.1 290 07:25 21.05.2020
2864 Clouds 2 1022 100 10000 1.26 279 06:52 21.05.2020
2865 Clouds 3 1022 100 10000 1 280 05:54 21.05.2020
2866 Clouds 4 1021 93 10000 1.4 276 04:56 21.05.2020
2867 Clouds 5 1021 93 10000 1 0 03:22 21.05.2020
2868 Clouds 5 1021 93 10000 1 0 03:22 21.05.2020
2869 Clouds 5 1020 93 10000 1 0 02:38 21.05.2020
2870 Clouds 5 1020 93 10000 1 0 02:20 21.05.2020
2871 Clouds 6 1019 93 10000 2.1 330 01:42 21.05.2020
2872 Clouds 6 1019 93 10000 2.1 330 01:19 21.05.2020
2873 Clouds 6 1019 93 10000 2.1 290 00:45 21.05.2020
2874 Clouds 6 1019 93 10000 2.1 290 00:21 21.05.2020
2875 Clouds 7 1018 87 10000 1.5 340 23:41 20.05.2020
2876 Clouds 7 1018 87 10000 1.5 340 23:20 20.05.2020
2877 Clouds 8 1018 87 10000 1.5 330 22:55 20.05.2020
2878 Clouds 8 1018 87 10000 1.5 330 22:37 20.05.2020
2879 Clouds 8 1018 87 10000 1.5 330 22:19 20.05.2020
2880 Clouds 9 1017 81 10000 0.5 0 21:40 20.05.2020
2881 Clouds 9 1017 81 10000 0.5 0 21:20 20.05.2020
2882 Clouds 8 1018 87 10000 2.1 290 20:44 20.05.2020
2883 Clouds 8 1018 87 10000 2.1 290 20:24 20.05.2020
2884 Clouds 8 1018 81 10000 1.5 320 19:55 20.05.2020
2885 Clouds 8 1018 81 10000 1.5 320 19:37 20.05.2020
2886 Clouds 8 1018 81 10000 1.5 320 19:18 20.05.2020
2887 Clouds 6 1019 93 10000 1 0 18:42 20.05.2020
2888 Clouds 6 1019 93 10000 1 0 18:22 20.05.2020
2889 Mist 5 1019 100 10000 1.5 120 17:41 20.05.2020
2890 Mist 5 1019 100 10000 1.5 120 17:22 20.05.2020
2891 Mist 4 1019 100 10000 2.1 140 16:56 20.05.2020
2892 Mist 4 1019 100 10000 2.1 140 16:38 20.05.2020
2893 Mist 4 1019 100 10000 2.1 140 16:19 20.05.2020
2894 Fog 4 1018 100 500 1.49 315 15:43 20.05.2020
2895 Fog 4 1018 100 500 1.64 319 15:25 20.05.2020
2896 Clouds 4 1018 100 10000 1.64 319 14:45 20.05.2020
2897 Clouds 4 1018 100 10000 0.94 320 14:24 20.05.2020
2898 Clouds 4 1017 100 10000 0.94 320 13:56 20.05.2020
2899 Clouds 4 1017 100 10000 0.94 320 13:37 20.05.2020
2900 Clouds 4 1017 100 10000 0.84 303 13:18 20.05.2020
2901 Rain 4 1017 100 10000 1 0 12:42 20.05.2020
2902 Rain 4 1017 100 10000 1 0 12:21 20.05.2020
2903 Clouds 4 1016 100 10000 1.21 291 11:38 20.05.2020
2904 Clouds 4 1016 100 10000 1.21 291 11:38 20.05.2020
2905 Clouds 4 1016 100 10000 1.21 291 11:38 20.05.2020
2906 Clouds 4 1016 100 10000 1.51 292 11:19 20.05.2020
2907 Clouds 5 1016 93 10000 2.1 290 10:44 20.05.2020
2908 Clouds 5 1016 93 10000 2.1 290 10:22 20.05.2020
2909 Clouds 5 1016 100 10000 2.1 330 09:57 20.05.2020
2910 Clouds 5 1016 100 10000 2.1 330 09:38 20.05.2020
2911 Clouds 5 1016 100 10000 2.1 330 09:19 20.05.2020
2912 Rain 6 1016 93 10000 1.5 280 08:41 20.05.2020
2913 Rain 6 1016 93 10000 1.5 280 08:19 20.05.2020
2914 Rain 6 1016 93 10000 1.5 290 07:49 20.05.2020
2915 Rain 6 1016 93 10000 1.5 290 07:22 20.05.2020
2916 Clouds 6 1016 93 7000 2.1 290 06:49 20.05.2020
2917 Rain 6 1016 100 10000 1 0 05:52 20.05.2020
2918 Rain 6 1016 100 10000 1.89 290 04:37 20.05.2020
2919 Rain 6 1016 100 10000 1 0 03:55 20.05.2020
2920 Rain 6 1016 100 10000 1 0 03:25 20.05.2020
2921 Rain 6 1015 100 10000 2.1 300 01:33 20.05.2020
2922 Rain 7 1015 93 10000 1.5 290 00:46 20.05.2020
2923 Rain 7 1015 93 10000 1.5 290 00:24 20.05.2020
2924 Clouds 7 1014 93 10000 1.5 310 23:45 19.05.2020
2925 Clouds 7 1014 93 10000 1.5 310 23:22 19.05.2020
2926 Clouds 9 1014 81 10000 0.5 0 22:57 19.05.2020
2927 Clouds 9 1014 81 10000 0.5 0 22:39 19.05.2020
2928 Clouds 9 1014 81 10000 0.5 0 22:20 19.05.2020
2929 Rain 8 1014 87 10000 2.1 270 21:59 19.05.2020
2930 Rain 8 1014 87 10000 2.1 270 21:38 19.05.2020
2931 Rain 8 1014 87 10000 2.1 270 21:20 19.05.2020
2932 Clouds 8 1014 61 0 1.17 311 20:58 19.05.2020
2933 Clouds 8 1014 61 0 1.17 311 20:58 19.05.2020
2934 Clouds 8 1014 61 0 1.17 311 20:40 19.05.2020
2935 Rain 9 1015 76 10000 2.1 340 20:21 19.05.2020
2936 Rain 9 1015 76 10000 2.1 340 19:55 19.05.2020
2937 Rain 9 1015 76 10000 2.1 340 19:37 19.05.2020
2938 Rain 9 1015 76 10000 2.1 340 19:37 19.05.2020
2939 Rain 9 1015 76 10000 2.1 340 19:18 19.05.2020
2940 Rain 8 1015 87 10000 3.1 290 18:42 19.05.2020
2941 Rain 8 1015 87 10000 3.1 290 18:20 19.05.2020
2942 Clouds 6 1015 71 0 0.32 215 17:43 19.05.2020
2943 Clouds 5 1015 93 10000 1.12 239 17:21 19.05.2020
2944 Clouds 5 1015 93 10000 1.12 239 16:59 19.05.2020
2945 Clouds 5 1015 93 10000 1.12 239 16:38 19.05.2020
2946 Clouds 5 1015 93 10000 1.44 283 16:20 19.05.2020
2947 Rain 4 1014 100 10000 1.44 283 15:47 19.05.2020
2948 Rain 4 1014 100 10000 1.69 284 15:23 19.05.2020
2949 Clouds 5 1013 93 10000 2.1 270 14:58 19.05.2020
2950 Clouds 5 1013 93 10000 2.1 270 14:39 19.05.2020
2951 Clouds 5 1013 93 10000 2.1 270 14:20 19.05.2020
2952 Rain 6 1013 87 10000 3.6 260 13:58 19.05.2020
2953 Rain 6 1013 87 10000 3.6 260 13:39 19.05.2020
2954 Rain 6 1013 87 10000 3.6 260 13:20 19.05.2020
2955 Clouds 6 1013 93 10000 3.1 290 12:56 19.05.2020
2956 Clouds 6 1013 93 10000 3.1 290 12:37 19.05.2020
2957 Clouds 6 1013 93 10000 3.1 290 12:19 19.05.2020
2958 Clouds 6 1013 87 10000 2.6 270 11:43 19.05.2020
2959 Clouds 6 1013 87 10000 2.6 270 11:23 19.05.2020
2960 Clouds 6 1012 87 10000 2.1 290 10:59 19.05.2020
2961 Clouds 6 1012 87 10000 2.1 290 10:40 19.05.2020
2962 Clouds 6 1012 87 10000 2.1 290 10:22 19.05.2020
2963 Clouds 5 1012 93 10000 2.6 290 09:47 19.05.2020
2964 Clouds 5 1012 93 10000 2.6 290 09:25 19.05.2020
2965 Clouds 5 1012 93 10000 2.6 290 09:25 19.05.2020
2966 Clouds 5 1012 93 10000 2.6 290 08:49 19.05.2020
2967 Clouds 5 1012 93 10000 2.6 290 08:26 19.05.2020
2968 Clouds 6 1012 87 10000 2.6 270 07:59 19.05.2020
2969 Clouds 6 1012 87 10000 2.6 270 07:41 19.05.2020
2970 Clouds 6 1012 87 10000 2.6 270 07:23 19.05.2020
2971 Clouds 6 1012 87 10000 2.1 0 06:41 19.05.2020
2972 Clouds 6 1012 87 10000 2.1 0 06:41 19.05.2020
2973 Clouds 6 1012 87 10000 2.1 0 06:19 19.05.2020
2974 Clouds 6 1012 93 10000 2.1 290 05:39 19.05.2020
2975 Clouds 6 1012 93 10000 2.1 280 04:54 19.05.2020
2976 Clouds 7 1011 81 10000 4.6 340 02:59 19.05.2020
2977 Clouds 8 1010 75 10000 2.1 0 01:21 19.05.2020
2978 Clouds 8 1009 75 10000 4.1 310 00:40 19.05.2020
2979 Clouds 8 1009 75 10000 4.1 310 00:18 19.05.2020
2980 Clouds 9 1009 66 10000 3.6 260 23:40 18.05.2020
2981 Clouds 9 1009 66 10000 3.6 260 23:20 18.05.2020
2982 Rain 9 1008 76 6000 7.7 260 22:56 18.05.2020
2983 Rain 9 1008 76 6000 7.7 260 22:56 18.05.2020
2984 Rain 9 1008 76 6000 7.7 260 22:38 18.05.2020
2985 Rain 9 1008 76 6000 7.7 260 22:19 18.05.2020
2986 Rain 9 1007 81 6000 5.1 260 21:42 18.05.2020
2987 Rain 9 1007 81 6000 5.1 260 21:22 18.05.2020
2988 Rain 10 1007 76 5000 7.2 270 20:57 18.05.2020
2989 Rain 10 1007 76 5000 7.2 270 20:37 18.05.2020
2990 Rain 10 1007 76 5000 7.2 270 20:19 18.05.2020
2991 Rain 10 1007 76 5000 7.2 270 20:19 18.05.2020
2992 Rain 10 1006 76 8000 6.7 270 19:54 18.05.2020
2993 Rain 10 1006 76 8000 6.7 270 19:36 18.05.2020
2994 Rain 10 1006 76 8000 6.7 270 19:18 18.05.2020
2995 Rain 10 1006 76 6000 4.6 260 18:43 18.05.2020
2996 Rain 10 1006 76 6000 4.6 260 18:20 18.05.2020
2997 Rain 10 1005 81 9000 4.6 290 17:39 18.05.2020
2998 Rain 10 1005 81 9000 4.6 290 17:18 18.05.2020
2999 Rain 9 1004 93 9000 1 0 16:56 18.05.2020
3000 Rain 9 1004 93 9000 1 0 16:37 18.05.2020
3001 Rain 9 1004 93 9000 1 0 16:18 18.05.2020
3002 Rain 9 1004 93 9000 1 0 16:18 18.05.2020
3003 Rain 8 1003 100 8000 0.5 0 15:46 18.05.2020
3004 Rain 8 1003 100 8000 0.5 0 15:25 18.05.2020
3005 Rain 9 1003 87 8000 3.1 0 14:59 18.05.2020
3006 Rain 9 1003 87 8000 3.1 0 14:40 18.05.2020
3007 Rain 9 1003 87 8000 3.1 0 14:40 18.05.2020
3008 Rain 9 1003 87 8000 3.1 0 14:22 18.05.2020
3009 Rain 9 1003 93 7000 2.6 190 13:54 18.05.2020
3010 Rain 9 1003 93 7000 2.6 190 13:36 18.05.2020
3011 Rain 9 1003 93 7000 2.6 190 13:18 18.05.2020
3012 Rain 10 1003 87 7000 5.7 260 12:54 18.05.2020
3013 Rain 10 1003 87 7000 5.7 260 12:36 18.05.2020
3014 Rain 10 1003 87 7000 5.7 260 12:36 18.05.2020
3015 Rain 10 1003 87 7000 5.7 260 12:18 18.05.2020
3016 Rain 12 1001 81 8000 8.7 280 11:44 18.05.2020
3017 Rain 12 1001 81 8000 8.7 280 11:25 18.05.2020
3018 Rain 13 999 87 10000 2.1 0 10:47 18.05.2020
3019 Rain 13 999 87 10000 2.1 0 10:27 18.05.2020
3020 Rain 8 999 100 10000 2.6 0 09:46 18.05.2020
3021 Clouds 8 999 100 10000 2.6 0 09:28 18.05.2020
3022 Clouds 8 1002 72 0 4.25 351 08:59 18.05.2020
3023 Clouds 8 1002 72 0 4.25 351 08:40 18.05.2020
3024 Clouds 8 1004 93 10000 2.1 0 08:21 18.05.2020
3025 Clouds 8 1004 93 10000 2.1 0 07:45 18.05.2020
3026 Clouds 8 1004 93 10000 2.1 0 07:24 18.05.2020
3027 Clouds 8 1005 93 10000 1.5 100 06:48 18.05.2020
3028 Clouds 8 1005 93 10000 1.5 100 06:23 18.05.2020
3029 Clouds 7 1006 100 10000 1 0 05:44 18.05.2020
3030 Rain 8 1008 100 10000 3.1 300 03:53 18.05.2020
3031 Rain 8 1008 100 10000 3.1 300 03:22 18.05.2020
3032 Rain 9 1010 93 10000 1.5 280 01:46 18.05.2020
3033 Rain 9 1010 93 10000 1.5 290 00:45 18.05.2020
3034 Rain 9 1010 93 10000 1.5 290 00:19 18.05.2020
3035 Clouds 10 1010 87 10000 2.1 290 23:55 17.05.2020
3036 Clouds 10 1010 87 10000 2.1 290 23:36 17.05.2020
3037 Clouds 10 1010 87 10000 2.1 290 23:18 17.05.2020
3038 Clouds 12 1011 71 10000 1.5 270 22:40 17.05.2020
3039 Clouds 12 1011 71 10000 1.5 270 22:22 17.05.2020
3040 Clouds 12 1011 71 10000 1 0 21:59 17.05.2020
3041 Clouds 12 1011 71 10000 1 0 21:41 17.05.2020
3042 Clear 12 1011 71 10000 1 0 21:19 17.05.2020
3043 Clouds 11 1012 81 10000 2.1 0 20:55 17.05.2020
3044 Clouds 11 1012 81 10000 2.1 0 20:37 17.05.2020
3045 Clouds 11 1012 81 10000 2.1 0 20:18 17.05.2020
3046 Clouds 11 1013 76 10000 1 0 19:42 17.05.2020
3047 Clouds 11 1013 76 10000 1 0 19:42 17.05.2020
3048 Clouds 11 1013 76 10000 1 0 19:23 17.05.2020
3049 Clouds 11 1014 71 10000 1.5 120 18:56 17.05.2020
3050 Clouds 11 1014 71 10000 1.5 120 18:38 17.05.2020
3051 Clouds 11 1014 71 10000 1.5 120 18:20 17.05.2020
3052 Clouds 9 1015 81 10000 1.42 298 17:40 17.05.2020
3053 Clouds 9 1015 81 10000 2.1 320 17:22 17.05.2020
3054 Clouds 6 1016 93 10000 0.5 0 16:57 17.05.2020
3055 Clouds 6 1016 93 10000 0.5 0 16:38 17.05.2020
3056 Clouds 6 1016 93 10000 0.5 0 16:19 17.05.2020
3057 Clouds 6 1016 93 10000 0.5 0 16:19 17.05.2020
3058 Clouds 6 1016 93 10000 0.5 0 16:19 17.05.2020
3059 Clouds 6 1016 93 10000 0.5 0 16:19 17.05.2020
3060 Clouds 5 1015 100 10000 2.25 319 15:46 17.05.2020
3061 Clouds 5 1015 100 10000 2.01 330 15:24 17.05.2020
3062 Clouds 6 1015 93 10000 3.6 300 14:58 17.05.2020
3063 Clouds 6 1015 93 10000 3.6 300 14:39 17.05.2020
3064 Clouds 6 1015 93 10000 3.6 300 14:19 17.05.2020
3065 Clouds 6 1015 93 10000 2.1 330 13:41 17.05.2020
3066 Clouds 6 1015 93 10000 2.1 330 13:20 17.05.2020
3067 Clear 9 1015 87 10000 1.5 0 05:22 17.05.2020
3068 Rain 10 1013 76 10000 3.1 0 03:31 17.05.2020
3069 Rain 9 1013 81 10000 3.6 270 02:26 17.05.2020
3070 Rain 11 1012 62 10000 4.6 250 01:53 17.05.2020
3071 Clear 12 1011 54 10000 7.7 260 00:46 17.05.2020
3072 Clear 12 1011 54 10000 7.7 260 00:26 17.05.2020
3073 Clear 12 1010 58 10000 6.7 260 23:42 16.05.2020
3074 Clear 12 1010 58 10000 6.7 260 23:21 16.05.2020
3075 Clear 10 1010 76 10000 2.6 0 22:59 16.05.2020
3076 Clear 10 1010 76 10000 2.6 0 22:41 16.05.2020
3077 Clear 10 1010 76 10000 2.6 0 22:21 16.05.2020
3078 Rain 12 1010 58 10000 6.7 260 21:55 16.05.2020
3079 Rain 12 1010 58 10000 6.7 260 21:37 16.05.2020
3080 Rain 12 1010 58 10000 6.7 260 21:19 16.05.2020
3081 Rain 11 1010 71 10000 5.1 270 20:55 16.05.2020
3082 Rain 11 1010 71 10000 5.1 270 20:36 16.05.2020
3083 Rain 11 1010 71 10000 5.1 270 20:18 16.05.2020
3084 Rain 13 1010 62 10000 5.7 260 19:40 16.05.2020
3085 Rain 13 1010 62 10000 5.7 260 19:22 16.05.2020
3086 Clouds 14 1010 54 10000 7.7 270 18:57 16.05.2020
3087 Clouds 14 1010 54 10000 7.7 270 18:36 16.05.2020
3088 Clouds 14 1010 54 10000 7.7 270 18:18 16.05.2020
3089 Clouds 14 1010 54 10000 7.7 270 18:18 16.05.2020
3090 Clouds 15 1009 51 10000 6.7 270 17:40 16.05.2020
3091 Rain 15 1009 51 10000 6.7 270 17:20 16.05.2020
3092 Rain 11 1008 81 10000 6.2 290 16:42 16.05.2020
3093 Rain 11 1008 81 10000 6.2 290 16:23 16.05.2020
3094 Rain 15 1006 54 10000 6.2 260 15:59 16.05.2020
3095 Rain 15 1006 54 10000 6.2 260 15:40 16.05.2020
3096 Rain 15 1006 54 10000 6.2 260 15:20 16.05.2020
3097 Rain 16 1005 48 10000 7.7 270 14:51 16.05.2020
3098 Rain 16 1005 48 10000 7.7 270 14:21 16.05.2020
3099 Rain 16 1003 63 10000 5.7 0 13:59 16.05.2020
3100 Rain 16 1003 63 10000 5.7 0 13:41 16.05.2020
3101 Rain 16 1003 63 10000 5.7 0 13:41 16.05.2020
3102 Rain 16 1003 63 10000 5.7 0 13:22 16.05.2020
3103 Rain 15 1003 82 10000 3.6 0 12:55 16.05.2020
3104 Rain 15 1003 82 10000 3.6 0 12:37 16.05.2020
3105 Rain 15 1003 82 10000 3.6 0 12:18 16.05.2020
3106 Rain 14 1003 93 10000 2.6 0 11:39 16.05.2020
3107 Rain 14 1003 93 10000 2.6 0 11:20 16.05.2020
3108 Rain 14 1003 93 9000 3.1 0 10:56 16.05.2020
3109 Rain 14 1003 93 9000 3.1 0 10:37 16.05.2020
3110 Rain 14 1003 93 9000 3.1 0 10:19 16.05.2020
3111 Rain 15 1002 87 9000 4.1 0 09:45 16.05.2020
3112 Rain 15 1002 87 9000 4.1 0 09:27 16.05.2020
3113 Rain 14 1002 93 10000 1.5 0 08:44 16.05.2020
3114 Rain 14 1002 93 10000 1.5 0 08:22 16.05.2020
3115 Rain 15 1003 87 8000 4.1 280 07:55 16.05.2020
3116 Rain 15 1003 87 8000 4.1 280 07:37 16.05.2020
3117 Rain 15 1003 87 8000 4.1 280 07:18 16.05.2020
3118 Rain 13 1004 100 9000 2.6 330 06:43 16.05.2020
3119 Rain 13 1004 100 9000 2.6 330 06:18 16.05.2020
3120 Rain 14 1004 93 10000 2.1 0 05:39 16.05.2020
3121 Rain 13 1005 100 10000 1 0 04:30 16.05.2020
3122 Rain 14 1006 93 10000 3.1 270 02:59 16.05.2020
3123 Rain 14 1006 93 10000 3.1 270 02:22 16.05.2020
3124 Rain 15 1006 87 10000 3.6 250 01:54 16.05.2020
3125 Rain 15 1006 87 10000 3.6 250 01:27 16.05.2020
3126 Rain 15 1005 87 8000 2.1 0 00:51 16.05.2020
3127 Rain 15 1005 87 8000 2.1 0 00:23 16.05.2020
3128 Rain 16 1004 82 10000 3.1 0 23:41 15.05.2020
3129 Rain 16 1004 82 10000 3.1 0 23:20 15.05.2020
3130 Rain 15 1005 87 4000 3.1 0 22:59 15.05.2020
3131 Rain 15 1005 87 4000 3.1 0 22:40 15.05.2020
3132 Rain 15 1005 87 4000 3.1 0 22:19 15.05.2020
3133 Rain 14 1006 93 5000 1.5 0 21:40 15.05.2020
3134 Rain 14 1006 93 5000 1.5 0 21:22 15.05.2020
3135 Rain 13 1006 100 4000 2.6 130 20:59 15.05.2020
3136 Rain 13 1006 100 4000 2.6 130 20:59 15.05.2020
3137 Rain 13 1006 100 4000 2.6 130 20:41 15.05.2020
3138 Rain 13 1006 100 4000 2.6 130 20:22 15.05.2020
3139 Rain 13 1008 100 4000 2.1 330 19:56 15.05.2020
3140 Rain 13 1008 100 4000 2.1 330 19:37 15.05.2020
3141 Rain 13 1008 100 4000 2.1 330 19:19 15.05.2020
3142 Rain 13 1008 100 4000 1.5 0 18:45 15.05.2020
3143 Rain 13 1008 100 4000 1.5 0 18:27 15.05.2020
3144 Rain 13 1009 100 4000 1.5 290 17:40 15.05.2020
3145 Rain 13 1009 100 4000 1.5 290 17:20 15.05.2020
3146 Rain 13 1008 93 4000 2.1 0 16:58 15.05.2020
3147 Rain 13 1008 93 4000 2.1 0 16:39 15.05.2020
3148 Rain 13 1008 93 4000 2.1 0 16:19 15.05.2020
3149 Rain 11 1008 100 6000 4.71 302 15:55 15.05.2020
3150 Rain 11 1008 100 6000 3.84 281 15:37 15.05.2020
3151 Rain 11 1008 100 6000 4.09 305 15:18 15.05.2020
3152 Rain 11 1008 93 10000 1 0 14:42 15.05.2020
3153 Rain 11 1008 93 10000 1 0 14:24 15.05.2020
3154 Rain 11 1007 93 10000 2.6 270 13:58 15.05.2020
3155 Rain 11 1007 93 10000 2.6 270 13:39 15.05.2020
3156 Rain 11 1007 93 10000 2.6 270 13:19 15.05.2020
3157 Rain 10 1008 100 8000 2.1 280 12:39 15.05.2020
3158 Rain 10 1008 100 8000 2.1 280 12:18 15.05.2020
3159 Rain 10 1008 100 8000 1 0 11:57 15.05.2020
3160 Rain 10 1008 100 8000 1 0 11:38 15.05.2020
3161 Rain 10 1008 100 8000 1 0 11:19 15.05.2020
3162 Rain 10 1008 100 10000 1.5 310 10:57 15.05.2020
3163 Rain 10 1008 100 10000 1.5 310 10:39 15.05.2020
3164 Rain 10 1008 100 10000 1.5 310 10:39 15.05.2020
3165 Rain 10 1008 100 10000 1.5 310 10:20 15.05.2020
3166 Rain 10 1009 93 10000 1 0 09:57 15.05.2020
3167 Rain 10 1009 93 10000 1 0 09:36 15.05.2020
3168 Rain 10 1009 93 10000 1 0 09:18 15.05.2020
3169 Rain 10 1009 93 10000 1 0 08:38 15.05.2020
3170 Rain 10 1009 93 10000 1 0 08:20 15.05.2020
3171 Rain 10 1010 93 10000 3.1 290 07:47 15.05.2020
3172 Rain 10 1010 93 10000 3.1 290 07:28 15.05.2020
3173 Rain 11 1011 81 10000 3.6 300 06:59 15.05.2020
3174 Rain 11 1011 81 10000 3.6 300 06:28 15.05.2020
3175 Rain 11 1011 81 10000 3.6 0 04:39 15.05.2020
3176 Rain 11 1011 81 10000 3.6 0 03:50 15.05.2020
3177 Rain 12 1011 71 10000 3.6 0 02:49 15.05.2020
3178 Rain 13 1010 66 10000 5.7 250 01:37 15.05.2020
3179 Rain 13 1010 66 10000 6.7 270 00:58 15.05.2020
3180 Rain 13 1010 66 10000 6.7 270 00:39 15.05.2020
3181 Rain 13 1010 66 10000 6.7 270 00:21 15.05.2020
3182 Rain 13 1010 71 9000 5.7 0 23:41 14.05.2020
3183 Rain 13 1010 71 9000 5.7 0 23:41 14.05.2020
3184 Rain 13 1010 71 9000 5.7 0 23:18 14.05.2020
3185 Rain 12 1010 81 8000 4.1 260 22:42 14.05.2020
3186 Rain 12 1010 81 8000 4.1 260 22:23 14.05.2020
3187 Rain 12 1011 81 7000 4.1 280 21:58 14.05.2020
3188 Rain 12 1011 81 7000 4.1 280 21:40 14.05.2020
3189 Rain 12 1011 81 7000 4.1 280 21:19 14.05.2020
3190 Rain 12 1011 81 8000 4.1 270 20:56 14.05.2020
3191 Rain 12 1011 81 8000 4.1 270 20:38 14.05.2020
3192 Rain 12 1011 81 8000 4.1 270 20:19 14.05.2020
3193 Rain 12 1011 81 8000 4.6 0 19:55 14.05.2020
3194 Rain 12 1011 81 8000 4.6 0 19:37 14.05.2020
3195 Rain 12 1011 81 8000 4.6 0 19:19 14.05.2020
3196 Rain 12 1012 81 9000 4.1 0 18:54 14.05.2020
3197 Rain 12 1012 81 9000 4.1 0 18:36 14.05.2020
3198 Rain 12 1012 81 9000 4.1 0 18:18 14.05.2020
3199 Rain 12 1012 81 9000 4.1 0 18:18 14.05.2020
3200 Rain 12 1012 81 8000 3.1 0 17:55 14.05.2020
3201 Rain 12 1012 81 8000 3.1 0 17:36 14.05.2020
3202 Rain 12 1012 81 8000 3.1 0 17:18 14.05.2020
3203 Rain 12 1012 87 9000 4.1 290 16:39 14.05.2020
3204 Rain 12 1012 87 9000 4.1 290 16:20 14.05.2020
3205 Rain 11 1012 93 8000 2.6 310 15:57 14.05.2020
3206 Rain 11 1012 93 8000 2.6 310 15:39 14.05.2020
3207 Rain 11 1012 93 8000 2.6 310 15:19 14.05.2020
3208 Rain 11 1012 93 9000 3.1 290 14:55 14.05.2020
3209 Rain 11 1012 93 9000 3.1 290 14:37 14.05.2020
3210 Rain 11 1012 93 9000 3.1 290 14:19 14.05.2020
3211 Rain 11 1012 87 10000 4.1 320 13:44 14.05.2020
3212 Rain 11 1012 87 10000 4.1 320 13:21 14.05.2020
3213 Rain 11 1011 87 10000 3.1 320 12:59 14.05.2020
3214 Rain 11 1011 87 10000 3.1 320 12:40 14.05.2020
3215 Rain 11 1011 87 10000 3.1 320 12:21 14.05.2020
3216 Rain 10 1011 87 10000 3.6 0 11:59 14.05.2020
3217 Rain 10 1011 87 10000 3.6 0 11:40 14.05.2020
3218 Rain 10 1011 87 10000 3.6 0 11:22 14.05.2020
3219 Rain 10 1012 87 10000 3.6 290 10:58 14.05.2020
3220 Rain 10 1012 87 10000 3.6 290 10:39 14.05.2020
3221 Rain 10 1012 87 10000 3.6 290 10:21 14.05.2020
3222 Rain 9 1013 87 10000 3.1 310 09:42 14.05.2020
3223 Rain 9 1013 87 10000 3.1 310 09:23 14.05.2020
3224 Rain 8 1014 93 10000 3.6 0 08:43 14.05.2020
3225 Rain 8 1014 93 10000 3.6 0 08:21 14.05.2020
3226 Clouds 7 1015 93 10000 2.6 280 07:47 14.05.2020
3227 Clouds 7 1015 93 10000 2.6 280 07:25 14.05.2020
3228 Clouds 5 1016 100 10000 2.1 290 06:56 14.05.2020
3229 Clouds 5 1016 100 10000 2.1 290 06:34 14.05.2020
3230 Rain 5 1017 93 10000 2.52 325 05:58 14.05.2020
3231 Rain 5 1017 93 10000 2.52 325 05:36 14.05.2020
3232 Rain 5 1018 93 10000 2.1 290 04:34 14.05.2020
3233 Clouds 5 1019 93 10000 1.5 330 03:30 14.05.2020
3234 Clouds 4 1019 93 10000 0.5 0 02:43 14.05.2020
3235 Clouds 4 1019 93 10000 0.5 0 02:18 14.05.2020
3236 Clouds 4 1020 93 10000 1 0 01:28 14.05.2020
3237 Clouds 5 1021 86 10000 2.04 292 00:50 14.05.2020
3238 Clouds 5 1021 86 10000 1.79 280 00:25 14.05.2020
3239 Clouds 8 1021 75 10000 2.6 290 23:44 13.05.2020
3240 Clouds 8 1021 75 10000 2.6 290 23:22 13.05.2020
3241 Clouds 8 1022 70 10000 1.5 310 22:56 13.05.2020
3242 Clouds 8 1022 70 10000 1.5 310 22:36 13.05.2020
3243 Clouds 8 1022 70 10000 1.5 310 22:18 13.05.2020
3244 Haze 9 1022 66 10000 2.6 310 21:56 13.05.2020
3245 Haze 9 1022 66 10000 2.6 310 21:38 13.05.2020
3246 Haze 9 1022 66 10000 2.6 310 21:18 13.05.2020
3247 Clouds 8 1023 70 10000 2.6 300 20:41 13.05.2020
3248 Clouds 8 1023 70 10000 2.6 300 20:41 13.05.2020
3249 Clouds 8 1023 70 10000 2.6 300 20:23 13.05.2020
3250 Clouds 6 1024 87 10000 2.6 290 19:43 13.05.2020
3251 Clouds 6 1024 87 10000 2.6 290 19:24 13.05.2020
3252 Clouds 4 1025 93 10000 2.1 330 18:57 13.05.2020
3253 Clouds 4 1025 93 10000 2.1 330 18:38 13.05.2020
3254 -273 0 0 0 0 0 18:20 13.05.2020
3255 Clouds 4 1025 93 10000 2.1 330 18:20 13.05.2020
3256 -273 0 0 0 0 0 18:20 13.05.2020
3257 -273 0 0 0 0 0 18:20 13.05.2020
3258 Clouds 4 1025 93 10000 2.1 330 18:19 13.05.2020
3259 Clouds 3 1026 100 10000 2.1 300 17:39 13.05.2020
3260 Clouds 3 1026 100 10000 2.1 300 17:19 13.05.2020
3261 Rain 13 1008 87 4000 4.6 250 16:55 13.05.2020
3262 Rain 13 1008 87 4000 4.6 250 16:37 13.05.2020
3263 Rain 13 1008 87 4000 4.6 250 16:37 13.05.2020
3264 Rain 13 1008 87 4000 4.6 250 16:18 13.05.2020
3265 Rain 13 1008 87 4000 4.6 250 15:42 13.05.2020
3266 Rain 13 1008 87 4000 4.6 250 15:19 13.05.2020
3267 Rain 13 1008 87 4000 4.6 250 14:57 13.05.2020
3268 Mist 0 1026 81 1000 2.1 320 14:39 13.05.2020
3269 Mist 0 1026 83 1000 2.1 320 14:20 13.05.2020
3270 Mist 0 1026 83 1100 1.5 330 13:55 13.05.2020
3271 Mist 0 1026 83 1100 1.5 330 13:37 13.05.2020
3272 Mist 0 1026 84 1100 1.5 330 13:19 13.05.2020
3273 Fog 0 1026 84 600 2.1 280 12:43 13.05.2020
3274 Fog 0 1026 83 600 2.1 280 12:21 13.05.2020
3275 Fog 0 1026 83 600 2.1 290 11:57 13.05.2020
3276 Fog 0 1026 83 600 2.1 290 11:38 13.05.2020
3277 Fog 0 1026 82 600 2.1 290 11:20 13.05.2020
3278 Fog 0 1025 82 550 1.5 270 10:59 13.05.2020
3279 Fog 0 1025 82 550 1.5 270 10:38 13.05.2020
3280 Fog 0 1025 82 550 1.5 270 10:19 13.05.2020
3281 Fog 0 1025 82 550 1.5 270 10:19 13.05.2020
3282 Mist 0 1026 82 1000 1 0 09:49 13.05.2020
3283 Mist 0 1026 82 1000 1 0 09:49 13.05.2020
3284 Mist 0 1026 83 1000 1 0 09:24 13.05.2020
3285 Clouds 1 1025 100 6000 1 0 08:59 13.05.2020
3286 Clouds 1 1025 100 6000 1 0 08:39 13.05.2020
3287 Clouds 1 1025 100 6000 1 0 08:20 13.05.2020
3288 Clouds 2 1025 93 10000 2.1 290 07:52 13.05.2020
3289 Clouds 2 1025 93 10000 2.1 290 07:52 13.05.2020
3290 Clouds 2 1025 93 10000 2.1 290 07:32 13.05.2020
3291 Clouds 2 1025 93 10000 2.12 290 06:52 13.05.2020
3292 Clouds 2 1025 93 10000 2.12 290 06:34 13.05.2020
3293 Clouds 4 1024 86 10000 2.14 286 05:37 13.05.2020
3294 Clouds 5 1023 93 10000 1 0 03:49 13.05.2020
3295 Clouds 5 1022 93 10000 1.5 290 02:37 13.05.2020
3296 Clouds 6 1020 93 10000 2.1 290 01:46 13.05.2020
3297 Clouds 9 1019 81 10000 3.1 330 00:56 13.05.2020
3298 Clouds 9 1019 81 10000 3.1 330 00:23 13.05.2020
3299 Clouds 10 1018 76 10000 4.6 320 23:58 12.05.2020
3300 Clouds 10 1018 76 10000 4.6 320 23:39 12.05.2020
3301 Clouds 10 1018 76 10000 4.6 320 23:18 12.05.2020
3302 Rain 10 1017 81 10000 2.6 320 22:42 12.05.2020
3303 Rain 10 1017 81 10000 2.6 320 22:22 12.05.2020
3304 Rain 11 1016 71 10000 3.1 0 21:56 12.05.2020
3305 Rain 11 1016 71 10000 3.1 0 21:38 12.05.2020
3306 Rain 11 1016 71 10000 3.1 0 21:19 12.05.2020
3307 Rain 10 1016 81 10000 3.6 0 20:58 12.05.2020
3308 Rain 10 1016 81 10000 3.6 0 20:39 12.05.2020
3309 Rain 10 1016 81 10000 3.6 0 20:20 12.05.2020
3310 Rain 10 1015 81 9000 3.1 0 19:56 12.05.2020
3311 Rain 10 1015 81 9000 3.1 0 19:38 12.05.2020
3312 Rain 10 1015 81 9000 3.1 0 19:20 12.05.2020
3313 Rain 10 1015 81 10000 5.1 290 18:44 12.05.2020
3314 Rain 10 1015 81 10000 5.1 290 18:24 12.05.2020
3315 Rain 10 1015 81 10000 3.1 250 17:59 12.05.2020
3316 Rain 10 1015 81 10000 3.1 250 17:41 12.05.2020
3317 Rain 10 1015 81 10000 3.1 250 17:22 12.05.2020
3318 Rain 7 1017 79 0 2.68 311 16:47 12.05.2020
3319 Rain 6 1017 80 0 2.97 310 16:24 12.05.2020
3320 Rain 6 1017 80 0 2.97 310 15:56 12.05.2020
3321 Rain 9 1014 81 10000 4.1 290 15:37 12.05.2020
3322 Rain 9 1014 81 10000 4.1 290 15:18 12.05.2020
3323 Rain 9 1014 81 10000 4.1 290 15:18 12.05.2020
3324 Rain 9 1014 81 10000 4.1 290 14:55 12.05.2020
3325 Rain 9 1014 81 10000 4.1 290 14:36 12.05.2020
3326 Rain 9 1014 81 10000 4.1 290 14:18 12.05.2020
3327 Rain 10 1014 71 10000 4.6 260 13:56 12.05.2020
3328 Rain 10 1014 71 10000 4.6 260 13:37 12.05.2020
3329 Rain 10 1014 71 10000 4.6 260 13:18 12.05.2020
3330 Rain 9 1014 76 10000 4.1 0 12:57 12.05.2020
3331 Rain 9 1014 76 10000 4.1 0 12:38 12.05.2020
3332 Rain 9 1014 76 10000 4.1 0 12:38 12.05.2020
3333 Rain 9 1014 76 10000 4.1 0 12:20 12.05.2020
3334 Rain 9 1014 76 10000 3.6 250 11:57 12.05.2020
3335 Rain 9 1014 76 10000 3.6 250 11:57 12.05.2020
3336 Rain 9 1014 76 10000 3.6 250 11:37 12.05.2020
3337 Rain 9 1014 76 10000 3.6 250 11:19 12.05.2020
3338 Rain 8 1015 75 10000 2.6 290 10:55 12.05.2020
3339 Rain 8 1015 75 10000 2.6 290 10:37 12.05.2020
3340 Rain 8 1015 75 10000 2.6 290 10:18 12.05.2020
3341 Rain 9 1016 70 10000 3.1 0 09:55 12.05.2020
3342 Rain 9 1016 70 10000 3.1 0 09:37 12.05.2020
3343 Rain 9 1016 70 10000 3.1 0 09:19 12.05.2020
3344 Rain 8 1017 75 10000 3.1 0 08:39 12.05.2020
3345 Rain 8 1017 75 10000 3.1 0 08:20 12.05.2020
3346 Rain 8 1017 75 10000 3.1 260 07:44 12.05.2020
3347 Rain 8 1017 75 10000 3.1 260 07:26 12.05.2020
3348 Rain 8 1017 70 10000 2.6 0 06:55 12.05.2020
3349 Rain 8 1017 70 10000 2.6 0 06:36 12.05.2020
3350 Rain 8 1017 70 10000 2.6 0 06:18 12.05.2020
3351 Clouds 8 1018 70 10000 4.6 250 05:44 12.05.2020
3352 Clouds 9 1018 61 10000 4.6 260 03:48 12.05.2020
3353 Clouds 9 1018 66 10000 4.6 260 02:53 12.05.2020
3354 Clouds 9 1018 66 10000 4.6 260 02:26 12.05.2020
3355 Clouds 8 1018 70 10000 3.6 260 01:29 12.05.2020
3356 Clouds 9 1018 66 10000 5.1 270 00:37 12.05.2020
3357 Clouds 9 1018 66 10000 5.1 270 00:18 12.05.2020
3358 Clouds 9 1018 66 10000 5.1 270 00:18 12.05.2020
3359 Rain 10 1018 53 10000 4.1 260 23:42 11.05.2020
3360 Rain 10 1018 53 10000 4.1 260 23:22 11.05.2020
3361 Clouds 11 1018 50 10000 4.1 270 22:59 11.05.2020
3362 Clouds 11 1018 50 10000 4.1 270 22:41 11.05.2020
3363 Clouds 11 1018 50 10000 4.1 270 22:21 11.05.2020
3364 Rain 11 1018 57 10000 7.7 290 21:59 11.05.2020
3365 Rain 11 1018 57 10000 7.7 290 21:40 11.05.2020
3366 Rain 11 1018 57 10000 7.7 290 21:19 11.05.2020
3367 Rain 12 1017 50 10000 8.7 290 20:59 11.05.2020
3368 Rain 12 1017 50 10000 8.7 290 20:59 11.05.2020
3369 Rain 12 1017 50 10000 8.7 290 20:40 11.05.2020
3370 Rain 12 1017 50 10000 8.7 290 20:40 11.05.2020
3371 Rain 12 1017 50 10000 8.7 290 20:21 11.05.2020
3372 Clouds 10 1018 66 10000 8.2 290 19:56 11.05.2020
3373 Clouds 10 1018 66 10000 8.2 290 19:38 11.05.2020
3374 Clouds 10 1018 66 10000 8.2 290 19:20 11.05.2020
3375 Rain 11 1018 62 10000 5.1 280 18:56 11.05.2020
3376 Rain 11 1018 62 10000 5.1 280 18:37 11.05.2020
3377 Rain 11 1018 62 10000 5.1 280 18:18 11.05.2020
3378 Clouds 10 1018 66 10000 4.6 280 17:55 11.05.2020
3379 Clouds 10 1018 66 10000 4.6 280 17:36 11.05.2020
3380 Clouds 10 1018 66 10000 4.6 280 17:36 11.05.2020
3381 Clouds 10 1018 66 10000 4.6 280 17:36 11.05.2020
3382 Clouds 10 1018 66 10000 4.6 280 17:18 11.05.2020
3383 Rain 9 1018 76 10000 3.6 240 16:42 11.05.2020
3384 Rain 9 1018 76 10000 3.6 240 16:22 11.05.2020
3385 Rain 8 1018 81 10000 3.1 260 15:58 11.05.2020
3386 Rain 8 1018 81 10000 3.1 260 15:39 11.05.2020
3387 Rain 8 1018 81 10000 3.1 260 15:19 11.05.2020
3388 Clouds 6 1018 93 10000 2.1 290 14:55 11.05.2020
3389 Clouds 6 1018 93 10000 2.1 290 14:37 11.05.2020
3390 Clouds 6 1018 93 10000 2.1 290 14:18 11.05.2020
3391 Clouds 6 1018 93 10000 2.1 290 14:18 11.05.2020
3392 Clouds 6 1017 93 10000 4.1 290 13:41 11.05.2020
3393 Clouds 6 1017 93 10000 4.1 290 13:22 11.05.2020
3394 Clouds 6 1017 93 10000 4.1 290 13:22 11.05.2020
3395 Rain 6 1017 100 10000 1.5 270 12:58 11.05.2020
3396 Rain 6 1017 100 10000 1.5 270 12:40 11.05.2020
3397 Rain 6 1017 100 10000 1.5 270 12:22 11.05.2020
3398 Rain 6 1016 93 10000 2.6 290 11:56 11.05.2020
3399 Rain 6 1016 93 10000 2.6 290 11:38 11.05.2020
3400 Rain 6 1016 93 10000 2.6 290 11:38 11.05.2020
3401 Rain 6 1016 93 10000 2.6 290 11:19 11.05.2020
3402 Clouds 5 1016 100 10000 2.1 280 10:55 11.05.2020
3403 Clouds 5 1016 100 10000 2.1 280 10:55 11.05.2020
3404 Clouds 5 1016 100 10000 2.1 280 10:37 11.05.2020
3405 Clouds 5 1016 100 10000 2.1 280 10:18 11.05.2020
3406 Clouds 5 1017 100 10000 2.6 270 09:55 11.05.2020
3407 Clouds 5 1017 100 10000 2.6 270 09:36 11.05.2020
3408 Clouds 5 1017 100 10000 2.6 270 09:18 11.05.2020
3409 Clouds 5 1017 100 10000 2.6 290 08:39 11.05.2020
3410 Clouds 5 1017 100 10000 2.6 290 08:19 11.05.2020
3411 Clouds 5 1016 100 10000 2.1 280 07:50 11.05.2020
3412 Clouds 5 1016 100 10000 2.1 280 07:32 11.05.2020
3413 Clouds 5 1016 100 10000 2.1 280 07:32 11.05.2020
3414 Rain 5 1016 100 10000 2.6 290 06:54 11.05.2020
3415 Rain 5 1016 100 10000 2.6 290 06:26 11.05.2020
3416 Clouds 5 1015 93 10000 2.1 270 05:30 11.05.2020
3417 Clouds 5 1014 93 10000 2.6 260 04:44 11.05.2020
3418 Rain 6 1013 93 10000 2.1 270 03:46 11.05.2020
3419 Rain 6 1013 93 10000 2.6 290 02:35 11.05.2020
3420 Rain 6 1012 93 10000 2.1 290 01:47 11.05.2020
3421 Rain 7 1011 87 10000 2.1 270 00:54 11.05.2020
3422 Rain 7 1011 87 10000 2.1 270 00:24 11.05.2020
3423 Rain 8 1010 81 10000 1.5 0 23:45 10.05.2020
3424 Rain 8 1010 81 10000 1.5 0 23:26 10.05.2020
3425 Rain 7 1009 81 10000 3.1 230 22:58 10.05.2020
3426 Rain 7 1009 81 10000 3.1 230 22:40 10.05.2020
3427 Rain 7 1009 81 10000 3.1 230 22:22 10.05.2020
3428 Rain 8 1008 81 10000 2.6 0 21:44 10.05.2020
3429 Rain 8 1008 81 10000 2.6 0 21:20 10.05.2020
3430 Rain 7 1007 93 10000 2.1 310 20:56 10.05.2020
3431 Rain 7 1007 93 10000 2.1 310 20:38 10.05.2020
3432 Rain 7 1007 93 10000 2.1 310 20:20 10.05.2020
3433 Rain 7 1005 87 10000 1 0 19:42 10.05.2020
3434 Rain 7 1005 87 10000 1 0 19:24 10.05.2020
3435 Rain 7 1004 87 10000 4.1 150 18:57 10.05.2020
3436 Rain 7 1004 87 10000 4.1 150 18:39 10.05.2020
3437 Rain 7 1004 87 10000 4.1 150 18:20 10.05.2020
3438 Rain 7 1003 93 10000 0.5 0 17:59 10.05.2020
3439 Rain 7 1003 93 10000 0.5 0 17:41 10.05.2020
3440 Rain 7 1003 93 10000 0.5 0 17:22 10.05.2020
3441 Rain 6 1002 93 10000 1 0 16:59 10.05.2020
3442 Rain 6 1002 93 10000 1 0 16:40 10.05.2020
3443 Rain 6 1002 93 10000 1 0 16:19 10.05.2020
3444 Rain 6 1002 93 10000 1 0 16:19 10.05.2020
3445 Rain 5 1001 100 10000 0.5 0 15:55 10.05.2020
3446 Rain 5 1001 100 10000 0.5 0 15:55 10.05.2020
3447 Rain 5 1001 100 10000 0.5 0 15:36 10.05.2020
3448 Rain 5 1001 100 10000 0.5 0 15:18 10.05.2020
3449 Rain 5 1000 100 10000 2.97 311 14:38 10.05.2020
3450 Rain 5 1000 100 10000 4.32 301 14:20 10.05.2020
3451 Rain 5 1000 100 10000 3.97 312 14:20 10.05.2020
3452 Rain 5 1000 100 10000 3.97 312 14:20 10.05.2020
3453 Rain 5 1000 100 10000 3.97 312 14:20 10.05.2020
3454 Rain 5 1000 100 10000 2.1 110 13:59 10.05.2020
3455 Rain 5 1000 100 10000 2.1 110 13:38 10.05.2020
3456 Rain 5 1000 100 10000 2.1 110 13:20 10.05.2020
3457 Rain 5 999 100 10000 3.26 324 12:57 10.05.2020
3458 Rain 5 999 100 10000 3.26 324 12:57 10.05.2020
3459 Rain 5 999 100 10000 3.26 324 12:39 10.05.2020
3460 Rain 5 999 100 10000 3.09 310 12:21 10.05.2020
3461 Rain 5 999 100 10000 1.5 140 11:57 10.05.2020
3462 Rain 5 999 100 10000 1.5 140 11:39 10.05.2020
3463 Rain 5 999 100 10000 1.5 140 11:19 10.05.2020
3464 Rain 5 999 100 10000 1 0 10:46 10.05.2020
3465 Rain 5 999 100 10000 1 0 10:28 10.05.2020
3466 Rain 5 998 100 10000 2.1 150 09:58 10.05.2020
3467 Rain 5 998 100 10000 2.1 150 09:39 10.05.2020
3468 Rain 5 998 100 10000 2.1 150 09:20 10.05.2020
3469 Rain 6 998 93 10000 1 0 08:48 10.05.2020
3470 Rain 6 998 93 10000 1 0 08:24 10.05.2020
3471 Rain 6 998 93 9000 3.1 170 07:45 10.05.2020
3472 Rain 6 998 93 9000 3.1 170 07:21 10.05.2020
3473 Rain 6 998 93 10000 2.1 170 06:56 10.05.2020
3474 Rain 6 998 93 10000 2.1 170 06:30 10.05.2020
3475 Rain 6 998 93 10000 1.5 150 05:48 10.05.2020
3476 Rain 6 998 93 10000 1.5 150 04:50 10.05.2020
3477 Rain 6 998 93 10000 1.5 150 04:31 10.05.2020
3478 Rain 6 998 93 10000 1 0 03:54 10.05.2020
3479 Rain 6 998 93 10000 1 0 03:35 10.05.2020
3480 Rain 6 998 93 10000 1.5 130 02:41 10.05.2020
3481 Rain 6 998 93 10000 1.5 130 02:18 10.05.2020
3482 Rain 6 998 93 9000 1.5 0 01:40 10.05.2020
3483 Rain 6 998 93 9000 1.5 0 01:19 10.05.2020
3484 Rain 6 996 100 10000 4.6 130 00:53 10.05.2020
3485 Rain 6 996 100 10000 4.6 130 00:23 10.05.2020
3486 Rain 6 996 100 9000 2.1 0 23:57 09.05.2020
3487 Rain 6 996 100 9000 2.1 0 23:57 09.05.2020
3488 Rain 6 996 100 9000 2.1 0 23:38 09.05.2020
3489 Rain 6 996 100 9000 2.1 0 23:19 09.05.2020
3490 Rain 6 998 100 10000 2.6 140 22:41 09.05.2020
3491 Rain 6 998 100 10000 2.6 140 22:23 09.05.2020
3492 Rain 7 999 93 2900 1 0 21:57 09.05.2020
3493 Rain 7 999 93 2900 1 0 21:39 09.05.2020
3494 Rain 7 999 93 2900 1 0 21:20 09.05.2020
3495 Rain 7 999 93 2900 1 0 21:20 09.05.2020
3496 Rain 7 1001 100 8000 1 0 20:57 09.05.2020
3497 Rain 7 1001 100 8000 1 0 20:38 09.05.2020
3498 Rain 7 1001 100 8000 1 0 20:19 09.05.2020
3499 Rain 8 1002 93 8000 0.5 0 19:54 09.05.2020
3500 Rain 8 1002 93 8000 0.5 0 19:36 09.05.2020
3501 Rain 8 1002 93 8000 0.5 0 19:36 09.05.2020
3502 Rain 8 1002 93 8000 0.5 0 19:18 09.05.2020
3503 Rain 8 1002 93 10000 1 0 18:41 09.05.2020
3504 Rain 8 1002 93 10000 1 0 18:21 09.05.2020
3505 Rain 8 1003 93 10000 3.99 336 17:44 09.05.2020
3506 Rain 8 1003 93 10000 3.77 324 17:23 09.05.2020
3507 Rain 8 1003 93 10000 3.77 324 16:56 09.05.2020
3508 Rain 8 1003 93 10000 3.77 324 16:38 09.05.2020
3509 Rain 8 1003 93 10000 3.88 326 16:18 09.05.2020
3510 Rain 8 1003 100 10000 1 0 15:42 09.05.2020
3511 Rain 8 1003 100 10000 1 0 15:22 09.05.2020
3512 Rain 8 1003 93 10000 1 0 14:55 09.05.2020
3513 Rain 8 1003 93 10000 1 0 14:37 09.05.2020
3514 Rain 8 1003 93 10000 1 0 14:18 09.05.2020
3515 Rain 8 1003 93 10000 1 0 13:41 09.05.2020
3516 Rain 8 1003 93 10000 1 0 13:22 09.05.2020
3517 Rain 9 1003 87 10000 3.1 0 12:58 09.05.2020
3518 Rain 9 1003 87 10000 3.1 0 12:39 09.05.2020
3519 Rain 9 1003 87 10000 3.1 0 12:39 09.05.2020
3520 Rain 9 1003 87 10000 3.1 0 12:21 09.05.2020
3521 Clouds 9 1002 87 10000 2.1 0 11:44 09.05.2020
3522 Clouds 9 1002 87 10000 2.1 0 11:20 09.05.2020
3523 Rain 9 1001 93 10000 2.6 320 10:48 09.05.2020
3524 Rain 9 1001 93 10000 2.6 320 10:27 09.05.2020
3525 Rain 9 1001 93 10000 2.6 0 09:59 09.05.2020
3526 Rain 9 1001 93 10000 2.6 0 09:41 09.05.2020
3527 Rain 9 1001 93 10000 2.6 0 09:19 09.05.2020
3528 Rain 10 1000 87 10000 2.1 310 08:52 09.05.2020
3529 Rain 10 1000 87 10000 2.1 310 08:33 09.05.2020
3530 Rain 10 1000 87 10000 2.1 310 08:33 09.05.2020
3531 Rain 10 1000 81 10000 3.6 260 07:55 09.05.2020
3532 Rain 10 1000 81 10000 3.6 260 07:36 09.05.2020
3533 Rain 10 1000 81 10000 3.6 260 07:18 09.05.2020
3534 Rain 10 999 87 10000 2.6 210 06:26 09.05.2020
3535 Rain 11 998 87 10000 2.1 220 05:49 09.05.2020
3536 Rain 11 997 100 10000 2.1 270 04:53 09.05.2020
3537 Rain 11 997 100 3800 1 0 03:39 09.05.2020
3538 Rain 11 996 100 9000 1.5 310 02:50 09.05.2020
3539 Rain 11 998 100 3500 1 0 01:54 09.05.2020
3540 Rain 11 998 100 3500 1 0 01:27 09.05.2020
3541 Rain 12 998 93 2400 1 0 00:59 09.05.2020
3542 Rain 12 998 93 2400 1 0 00:38 09.05.2020
3543 Rain 12 999 93 6000 0.5 0 23:58 08.05.2020
3544 Rain 12 999 93 6000 0.5 0 23:39 08.05.2020
3545 Rain 12 999 93 6000 0.5 0 23:19 08.05.2020
3546 Rain 12 999 93 6000 0.5 0 23:19 08.05.2020
3547 Rain 12 999 100 4000 2.1 280 22:54 08.05.2020
3548 Rain 12 999 100 4000 2.1 280 22:36 08.05.2020
3549 Rain 12 999 100 4000 2.1 280 22:18 08.05.2020
3550 Rain 13 999 93 7000 2.1 280 21:42 08.05.2020
3551 Rain 13 999 93 7000 2.1 280 21:19 08.05.2020
3552 Rain 13 999 93 7000 2.1 280 21:19 08.05.2020
3553 Rain 14 1000 87 7000 2.6 270 20:59 08.05.2020
3554 Rain 14 1000 87 7000 2.6 270 20:41 08.05.2020
3555 Rain 15 1002 77 9000 1.5 0 20:23 08.05.2020
3556 Rain 15 1002 77 9000 1.5 0 19:46 08.05.2020
3557 Rain 15 1002 77 9000 1.5 0 19:24 08.05.2020
3558 Rain 13 1003 93 8000 1.5 0 18:58 08.05.2020
3559 Rain 13 1003 93 8000 1.5 0 18:58 08.05.2020
3560 Rain 13 1003 93 8000 1.5 0 18:40 08.05.2020
3561 Rain 13 1003 93 8000 1.5 0 18:22 08.05.2020
3562 Rain 12 1004 93 8000 1 0 17:42 08.05.2020
3563 Rain 12 1004 93 8000 1 0 17:19 08.05.2020
3564 Rain 10 1005 100 8000 1 0 16:48 08.05.2020
3565 Rain 10 1005 100 8000 1 0 16:27 08.05.2020
3566 Rain 9 1006 100 8000 1.5 0 15:59 08.05.2020
3567 Rain 9 1006 100 8000 1.5 0 15:41 08.05.2020
3568 Rain 9 1006 100 8000 1.5 0 15:19 08.05.2020
3569 Rain 8 1006 100 10000 1 0 14:54 08.05.2020
3570 Rain 8 1006 100 10000 1 0 14:36 08.05.2020
3571 Rain 8 1006 100 10000 1 0 14:18 08.05.2020
3572 Rain 8 1006 100 10000 0.5 0 13:41 08.05.2020
3573 Rain 8 1006 100 10000 0.5 0 13:20 08.05.2020
3574 Clouds 8 1007 100 10000 1 0 12:55 08.05.2020
3575 Clouds 8 1007 100 10000 1 0 12:36 08.05.2020
3576 Clouds 8 1007 100 10000 1 0 12:18 08.05.2020
3577 Clouds 8 1008 100 10000 2.22 316 11:43 08.05.2020
3578 Clouds 8 1008 100 10000 2.22 316 11:22 08.05.2020
3579 Clouds 8 1008 100 10000 2.22 316 10:58 08.05.2020
3580 Clouds 8 1008 100 10000 2.22 316 10:39 08.05.2020
3581 Clouds 8 1008 100 10000 2.11 306 10:19 08.05.2020
3582 Clouds 8 1009 100 10000 4.1 280 09:42 08.05.2020
3583 Clouds 8 1009 100 10000 4.1 280 09:20 08.05.2020
3584 Clouds 8 1010 100 10000 3.6 280 08:58 08.05.2020
3585 Clouds 8 1010 100 10000 3.6 280 08:39 08.05.2020
3586 Clouds 8 1010 100 10000 3.6 280 08:20 08.05.2020
3587 Fog 7 1010 100 700 1.5 300 07:39 08.05.2020
3588 Fog 7 1010 100 700 1.5 300 07:19 08.05.2020
3589 Mist 7 1011 100 1000 1 0 06:42 08.05.2020
3590 Mist 7 1011 100 1000 1 0 06:20 08.05.2020
3591 Fog 7 1012 100 600 0.5 0 05:32 08.05.2020
3592 Mist 7 1012 100 4200 0.5 0 03:23 08.05.2020
3593 Clouds 7 1013 100 10000 2.7 315 02:29 08.05.2020
3594 Clouds 8 1013 100 10000 0.5 0 01:40 08.05.2020
3595 Clouds 8 1013 100 10000 0.5 0 01:20 08.05.2020
3596 Clouds 9 1013 93 10000 2.1 318 00:47 08.05.2020
3597 Clouds 9 1013 93 10000 1.45 304 00:27 08.05.2020
3598 Haze 11 1014 87 10000 1.45 304 23:56 07.05.2020
3599 Haze 11 1014 87 10000 1.45 304 23:37 07.05.2020
3600 Haze 11 1014 87 10000 1.2 303 23:19 07.05.2020
3601 Haze 12 1014 81 10000 1 0 22:41 07.05.2020
3602 Haze 12 1014 81 10000 1 0 22:20 07.05.2020
3603 Clouds 11 1015 81 10000 2.6 120 21:57 07.05.2020
3604 Clouds 11 1015 81 10000 2.6 120 21:57 07.05.2020
3605 Clouds 11 1015 81 10000 2.6 120 21:38 07.05.2020
3606 Clouds 11 1015 81 10000 2.6 120 21:38 07.05.2020
3607 Clouds 11 1015 81 10000 2.6 120 21:20 07.05.2020
3608 Clouds 10 1016 87 10000 2.6 140 20:57 07.05.2020
3609 Clouds 10 1016 87 10000 2.6 140 20:37 07.05.2020
3610 Clouds 10 1016 87 10000 2.6 140 20:19 07.05.2020
3611 Fog 8 1017 100 10000 1 0 19:46 07.05.2020
3612 Fog 8 1017 100 10000 1 0 19:22 07.05.2020
3613 Fog 7 1018 100 8000 1.18 264 18:55 07.05.2020
3614 Fog 7 1018 100 8000 1.18 264 18:36 07.05.2020
3615 Fog 7 1018 100 8000 1.18 264 18:36 07.05.2020
3616 Fog 7 1018 100 8000 0.97 272 18:18 07.05.2020
3617 Mist 6 1019 100 3000 3.1 140 17:41 07.05.2020
3618 Mist 6 1019 100 3000 3.1 140 17:20 07.05.2020
3619 Fog 5 1020 100 800 1.5 120 16:42 07.05.2020
3620 Fog 5 1020 100 800 1.5 120 16:19 07.05.2020
3621 Fog 5 1020 100 400 2.1 120 15:57 07.05.2020
3622 Fog 5 1020 100 400 2.1 120 15:37 07.05.2020
3623 Fog 5 1020 100 400 2.1 120 15:18 07.05.2020
3624 Fog 5 1020 100 400 2.1 120 15:18 07.05.2020
3625 Mist 4 1020 100 1800 1 110 14:55 07.05.2020
3626 Mist 4 1020 100 1800 1 110 14:37 07.05.2020
3627 Mist 4 1020 100 1800 1 110 14:18 07.05.2020
3628 Mist 4 1020 100 1400 1 0 13:40 07.05.2020
3629 Mist 4 1020 100 1400 1 0 13:21 07.05.2020
3630 Fog 5 1020 100 600 1.5 120 12:41 07.05.2020
3631 Fog 5 1020 100 600 1.5 120 12:20 07.05.2020
3632 Mist 5 1020 100 1100 0.93 287 11:39 07.05.2020
3633 Mist 5 1020 100 1100 0.88 273 11:21 07.05.2020
3634 Mist 4 1021 100 5000 0.5 0 10:57 07.05.2020
3635 Mist 4 1021 100 5000 0.5 0 10:38 07.05.2020
3636 Mist 4 1021 100 5000 0.5 0 10:18 07.05.2020
3637 Clouds 5 1021 100 10000 2.6 160 09:39 07.05.2020
3638 Clouds 5 1021 100 10000 2.6 160 09:19 07.05.2020
3639 Fog 5 1021 100 500 1.5 100 08:46 07.05.2020
3640 Fog 5 1021 100 500 1.5 100 08:24 07.05.2020
3641 Fog 5 1022 100 700 1.64 267 07:59 07.05.2020
3642 Fog 5 1022 100 700 1.64 267 07:40 07.05.2020
3643 Fog 5 1022 100 700 1.46 270 07:20 07.05.2020
3644 Fog 5 1022 100 450 1.46 270 06:37 07.05.2020
3645 Fog 5 1022 100 450 1.49 273 06:18 07.05.2020
3646 Mist 6 1022 100 4800 1 0 04:28 07.05.2020
3647 Clouds 6 1022 100 8000 2.1 290 03:38 07.05.2020
3648 Clear 6 1022 100 8000 2.1 290 03:18 07.05.2020
3649 Clouds 7 1022 93 10000 2.6 290 02:26 07.05.2020
3650 Clouds 8 1022 87 10000 0.5 0 01:28 07.05.2020
3651 Clouds 9 1022 87 10000 0.5 0 00:55 07.05.2020
3652 Clouds 9 1022 87 10000 0.5 0 00:37 07.05.2020
3653 Clouds 9 1022 87 10000 0.5 0 00:18 07.05.2020
3654 Clouds 11 1022 76 10000 1 0 23:41 06.05.2020
3655 Clouds 11 1022 76 10000 1 0 23:22 06.05.2020
3656 Clouds 11 1022 71 10000 2.6 280 22:55 06.05.2020
3657 Clouds 11 1022 71 10000 2.6 280 22:37 06.05.2020
3658 Clouds 11 1022 71 10000 2.6 280 22:37 06.05.2020
3659 Clouds 11 1022 71 10000 2.6 280 22:18 06.05.2020
3660 Clouds 12 1022 66 10000 1 0 21:42 06.05.2020
3661 Clouds 12 1022 66 10000 1 0 21:23 06.05.2020
3662 Clouds 10 1023 71 10000 1.26 247 20:57 06.05.2020
3663 Clouds 10 1023 71 10000 1.26 247 20:38 06.05.2020
3664 Clouds 10 1023 71 10000 1.53 249 20:20 06.05.2020
3665 Clouds 8 1025 75 10000 1.5 310 19:56 06.05.2020
3666 Clouds 8 1025 75 10000 1.5 310 19:37 06.05.2020
3667 Clouds 8 1025 75 10000 1.5 310 19:18 06.05.2020
3668 Clouds 8 1025 75 10000 1.5 310 19:18 06.05.2020
3669 Clouds 13 1022 41 0 1.59 259 18:55 06.05.2020
3670 Clouds 7 1026 81 10000 2.6 110 18:37 06.05.2020
3671 Clouds 7 1026 81 10000 2.6 110 18:18 06.05.2020
3672 Clouds 7 1026 81 10000 2.6 110 17:54 06.05.2020
3673 Clouds 7 1026 81 10000 2.6 110 17:36 06.05.2020
3674 Clouds 7 1026 81 10000 2.6 110 17:18 06.05.2020
3675 Clouds 6 1026 93 10000 3.1 130 16:56 06.05.2020
3676 Clouds 6 1026 93 10000 3.1 130 16:38 06.05.2020
3677 Clouds 6 1026 93 10000 3.1 130 16:19 06.05.2020
3678 Clouds 5 1026 93 10000 3.1 130 15:45 06.05.2020
3679 Clouds 5 1026 93 10000 3.1 130 15:22 06.05.2020
3680 Clouds 5 1026 93 10000 1.5 130 14:56 06.05.2020
3681 Clouds 5 1026 93 10000 1.5 130 14:38 06.05.2020
3682 Clouds 5 1026 93 10000 1.5 130 14:18 06.05.2020
3683 Clouds 5 1026 93 10000 1.5 120 13:56 06.05.2020
3684 Clouds 5 1026 93 10000 1.5 120 13:37 06.05.2020
3685 Clouds 5 1026 93 10000 1.5 120 13:18 06.05.2020
3686 Clouds 5 1027 93 10000 1.23 269 12:42 06.05.2020
3687 Clouds 5 1027 93 10000 1.23 269 12:42 06.05.2020
3688 Clouds 5 1027 93 10000 1.21 278 12:23 06.05.2020
3689 Clouds 5 1027 93 10000 1 0 11:41 06.05.2020
3690 Clouds 5 1027 93 10000 1 0 11:21 06.05.2020
3691 Clouds 5 1027 93 10000 1.5 140 10:58 06.05.2020
3692 Clouds 5 1027 93 10000 1.5 140 10:38 06.05.2020
3693 Clouds 5 1027 93 10000 1.5 140 10:19 06.05.2020
3694 Clouds 5 1027 93 10000 1.04 280 09:45 06.05.2020
3695 Clouds 5 1027 93 10000 0.76 286 09:24 06.05.2020
3696 Clouds 4 1027 93 10000 0.5 0 08:50 06.05.2020
3697 Clouds 4 1027 93 10000 0.5 0 08:24 06.05.2020
3698 Clouds 5 1027 93 10000 0.98 310 07:59 06.05.2020
3699 Clouds 5 1027 93 10000 0.98 310 07:40 06.05.2020
3700 Clouds 5 1027 93 10000 0.9 300 07:21 06.05.2020
3701 Clouds 4 1028 93 10000 0.5 0 06:53 06.05.2020
3702 Clouds 4 1028 93 10000 0.5 0 06:22 06.05.2020
3703 Clouds 4 1027 100 10000 1 0 05:55 06.05.2020
3704 Clouds 4 1027 100 10000 1 0 05:37 06.05.2020
3705 Clouds 4 1027 100 10000 1 0 05:37 06.05.2020
3706 Clouds 3 1027 100 10000 0.86 295 04:38 06.05.2020
3707 Clouds 2 1027 100 10000 1 0 03:40 06.05.2020
3708 Clouds 2 1027 100 10000 1 0 03:20 06.05.2020
3709 Clouds 3 1027 100 10000 0.5 0 02:30 06.05.2020
3710 Clouds 4 1027 93 10000 0.83 280 01:54 06.05.2020
3711 Clouds 4 1027 93 10000 0.83 280 01:31 06.05.2020
3712 Clouds 6 1027 87 10000 1.5 120 00:53 06.05.2020
3713 Clouds 6 1027 87 10000 1.5 120 00:23 06.05.2020
3714 Clouds 7 1027 87 10000 3.6 110 23:55 05.05.2020
3715 Clouds 7 1027 87 10000 3.6 110 23:37 05.05.2020
3716 Clouds 7 1027 87 10000 3.6 110 23:18 05.05.2020
3717 Clouds 8 1027 81 10000 3.6 110 22:40 05.05.2020
3718 Clouds 8 1027 81 10000 3.6 110 22:40 05.05.2020
3719 Clouds 8 1027 81 10000 3.6 110 22:19 05.05.2020
3720 Clouds 8 1027 81 10000 3.1 120 21:56 05.05.2020
3721 Clouds 8 1027 81 10000 3.1 120 21:38 05.05.2020
3722 Clouds 8 1027 81 10000 3.1 120 21:19 05.05.2020
3723 Clouds 8 1027 81 10000 3.1 120 21:19 05.05.2020
3724 Clouds 8 1027 81 10000 3.1 90 20:56 05.05.2020
3725 Clouds 8 1027 81 10000 3.1 90 20:56 05.05.2020
3726 Clouds 8 1027 81 10000 3.1 90 20:37 05.05.2020
3727 Clouds 8 1027 81 10000 3.1 90 20:18 05.05.2020
3728 Clouds 8 1028 81 10000 3.1 110 19:41 05.05.2020
3729 Clouds 8 1028 81 10000 3.1 110 19:23 05.05.2020
3730 Clouds 7 1028 87 10000 3.6 110 18:57 05.05.2020
3731 Clouds 7 1028 87 10000 3.6 110 18:39 05.05.2020
3732 Clouds 7 1028 87 10000 3.6 110 18:20 05.05.2020
3733 Clear 9 1026 54 0 0.32 283 17:57 05.05.2020
3734 Fog 6 1028 87 10000 1 0 17:38 05.05.2020
3735 Fog 6 1028 87 10000 1 0 17:20 05.05.2020
3736 Fog 6 1028 87 10000 1 0 16:39 05.05.2020
3737 Fog 6 1028 87 10000 1 0 16:20 05.05.2020
3738 Fog 5 1028 93 10000 0.64 256 15:58 05.05.2020
3739 Fog 5 1028 93 10000 0.64 256 15:39 05.05.2020
3740 Fog 5 1028 93 10000 0.4 292 15:21 05.05.2020
3741 Fog 5 1028 93 10000 0.4 292 15:21 05.05.2020
3742 Clear 5 1027 93 10000 0.4 292 14:55 05.05.2020
3743 Clear 5 1027 93 10000 0.4 292 14:37 05.05.2020
3744 Clear 5 1027 93 10000 0.8 291 14:18 05.05.2020
3745 Clear 5 1026 93 10000 3.1 130 13:55 05.05.2020
3746 Clear 5 1026 93 10000 3.1 130 13:37 05.05.2020
3747 Clear 5 1026 93 10000 3.1 130 13:18 05.05.2020
3748 Clear 5 1026 100 10000 0.5 0 12:55 05.05.2020
3749 Clear 5 1026 100 10000 0.5 0 12:36 05.05.2020
3750 Clear 5 1026 100 10000 0.5 0 12:18 05.05.2020
3751 Clear 5 1026 100 10000 1.5 320 11:40 05.05.2020
3752 Clear 5 1026 100 10000 1.5 320 11:19 05.05.2020
3753 Clear 5 1025 100 10000 1 0 10:55 05.05.2020
3754 Clear 5 1025 100 10000 1 0 10:37 05.05.2020
3755 Clear 5 1025 100 10000 1 0 10:18 05.05.2020
3756 Mist 5 1025 93 4100 1 0 09:44 05.05.2020
3757 Mist 5 1025 93 4100 1 0 09:26 05.05.2020
3758 Mist 4 1024 100 4500 1 290 08:58 05.05.2020
3759 Mist 4 1024 100 4500 1 290 08:39 05.05.2020
3760 Mist 4 1024 100 4500 1 290 08:18 05.05.2020
3761 Clouds 4 1023 100 6000 0.5 0 07:43 05.05.2020
3762 Clouds 4 1023 100 6000 0.5 0 07:21 05.05.2020
3763 Mist 5 1023 93 3300 1.5 300 06:54 05.05.2020
3764 Mist 5 1023 93 3300 1.5 300 06:31 05.05.2020
3765 Mist 5 1022 100 5000 1.01 272 05:53 05.05.2020
3766 Clouds 4 1021 100 10000 1 0 04:58 05.05.2020
3767 Clear 6 1019 93 10000 2.1 300 02:37 05.05.2020
3768 Clouds 7 1016 93 10000 2.1 310 00:56 05.05.2020
3769 Clouds 7 1016 93 10000 2.1 310 00:31 05.05.2020
3770 Clouds 8 1017 59 0 1.37 234 23:48 04.05.2020
3771 Rain 13 1014 66 10000 3.6 270 23:25 04.05.2020
3772 Rain 13 1014 66 10000 3.6 270 22:58 04.05.2020
3773 Rain 13 1014 66 10000 3.6 270 22:40 04.05.2020
3774 Rain 13 1014 66 10000 3.6 270 22:21 04.05.2020
3775 Clouds 12 1013 66 10000 3.6 290 21:57 04.05.2020
3776 Clouds 12 1013 66 10000 3.6 290 21:57 04.05.2020
3777 Clouds 12 1013 66 10000 3.6 290 21:36 04.05.2020
3778 Clouds 12 1013 66 10000 3.6 290 21:18 04.05.2020
3779 Clouds 12 1013 66 10000 2.1 310 20:40 04.05.2020
3780 Clouds 12 1013 66 10000 2.1 310 20:40 04.05.2020
3781 Clouds 12 1013 66 10000 2.1 310 20:40 04.05.2020
3782 Clouds 12 1013 66 10000 2.1 310 20:40 04.05.2020
3783 Clouds 12 1013 66 10000 2.1 310 20:40 04.05.2020
3784 Clouds 12 1013 66 10000 2.1 310 20:19 04.05.2020
3785 Clouds 10 1013 76 10000 2.6 320 19:43 04.05.2020
3786 Clouds 10 1013 76 10000 2.6 320 19:24 04.05.2020
3787 Clouds 9 1013 87 10000 1.5 320 18:59 04.05.2020
3788 Clouds 9 1013 87 10000 1.5 320 18:38 04.05.2020
3789 Clouds 9 1013 87 10000 1.5 320 18:38 04.05.2020
3790 Clouds 9 1013 87 10000 1.5 320 18:19 04.05.2020
3791 Clouds 9 1013 87 10000 1.5 320 18:19 04.05.2020
3792 Clouds 8 1012 87 10000 2.1 320 17:56 04.05.2020
3793 Clouds 8 1012 87 10000 2.1 320 17:56 04.05.2020
3794 Clouds 8 1012 87 10000 2.1 320 17:37 04.05.2020
3795 Clouds 8 1012 87 10000 2.1 320 17:19 04.05.2020
3796 Clouds 8 1012 87 10000 1.5 290 16:43 04.05.2020
3797 Clouds 8 1012 87 10000 1.5 290 16:22 04.05.2020
3798 Smoke 7 1011 93 10000 1.5 310 15:57 04.05.2020
3799 Rain 7 1011 93 10000 1.5 310 15:38 04.05.2020
3800 Rain 7 1011 93 10000 1.5 310 15:18 04.05.2020
3801 Rain 6 1011 100 10000 0.5 0 14:48 04.05.2020
3802 Rain 6 1011 100 10000 0.5 0 14:48 04.05.2020
3803 Rain 6 1011 100 10000 0.5 0 14:48 04.05.2020
3804 Rain 6 1011 100 10000 0.5 0 14:48 04.05.2020
3805 Rain 6 1011 100 10000 0.5 0 14:48 04.05.2020
3806 Rain 6 1011 100 10000 0.5 0 14:20 04.05.2020
3807 Rain 7 1011 100 10000 1 0 12:57 04.05.2020
3808 Rain 7 1011 100 10000 1 0 12:36 04.05.2020
3809 Rain 7 1011 100 10000 1 0 12:36 04.05.2020
3810 Rain 7 1011 100 10000 1 0 12:36 04.05.2020
3811 Rain 7 1011 100 10000 1 0 12:36 04.05.2020
3812 Rain 7 1011 100 10000 1 0 12:36 04.05.2020
3813 Rain 7 1011 100 10000 0.5 290 10:38 04.05.2020
3814 Rain 7 1011 100 10000 1 0 09:26 04.05.2020
3815 Rain 7 1011 100 10000 1 0 09:26 04.05.2020
3816 Rain 7 1011 100 10000 1 0 09:26 04.05.2020
3817 Rain 7 1011 100 10000 1 0 09:26 04.05.2020
3818 Rain 7 1011 100 10000 1 0 09:26 04.05.2020
3819 Rain 8 1012 93 10000 2.1 290 07:53 04.05.2020
3820 Rain 8 1012 93 10000 2.1 290 07:33 04.05.2020
3821 Rain 8 1012 93 10000 2.1 290 07:33 04.05.2020
3822 Rain 8 1012 93 10000 2.1 290 07:33 04.05.2020
3823 Rain 8 1012 93 10000 2.1 290 07:33 04.05.2020
3824 Rain 8 1012 93 10000 2.1 290 07:33 04.05.2020
3825 Rain 8 1011 93 10000 1 0 05:18 04.05.2020
3826 Rain 8 1011 93 10000 1 0 04:02 04.05.2020
3827 Rain 8 1010 93 10000 1 0 02:32 04.05.2020
3828 Rain 8 1010 93 10000 1.5 300 01:19 04.05.2020
3829 Rain 9 1010 87 10000 3.1 280 23:57 03.05.2020
3830 Rain 9 1010 87 10000 3.1 280 23:57 03.05.2020
3831 Rain 9 1010 87 10000 3.1 280 23:57 03.05.2020
3832 Rain 9 1010 87 10000 3.1 280 23:39 03.05.2020
3833 Rain 9 1010 87 10000 3.1 280 23:39 03.05.2020
3834 Rain 9 1010 87 10000 3.1 280 23:19 03.05.2020
3835 Rain 10 1009 81 10000 3.1 260 22:41 03.05.2020
3836 Rain 10 1009 81 10000 3.1 260 22:41 03.05.2020
3837 Rain 10 1009 81 10000 3.1 260 22:22 03.05.2020
3838 Rain 10 1009 87 10000 3.6 290 21:42 03.05.2020
3839 Rain 10 1009 87 10000 3.6 290 21:42 03.05.2020
3840 Rain 10 1009 87 10000 3.6 290 21:21 03.05.2020
3841 Rain 10 1009 87 10000 3.6 290 21:21 03.05.2020
3842 Rain 10 1009 81 10000 3.1 0 20:48 03.05.2020
3843 Rain 10 1009 81 10000 3.1 0 20:23 03.05.2020
3844 Rain 10 1010 81 10000 2.6 300 19:57 03.05.2020
3845 Rain 10 1010 81 10000 2.6 300 19:38 03.05.2020
3846 Rain 10 1010 81 10000 2.6 300 19:19 03.05.2020
3847 Rain 10 1010 81 10000 2.6 0 18:40 03.05.2020
3848 Rain 10 1010 81 10000 2.6 0 18:20 03.05.2020
3849 Rain 10 1010 71 10000 4.6 0 17:56 03.05.2020
3850 Rain 10 1010 71 10000 4.6 0 17:56 03.05.2020
3851 Rain 10 1010 71 10000 4.6 0 17:38 03.05.2020
3852 Rain 10 1010 71 10000 4.6 0 17:19 03.05.2020
3853 Rain 10 1010 71 10000 4.6 0 17:19 03.05.2020
3854 Clouds 9 1010 87 10000 1.5 0 16:44 03.05.2020
3855 Clouds 9 1010 87 10000 1.5 0 16:19 03.05.2020
3856 Clouds 7 1010 93 10000 1.5 310 15:57 03.05.2020
3857 Clouds 7 1010 93 10000 1.5 310 15:38 03.05.2020
3858 Clouds 7 1010 93 10000 1.5 310 15:38 03.05.2020
3859 Clouds 7 1010 93 10000 1.5 310 15:19 03.05.2020
3860 Clouds 6 1010 100 10000 0.5 0 14:55 03.05.2020
3861 Clouds 6 1010 100 10000 0.5 0 14:37 03.05.2020
3862 Clouds 6 1010 100 10000 0.5 0 14:19 03.05.2020
3863 Clouds 6 1010 100 10000 1.5 0 13:37 03.05.2020
3864 Rain 7 1010 93 10000 1 0 12:52 03.05.2020
3865 Rain 7 1010 93 10000 1 0 12:29 03.05.2020
3866 Rain 7 1010 93 10000 1 0 12:29 03.05.2020
3867 Rain 7 1010 93 10000 3.1 280 11:58 03.05.2020
3868 Rain 7 1010 93 10000 3.1 280 11:40 03.05.2020
3869 Rain 7 1010 93 10000 3.1 280 11:40 03.05.2020
3870 Rain 7 1010 93 10000 3.1 280 11:40 03.05.2020
3871 Rain 7 1010 93 10000 3.1 280 11:20 03.05.2020
3872 Rain 7 1011 93 10000 2.1 300 10:54 03.05.2020
3873 Rain 7 1011 93 10000 2.1 300 10:25 03.05.2020
3874 Rain 8 1012 87 10000 1 0 09:41 03.05.2020
3875 Rain 8 1012 87 10000 1 0 09:41 03.05.2020
3876 Rain 8 1012 87 10000 1 0 09:41 03.05.2020
3877 Rain 8 1012 87 10000 1 0 09:41 03.05.2020
3878 Rain 8 1012 87 10000 1 0 09:41 03.05.2020
3879 Rain 8 1012 93 7000 1 0 08:59 03.05.2020
3880 Rain 8 1012 93 7000 1 0 08:59 03.05.2020
3881 Rain 8 1012 93 7000 1 0 08:35 03.05.2020
3882 Rain 7 1011 100 10000 1 0 07:44 03.05.2020
3883 Rain 7 1011 100 10000 1 0 07:44 03.05.2020
3884 Rain 7 1011 100 10000 1 0 07:44 03.05.2020
3885 Rain 7 1011 100 10000 1 0 07:44 03.05.2020
3886 Rain 7 1011 100 10000 1 0 07:44 03.05.2020
3887 Rain 7 1011 100 10000 2.6 280 06:54 03.05.2020
3888 Rain 7 1011 100 10000 2.6 280 06:54 03.05.2020
3889 Rain 7 1011 100 10000 2.6 280 06:54 03.05.2020
3890 Rain 7 1012 100 10000 1.5 280 05:56 03.05.2020
3891 Rain 7 1012 100 10000 1.5 280 05:37 03.05.2020
3892 Rain 7 1012 100 9000 1.5 320 04:28 03.05.2020
3893 Rain 7 1012 100 10000 1 0 03:38 03.05.2020
3894 Rain 8 1013 93 10000 2.1 300 02:31 03.05.2020
3895 Rain 8 1012 93 10000 2.1 290 01:59 03.05.2020
3896 Rain 8 1012 93 10000 2.1 290 01:39 03.05.2020
3897 Rain 8 1012 93 10000 2.1 290 01:20 03.05.2020
3898 Rain 8 1012 100 10000 1.5 300 00:38 03.05.2020
3899 Rain 8 1012 100 10000 1.5 300 00:20 03.05.2020
3900 Rain 10 1012 87 10000 1.5 310 23:45 02.05.2020
3901 Rain 10 1012 87 10000 1.5 310 23:27 02.05.2020
3902 Rain 11 1012 71 10000 3.6 250 22:56 02.05.2020
3903 Rain 11 1012 71 10000 3.6 250 22:56 02.05.2020
3904 Rain 11 1012 71 10000 3.6 250 22:37 02.05.2020
3905 Rain 11 1012 71 10000 3.6 250 22:19 02.05.2020
3906 Clouds 13 1010 76 10000 1.5 330 21:40 02.05.2020
3907 Clouds 13 1010 76 10000 1.5 330 21:20 02.05.2020
3908 Rain 11 1011 93 10000 1.5 340 20:58 02.05.2020
3909 Rain 11 1011 93 10000 1.5 340 20:38 02.05.2020
3910 Rain 11 1011 93 10000 1.5 340 20:19 02.05.2020
3911 Rain 10 1011 93 10000 2.1 280 19:57 02.05.2020
3912 Rain 10 1011 93 10000 2.1 280 19:39 02.05.2020
3913 Rain 10 1011 93 10000 2.1 280 19:20 02.05.2020
3914 Rain 9 1011 100 10000 0.5 0 18:56 02.05.2020
3915 Rain 9 1011 100 10000 0.5 0 18:37 02.05.2020
3916 Rain 9 1011 100 10000 0.5 0 18:19 02.05.2020
3917 Rain 9 1011 93 10000 2.59 302 17:54 02.05.2020
3918 Rain 9 1011 93 10000 2.59 302 17:36 02.05.2020
3919 Rain 9 1011 93 10000 2.35 309 17:18 02.05.2020
3920 Rain 8 1012 93 10000 2.35 309 16:41 02.05.2020
3921 Rain 8 1012 93 10000 2.87 333 16:23 02.05.2020
3922 Clouds 7 1012 100 10000 2.6 160 15:44 02.05.2020
3923 Clouds 7 1012 100 10000 2.6 160 15:21 02.05.2020
3924 -273 0 0 0 0 0 14:59 02.05.2020
3925 Clouds 7 1012 100 10000 2.1 120 14:40 02.05.2020
3926 Clouds 7 1012 100 10000 2.1 120 14:22 02.05.2020
3927 Clouds 7 1012 100 10000 2.6 130 13:41 02.05.2020
3928 Clouds 7 1012 100 10000 2.6 130 13:22 02.05.2020
3929 Rain 7 1012 100 10000 3.1 120 12:56 02.05.2020
3930 Rain 7 1012 100 10000 3.1 120 12:38 02.05.2020
3931 Rain 7 1012 100 10000 3.1 120 12:19 02.05.2020
3932 Rain 7 1012 100 10000 1 0 11:42 02.05.2020
3933 Rain 7 1012 100 10000 1 0 11:23 02.05.2020
3934 Rain 7 1012 100 8000 0.5 0 10:59 02.05.2020
3935 Rain 7 1012 100 8000 0.5 0 10:39 02.05.2020
3936 Rain 7 1012 100 8000 0.5 0 10:21 02.05.2020
3937 Rain 7 1013 100 10000 1 0 09:57 02.05.2020
3938 Rain 7 1013 100 10000 1 0 09:38 02.05.2020
3939 Rain 7 1013 100 10000 1 0 09:20 02.05.2020
3940 Rain 7 1013 93 10000 1 0 08:50 02.05.2020
3941 Rain 7 1013 93 10000 1 0 08:30 02.05.2020
3942 Rain 6 1014 100 10000 1 0 07:49 02.05.2020
3943 Rain 6 1014 100 10000 1 0 07:29 02.05.2020
3944 Rain 6 1014 93 10000 1 0 06:52 02.05.2020
3945 Clouds 5 1014 100 10000 1 0 05:30 02.05.2020
3946 Clouds 4 1015 100 10000 1.48 313 04:59 02.05.2020
3947 Clouds 4 1015 100 10000 1.72 304 04:25 02.05.2020
3948 Clouds 5 1014 93 10000 1.5 300 03:18 02.05.2020
3949 Clouds 6 1015 93 10000 1 0 02:26 02.05.2020
3950 Clouds 7 1015 93 10000 1 0 01:50 02.05.2020
3951 Clouds 9 1015 81 10000 1.5 310 00:49 02.05.2020
3952 Clouds 9 1015 81 10000 1.5 310 00:29 02.05.2020
3953 Clouds 11 1015 76 10000 1.5 310 23:59 01.05.2020
3954 Clouds 11 1015 76 10000 1.5 310 23:39 01.05.2020
3955 Clouds 11 1015 76 10000 1.5 310 23:20 01.05.2020
3956 Clouds 12 1016 71 10000 1.5 350 22:55 01.05.2020
3957 Clouds 12 1016 71 10000 1.5 350 22:37 01.05.2020
3958 Clouds 12 1016 71 10000 1.5 350 22:18 01.05.2020
3959 Clouds 12 1016 71 10000 1.5 350 22:18 01.05.2020
3960 Clouds 13 1016 54 10000 1 0 21:55 01.05.2020
3961 Clouds 13 1016 54 10000 1 0 21:36 01.05.2020
3962 Clouds 13 1016 54 10000 1 0 21:18 01.05.2020
3963 Clouds 12 1018 62 10000 1.5 260 20:54 01.05.2020
3964 Clouds 11 1019 66 10000 1.45 289 20:36 01.05.2020
3965 Clouds 11 1019 66 10000 1.29 332 20:18 01.05.2020
3966 Clouds 11 1019 66 10000 1.29 332 19:41 01.05.2020
3967 Clouds 11 1019 66 10000 0.97 301 19:22 01.05.2020
3968 Clouds 9 1019 76 10000 1 0 18:57 01.05.2020
3969 Clouds 9 1019 76 10000 1 0 18:38 01.05.2020
3970 Clouds 9 1019 76 10000 1 0 18:19 01.05.2020
3971 Clouds 7 1020 87 10000 0.96 19 17:54 01.05.2020
3972 Clouds 7 1020 87 10000 0.96 19 17:36 01.05.2020
3973 Clouds 7 1020 87 10000 1.76 35 17:18 01.05.2020
3974 Fog 5 1022 100 10000 1 0 16:40 01.05.2020
3975 Fog 5 1022 100 10000 1 0 16:21 01.05.2020
3976 Fog 4 1021 100 10000 2.11 43 15:58 01.05.2020
3977 Fog 4 1021 100 10000 2.11 43 15:58 01.05.2020
3978 Fog 4 1021 100 10000 2.11 43 15:40 01.05.2020
3979 Fog 4 1021 100 10000 2.42 58 15:20 01.05.2020
3980 Fog 3 1021 100 650 1.5 160 14:44 01.05.2020
3981 Fog 3 1021 100 650 1.5 160 14:25 01.05.2020
3982 Mist 3 1021 93 2700 1.92 61 13:57 01.05.2020
3983 Mist 3 1021 93 2700 1.92 61 13:39 01.05.2020
3984 Mist 3 1021 93 2700 1.82 68 13:21 01.05.2020
3985 Clouds 3 1022 100 10000 1 0 12:56 01.05.2020
3986 Clouds 3 1022 100 10000 1 0 12:37 01.05.2020
3987 Clouds 3 1022 100 10000 1 0 12:19 01.05.2020
3988 Clouds 3 1022 100 10000 1 0 11:42 01.05.2020
3989 Clouds 3 1022 100 10000 1 0 11:42 01.05.2020
3990 Clouds 3 1022 100 10000 1 0 11:23 01.05.2020
3991 Clouds 4 1022 100 10000 0.5 0 10:58 01.05.2020
3992 Clouds 4 1022 100 10000 0.5 0 10:39 01.05.2020
3993 Clouds 4 1022 100 10000 0.5 0 10:20 01.05.2020
3994 Clouds 4 1023 100 10000 1.95 62 09:44 01.05.2020
3995 Clouds 4 1023 100 10000 1.69 57 09:20 01.05.2020
3996 Mist 4 1023 100 1500 1.69 57 08:57 01.05.2020
3997 Mist 4 1023 100 1500 1.69 57 08:39 01.05.2020
3998 Mist 4 1023 100 1500 1.8 51 08:21 01.05.2020
3999 Clouds 4 1024 100 10000 1 0 07:44 01.05.2020
4000 Clouds 4 1024 100 10000 1 0 07:22 01.05.2020
4001 Fog 4 1024 100 700 0.5 0 06:42 01.05.2020
4002 Mist 5 1025 100 1400 1.31 60 05:35 01.05.2020
4003 Clouds 6 1025 100 10000 0.5 0 04:21 01.05.2020
4004 Clear 6 1024 93 10000 1.5 300 03:23 01.05.2020
4005 Clear 7 1024 93 10000 1.5 300 02:42 01.05.2020
4006 Clouds 8 1024 93 10000 2.1 310 01:59 01.05.2020
4007 Clouds 8 1024 93 10000 2.1 310 01:28 01.05.2020
4008 Clouds 10 1023 81 10000 2.1 300 00:56 01.05.2020
4009 Clouds 10 1023 81 10000 2.1 300 00:36 01.05.2020
4010 Clouds 10 1023 81 10000 2.1 300 00:18 01.05.2020
4011 Haze 12 1022 71 10000 2.6 320 23:54 30.04.2020
4012 Haze 12 1022 71 10000 2.6 320 23:36 30.04.2020
4013 Haze 12 1022 71 10000 2.6 320 23:18 30.04.2020
4014 Clear 14 1022 67 10000 3.1 340 22:40 30.04.2020
4015 Clear 14 1022 67 10000 3.1 340 22:19 30.04.2020
4016 Clear 15 1022 62 10000 2.6 340 21:55 30.04.2020
4017 Clear 15 1022 62 10000 2.6 340 21:37 30.04.2020
4018 Clear 15 1022 62 10000 2.6 340 21:18 30.04.2020
4019 Clouds 15 1022 62 10000 3.1 320 20:41 30.04.2020
4020 Clouds 15 1022 62 10000 3.1 320 20:19 30.04.2020
4021 Clouds 13 1023 66 10000 2.6 320 19:58 30.04.2020
4022 Clouds 13 1023 66 10000 2.6 320 19:38 30.04.2020
4023 Clouds 13 1023 66 10000 2.6 320 19:18 30.04.2020
4024 Clouds 12 1023 81 10000 1.5 320 18:40 30.04.2020
4025 Clouds 12 1023 81 10000 1.5 320 18:21 30.04.2020
4026 Clouds 10 1024 93 10000 2.1 300 17:59 30.04.2020
4027 Clouds 10 1024 93 10000 2.1 300 17:40 30.04.2020
4028 Clouds 10 1024 93 10000 2.1 300 17:22 30.04.2020
4029 Clouds 9 1023 93 10000 2.38 262 16:57 30.04.2020
4030 Clouds 9 1023 93 10000 2.38 262 16:39 30.04.2020
4031 Clouds 9 1023 93 10000 2.22 267 16:19 30.04.2020
4032 Fog 7 1023 100 10000 1 0 15:48 30.04.2020
4033 Fog 7 1023 100 10000 1 0 15:25 30.04.2020
4034 Fog 7 1023 100 10000 1 0 15:25 30.04.2020
4035 Clouds 7 1022 93 10000 1.95 272 14:58 30.04.2020
4036 Clouds 7 1022 93 10000 1.95 272 14:39 30.04.2020
4037 Clouds 7 1022 93 10000 1.94 288 14:19 30.04.2020
4038 Clouds 8 1021 93 10000 2.6 290 13:55 30.04.2020
4039 Clouds 8 1021 93 10000 2.6 290 13:37 30.04.2020
4040 Clouds 8 1021 93 10000 2.6 290 13:37 30.04.2020
4041 Clouds 8 1021 93 10000 2.6 290 13:19 30.04.2020
4042 Clouds 8 1020 100 10000 2.1 0 12:41 30.04.2020
4043 Clouds 8 1020 100 10000 2.1 0 12:20 30.04.2020
4044 Rain 9 1020 93 10000 3.1 330 11:58 30.04.2020
4045 Rain 9 1020 93 10000 3.1 330 11:36 30.04.2020
4046 Rain 9 1020 93 10000 3.1 330 11:18 30.04.2020
4047 Clouds 9 1019 100 10000 2.1 290 10:41 30.04.2020
4048 Clouds 9 1019 100 10000 2.1 290 10:22 30.04.2020
4049 Clouds 9 1019 100 10000 2.1 290 10:22 30.04.2020
4050 Clouds 7 1019 66 0 2.53 289 09:58 30.04.2020
4051 Clouds 7 1019 66 0 2.53 289 09:39 30.04.2020
4052 Rain 10 1018 93 10000 1.5 270 09:20 30.04.2020
4053 Rain 10 1018 93 10000 1.5 270 09:20 30.04.2020
4054 Rain 10 1018 93 10000 1.5 270 08:47 30.04.2020
4055 Rain 10 1018 93 10000 1.5 270 08:26 30.04.2020
4056 Rain 10 1017 93 10000 1.5 290 07:48 30.04.2020
4057 Rain 10 1017 93 10000 1.5 290 07:26 30.04.2020
4058 Rain 10 1017 93 10000 1.5 290 06:59 30.04.2020
4059 Rain 10 1017 93 10000 1.5 290 06:59 30.04.2020
4060 Rain 10 1017 93 10000 1.5 290 06:32 30.04.2020
4061 Rain 11 1017 81 10000 2.1 280 05:47 30.04.2020
4062 Clouds 11 1016 81 10000 1.5 260 04:43 30.04.2020
4063 Clear 11 1016 81 10000 1.5 260 04:23 30.04.2020
4064 Clear 11 1016 81 10000 1.5 300 02:48 30.04.2020
4065 Clouds 11 1016 81 10000 1.5 300 02:27 30.04.2020
4066 Clouds 12 1016 81 10000 2.6 280 01:37 30.04.2020
4067 Clouds 13 1015 71 10000 1.5 0 00:50 30.04.2020
4068 Clouds 13 1015 71 10000 1.5 0 00:20 30.04.2020
4069 Clouds 13 1015 76 10000 1.5 0 23:58 29.04.2020
4070 Clouds 13 1015 76 10000 1.5 0 23:39 29.04.2020
4071 Clouds 13 1015 76 10000 1.5 0 23:21 29.04.2020
4072 Clouds 14 1016 76 10000 2.1 330 22:56 29.04.2020
4073 Clouds 14 1016 76 10000 2.1 330 22:38 29.04.2020
4074 Clouds 14 1016 76 10000 2.1 330 22:18 29.04.2020
4075 Clouds 14 1016 76 10000 3.1 300 21:38 29.04.2020
4076 Clouds 14 1016 76 10000 3.1 300 21:19 29.04.2020
4077 Clouds 13 1016 76 10000 1.5 310 20:57 29.04.2020
4078 Clouds 13 1016 76 10000 1.5 310 20:38 29.04.2020
4079 Clouds 13 1016 76 10000 1.5 310 20:18 29.04.2020
4080 Clouds 12 1017 76 10000 0.5 0 19:43 29.04.2020
4081 Clouds 12 1017 76 10000 0.5 0 19:22 29.04.2020
4082 Clouds 11 1018 81 10000 1.35 253 18:57 29.04.2020
4083 Clouds 11 1018 81 10000 1.35 253 18:38 29.04.2020
4084 Clouds 11 1018 81 10000 1.31 276 18:18 29.04.2020
4085 Clouds 10 1018 87 10000 1.31 276 17:42 29.04.2020
4086 Clouds 10 1018 87 10000 0.9 269 17:21 29.04.2020
4087 Clouds 10 1017 59 0 0.9 269 16:56 29.04.2020
4088 Clouds 8 1018 93 10000 1.5 160 16:36 29.04.2020
4089 Clouds 8 1018 93 10000 1.5 160 16:18 29.04.2020
4090 Clouds 8 1018 93 10000 1.5 160 16:18 29.04.2020
4091 Clouds 8 1018 93 10000 1.5 160 15:54 29.04.2020
4092 Clouds 8 1018 93 10000 1.5 160 15:36 29.04.2020
4093 Clouds 8 1018 93 10000 1.5 160 15:18 29.04.2020
4094 Clouds 8 1019 100 10000 1.5 140 14:41 29.04.2020
4095 Clouds 8 1019 100 10000 1.5 140 14:23 29.04.2020
4096 Clouds 7 1019 100 10000 1.5 300 13:56 29.04.2020
4097 Clouds 7 1019 100 10000 1.5 300 13:37 29.04.2020
4098 Clouds 7 1019 100 10000 1.5 300 13:18 29.04.2020
4099 Clouds 8 1019 93 10000 1.5 290 12:41 29.04.2020
4100 Clouds 8 1019 93 10000 1.5 290 12:19 29.04.2020
4101 Clouds 8 1019 93 10000 1.5 280 11:58 29.04.2020
4102 Clouds 8 1019 93 10000 1.5 280 11:58 29.04.2020
4103 Clouds 8 1019 93 10000 1.5 280 11:36 29.04.2020
4104 Clouds 8 1019 93 10000 1.5 280 11:18 29.04.2020
4105 Clouds 9 1020 93 10000 2.6 290 10:38 29.04.2020
4106 Clouds 9 1020 93 10000 2.6 290 10:20 29.04.2020
4107 Rain 9 1020 93 10000 2.1 310 09:58 29.04.2020
4108 Rain 9 1020 93 10000 2.1 310 09:40 29.04.2020
4109 Rain 9 1020 93 10000 2.1 310 09:18 29.04.2020
4110 Clouds 9 1020 93 10000 2.6 290 08:43 29.04.2020
4111 Clouds 9 1020 93 10000 2.6 290 08:24 29.04.2020
4112 Clouds 10 1021 87 10000 2.6 260 07:50 29.04.2020
4113 Clouds 10 1021 87 10000 2.6 260 07:27 29.04.2020
4114 Clouds 9 1021 93 10000 3.1 290 06:52 29.04.2020
4115 Clouds 9 1021 93 10000 3.1 290 06:31 29.04.2020
4116 Clouds 9 1021 93 10000 2.1 310 05:22 29.04.2020
4117 Clouds 9 1021 100 10000 2.1 310 04:47 29.04.2020
4118 Clouds 9 1021 100 10000 2.1 310 04:19 29.04.2020
4119 Clouds 11 1021 87 10000 2.1 300 02:49 29.04.2020
4120 Rain 11 1020 93 10000 2.6 290 01:44 29.04.2020
4121 Rain 11 1020 93 10000 2.6 290 01:26 29.04.2020
4122 Rain 12 1020 81 10000 1.5 250 00:50 29.04.2020
4123 Rain 12 1020 81 10000 1.5 250 00:20 29.04.2020
4124 Rain 13 1020 76 10000 3.1 270 23:52 28.04.2020
4125 Rain 13 1020 76 10000 3.1 270 23:24 28.04.2020
4126 Rain 13 1019 82 10000 3.6 300 22:58 28.04.2020
4127 Rain 13 1019 82 10000 3.6 300 22:37 28.04.2020
4128 Rain 13 1019 82 10000 3.6 300 22:37 28.04.2020
4129 Rain 13 1019 82 10000 3.6 300 22:18 28.04.2020
4130 Rain 13 1019 82 10000 3.1 300 21:57 28.04.2020
4131 Rain 13 1019 82 10000 3.1 300 21:38 28.04.2020
4132 Rain 13 1019 82 10000 3.1 300 21:20 28.04.2020
4133 Clouds 14 1019 71 10000 3.1 0 20:55 28.04.2020
4134 Clouds 14 1019 71 10000 3.1 0 20:37 28.04.2020
4135 Clouds 14 1019 71 10000 3.1 0 20:19 28.04.2020
4136 Rain 14 1019 67 10000 3.1 340 19:43 28.04.2020
4137 Rain 14 1019 67 10000 3.1 340 19:22 28.04.2020
4138 Clouds 14 1019 67 10000 3.1 0 18:59 28.04.2020
4139 Clouds 14 1019 67 10000 3.1 0 18:40 28.04.2020
4140 Clouds 14 1019 67 10000 3.1 0 18:19 28.04.2020
4141 Clouds 14 1019 67 10000 3.1 0 18:19 28.04.2020
4142 Clouds 13 1019 76 10000 2.6 310 17:57 28.04.2020
4143 Clouds 13 1019 76 10000 2.6 310 17:36 28.04.2020
4144 Clouds 13 1019 76 10000 2.6 310 17:18 28.04.2020
4145 Clouds 11 1019 56 0 2.86 281 16:42 28.04.2020
4146 Haze 9 1019 100 10000 0.5 0 16:23 28.04.2020
4147 Haze 9 1019 100 10000 0.5 0 15:57 28.04.2020
4148 Haze 9 1019 100 10000 0.5 0 15:39 28.04.2020
4149 Haze 9 1019 100 10000 0.5 0 15:21 28.04.2020
4150 Clouds 8 1018 100 10000 3.1 280 14:57 28.04.2020
4151 Clouds 8 1018 100 10000 3.1 280 14:39 28.04.2020
4152 Clouds 8 1018 100 10000 3.1 280 14:19 28.04.2020
4153 Rain 8 1018 100 10000 3.1 290 13:57 28.04.2020
4154 Rain 8 1018 100 10000 3.1 290 13:37 28.04.2020
4155 Rain 8 1018 100 10000 3.1 290 13:19 28.04.2020
4156 Clouds 8 1018 100 10000 1.5 320 12:43 28.04.2020
4157 Clouds 8 1018 100 10000 1.5 320 12:23 28.04.2020
4158 Clouds 8 1017 100 10000 2.1 300 11:43 28.04.2020
4159 Clouds 8 1017 100 10000 2.1 300 11:24 28.04.2020
4160 Rain 9 1017 100 10000 2.1 310 10:59 28.04.2020
4161 Rain 9 1017 100 10000 2.1 310 10:38 28.04.2020
4162 Rain 9 1017 100 10000 2.1 310 10:19 28.04.2020
4163 Rain 9 1017 100 10000 1 0 09:55 28.04.2020
4164 Rain 9 1017 100 10000 1 0 09:37 28.04.2020
4165 Rain 9 1017 100 10000 1 0 09:18 28.04.2020
4166 Clouds 9 1017 93 10000 2.1 290 08:40 28.04.2020
4167 Clouds 9 1017 93 10000 2.1 290 08:22 28.04.2020
4168 Clouds 9 1017 100 10000 2.6 280 07:44 28.04.2020
4169 Clouds 9 1017 100 10000 2.6 280 07:44 28.04.2020
4170 Clouds 9 1017 100 10000 2.6 280 07:44 28.04.2020
4171 Clouds 9 1017 100 10000 2.6 280 07:19 28.04.2020
4172 Clouds 9 1017 100 10000 1.5 290 06:44 28.04.2020
4173 Clouds 9 1017 93 10000 1 0 05:56 28.04.2020
4174 Clouds 9 1017 93 10000 1 0 05:37 28.04.2020
4175 Clouds 9 1016 100 10000 1.5 280 04:39 28.04.2020
4176 Clouds 10 1016 93 10000 0.5 0 02:59 28.04.2020
4177 Clouds 10 1016 93 10000 0.5 0 02:25 28.04.2020
4178 Clouds 10 1015 93 10000 1.69 285 01:22 28.04.2020
4179 Clouds 11 1015 93 10000 1.5 300 00:49 28.04.2020
4180 Clouds 11 1015 93 10000 1.5 300 00:19 28.04.2020
4181 Clouds 13 1015 87 10000 1.5 310 23:43 27.04.2020
4182 Clouds 13 1015 87 10000 1.5 310 23:21 27.04.2020
4183 Clouds 12 1014 54 0 2.43 267 22:43 27.04.2020
4184 Rain 14 1014 82 9000 1 0 22:24 27.04.2020
4185 Rain 14 1014 82 9000 1 0 21:58 27.04.2020
4186 Rain 14 1014 82 9000 1 0 21:39 27.04.2020
4187 Rain 14 1014 82 9000 1 0 21:20 27.04.2020
4188 Clouds 13 1014 87 10000 2.1 280 20:58 27.04.2020
4189 Clouds 13 1014 87 10000 2.1 280 20:39 27.04.2020
4190 Clouds 13 1014 87 10000 2.1 280 20:21 27.04.2020
4191 Clouds 13 1014 87 10000 2.1 290 19:57 27.04.2020
4192 Clouds 13 1014 87 10000 2.1 290 19:37 27.04.2020
4193 Clouds 13 1014 87 10000 2.1 290 19:19 27.04.2020
4194 Drizzle 12 1015 87 10000 2.44 304 18:55 27.04.2020
4195 Drizzle 12 1015 87 10000 2.44 304 18:37 27.04.2020
4196 Drizzle 12 1015 87 10000 2.34 335 18:18 27.04.2020
4197 Clouds 12 1015 87 10000 2.1 150 17:41 27.04.2020
4198 Clouds 12 1015 87 10000 2.1 150 17:19 27.04.2020
4199 Clouds 11 1015 93 10000 1.5 120 16:41 27.04.2020
4200 Clouds 11 1015 93 10000 1.5 120 16:22 27.04.2020
4201 Clouds 10 1015 100 10000 1 0 15:58 27.04.2020
4202 Clouds 10 1015 100 10000 1 0 15:40 27.04.2020
4203 Clouds 10 1015 100 10000 1 0 15:20 27.04.2020
4204 Clouds 10 1014 100 10000 2.1 120 14:58 27.04.2020
4205 Clouds 10 1014 100 10000 2.1 120 14:40 27.04.2020
4206 Clouds 10 1014 100 10000 2.1 120 14:19 27.04.2020
4207 Clouds 10 1014 100 10000 2.1 120 13:56 27.04.2020
4208 Clouds 10 1014 100 10000 2.1 120 13:36 27.04.2020
4209 Clouds 10 1014 100 10000 2.1 120 13:18 27.04.2020
4210 Rain 10 1015 100 10000 1.5 140 12:42 27.04.2020
4211 Rain 10 1015 100 10000 1.5 140 12:21 27.04.2020
4212 Clear 10 1014 100 10000 1.5 250 11:42 27.04.2020
4213 Clear 10 1014 100 10000 1.5 250 11:22 27.04.2020
4214 Rain 10 1015 100 10000 1.27 339 10:59 27.04.2020
4215 Rain 10 1015 100 10000 1.27 339 10:40 27.04.2020
4216 Rain 10 1015 100 10000 1.27 339 10:22 27.04.2020
4217 Rain 10 1015 100 10000 1 0 09:55 27.04.2020
4218 Rain 10 1015 100 10000 1 0 09:36 27.04.2020
4219 Rain 10 1015 100 10000 1 0 09:18 27.04.2020
4220 Mist 10 1016 100 3500 1.1 298 08:45 27.04.2020
4221 Mist 10 1016 100 3500 1.1 298 08:27 27.04.2020
4222 Rain 10 1015 100 9000 1 0 07:45 27.04.2020
4223 Rain 10 1015 100 9000 1 0 07:23 27.04.2020
4224 Mist 10 1015 100 5000 1.5 260 06:57 27.04.2020
4225 Mist 10 1015 100 5000 1.5 260 06:27 27.04.2020
4226 Clouds 10 1016 100 10000 0.96 280 05:50 27.04.2020
4227 Clouds 10 1015 100 10000 1.5 290 04:51 27.04.2020
4228 Clouds 10 1015 100 10000 1.5 290 04:20 27.04.2020
4229 Clouds 11 1015 93 10000 2.1 300 03:43 27.04.2020
4230 Rain 14 1014 76 10000 4.6 280 01:45 27.04.2020
4231 Rain 14 1014 76 10000 4.6 280 01:18 27.04.2020
4232 Rain 13 1014 87 10000 2.1 310 00:20 27.04.2020
4233 Rain 14 1014 82 10000 1.5 0 23:58 26.04.2020
4234 Rain 14 1014 82 10000 1.5 0 23:40 26.04.2020
4235 Rain 14 1014 82 10000 1.5 0 23:21 26.04.2020
4236 Rain 15 1014 72 10000 3.6 110 22:58 26.04.2020
4237 Rain 15 1014 72 10000 3.6 110 22:39 26.04.2020
4238 Rain 15 1014 72 10000 3.6 110 22:20 26.04.2020
4239 Rain 15 1015 72 10000 4.1 130 21:57 26.04.2020
4240 Rain 15 1015 72 10000 4.1 130 21:38 26.04.2020
4241 Rain 15 1015 72 10000 4.1 130 21:18 26.04.2020
4242 Rain 15 1015 72 10000 4.1 130 21:18 26.04.2020
4243 Rain 15 1015 72 10000 4.1 130 21:18 26.04.2020
4244 Rain 16 1015 67 10000 3.1 0 20:54 26.04.2020
4245 Rain 16 1015 67 10000 3.1 0 20:54 26.04.2020
4246 Rain 16 1015 67 10000 3.1 0 20:36 26.04.2020
4247 Rain 16 1015 67 10000 3.1 0 20:18 26.04.2020
4248 Rain 15 1017 67 10000 6.2 80 19:56 26.04.2020
4249 Rain 15 1017 67 10000 6.2 80 19:36 26.04.2020
4250 Rain 15 1017 67 10000 6.2 80 19:18 26.04.2020
4251 Rain 14 1017 76 10000 4.1 110 18:40 26.04.2020
4252 Rain 14 1017 76 10000 4.1 110 18:21 26.04.2020
4253 Rain 12 1018 93 10000 1 0 17:42 26.04.2020
4254 Rain 12 1018 93 10000 1 0 17:22 26.04.2020
4255 Rain 10 1018 100 10000 2.1 270 16:55 26.04.2020
4256 Rain 10 1018 100 10000 2.1 270 16:37 26.04.2020
4257 Rain 10 1018 100 10000 2.1 270 16:19 26.04.2020
4258 Rain 9 1019 100 10000 2.41 64 15:56 26.04.2020
4259 Rain 9 1019 100 10000 2.41 64 15:37 26.04.2020
4260 Clouds 9 1019 100 10000 1.51 55 15:18 26.04.2020
4261 Fog 8 1019 100 400 1.51 55 14:40 26.04.2020
4262 Fog 8 1019 100 400 1.38 58 14:19 26.04.2020
4263 Fog 8 1019 100 400 1.38 58 14:19 26.04.2020
4264 Clouds 8 1019 100 10000 1.5 160 13:58 26.04.2020
4265 Clouds 8 1019 100 10000 1.5 160 13:39 26.04.2020
4266 Clouds 8 1019 100 10000 1.5 160 13:20 26.04.2020
4267 Clouds 9 1020 100 10000 1 0 12:55 26.04.2020
4268 Clouds 9 1020 100 10000 1 0 12:36 26.04.2020
4269 Clouds 9 1020 100 10000 1 0 12:18 26.04.2020
4270 Clouds 9 1020 100 10000 1.09 58 11:43 26.04.2020
4271 Clouds 9 1020 100 10000 1.09 58 11:23 26.04.2020
4272 Clouds 10 1020 93 10000 0.5 0 10:59 26.04.2020
4273 Clouds 10 1020 93 10000 0.5 0 10:41 26.04.2020
4274 Clouds 10 1020 93 10000 0.5 0 10:41 26.04.2020
4275 Clouds 10 1020 93 10000 0.5 0 10:23 26.04.2020
4276 Clouds 10 1020 100 7000 1.09 58 09:57 26.04.2020
4277 Clouds 10 1020 100 7000 1.09 58 09:37 26.04.2020
4278 Clouds 10 1020 100 7000 1.3 358 09:18 26.04.2020
4279 Mist 10 1020 100 5000 1 0 08:41 26.04.2020
4280 Mist 10 1020 100 5000 1 0 08:41 26.04.2020
4281 Mist 10 1020 100 5000 1 0 08:21 26.04.2020
4282 Drizzle 10 1020 100 6000 1.3 358 07:48 26.04.2020
4283 Drizzle 10 1020 100 6000 1.3 358 07:23 26.04.2020
4284 Clouds 10 1020 100 10000 2.1 340 06:46 26.04.2020
4285 Clouds 10 1020 100 10000 2.1 340 06:20 26.04.2020
4286 Rain 10 1020 100 9000 1.5 0 05:47 26.04.2020
4287 Rain 10 1020 100 9000 1.5 0 05:28 26.04.2020
4288 Rain 10 1019 100 10000 1 0 04:30 26.04.2020
4289 Clouds 10 1018 100 8000 0.65 11 03:33 26.04.2020
4290 Rain 10 1018 100 10000 0.5 0 02:33 26.04.2020
4291 Rain 11 1018 93 10000 1.5 340 01:54 26.04.2020
4292 Rain 11 1018 93 10000 1.5 340 01:35 26.04.2020
4293 Rain 11 1018 64 0 0.49 331 00:41 26.04.2020
4294 Rain 12 1016 58 0 1.53 343 00:20 26.04.2020
4295 Rain 12 1016 58 0 1.53 343 23:40 25.04.2020
4296 Rain 12 1016 58 0 1.53 343 23:21 25.04.2020
4297 Rain 12 1016 58 0 1.53 343 22:59 25.04.2020
4298 Rain 12 1016 58 0 1.53 343 22:41 25.04.2020
4299 Rain 12 1016 58 0 1.53 343 22:19 25.04.2020
4300 Rain 12 1016 58 0 1.53 343 21:57 25.04.2020
4301 Rain 12 1016 58 0 1.53 343 21:37 25.04.2020
4302 Rain 15 1015 46 0 1.56 35 21:18 25.04.2020
4303 Rain 15 1015 46 0 1.56 35 20:42 25.04.2020
4304 Rain 15 1015 46 0 1.56 35 20:22 25.04.2020
4305 Rain 15 1015 46 0 1.56 35 19:58 25.04.2020
4306 Rain 15 1015 46 0 1.56 35 19:38 25.04.2020
4307 Rain 15 1015 46 0 1.56 35 19:19 25.04.2020
4308 Rain 15 1015 46 0 1.56 35 18:43 25.04.2020
4309 Clouds 12 1016 56 0 1.13 77 18:21 25.04.2020
4310 Clouds 12 1016 56 0 1.13 77 17:58 25.04.2020
4311 Clouds 12 1016 56 0 1.13 77 17:39 25.04.2020
4312 Clouds 12 1016 56 0 1.13 77 17:20 25.04.2020
4313 Clouds 12 1016 56 0 1.13 77 16:58 25.04.2020
4314 Clouds 12 1016 56 0 1.13 77 16:40 25.04.2020
4315 Clouds 12 1016 56 0 1.13 77 16:21 25.04.2020
4316 Clouds 12 1016 56 0 1.13 77 15:42 25.04.2020
4317 Clouds 8 1015 69 0 0.72 16 15:21 25.04.2020
4318 Clouds 8 1015 69 0 0.72 16 14:58 25.04.2020
4319 Clouds 8 1015 69 0 0.72 16 14:58 25.04.2020
4320 Clouds 8 1015 69 0 0.72 16 14:39 25.04.2020
4321 Clouds 8 1016 69 0 0.63 2 14:20 25.04.2020
4322 Clouds 8 1016 69 0 0.63 2 14:20 25.04.2020
4323 Clouds 8 1016 69 0 0.63 2 13:54 25.04.2020
4324 Clouds 8 1016 69 0 0.63 2 13:36 25.04.2020
4325 Clouds 8 1016 69 0 0.63 2 13:18 25.04.2020
4326 Clouds 8 1016 69 0 0.63 2 12:42 25.04.2020
4327 Clouds 9 1014 67 0 0.4 18 12:21 25.04.2020
4328 Clouds 9 1014 67 0 0.4 18 11:59 25.04.2020
4329 Clouds 9 1014 67 0 0.4 18 11:41 25.04.2020
4330 Clouds 9 1014 67 0 0.4 18 11:23 25.04.2020
4331 Clouds 9 1014 67 0 0.4 18 10:45 25.04.2020
4332 Clouds 9 1014 67 0 0.4 18 10:26 25.04.2020
4333 Clouds 9 1014 67 0 0.4 18 09:57 25.04.2020
4334 Clouds 9 1014 67 0 0.4 18 09:39 25.04.2020
4335 Clouds 8 1012 68 0 1.16 333 09:21 25.04.2020
4336 Clouds 8 1012 68 0 1.16 333 08:41 25.04.2020
4337 Clouds 9 1012 68 0 0.87 329 08:22 25.04.2020
4338 Clouds 9 1012 68 0 0.87 329 07:59 25.04.2020
4339 Clouds 8 1012 68 0 1.16 333 07:40 25.04.2020
4340 Clouds 9 1012 68 0 0.87 329 06:56 25.04.2020
4341 Clouds 8 1012 68 0 1.16 333 06:36 25.04.2020
4342 Rain 10 1011 66 0 0.54 307 05:42 25.04.2020
4343 Rain 10 1011 66 0 0.54 307 05:23 25.04.2020
4344 Rain 11 1010 93 10000 0.5 0 03:19 25.04.2020
4345 Rain 11 1010 93 10000 0.5 0 02:25 25.04.2020
4346 Rain 11 1010 93 10000 1 0 01:54 25.04.2020
4347 Rain 11 1010 93 10000 1 0 01:35 25.04.2020
4348 Rain 12 1009 93 10000 1.5 290 00:58 25.04.2020
4349 Rain 12 1009 93 10000 1.5 290 00:34 25.04.2020
4350 Rain 13 1008 87 10000 1 0 23:55 24.04.2020
4351 Rain 13 1008 87 10000 1 0 23:55 24.04.2020
4352 Rain 13 1008 87 10000 1 0 23:36 24.04.2020
4353 Rain 13 1008 87 10000 1 0 23:18 24.04.2020
4354 Clouds 14 1008 76 10000 2.1 270 22:40 24.04.2020
4355 Clouds 14 1008 76 10000 2.1 270 22:20 24.04.2020
4356 Clouds 14 1007 76 10000 2.1 300 21:57 24.04.2020
4357 Clouds 14 1007 76 10000 2.1 300 21:38 24.04.2020
4358 Clouds 14 1007 76 10000 2.1 300 21:20 24.04.2020
4359 Clouds 13 1008 82 10000 1.5 320 20:56 24.04.2020
4360 Clouds 13 1008 82 10000 1.5 320 20:38 24.04.2020
4361 Clouds 13 1008 82 10000 1.5 320 20:18 24.04.2020
4362 Clouds 12 1008 81 10000 2.6 310 19:40 24.04.2020
4363 Clouds 12 1008 81 10000 2.6 310 19:21 24.04.2020
4364 Rain 12 1008 56 0 1.53 301 18:45 24.04.2020
4365 Drizzle 10 1008 93 9000 1 0 18:27 24.04.2020
4366 Drizzle 10 1008 93 9000 1 0 17:58 24.04.2020
4367 Drizzle 10 1008 93 9000 1 0 17:58 24.04.2020
4368 Drizzle 10 1008 93 9000 1 0 17:38 24.04.2020
4369 Drizzle 10 1008 93 9000 1 0 17:19 24.04.2020
4370 Fog 9 1008 100 900 1.5 130 16:58 24.04.2020
4371 Fog 9 1008 100 900 1.5 130 16:40 24.04.2020
4372 Fog 9 1008 100 900 1.5 130 16:21 24.04.2020
4373 Drizzle 8 1007 100 900 0.5 0 15:42 24.04.2020
4374 Drizzle 8 1007 100 900 0.5 0 15:21 24.04.2020
4375 Rain 8 1007 100 9000 1.35 311 14:57 24.04.2020
4376 Rain 8 1007 100 9000 1.35 311 14:38 24.04.2020
4377 Rain 8 1007 100 9000 1.35 311 14:19 24.04.2020
4378 Mist 8 1006 100 3800 1 0 13:41 24.04.2020
4379 Rain 8 1006 100 3800 1 0 13:21 24.04.2020
4380 Rain 8 1006 100 10000 1.24 315 12:58 24.04.2020
4381 Rain 8 1006 100 10000 1.24 315 12:40 24.04.2020
4382 Rain 8 1006 100 10000 0.84 291 12:19 24.04.2020
4383 Rain 8 1006 100 9000 0.5 0 11:43 24.04.2020
4384 Rain 8 1006 100 9000 0.5 0 11:23 24.04.2020
4385 Rain 8 1006 100 9000 0.5 0 10:59 24.04.2020
4386 Rain 8 1006 100 9000 0.5 0 10:38 24.04.2020
4387 Rain 8 1006 100 9000 0.5 0 10:20 24.04.2020
4388 Rain 8 1006 100 10000 0.84 291 09:55 24.04.2020
4389 Rain 8 1006 100 10000 0.84 291 09:36 24.04.2020
4390 Rain 8 1006 100 10000 1.43 294 09:18 24.04.2020
4391 Rain 8 1006 100 10000 1 0 08:42 24.04.2020
4392 Rain 8 1006 100 10000 1 0 08:19 24.04.2020
4393 Rain 8 1006 100 10000 0.5 280 07:47 24.04.2020
4394 Rain 8 1006 100 10000 0.5 280 07:27 24.04.2020
4395 Rain 8 1006 100 10000 1.43 294 06:59 24.04.2020
4396 Rain 8 1006 100 10000 1.43 294 06:41 24.04.2020
4397 Clouds 8 1006 100 10000 0.5 0 05:50 24.04.2020
4398 Clouds 9 1007 100 8000 1 0 04:48 24.04.2020
4399 Rain 9 1006 100 10000 1.5 290 03:28 24.04.2020
4400 Rain 10 1006 93 10000 2.6 270 02:47 24.04.2020
4401 Rain 10 1006 93 10000 2.6 270 02:20 24.04.2020
4402 Rain 10 1006 100 10000 2.1 270 01:37 24.04.2020
4403 Rain 11 1006 93 10000 1 0 00:43 24.04.2020
4404 Rain 11 1006 93 10000 1 0 00:18 24.04.2020
4405 Rain 12 1006 87 10000 1 0 23:45 23.04.2020
4406 Rain 12 1006 87 10000 1 0 23:26 23.04.2020
4407 Clouds 12 1006 87 10000 1.5 280 22:55 23.04.2020
4408 Clouds 12 1006 87 10000 1.5 280 22:37 23.04.2020
4409 Clouds 12 1006 87 10000 1.5 280 22:19 23.04.2020
4410 Rain 13 1006 51 0 2.49 297 21:56 23.04.2020
4411 Rain 13 1006 51 0 2.49 297 21:56 23.04.2020
4412 Clouds 11 1007 87 10000 1 0 21:38 23.04.2020
4413 Clouds 11 1007 87 10000 1 0 21:20 23.04.2020
4414 Clouds 11 1007 87 10000 1 0 20:54 23.04.2020
4415 Clouds 11 1007 87 10000 1 0 20:36 23.04.2020
4416 Clouds 11 1007 87 10000 1 0 20:18 23.04.2020
4417 Clouds 10 1008 93 10000 2.1 290 19:41 23.04.2020
4418 Clouds 10 1008 93 10000 2.1 290 19:22 23.04.2020
4419 Fog 9 1008 87 10000 2.1 290 18:57 23.04.2020
4420 Fog 9 1008 87 10000 2.1 290 18:39 23.04.2020
4421 Fog 9 1008 87 10000 2.1 290 18:21 23.04.2020
4422 Rain 7 1009 93 6000 1.5 300 17:56 23.04.2020
4423 Rain 7 1009 93 6000 1.5 300 17:37 23.04.2020
4424 Fog 7 1009 93 6000 1.5 300 17:19 23.04.2020
4425 Fog 6 1009 100 10000 1 0 16:43 23.04.2020
4426 Fog 6 1009 100 10000 1 0 16:21 23.04.2020
4427 Fog 7 1009 93 10000 1 325 15:43 23.04.2020
4428 Fog 7 1009 93 10000 1.62 319 15:24 23.04.2020
4429 Rain 6 1009 100 10000 1.62 319 14:59 23.04.2020
4430 Rain 6 1009 100 10000 1.28 315 14:39 23.04.2020
4431 Rain 6 1009 100 10000 1.28 315 14:21 23.04.2020
4432 Rain 6 1009 93 10000 0.5 0 13:57 23.04.2020
4433 Rain 6 1009 93 10000 0.5 0 13:38 23.04.2020
4434 Rain 6 1009 93 10000 0.5 0 13:19 23.04.2020
4435 Rain 5 1010 100 10000 3.1 0 12:55 23.04.2020
4436 Rain 5 1010 100 10000 3.1 0 12:37 23.04.2020
4437 Rain 5 1010 100 10000 3.1 0 12:37 23.04.2020
4438 Clouds 5 1010 100 10000 3.1 0 12:18 23.04.2020
4439 Rain 5 1009 93 10000 2.6 0 11:43 23.04.2020
4440 Rain 5 1009 93 10000 2.6 0 11:25 23.04.2020
4441 Clouds 3 1009 100 10000 2.25 298 10:56 23.04.2020
4442 Clouds 3 1009 100 10000 2.25 298 10:56 23.04.2020
4443 Clouds 3 1009 100 10000 2.25 298 10:38 23.04.2020
4444 Clouds 3 1009 100 10000 2.25 298 10:19 23.04.2020
4445 Clouds 4 1011 100 10000 1.5 290 09:37 23.04.2020
4446 Clouds 4 1011 100 10000 1.5 290 09:18 23.04.2020
4447 Clouds 4 1011 100 10000 1.5 0 08:46 23.04.2020
4448 Clouds 4 1011 100 10000 1.5 0 08:27 23.04.2020
4449 Clouds 4 1011 100 10000 1 130 07:43 23.04.2020
4450 Clouds 4 1011 100 10000 1 130 07:24 23.04.2020
4451 Clouds 4 1012 100 10000 1 0 06:49 23.04.2020
4452 Clouds 4 1012 100 10000 1 0 06:27 23.04.2020
4453 Fog 4 1013 100 650 1 0 05:31 23.04.2020
4454 Clouds 4 1013 93 10000 0.78 335 04:53 23.04.2020
4455 Clouds 5 1013 100 10000 1 310 02:25 23.04.2020
4456 Clouds 6 1013 93 10000 0.1 68 01:51 23.04.2020
4457 Clouds 6 1013 93 10000 0.1 68 01:33 23.04.2020
4458 Clouds 8 1013 81 10000 1.5 310 00:47 23.04.2020
4459 Clouds 8 1013 81 10000 1.5 310 00:22 23.04.2020
4460 Haze 10 1013 76 10000 1 0 23:49 22.04.2020
4461 Haze 10 1013 76 10000 1 0 23:23 22.04.2020
4462 Clouds 12 1013 66 10000 0.5 0 22:56 22.04.2020
4463 Clouds 12 1013 66 10000 0.5 0 22:37 22.04.2020
4464 Clouds 12 1013 66 10000 0.5 0 22:19 22.04.2020
4465 Clouds 12 1014 62 10000 0.4 130 21:56 22.04.2020
4466 Clouds 12 1014 62 10000 0.4 130 21:37 22.04.2020
4467 Clouds 12 1014 62 10000 0.6 147 21:19 22.04.2020
4468 Clouds 10 1015 71 10000 2.1 130 20:43 22.04.2020
4469 Clouds 10 1015 71 10000 2.1 130 20:19 22.04.2020
4470 Clouds 8 1016 81 10000 2.6 110 19:58 22.04.2020
4471 Clouds 8 1016 81 10000 2.6 110 19:38 22.04.2020
4472 Clouds 8 1016 81 10000 2.6 110 19:19 22.04.2020
4473 Clouds 5 1017 100 10000 2.6 110 18:58 22.04.2020
4474 Clouds 5 1017 100 10000 2.6 110 18:40 22.04.2020
4475 Clouds 5 1017 100 10000 2.6 110 18:22 22.04.2020
4476 Fog 4 1018 100 10000 3.1 120 17:55 22.04.2020
4477 Fog 4 1018 100 10000 3.1 120 17:37 22.04.2020
4478 Fog 4 1018 100 10000 3.1 120 17:18 22.04.2020
4479 Mist 3 1018 100 3000 1 0 16:41 22.04.2020
4480 Mist 3 1018 100 3000 1 0 16:22 22.04.2020
4481 Mist 2 1019 100 3000 0.53 184 15:43 22.04.2020
4482 Mist 2 1019 100 3000 1.23 287 15:24 22.04.2020
4483 Mist 1 1018 100 1100 1.23 287 14:58 22.04.2020
4484 Mist 1 1018 100 1100 1.23 287 14:38 22.04.2020
4485 Mist 1 1018 100 1100 1.21 282 14:20 22.04.2020
4486 Mist 1 1018 100 1000 2.1 120 13:55 22.04.2020
4487 Mist 1 1018 100 1000 2.1 120 13:37 22.04.2020
4488 Mist 1 1018 100 1000 2.1 120 13:19 22.04.2020
4489 Fog 1 1018 100 550 1 0 12:39 22.04.2020
4490 Fog 1 1018 100 550 1 0 12:21 22.04.2020
4491 Fog 1 1018 100 650 1.46 284 11:40 22.04.2020
4492 Fog 1 1018 100 650 1.46 284 11:22 22.04.2020
4493 Fog 1 1019 100 400 1.46 284 10:59 22.04.2020
4494 Fog 1 1019 100 400 1.46 284 10:39 22.04.2020
4495 Fog 1 1019 100 400 1.46 284 10:19 22.04.2020
4496 Fog 1 1019 100 400 1.38 282 09:39 22.04.2020
4497 Fog 1 1019 100 400 1.33 298 09:21 22.04.2020
4498 Fog 1 1019 100 250 1.33 298 08:56 22.04.2020
4499 Fog 1 1019 100 250 1.33 298 08:56 22.04.2020
4500 Fog 1 1019 100 250 1.33 298 08:38 22.04.2020
4501 Fog 1 1019 100 250 1.33 298 08:38 22.04.2020
4502 Fog 1 1019 100 250 1.33 298 08:19 22.04.2020
4503 Fog 1 1020 100 250 1.33 298 07:52 22.04.2020
4504 Fog 1 1020 100 250 1.33 298 07:24 22.04.2020
4505 Fog 1 1020 100 700 1 290 06:53 22.04.2020
4506 Fog 2 1020 100 650 1.09 292 05:48 22.04.2020
4507 Fog 2 1020 100 650 1.09 292 05:27 22.04.2020
4508 Clouds 2 1020 100 10000 0.5 290 04:20 22.04.2020
4509 Clouds 4 1020 93 10000 1 320 02:40 22.04.2020
4510 Clouds 6 1020 87 10000 1.5 320 01:44 22.04.2020
4511 Clouds 6 1020 87 10000 1.5 320 01:24 22.04.2020
4512 Clouds 7 1019 87 10000 1.5 340 00:47 22.04.2020
4513 Clouds 7 1019 87 10000 1.5 340 00:22 22.04.2020
4514 Haze 10 1019 66 10000 2.1 340 23:56 21.04.2020
4515 Haze 10 1019 66 10000 2.1 340 23:37 21.04.2020
4516 Haze 10 1019 66 10000 2.1 340 23:18 21.04.2020
4517 Haze 12 1019 58 10000 1.5 360 22:40 21.04.2020
4518 Haze 12 1019 58 10000 1.5 360 22:21 21.04.2020
4519 Clouds 11 1020 57 10000 1.5 0 21:58 21.04.2020
4520 Clouds 11 1020 57 10000 1.5 0 21:58 21.04.2020
4521 Clouds 11 1020 57 10000 1.5 0 21:40 21.04.2020
4522 Clear 11 1020 57 10000 1.5 0 21:22 21.04.2020
4523 Clear 9 1021 66 10000 1.5 0 20:41 21.04.2020
4524 Clear 9 1021 66 10000 1.5 0 20:23 21.04.2020
4525 Clear 12 1018 34 0 0.99 106 19:59 21.04.2020
4526 Fog 5 1023 86 10000 2.6 110 19:39 21.04.2020
4527 Fog 5 1023 86 10000 2.6 110 19:19 21.04.2020
4528 Fog 5 1023 86 10000 2.6 110 18:56 21.04.2020
4529 Fog 5 1023 86 10000 2.6 110 18:38 21.04.2020
4530 Fog 5 1023 86 10000 2.6 110 18:18 21.04.2020
4531 Fog 5 1023 86 10000 2.6 110 18:18 21.04.2020
4532 Clear 8 1021 43 0 0.8 95 17:40 21.04.2020
4533 Fog 2 1024 100 7000 0.8 95 17:20 21.04.2020
4534 Fog 2 1024 100 7000 0.8 95 16:58 21.04.2020
4535 Fog 2 1024 100 7000 0.78 90 16:37 21.04.2020
4536 Fog 2 1024 100 7000 0.8 95 16:18 21.04.2020
4537 Fog 2 1024 100 700 2.1 0 15:55 21.04.2020
4538 Fog 2 1024 100 700 2.1 0 15:55 21.04.2020
4539 Fog 2 1024 100 700 2.1 0 15:37 21.04.2020
4540 Fog 2 1024 100 700 2.1 0 15:37 21.04.2020
4541 Fog 2 1024 100 700 2.1 0 15:19 21.04.2020
4542 Mist 1 1024 100 1000 0.5 0 14:45 21.04.2020
4543 Mist 1 1024 100 1000 0.5 0 14:24 21.04.2020
4544 Mist 2 1024 100 3000 1 0 13:56 21.04.2020
4545 Mist 2 1024 100 3000 1 0 13:56 21.04.2020
4546 Mist 2 1024 100 3000 1 0 13:37 21.04.2020
4547 Mist 2 1024 100 3000 1 0 13:18 21.04.2020
4548 Mist 2 1024 100 3000 1 0 13:18 21.04.2020
4549 Mist 2 1024 100 2100 1 0 12:38 21.04.2020
4550 Mist 2 1024 100 2100 1 0 12:19 21.04.2020
4551 Mist 1 1024 100 2100 0.5 0 11:57 21.04.2020
4552 Mist 1 1024 100 2100 0.5 0 11:38 21.04.2020
4553 Mist 1 1024 100 2100 0.5 0 11:38 21.04.2020
4554 Mist 1 1024 100 2100 0.5 0 11:19 21.04.2020
4555 Fog 0 1024 64 600 1.5 290 10:59 21.04.2020
4556 Fog 0 1024 64 600 1.5 290 10:39 21.04.2020
4557 Fog 0 1024 64 600 1.5 290 10:21 21.04.2020
4558 Mist 1 1024 100 1400 1.5 300 09:55 21.04.2020
4559 Mist 1 1024 100 1400 1.5 300 09:36 21.04.2020
4560 Mist 1 1024 100 1400 1.5 300 09:36 21.04.2020
4561 Mist 1 1024 100 1400 1.5 300 09:36 21.04.2020
4562 Mist 1 1024 100 1400 1.5 300 09:18 21.04.2020
4563 Clouds 2 1025 100 10000 1.5 280 08:42 21.04.2020
4564 Clouds 2 1025 100 10000 1.5 280 08:23 21.04.2020
4565 Mist 2 1025 100 2200 2.1 0 07:50 21.04.2020
4566 Mist 2 1025 100 2200 2.1 0 07:26 21.04.2020
4567 Clouds 3 1025 93 10000 3.6 290 06:50 21.04.2020
4568 Clouds 3 1025 93 10000 3.6 290 06:24 21.04.2020
4569 Clouds 3 1025 93 10000 1 0 05:49 21.04.2020
4570 Clouds 3 1025 100 10000 1.5 300 04:54 21.04.2020
4571 Clouds 4 1025 93 10000 2.1 310 03:45 21.04.2020
4572 Clouds 6 1024 87 10000 2.6 280 01:53 21.04.2020
4573 Clouds 6 1024 87 10000 2.6 280 01:29 21.04.2020
4574 Clouds 8 1023 75 10000 1.5 320 00:38 21.04.2020
4575 Clouds 12 1023 50 10000 3.1 0 23:48 20.04.2020
4576 Clouds 12 1023 50 10000 3.1 0 23:26 20.04.2020
4577 Clouds 12 1022 46 10000 2.6 350 22:59 20.04.2020
4578 Clouds 12 1022 46 10000 2.6 350 22:41 20.04.2020
4579 Clouds 12 1022 46 10000 2.6 350 22:21 20.04.2020
4580 Clouds 12 1022 46 10000 2.6 350 22:21 20.04.2020
4581 Clouds 12 1023 50 10000 4.1 310 21:58 20.04.2020
4582 Clouds 12 1023 50 10000 4.1 310 21:39 20.04.2020
4583 Clouds 12 1023 50 10000 4.1 310 21:20 20.04.2020
4584 Clouds 12 1023 54 10000 2.6 40 20:59 20.04.2020
4585 Clouds 12 1023 54 10000 2.6 40 20:40 20.04.2020
4586 Clouds 12 1023 54 10000 2.6 40 20:19 20.04.2020
4587 Clouds 12 1023 54 10000 2.6 40 20:19 20.04.2020
4588 Clouds 12 1024 50 10000 3.1 300 19:58 20.04.2020
4589 Clouds 12 1024 50 10000 3.1 300 19:39 20.04.2020
4590 Clouds 12 1024 50 10000 3.1 300 19:19 20.04.2020
4591 Clouds 11 1024 57 10000 2.1 0 18:43 20.04.2020
4592 Clouds 11 1024 57 10000 2.1 0 18:24 20.04.2020
4593 Clouds 9 1024 70 10000 3.1 320 17:58 20.04.2020
4594 Clouds 9 1024 70 10000 3.1 320 17:40 20.04.2020
4595 Clouds 9 1024 70 10000 3.1 320 17:21 20.04.2020
4596 Clouds 7 1024 87 10000 1.5 290 16:59 20.04.2020
4597 Clouds 7 1024 87 10000 1.5 290 16:59 20.04.2020
4598 Clouds 7 1024 87 10000 1.5 290 16:39 20.04.2020
4599 Clouds 7 1024 87 10000 1.5 290 16:19 20.04.2020
4600 Clouds 4 1023 93 10000 1.5 0 15:45 20.04.2020
4601 Clouds 4 1023 93 10000 1.5 0 15:24 20.04.2020
4602 Clouds 4 1023 93 10000 2.1 300 14:58 20.04.2020
4603 Clouds 4 1023 93 10000 2.1 300 14:40 20.04.2020
4604 Clouds 4 1023 93 10000 2.1 300 14:19 20.04.2020
4605 Clouds 4 1022 93 10000 3.1 300 13:54 20.04.2020
4606 Clouds 4 1022 93 10000 3.1 300 13:54 20.04.2020
4607 Clouds 4 1022 93 10000 3.1 300 13:54 20.04.2020
4608 Clouds 4 1022 93 10000 3.1 300 13:36 20.04.2020
4609 Clouds 4 1022 93 10000 3.1 300 13:18 20.04.2020
4610 Clouds 4 1021 93 10000 1 0 12:42 20.04.2020
4611 Clouds 4 1021 93 10000 1 0 12:21 20.04.2020
4612 Clouds 5 1021 93 10000 2.1 310 11:42 20.04.2020
4613 Clouds 5 1021 93 10000 2.1 310 11:22 20.04.2020
4614 Clouds 6 1020 87 10000 1.5 300 10:57 20.04.2020
4615 Clouds 6 1020 87 10000 1.5 300 10:39 20.04.2020
4616 Clouds 6 1020 87 10000 1.5 300 10:19 20.04.2020
4617 Clouds 7 1020 75 10000 2.1 0 09:56 20.04.2020
4618 Clouds 7 1020 75 10000 2.1 0 09:37 20.04.2020
4619 Clouds 7 1020 75 10000 2.1 0 09:37 20.04.2020
4620 Rain 7 1020 75 10000 2.1 0 09:19 20.04.2020
4621 Rain 6 1019 87 10000 1.5 300 08:41 20.04.2020
4622 Rain 6 1019 87 10000 1.5 300 08:22 20.04.2020
4623 Rain 8 1020 75 10000 4.1 0 07:52 20.04.2020
4624 Rain 8 1020 75 10000 4.1 0 07:29 20.04.2020
4625 Rain 7 1020 81 10000 2.1 0 06:58 20.04.2020
4626 Rain 7 1020 81 10000 2.1 0 06:36 20.04.2020
4627 Rain 7 1019 93 10000 1.5 300 05:43 20.04.2020
4628 Rain 7 1019 93 10000 2.1 300 04:18 20.04.2020
4629 Rain 8 1018 87 10000 5.1 310 02:46 20.04.2020
4630 Rain 8 1018 87 10000 5.1 310 02:46 20.04.2020
4631 Rain 8 1017 87 10000 2.1 0 01:52 20.04.2020
4632 Rain 8 1017 87 10000 2.1 0 01:28 20.04.2020
4633 Rain 7 1016 93 10000 1 0 00:36 20.04.2020
4634 Rain 8 1016 87 7000 3.6 310 23:59 19.04.2020
4635 Rain 8 1016 87 7000 3.6 310 23:38 19.04.2020
4636 Rain 8 1016 87 7000 3.6 310 23:19 19.04.2020
4637 Rain 8 1015 93 10000 3.1 0 22:40 19.04.2020
4638 Rain 8 1015 93 10000 3.1 0 22:22 19.04.2020
4639 Rain 9 1015 81 10000 3.1 310 21:58 19.04.2020
4640 Rain 9 1015 81 10000 3.1 310 21:39 19.04.2020
4641 Rain 9 1015 81 10000 3.1 310 21:39 19.04.2020
4642 Rain 9 1015 81 10000 3.1 310 21:20 19.04.2020
4643 Rain 9 1015 81 10000 2.1 330 20:55 19.04.2020
4644 Rain 9 1015 81 10000 2.1 330 20:36 19.04.2020
4645 Rain 9 1015 81 10000 2.1 330 20:18 19.04.2020
4646 Rain 9 1016 81 10000 2.6 320 19:41 19.04.2020
4647 Rain 9 1016 81 10000 2.6 320 19:22 19.04.2020
4648 Rain 8 1016 87 10000 3.1 290 18:58 19.04.2020
4649 Rain 8 1016 87 10000 3.1 290 18:39 19.04.2020
4650 Rain 8 1016 87 10000 3.1 290 18:20 19.04.2020
4651 Rain 7 1017 93 10000 2.6 290 17:57 19.04.2020
4652 Rain 7 1017 93 10000 2.6 290 17:39 19.04.2020
4653 Rain 7 1017 93 10000 2.6 290 17:21 19.04.2020
4654 Rain 7 1017 93 10000 2.6 320 16:58 19.04.2020
4655 Rain 7 1017 93 10000 2.6 320 16:38 19.04.2020
4656 Rain 7 1017 93 10000 2.6 320 16:20 19.04.2020
4657 Rain 7 1016 93 10000 1.5 0 15:43 19.04.2020
4658 Rain 7 1016 93 10000 1.5 0 15:22 19.04.2020
4659 Rain 7 1015 87 10000 2.6 0 14:55 19.04.2020
4660 Rain 7 1015 87 10000 2.6 0 14:37 19.04.2020
4661 Rain 7 1015 87 10000 2.6 0 14:18 19.04.2020
4662 Rain 7 1015 93 10000 1 0 13:39 19.04.2020
4663 Rain 7 1015 93 10000 1 0 13:20 19.04.2020
4664 Rain 7 1015 93 10000 1 0 12:50 19.04.2020
4665 Rain 7 1015 93 10000 1 0 12:25 19.04.2020
4666 Rain 7 1014 93 10000 2.6 290 11:59 19.04.2020
4667 Rain 7 1014 93 10000 2.6 290 11:37 19.04.2020
4668 Rain 7 1014 93 10000 2.6 290 11:37 19.04.2020
4669 Rain 7 1014 93 10000 2.6 290 11:19 19.04.2020
4670 Rain 7 1013 93 10000 1.5 0 10:55 19.04.2020
4671 Rain 7 1013 93 10000 1.5 0 10:37 19.04.2020
4672 Rain 7 1013 93 10000 1.5 0 10:18 19.04.2020
4673 Rain 8 1013 87 10000 6.2 340 09:45 19.04.2020
4674 Rain 8 1013 87 10000 6.2 340 09:26 19.04.2020
4675 Rain 8 1013 87 10000 2.6 300 08:41 19.04.2020
4676 Rain 8 1013 87 10000 2.6 300 08:22 19.04.2020
4677 Rain 9 1012 87 10000 3.1 280 07:59 19.04.2020
4678 Rain 9 1012 87 10000 3.1 280 07:41 19.04.2020
4679 Rain 9 1012 87 10000 3.1 280 07:21 19.04.2020
4680 Rain 9 1011 87 10000 3.6 300 06:28 19.04.2020
4681 Rain 10 1011 87 10000 3.6 0 05:47 19.04.2020
4682 Rain 10 1010 87 10000 2.6 0 04:28 19.04.2020
4683 Rain 10 1009 93 10000 3.1 0 02:59 19.04.2020
4684 Rain 10 1009 93 10000 3.1 0 02:21 19.04.2020
4685 Rain 10 1009 93 10000 1 0 01:37 19.04.2020
4686 Rain 11 1009 93 10000 1.5 330 00:42 19.04.2020
4687 Rain 11 1009 93 10000 1.5 330 00:22 19.04.2020
4688 Rain 11 1008 93 10000 2.1 340 23:46 18.04.2020
4689 Rain 11 1008 93 10000 2.1 340 23:21 18.04.2020
4690 Rain 11 1008 93 10000 1.5 0 22:58 18.04.2020
4691 Rain 11 1008 93 10000 1.5 0 22:38 18.04.2020
4692 Rain 11 1008 93 10000 1.5 0 22:20 18.04.2020
4693 Rain 11 1009 93 10000 6.86 304 21:56 18.04.2020
4694 Rain 11 1009 93 10000 6.86 304 21:37 18.04.2020
4695 Rain 11 1009 93 10000 6.25 291 21:19 18.04.2020
4696 Rain 12 1009 81 10000 3.1 210 20:40 18.04.2020
4697 Rain 12 1009 81 10000 3.1 210 20:21 18.04.2020
4698 Rain 14 1010 67 10000 4.1 260 19:44 18.04.2020
4699 Rain 14 1010 67 10000 4.1 260 19:25 18.04.2020
4700 Clouds 15 1010 72 10000 2.6 0 18:59 18.04.2020
4701 Clouds 15 1010 72 10000 2.6 0 18:37 18.04.2020
4702 Rain 15 1010 72 10000 2.6 0 18:19 18.04.2020
4703 Rain 13 1011 87 10000 1.5 0 17:41 18.04.2020
4704 Rain 13 1011 87 10000 1.5 0 17:21 18.04.2020
4705 Rain 12 1010 93 10000 2.6 330 16:56 18.04.2020
4706 Rain 12 1010 93 10000 2.6 330 16:37 18.04.2020
4707 Rain 12 1010 93 10000 2.6 330 16:19 18.04.2020
4708 Rain 11 1011 100 10000 1 0 15:38 18.04.2020
4709 Rain 11 1011 100 10000 1 0 15:20 18.04.2020
4710 Rain 11 1011 93 10000 2.6 290 14:45 18.04.2020
4711 Rain 11 1011 93 10000 2.6 290 14:26 18.04.2020
4712 Rain 9 1011 100 10000 2.6 290 13:56 18.04.2020
4713 Rain 9 1011 100 10000 2.6 290 13:38 18.04.2020
4714 Rain 9 1011 100 10000 2.6 290 13:18 18.04.2020
4715 Clouds 9 1012 100 10000 1 0 12:41 18.04.2020
4716 Clear 9 1012 100 10000 1 0 12:22 18.04.2020
4717 Clear 9 1012 100 10000 2.1 310 11:43 18.04.2020
4718 Clear 9 1012 100 10000 2.1 310 11:24 18.04.2020
4719 Clear 10 1012 93 10000 1.5 0 10:58 18.04.2020
4720 Clear 10 1012 93 10000 1.5 0 10:37 18.04.2020
4721 Clear 10 1012 93 10000 1.5 0 10:18 18.04.2020
4722 Clear 11 1012 93 10000 2.1 320 09:42 18.04.2020
4723 Clouds 11 1012 93 10000 2.1 320 09:23 18.04.2020
4724 Clouds 12 1012 87 10000 2.1 320 08:44 18.04.2020
4725 Clouds 12 1012 87 10000 2.1 320 08:26 18.04.2020
4726 Clouds 12 1012 93 10000 2.6 310 07:58 18.04.2020
4727 Clouds 12 1012 93 10000 2.6 310 07:36 18.04.2020
4728 Clouds 13 1012 87 10000 2.1 0 06:55 18.04.2020
4729 Clouds 13 1012 87 10000 2.1 0 06:25 18.04.2020
4730 Clouds 13 1012 93 10000 2.1 0 05:36 18.04.2020
4731 Clouds 14 1011 93 10000 1 0 04:46 18.04.2020
4732 Clouds 14 1011 93 10000 1 0 04:25 18.04.2020
4733 Rain 15 1010 93 10000 2.1 300 02:47 18.04.2020
4734 Rain 15 1010 93 10000 2.1 300 02:22 18.04.2020
4735 Rain 15 1010 100 10000 2.6 320 01:51 18.04.2020
4736 Rain 15 1010 100 10000 2.6 320 01:31 18.04.2020
4737 Rain 15 1009 100 10000 2.1 310 00:40 18.04.2020
4738 Rain 15 1009 100 10000 2.1 310 00:20 18.04.2020
4739 Rain 16 1009 93 8000 2.6 290 23:55 17.04.2020
4740 Rain 16 1009 93 8000 2.6 290 23:36 17.04.2020
4741 Rain 16 1009 93 8000 2.6 290 23:18 17.04.2020
4742 Rain 16 1008 93 8000 2.1 330 22:41 17.04.2020
4743 Rain 16 1008 93 8000 2.1 330 22:21 17.04.2020
4744 Rain 16 1008 93 10000 1 0 21:59 17.04.2020
4745 Rain 16 1008 93 10000 1 0 21:40 17.04.2020
4746 Rain 16 1008 93 10000 1 0 21:20 17.04.2020
4747 Rain 15 1009 100 5000 2.03 328 20:56 17.04.2020
4748 Rain 15 1009 100 5000 2.03 328 20:56 17.04.2020
4749 Rain 15 1009 100 5000 2.03 328 20:37 17.04.2020
4750 Rain 15 1009 100 5000 2.03 328 20:18 17.04.2020
4751 Rain 15 1010 100 3000 1 0 19:55 17.04.2020
4752 Rain 15 1010 100 3000 1 0 19:37 17.04.2020
4753 Rain 15 1010 100 3000 1 0 19:18 17.04.2020
4754 Rain 15 1011 100 3000 0.5 0 18:40 17.04.2020
4755 Rain 15 1011 100 3000 0.5 0 18:20 17.04.2020
4756 Rain 15 1012 93 3000 1.5 0 17:38 17.04.2020
4757 Rain 15 1012 93 3000 1.5 0 17:20 17.04.2020
4758 Rain 15 1012 93 3000 1.5 0 17:20 17.04.2020
4759 Rain 15 1011 100 4000 2.1 280 16:58 17.04.2020
4760 Rain 15 1011 100 4000 2.1 280 16:39 17.04.2020
4761 Rain 15 1011 100 4000 2.1 280 16:21 17.04.2020
4762 Rain 15 1012 93 4000 2.6 300 15:39 17.04.2020
4763 Rain 15 1012 93 4000 2.6 300 15:21 17.04.2020
4764 Rain 14 1012 100 10000 1 0 14:42 17.04.2020
4765 Rain 14 1012 100 10000 1 0 14:24 17.04.2020
4766 Rain 14 1012 100 10000 2.42 328 13:59 17.04.2020
4767 Rain 14 1012 100 10000 2.42 328 13:59 17.04.2020
4768 Rain 14 1012 100 10000 2.42 328 13:39 17.04.2020
4769 Rain 14 1012 100 10000 2.42 328 13:20 17.04.2020
4770 Rain 14 1012 100 9000 1 0 12:48 17.04.2020
4771 Rain 14 1012 100 9000 1 0 12:26 17.04.2020
4772 Rain 14 1012 100 8000 1 0 11:58 17.04.2020
4773 Rain 14 1012 100 8000 1 0 11:38 17.04.2020
4774 Rain 14 1012 100 8000 1 0 11:18 17.04.2020
4775 Rain 14 1012 100 10000 2.29 355 10:40 17.04.2020
4776 Rain 14 1012 100 10000 2.29 355 10:19 17.04.2020
4777 Rain 14 1012 100 10000 1.5 330 09:55 17.04.2020
4778 Rain 14 1012 100 10000 1.5 330 09:36 17.04.2020
4779 Rain 14 1012 100 10000 1.5 330 09:18 17.04.2020
4780 Rain 15 1013 93 10000 2.1 270 08:45 17.04.2020
4781 Rain 15 1013 93 10000 2.1 270 08:25 17.04.2020
4782 Rain 14 1013 100 10000 1.5 320 07:44 17.04.2020
4783 Rain 14 1013 100 10000 1.5 320 07:25 17.04.2020
4784 Rain 14 1013 100 10000 2.91 347 06:57 17.04.2020
4785 Rain 14 1013 100 10000 3.22 345 06:27 17.04.2020
4786 Rain 14 1013 100 7000 3.22 345 05:38 17.04.2020
4787 Rain 15 1012 93 8000 1 330 03:22 17.04.2020
4788 Rain 15 1012 93 8000 1 330 03:22 17.04.2020
4789 Rain 15 1012 93 8000 1 330 03:22 17.04.2020
4790 Rain 15 1012 100 7000 2.2 334 02:37 17.04.2020
4791 Rain 15 1012 100 6000 1 0 01:30 17.04.2020
4792 Rain 15 1011 100 10000 1 0 00:58 17.04.2020
4793 Rain 15 1011 100 10000 1 0 00:20 17.04.2020
4794 Rain 15 1011 100 6000 0.5 0 23:45 16.04.2020
4795 Rain 15 1011 100 6000 0.5 0 23:23 16.04.2020
4796 Rain 15 1011 100 4000 0.5 0 22:58 16.04.2020
4797 Rain 15 1011 100 4000 0.5 0 22:38 16.04.2020
4798 Rain 15 1011 100 4000 0.5 0 22:20 16.04.2020
4799 Rain 15 1011 100 7000 1 0 21:43 16.04.2020
4800 Rain 15 1011 100 7000 1 0 21:21 16.04.2020
4801 Rain 15 1011 93 8000 0.5 0 21:00 16.04.2020
4802 Rain 15 1011 93 8000 0.5 0 20:40 16.04.2020
4803 Rain 15 1011 93 8000 0.5 0 20:21 16.04.2020
4804 Rain 15 1011 93 7000 1 0 19:55 16.04.2020
4805 Rain 15 1011 93 7000 1 0 19:37 16.04.2020
4806 Rain 15 1011 93 7000 1 0 19:18 16.04.2020
4807 Rain 14 1012 93 8000 1 0 18:43 16.04.2020
4808 Rain 14 1012 93 8000 1 0 18:25 16.04.2020
4809 Rain 14 1012 64 0 2.66 7 17:57 16.04.2020
4810 Fog 13 1012 100 9000 1 0 17:39 16.04.2020
4811 Fog 13 1012 100 9000 1 0 17:20 16.04.2020
4812 Fog 13 1012 100 9000 1 0 16:43 16.04.2020
4813 Fog 13 1012 100 9000 1 0 16:25 16.04.2020
4814 Rain 13 1012 93 3000 2.6 130 15:46 16.04.2020
4815 Rain 13 1012 93 3000 2.6 130 15:46 16.04.2020
4816 Rain 13 1012 93 3000 2.6 130 15:20 16.04.2020
4817 Rain 13 1012 93 3000 2.6 130 15:20 16.04.2020
4818 Rain 12 1012 100 10000 1.98 337 14:59 16.04.2020
4819 Rain 12 1012 100 10000 1.98 337 14:40 16.04.2020
4820 Rain 12 1012 100 10000 2.13 335 14:22 16.04.2020
4821 Rain 12 1013 100 1000 1 100 13:58 16.04.2020
4822 Rain 12 1013 100 1000 1 100 13:58 16.04.2020
4823 Rain 12 1013 100 1000 1 100 13:40 16.04.2020
4824 Rain 12 1013 100 1000 1 100 13:21 16.04.2020
4825 Rain 12 1012 100 10000 2.13 335 12:57 16.04.2020
4826 Rain 12 1012 100 10000 2.13 335 12:38 16.04.2020
4827 Rain 12 1012 100 10000 1.97 305 12:19 16.04.2020
4828 Rain 12 1013 100 10000 0.5 0 11:56 16.04.2020
4829 Rain 12 1013 100 10000 0.5 0 11:37 16.04.2020
4830 Rain 12 1013 100 10000 0.5 0 11:18 16.04.2020
4831 Rain 12 1013 100 10000 0.5 0 11:18 16.04.2020
4832 Rain 12 1012 93 1500 1.97 305 10:40 16.04.2020
4833 Rain 12 1012 93 1500 1.97 305 10:19 16.04.2020
4834 Rain 12 1012 93 1500 1.97 305 10:19 16.04.2020
4835 Rain 12 1012 100 10000 0.5 0 09:59 16.04.2020
4836 Rain 12 1012 100 10000 0.5 0 09:38 16.04.2020
4837 Rain 12 1012 100 10000 0.5 0 09:38 16.04.2020
4838 Rain 12 1012 100 10000 0.5 0 09:38 16.04.2020
4839 Rain 12 1012 100 10000 0.5 0 09:20 16.04.2020
4840 Rain 12 1013 100 9000 1.89 335 08:45 16.04.2020
4841 Rain 12 1013 100 9000 0.96 341 08:25 16.04.2020
4842 Rain 12 1013 100 8000 1.89 335 07:46 16.04.2020
4843 Rain 12 1013 100 8000 1.89 335 07:28 16.04.2020
4844 Rain 12 1013 100 6000 1 0 06:58 16.04.2020
4845 Rain 12 1013 100 6000 1 0 06:39 16.04.2020
4846 Rain 12 1013 100 6000 1 0 06:21 16.04.2020
4847 Rain 12 1012 100 5000 1 0 04:48 16.04.2020
4848 Rain 13 1012 93 8000 1.5 280 03:25 16.04.2020
4849 Rain 12 1012 100 7000 2.4 331 02:57 16.04.2020
4850 Rain 12 1012 100 7000 1.95 330 02:33 16.04.2020
4851 Rain 13 1011 93 7000 0.5 0 01:22 16.04.2020
4852 Rain 13 1011 93 10000 1 0 00:49 16.04.2020
4853 Rain 13 1011 93 10000 1 0 00:18 16.04.2020
4854 Rain 13 1011 93 6000 1 0 23:43 15.04.2020
4855 Rain 13 1011 93 6000 1 0 23:24 15.04.2020
4856 Clouds 13 1011 87 10000 2.1 290 22:58 15.04.2020
4857 Clouds 13 1011 87 10000 2.1 290 22:37 15.04.2020
4858 Clouds 13 1011 87 10000 2.1 290 22:19 15.04.2020
4859 Clouds 13 1011 93 10000 1 0 21:42 15.04.2020
4860 Clouds 13 1011 93 10000 1 0 21:23 15.04.2020
4861 Clouds 13 1012 87 10000 1.5 0 20:59 15.04.2020
4862 Clouds 13 1012 87 10000 1.5 0 20:41 15.04.2020
4863 Clouds 13 1012 87 10000 1.5 0 20:22 15.04.2020
4864 Rain 12 1012 93 9000 2.1 100 19:59 15.04.2020
4865 Rain 12 1012 93 9000 2.1 100 19:39 15.04.2020
4866 Rain 12 1012 93 9000 2.1 100 19:18 15.04.2020
4867 Rain 11 1013 93 8000 1.5 120 18:40 15.04.2020
4868 Rain 11 1013 93 8000 1.5 120 18:22 15.04.2020
4869 Rain 10 1013 100 8000 2.6 130 17:56 15.04.2020
4870 Rain 10 1013 100 8000 2.6 130 17:38 15.04.2020
4871 Rain 10 1013 100 8000 2.6 130 17:20 15.04.2020
4872 Rain 10 1013 93 8000 1.5 0 16:55 15.04.2020
4873 Rain 10 1013 93 8000 1.5 0 16:36 15.04.2020
4874 Rain 10 1013 93 8000 1.5 0 16:18 15.04.2020
4875 Rain 9 1012 100 8000 2.6 120 15:55 15.04.2020
4876 Rain 9 1012 100 8000 2.6 120 15:37 15.04.2020
4877 Rain 9 1012 100 8000 2.6 120 15:18 15.04.2020
4878 Rain 9 1012 100 4200 1.5 130 14:42 15.04.2020
4879 Rain 9 1012 100 4200 1.5 130 14:23 15.04.2020
4880 Rain 9 1012 100 10000 3.1 140 14:00 15.04.2020
4881 Rain 9 1012 100 10000 3.1 140 13:40 15.04.2020
4882 Rain 9 1012 100 10000 3.1 140 13:21 15.04.2020
4883 Rain 9 1012 100 10000 2.1 130 12:58 15.04.2020
4884 Rain 9 1012 100 10000 2.1 130 12:39 15.04.2020
4885 Rain 9 1012 100 10000 2.1 130 12:21 15.04.2020
4886 Rain 9 1012 100 10000 1.2 296 11:57 15.04.2020
4887 Rain 9 1012 100 10000 1.2 296 11:38 15.04.2020
4888 Rain 9 1012 100 10000 1.2 296 11:20 15.04.2020
4889 Rain 9 1012 100 10000 1.2 296 10:38 15.04.2020
4890 Rain 9 1012 100 10000 1.2 296 10:19 15.04.2020
4891 Rain 9 1012 100 10000 1.2 296 09:56 15.04.2020
4892 Rain 9 1012 100 10000 1.2 296 09:38 15.04.2020
4893 Rain 9 1012 100 10000 1.06 317 09:19 15.04.2020
4894 Rain 9 1013 100 10000 1.06 317 08:42 15.04.2020
4895 Rain 9 1013 100 10000 1.06 317 08:23 15.04.2020
4896 Rain 9 1013 100 10000 1.06 317 07:58 15.04.2020
4897 Rain 9 1013 100 10000 1.06 317 07:38 15.04.2020
4898 Rain 9 1013 100 10000 1.06 317 06:59 15.04.2020
4899 Rain 9 1013 100 10000 1.36 286 06:24 15.04.2020
4900 Rain 10 1013 87 10000 1.5 310 05:22 15.04.2020
4901 Rain 10 1013 87 10000 1 280 04:46 15.04.2020
4902 Rain 10 1013 87 10000 1.36 286 03:55 15.04.2020
4903 Rain 10 1013 87 10000 1.49 256 03:20 15.04.2020
4904 Rain 10 1014 87 10000 0.5 0 02:39 15.04.2020
4905 Rain 10 1014 87 10000 0.5 0 01:50 15.04.2020
4906 Rain 10 1014 87 10000 0.5 0 01:22 15.04.2020
4907 Rain 11 1014 81 10000 0.5 0 00:39 15.04.2020
4908 Rain 11 1014 81 10000 0.5 0 00:20 15.04.2020
4909 Clouds 13 1014 71 10000 1 340 23:55 14.04.2020
4910 Clouds 13 1014 71 10000 1 340 23:36 14.04.2020
4911 Clouds 13 1014 71 10000 1 340 23:18 14.04.2020
4912 Clouds 14 1014 58 10000 1.5 320 22:55 14.04.2020
4913 Clouds 14 1014 58 10000 1.5 320 22:37 14.04.2020
4914 Clouds 14 1014 58 10000 1.5 320 22:19 14.04.2020
4915 Clouds 14 1015 54 10000 1 0 21:55 14.04.2020
4916 Clouds 14 1015 54 10000 1 0 21:37 14.04.2020
4917 Clouds 14 1015 54 10000 1 0 21:18 14.04.2020
4918 Clouds 13 1015 54 10000 1.5 110 20:41 14.04.2020
4919 Clouds 13 1015 54 10000 1.5 110 20:22 14.04.2020
4920 Clouds 12 1016 58 10000 1.5 130 19:58 14.04.2020
4921 Clouds 12 1016 58 10000 1.5 130 19:40 14.04.2020
4922 Clouds 12 1016 58 10000 1.5 130 19:21 14.04.2020
4923 Clouds 11 1017 62 10000 1.5 0 18:56 14.04.2020
4924 Clouds 11 1017 62 10000 1.5 0 18:56 14.04.2020
4925 Clouds 11 1017 62 10000 1.5 0 18:38 14.04.2020
4926 Clouds 11 1017 62 10000 1.5 0 18:19 14.04.2020
4927 Clouds 8 1018 75 10000 1.5 120 17:56 14.04.2020
4928 Clouds 8 1018 75 10000 1.5 120 17:37 14.04.2020
4929 Clouds 8 1018 75 10000 1.5 120 17:19 14.04.2020
4930 Clouds 5 1019 93 10000 1.5 110 16:41 14.04.2020
4931 Clouds 5 1019 93 10000 1.5 110 16:23 14.04.2020
4932 Mist 2 1020 100 3000 0.16 145 15:58 14.04.2020
4933 Mist 2 1020 100 3000 0.16 145 15:39 14.04.2020
4934 Mist 2 1020 100 3000 0.89 283 15:20 14.04.2020
4935 Fog 1 1020 100 450 1.5 120 14:57 14.04.2020
4936 Fog 1 1020 100 450 1.5 120 14:39 14.04.2020
4937 Fog 1 1020 100 450 1.5 120 14:21 14.04.2020
4938 Fog 0 1020 70 800 0.89 283 13:55 14.04.2020
4939 Fog 0 1020 70 800 0.89 283 13:37 14.04.2020
4940 Fog 0 1020 70 800 0.89 283 13:19 14.04.2020
4941 Fog 1 1020 100 900 0.89 283 12:40 14.04.2020
4942 Fog 1 1020 100 900 1.4 279 12:20 14.04.2020
4943 Clouds 2 1020 93 10000 1 0 11:54 14.04.2020
4944 Clouds 2 1020 93 10000 1 0 11:36 14.04.2020
4945 Clouds 2 1020 93 10000 1 0 11:36 14.04.2020
4946 Clouds 2 1020 93 10000 1 0 11:18 14.04.2020
4947 Clouds 3 1020 93 10000 2.1 270 10:41 14.04.2020
4948 Clouds 3 1020 93 10000 2.1 270 10:23 14.04.2020
4949 Clouds 3 1021 93 10000 2.1 280 09:42 14.04.2020
4950 Clouds 3 1021 93 10000 2.1 280 09:42 14.04.2020
4951 Clouds 3 1021 93 10000 2.1 280 09:24 14.04.2020
4952 Clouds 4 1021 93 10000 1.5 0 08:57 14.04.2020
4953 Clouds 4 1021 93 10000 1.5 0 08:39 14.04.2020
4954 Clouds 4 1021 93 10000 1.5 0 08:21 14.04.2020
4955 Clouds 5 1022 86 10000 2.6 300 07:52 14.04.2020
4956 Clouds 5 1022 86 10000 2.6 300 07:28 14.04.2020
4957 Clouds 5 1022 86 10000 2.6 300 06:46 14.04.2020
4958 Clouds 6 1022 87 10000 1.86 283 05:54 14.04.2020
4959 Clouds 7 1022 81 10000 2.1 300 03:50 14.04.2020
4960 Clouds 12 1022 54 10000 1.5 200 02:40 14.04.2020
4961 Clouds 11 1022 66 10000 1 0 01:29 14.04.2020
4962 Clouds 14 1022 50 10000 3.1 310 00:59 14.04.2020
4963 Clouds 14 1022 50 10000 3.1 310 00:32 14.04.2020
4964 Clouds 14 1022 50 10000 1.5 0 23:59 13.04.2020
4965 Clouds 14 1022 50 10000 1.5 0 23:39 13.04.2020
4966 Clouds 14 1022 50 10000 1.5 0 23:20 13.04.2020
4967 Clouds 15 1021 47 10000 3.6 310 22:55 13.04.2020
4968 Clouds 15 1021 47 10000 3.6 310 22:37 13.04.2020
4969 Clouds 15 1021 47 10000 3.6 310 22:18 13.04.2020
4970 Clouds 16 1021 48 10000 2.6 0 21:41 13.04.2020
4971 Clouds 16 1021 48 10000 2.6 0 21:21 13.04.2020
4972 Clouds 16 1022 44 10000 3.1 0 20:58 13.04.2020
4973 Clouds 16 1022 44 10000 3.1 0 20:40 13.04.2020
4974 Clouds 16 1022 44 10000 3.1 0 20:19 13.04.2020
4975 Clouds 15 1022 47 10000 3.6 310 19:58 13.04.2020
4976 Clouds 15 1022 47 10000 3.6 310 19:37 13.04.2020
4977 Clouds 15 1022 47 10000 3.6 310 19:18 13.04.2020
4978 Clouds 14 1023 54 10000 3.6 300 18:57 13.04.2020
4979 Clouds 14 1023 54 10000 3.6 300 18:37 13.04.2020
4980 Clouds 14 1023 54 10000 3.6 300 18:18 13.04.2020
4981 Clouds 13 1024 62 10000 3.1 320 17:56 13.04.2020
4982 Clouds 13 1024 62 10000 3.1 320 17:37 13.04.2020
4983 Clouds 13 1024 62 10000 3.1 320 17:18 13.04.2020
4984 Rain 12 1008 87 4000 4.6 250 16:57 13.04.2020
4985 Rain 12 1008 87 4000 4.6 250 16:37 13.04.2020
4986 Rain 12 1008 87 4000 4.6 250 16:19 13.04.2020
4987 Rain 12 1008 87 4000 4.6 250 16:19 13.04.2020
4988 Rain 11 1008 87 4000 4.6 250 15:46 13.04.2020
4989 Rain 11 1008 87 4000 4.6 250 15:28 13.04.2020
4990 Rain 10 1008 87 4000 4.6 250 14:58 13.04.2020
4991 Clouds 5 1024 93 10000 1.5 290 14:40 13.04.2020
4992 Clouds 5 1024 93 10000 1.5 290 14:21 13.04.2020
4993 Clouds 4 1024 93 10000 2.1 300 13:56 13.04.2020
4994 Clouds 4 1024 93 10000 2.1 300 13:38 13.04.2020
4995 Clouds 4 1024 93 10000 2.1 300 13:19 13.04.2020
4996 Clouds 4 1024 93 10000 2.1 300 13:19 13.04.2020
4997 Clouds 5 1024 93 10000 1 0 12:58 13.04.2020
4998 Clouds 5 1024 93 10000 1 0 12:39 13.04.2020
4999 Clear 5 1024 93 10000 1 0 12:19 13.04.2020
5000 Clear 5 1024 93 10000 1 0 12:19 13.04.2020
5001 Clouds 6 1024 87 10000 3.1 300 11:44 13.04.2020
5002 Clouds 6 1024 87 10000 3.1 300 11:19 13.04.2020
5003 Clouds 5 1023 93 10000 3.6 290 10:57 13.04.2020
5004 Clouds 5 1023 93 10000 3.6 290 10:39 13.04.2020
5005 Clouds 5 1023 93 10000 3.6 290 10:20 13.04.2020
5006 Clouds 7 1023 75 10000 3.6 290 09:58 13.04.2020
5007 Clouds 7 1023 75 10000 3.6 290 09:39 13.04.2020
5008 Clear 7 1023 75 10000 3.6 290 09:21 13.04.2020
5009 Clear 7 1023 81 10000 3.6 280 08:45 13.04.2020
5010 Clear 7 1023 81 10000 3.6 280 08:26 13.04.2020
5011 Clear 8 1023 75 10000 2.6 300 07:44 13.04.2020
5012 Clear 8 1023 75 10000 2.6 300 07:26 13.04.2020
5013 Clear 8 1023 75 10000 2.6 290 06:56 13.04.2020
5014 Clear 8 1023 75 10000 2.6 290 06:33 13.04.2020
5015 Clear 10 1023 66 10000 2.6 310 05:40 13.04.2020
5016 Clear 10 1023 66 10000 2.6 310 05:19 13.04.2020
5017 Clear 11 1022 57 10000 2.1 0 04:31 13.04.2020
5018 Clear 9 1022 70 10000 1.5 300 03:53 13.04.2020
5019 Clear 9 1022 70 10000 1.5 300 03:33 13.04.2020
5020 Clear 10 1022 66 10000 1 0 02:39 13.04.2020
5021 Clear 11 1022 62 10000 2.1 0 01:45 13.04.2020
5022 Clear 11 1022 62 10000 2.1 0 01:27 13.04.2020
5023 Clear 12 1021 54 10000 3.6 280 00:44 13.04.2020
5024 Clouds 12 1021 54 10000 3.6 280 00:24 13.04.2020
5025 Clouds 13 1021 54 10000 3.6 0 23:55 12.04.2020
5026 Clouds 13 1021 54 10000 3.6 0 23:36 12.04.2020
5027 Clouds 13 1021 54 10000 3.6 0 23:18 12.04.2020
5028 Clouds 13 1021 50 10000 3.6 320 22:39 12.04.2020
5029 Clouds 13 1021 50 10000 3.6 320 22:19 12.04.2020
5030 Clouds 13 1021 50 10000 3.1 310 21:57 12.04.2020
5031 Clouds 13 1021 50 10000 3.1 310 21:36 12.04.2020
5032 Clouds 13 1021 50 10000 3.1 310 21:18 12.04.2020
5033 Clouds 13 1021 50 10000 3.6 320 20:42 12.04.2020
5034 Clouds 13 1021 50 10000 3.6 320 20:23 12.04.2020
5035 Clouds 11 1022 57 10000 3.1 280 19:57 12.04.2020
5036 Clouds 11 1022 57 10000 3.1 280 19:38 12.04.2020
5037 Clouds 11 1022 57 10000 3.1 280 19:18 12.04.2020
5038 Clouds 9 1022 66 10000 3.1 270 18:41 12.04.2020
5039 Clear 9 1022 66 10000 3.1 270 18:23 12.04.2020
5040 Clear 8 1022 65 10000 3.6 310 17:58 12.04.2020
5041 Clear 8 1022 65 10000 3.6 310 17:40 12.04.2020
5042 Clear 8 1022 65 10000 3.6 310 17:21 12.04.2020
5043 Clear 6 1022 81 10000 3.1 300 16:58 12.04.2020
5044 Clear 6 1022 81 10000 3.1 300 16:39 12.04.2020
5045 Clear 6 1022 81 10000 3.1 300 16:20 12.04.2020
5046 Clear 3 1023 93 10000 3.1 300 15:47 12.04.2020
5047 Clear 3 1023 93 10000 3.1 300 15:29 12.04.2020
5048 Clear 0 1023 63 10000 2.1 300 14:54 12.04.2020
5049 Clear 0 1023 63 10000 2.1 300 14:36 12.04.2020
5050 Clear 0 1023 63 10000 2.1 300 14:18 12.04.2020
5051 Clear 0 1022 63 10000 1.5 290 13:41 12.04.2020
5052 Clear 0 1022 63 10000 1.5 290 13:22 12.04.2020
5053 Clear 1 1022 63 10000 2.6 300 12:49 12.04.2020
5054 Clear 1 1022 68 10000 2.6 300 12:23 12.04.2020
5055 Clear 1 1022 68 10000 2.6 300 12:23 12.04.2020
5056 Clear 1 1022 68 10000 2.6 300 12:23 12.04.2020
5057 Clear 2 1022 93 10000 3.1 290 11:59 12.04.2020
5058 Clear 2 1022 93 10000 3.1 290 11:40 12.04.2020
5059 Clear 2 1022 93 10000 3.1 290 11:21 12.04.2020
5060 Clear 2 1022 93 10000 3.1 290 11:21 12.04.2020
5061 Clear 2 1022 93 10000 2.1 310 10:58 12.04.2020
5062 Clear 2 1022 93 10000 2.1 310 10:39 12.04.2020
5063 Clear 2 1022 93 10000 2.1 310 10:21 12.04.2020
5064 Clear 2 1022 93 10000 1.5 300 09:59 12.04.2020
5065 Clear 2 1022 93 10000 1.5 300 09:39 12.04.2020
5066 Clear 2 1022 93 10000 1.5 300 09:20 12.04.2020
5067 Clear 2 1022 93 10000 1 0 08:51 12.04.2020
5068 Clear 2 1022 93 10000 1 0 08:32 12.04.2020
5069 Clear 2 1022 93 10000 1 0 08:32 12.04.2020
5070 Clear 3 1022 93 10000 3.1 280 07:48 12.04.2020
5071 Clear 3 1022 93 10000 3.1 280 07:20 12.04.2020
5072 Clear 4 1022 86 10000 3.1 290 06:59 12.04.2020
5073 Clear 4 1022 86 10000 3.1 290 06:31 12.04.2020
5074 Clear 5 1022 80 10000 3.1 300 05:49 12.04.2020
5075 Clear 5 1022 80 10000 2.6 290 04:53 12.04.2020
5076 Clear 5 1022 80 10000 2.1 300 03:30 12.04.2020
5077 Clear 6 1022 75 10000 2.1 300 02:49 12.04.2020
5078 Clear 6 1022 75 10000 2.1 300 02:29 12.04.2020
5079 Clear 8 1021 65 10000 1 0 01:23 12.04.2020
5080 Clear 11 1021 50 10000 2.6 0 00:43 12.04.2020
5081 Clear 11 1021 50 10000 2.6 0 00:21 12.04.2020
5082 Clear 13 1020 35 10000 4.6 280 23:58 11.04.2020
5083 Clear 13 1020 35 10000 4.6 280 23:40 11.04.2020
5084 Clear 13 1020 35 10000 4.6 280 23:22 11.04.2020
5085 Clear 13 1020 35 10000 5.1 300 22:38 11.04.2020
5086 Clear 13 1020 35 10000 5.1 300 22:20 11.04.2020
5087 Clear 13 1020 35 10000 3.6 310 21:55 11.04.2020
5088 Clear 13 1020 35 10000 3.6 310 21:36 11.04.2020
5089 Clouds 13 1020 35 10000 3.6 310 21:18 11.04.2020
5090 Clouds 14 1020 41 10000 3.6 0 20:56 11.04.2020
5091 Clouds 14 1020 41 10000 3.6 0 20:56 11.04.2020
5092 Clouds 14 1020 41 10000 3.6 0 20:37 11.04.2020
5093 Clouds 14 1020 41 10000 3.6 0 20:19 11.04.2020
5094 Clouds 14 1020 41 10000 3.6 0 20:19 11.04.2020
5095 Clouds 13 1020 35 10000 5.1 290 19:56 11.04.2020
5096 Clouds 13 1020 35 10000 5.1 290 19:38 11.04.2020
5097 Clouds 13 1020 35 10000 5.1 290 19:18 11.04.2020
5098 Clouds 12 1021 35 10000 5.7 290 18:55 11.04.2020
5099 Clouds 12 1021 35 10000 5.7 290 18:37 11.04.2020
5100 Clouds 12 1021 51 10000 5.7 290 18:18 11.04.2020
5101 Clouds 10 1021 53 10000 4.1 270 17:57 11.04.2020
5102 Clouds 10 1021 53 10000 4.1 270 17:57 11.04.2020
5103 Clouds 10 1021 53 10000 4.1 270 17:37 11.04.2020
5104 Clouds 10 1021 53 10000 4.1 270 17:37 11.04.2020
5105 Clouds 10 1021 53 10000 4.1 270 17:19 11.04.2020
5106 Clouds 10 1020 57 10000 4.1 300 16:42 11.04.2020
5107 Clouds 10 1020 57 10000 4.1 300 16:21 11.04.2020
5108 Clouds 9 1020 61 10000 3.1 290 15:41 11.04.2020
5109 Clear 9 1020 61 10000 3.1 290 15:21 11.04.2020
5110 Clear 7 1019 70 10000 1.5 0 14:58 11.04.2020
5111 Clouds 7 1019 70 10000 1.5 0 14:39 11.04.2020
5112 Clouds 7 1019 70 10000 1.5 0 14:20 11.04.2020
5113 Clouds 8 1018 65 10000 2.6 0 13:42 11.04.2020
5114 Clouds 8 1018 65 10000 2.6 0 13:24 11.04.2020
5115 Clouds 9 1018 61 10000 2.6 0 12:59 11.04.2020
5116 Clouds 9 1018 61 10000 2.6 0 12:37 11.04.2020
5117 Clouds 9 1018 61 10000 2.6 0 12:18 11.04.2020
5118 Clouds 9 1017 61 10000 4.1 270 11:42 11.04.2020
5119 Clouds 9 1017 61 10000 4.1 270 11:20 11.04.2020
5120 Clouds 9 1017 66 10000 1 0 10:56 11.04.2020
5121 Clouds 9 1017 66 10000 1 0 10:37 11.04.2020
5122 Clouds 9 1017 66 10000 1 0 10:18 11.04.2020
5123 Clouds 10 1016 57 10000 3.1 260 09:55 11.04.2020
5124 Clear 10 1016 57 10000 3.1 260 09:37 11.04.2020
5125 Rain 10 1016 57 10000 3.1 260 09:18 11.04.2020
5126 Rain 11 1016 57 10000 2.6 240 08:42 11.04.2020
5127 Rain 11 1016 57 10000 2.6 240 08:23 11.04.2020
5128 Rain 11 1015 62 10000 3.1 0 07:43 11.04.2020
5129 Rain 11 1015 62 10000 3.1 0 07:24 11.04.2020
5130 Rain 10 1015 76 10000 3.6 310 06:37 11.04.2020
5131 Rain 10 1014 76 10000 2.1 270 05:58 11.04.2020
5132 Rain 11 1014 76 10000 2.1 280 04:26 11.04.2020
5133 Rain 12 1013 71 10000 3.1 0 03:30 11.04.2020
5134 Rain 14 1012 71 10000 3.1 0 01:41 11.04.2020
5135 Rain 14 1012 71 10000 3.1 0 01:18 11.04.2020
5136 Rain 14 1011 76 10000 2.6 0 00:42 11.04.2020
5137 Clouds 14 1011 76 10000 2.6 0 00:18 11.04.2020
5138 Clouds 16 1011 63 10000 3.1 0 23:42 10.04.2020
5139 Clouds 16 1011 63 10000 3.1 0 23:19 10.04.2020
5140 Clouds 16 1010 67 10000 1.5 0 22:58 10.04.2020
5141 Clouds 16 1010 67 10000 1.5 0 22:39 10.04.2020
5142 Clouds 16 1010 67 10000 1.5 0 22:20 10.04.2020
5143 Clouds 16 1011 67 10000 2.6 0 21:42 10.04.2020
5144 Clouds 16 1011 67 10000 2.6 0 21:42 10.04.2020
5145 Clouds 16 1011 67 10000 2.6 0 21:42 10.04.2020
5146 Rain 16 1011 67 10000 2.6 0 21:21 10.04.2020
5147 Rain 16 1011 72 10000 3.1 320 20:59 10.04.2020
5148 Rain 16 1011 72 10000 3.1 320 20:40 10.04.2020
5149 Rain 16 1011 72 10000 3.1 320 20:20 10.04.2020
5150 Rain 15 1012 72 10000 2.6 330 19:56 10.04.2020
5151 Rain 15 1012 72 10000 2.6 330 19:38 10.04.2020
5152 Rain 15 1012 72 10000 2.6 330 19:19 10.04.2020
5153 Rain 14 1012 76 10000 3.1 290 18:56 10.04.2020
5154 Rain 14 1012 76 10000 3.1 290 18:38 10.04.2020
5155 Clouds 14 1012 76 10000 3.1 290 18:20 10.04.2020
5156 Clouds 13 1013 82 10000 2.1 300 17:57 10.04.2020
5157 Clouds 13 1013 82 10000 2.1 300 17:39 10.04.2020
5158 Clouds 13 1013 82 10000 2.1 300 17:19 10.04.2020
5159 Clouds 13 1013 82 10000 3.1 280 16:45 10.04.2020
5160 Clouds 13 1013 82 10000 3.1 280 16:24 10.04.2020
5161 Clouds 11 1013 87 10000 1 0 15:59 10.04.2020
5162 Clouds 11 1013 87 10000 1 0 15:39 10.04.2020
5163 Clouds 11 1013 87 10000 1 0 15:21 10.04.2020
5164 Clouds 9 1013 93 10000 1 0 14:59 10.04.2020
5165 Clouds 9 1013 93 10000 1 0 14:40 10.04.2020
5166 Clouds 9 1013 93 10000 1 0 14:22 10.04.2020
5167 Clouds 9 1013 93 10000 1.5 275 13:56 10.04.2020
5168 Clouds 9 1013 93 10000 1.5 275 13:38 10.04.2020
5169 Clouds 9 1013 93 10000 1.5 275 13:19 10.04.2020
5170 Clouds 10 1013 87 10000 2.6 300 12:41 10.04.2020
5171 Clouds 10 1013 87 10000 2.6 300 12:21 10.04.2020
5172 Clouds 9 1013 93 10000 1.9 304 11:43 10.04.2020
5173 Clouds 9 1013 93 10000 1.9 304 11:24 10.04.2020
5174 Clouds 9 1014 87 10000 3.6 290 10:58 10.04.2020
5175 Clouds 9 1014 87 10000 3.6 290 10:39 10.04.2020
5176 Clouds 9 1014 87 10000 3.6 290 10:21 10.04.2020
5177 Clouds 8 1014 93 10000 1 0 09:43 10.04.2020
5178 Clouds 8 1014 93 10000 1 0 09:43 10.04.2020
5179 Clouds 8 1014 93 10000 1 0 09:22 10.04.2020
5180 Clouds 8 1014 93 10000 1.5 290 08:50 10.04.2020
5181 Clouds 8 1014 93 10000 1.5 290 08:27 10.04.2020
5182 Clouds 8 1014 93 10000 1 0 07:55 10.04.2020
5183 Clouds 8 1014 93 10000 1 0 07:37 10.04.2020
5184 Clouds 8 1014 93 10000 1 0 07:19 10.04.2020
5185 Clouds 7 1014 100 10000 2.6 280 06:31 10.04.2020
5186 Clouds 10 1014 87 10000 2.1 290 05:59 10.04.2020
5187 Clouds 10 1014 87 10000 2.1 290 05:29 10.04.2020
5188 Clouds 11 1014 81 10000 3.1 300 04:54 10.04.2020
5189 Clouds 12 1014 81 10000 2.6 290 03:35 10.04.2020
5190 Clouds 12 1013 81 10000 2.6 290 02:51 10.04.2020
5191 Clouds 12 1013 81 10000 2.6 290 02:32 10.04.2020
5192 Clouds 14 1013 76 10000 2.1 300 01:43 10.04.2020
5193 Clouds 14 1013 76 10000 2.1 300 01:25 10.04.2020
5194 Clouds 18 1012 59 10000 4.1 290 00:45 10.04.2020
5195 Clouds 18 1012 59 10000 4.1 290 00:20 10.04.2020
5196 Haze 19 1012 63 10000 2.6 310 23:41 09.04.2020
5197 Haze 19 1012 63 10000 2.6 310 23:23 09.04.2020
5198 Clouds 19 1012 55 10000 3.6 290 22:56 09.04.2020
5199 Clouds 19 1012 55 10000 3.6 290 22:38 09.04.2020
5200 Clouds 19 1012 55 10000 3.6 290 22:19 09.04.2020
5201 Clouds 20 1012 52 10000 2.6 300 21:38 09.04.2020
5202 Clear 20 1012 52 10000 2.6 300 21:19 09.04.2020
5203 Clear 19 1013 52 10000 2.6 320 20:47 09.04.2020
5204 Clear 19 1013 52 10000 2.6 320 20:22 09.04.2020
5205 Clear 17 1014 55 10000 3.1 310 19:59 09.04.2020
5206 Clear 17 1014 55 10000 3.1 310 19:59 09.04.2020
5207 Clear 17 1014 55 10000 3.1 310 19:38 09.04.2020
5208 Clear 17 1014 55 10000 3.1 310 19:19 09.04.2020
5209 Clear 14 1015 67 10000 2.6 310 18:42 09.04.2020
5210 Clear 14 1015 67 10000 2.6 310 18:20 09.04.2020
5211 Clear 11 1015 76 10000 1.5 320 17:43 09.04.2020
5212 Clear 11 1015 76 10000 1.5 320 17:24 09.04.2020
5213 Clear 8 1016 81 10000 0.6 274 16:58 09.04.2020
5214 Clear 8 1016 81 10000 0.6 274 16:39 09.04.2020
5215 Clear 8 1016 81 10000 0.6 274 16:19 09.04.2020
5216 Fog 5 1016 100 10000 0.6 274 15:55 09.04.2020
5217 Fog 5 1016 100 10000 0.6 274 15:37 09.04.2020
5218 Fog 5 1016 100 10000 0.6 274 15:37 09.04.2020
5219 Fog 5 1016 100 10000 1.39 291 15:18 09.04.2020
5220 Fog 2 1016 100 350 0.5 0 14:42 09.04.2020
5221 Fog 2 1016 100 350 0.5 0 14:21 09.04.2020
5222 Clear 3 1016 100 10000 1.35 295 13:56 09.04.2020
5223 Clear 3 1016 100 10000 1.35 295 13:56 09.04.2020
5224 Clear 3 1016 100 10000 1.35 295 13:37 09.04.2020
5225 Clear 3 1016 100 10000 1.35 295 13:18 09.04.2020
5226 Clear 4 1015 100 10000 2.1 140 12:42 09.04.2020
5227 Clear 4 1015 100 10000 2.1 140 12:23 09.04.2020
5228 Clear 4 1015 100 10000 1 0 11:58 09.04.2020
5229 Clear 4 1015 100 10000 1 0 11:38 09.04.2020
5230 Clear 4 1015 100 10000 1 0 11:20 09.04.2020
5231 Clear 4 1015 100 10000 1.45 296 10:57 09.04.2020
5232 Clear 4 1015 100 10000 1.45 296 10:38 09.04.2020
5233 Clear 4 1015 100 10000 1.45 296 10:19 09.04.2020
5234 Clear 4 1015 100 10000 1.45 296 10:19 09.04.2020
5235 Clear 4 1015 100 10000 1.45 296 09:55 09.04.2020
5236 Clear 4 1015 100 10000 1.46 294 09:37 09.04.2020
5237 Clear 4 1015 100 10000 1.61 297 09:19 09.04.2020
5238 Clear 5 1015 93 10000 1.61 297 08:42 09.04.2020
5239 Clear 5 1015 93 10000 1.61 297 08:23 09.04.2020
5240 Clear 5 1015 100 10000 1 0 07:51 09.04.2020
5241 Clear 5 1015 100 10000 1 0 07:23 09.04.2020
5242 Clear 7 1015 93 10000 1.61 297 06:49 09.04.2020
5243 Clear 8 1015 87 10000 2.6 300 05:49 09.04.2020
5244 Clear 8 1015 87 10000 2.6 300 05:28 09.04.2020
5245 Clear 10 1014 81 10000 1 0 02:37 09.04.2020
5246 Clear 12 1014 76 10000 2.6 310 01:57 09.04.2020
5247 Clear 12 1014 76 10000 2.6 310 01:39 09.04.2020
5248 Clear 12 1014 76 10000 2.6 310 01:19 09.04.2020
5249 Clear 15 1013 62 10000 3.1 290 00:38 09.04.2020
5250 Clear 15 1013 62 10000 3.1 290 00:18 09.04.2020
5251 Clear 20 1012 27 0 1.06 231 23:42 08.04.2020
5252 Clear 20 1014 45 10000 2.1 340 23:23 08.04.2020
5253 Clear 20 1014 45 10000 2.1 340 22:56 08.04.2020
5254 Clear 20 1014 45 10000 2.1 340 22:38 08.04.2020
5255 Clear 20 1014 45 10000 2.1 340 22:19 08.04.2020
5256 Clear 20 1014 40 10000 1.5 330 21:55 08.04.2020
5257 Clear 20 1014 40 10000 1.5 330 21:37 08.04.2020
5258 Clear 20 1014 40 10000 1.5 330 21:37 08.04.2020
5259 Clear 20 1014 40 10000 1.5 330 21:18 08.04.2020
5260 Clear 19 1015 34 10000 1.5 300 20:40 08.04.2020
5261 Clear 19 1015 34 10000 1.5 300 20:21 08.04.2020
5262 Clear 17 1016 45 10000 2.1 300 19:59 08.04.2020
5263 Clear 17 1016 45 10000 2.1 300 19:40 08.04.2020
5264 Clear 17 1016 45 10000 2.1 300 19:21 08.04.2020
5265 Clear 13 1017 54 10000 1.5 290 18:45 08.04.2020
5266 Clear 13 1017 54 10000 1.5 290 18:27 08.04.2020
5267 Clear 10 1018 66 10000 0.5 0 17:57 08.04.2020
5268 Clear 10 1018 66 10000 0.5 0 17:38 08.04.2020
5269 Clear 10 1018 66 10000 0.5 0 17:19 08.04.2020
5270 Clear 7 1018 81 10000 1 0 16:43 08.04.2020
5271 Clear 7 1018 81 10000 1 0 16:24 08.04.2020
5272 Clear 3 1019 100 10000 1 0 15:59 08.04.2020
5273 Clear 3 1019 100 10000 1 0 15:38 08.04.2020
5274 Clear 3 1019 100 10000 1 0 15:20 08.04.2020
5275 Mist 0 1019 42 2000 1.23 32 14:45 08.04.2020
5276 Mist 0 1019 42 2000 1.23 32 14:25 08.04.2020
5277 Clear 0 1019 42 10000 1.23 30 13:57 08.04.2020
5278 Clear 0 1019 42 10000 1.23 30 13:39 08.04.2020
5279 Clear 0 1019 42 10000 1.23 30 13:20 08.04.2020
5280 Clear 2 1019 100 10000 1 0 12:42 08.04.2020
5281 Clear 2 1019 100 10000 1 0 12:18 08.04.2020
5282 Clear 1 1020 100 10000 1.23 44 11:58 08.04.2020
5283 Clear 1 1020 100 10000 1.23 44 11:39 08.04.2020
5284 Clear 1 1020 100 10000 1.23 44 11:21 08.04.2020
5285 Clear 2 1020 93 10000 0.5 0 10:55 08.04.2020
5286 Clear 2 1020 93 10000 0.5 0 10:37 08.04.2020
5287 Clear 2 1020 93 10000 0.5 0 10:18 08.04.2020
5288 Clear 2 1020 93 10000 0.5 0 10:18 08.04.2020
5289 Clear 3 1020 93 10000 0.5 0 09:42 08.04.2020
5290 Clear 3 1020 93 10000 0.5 0 09:21 08.04.2020
5291 Clear 3 1020 93 10000 0.99 30 08:59 08.04.2020
5292 Clear 3 1020 93 10000 0.99 30 08:41 08.04.2020
5293 Clear 3 1020 93 10000 0.99 30 08:21 08.04.2020
5294 Clear 3 1020 100 10000 0.99 30 07:43 08.04.2020
5295 Clear 3 1020 100 10000 0.99 30 07:23 08.04.2020
5296 Clear 4 1021 100 10000 0.99 30 06:48 08.04.2020
5297 Clear 5 1021 93 10000 0.81 23 05:49 08.04.2020
5298 Clear 7 1021 87 10000 1.5 300 03:34 08.04.2020
5299 Clear 8 1021 87 10000 0.5 0 02:41 08.04.2020
5300 Clear 8 1021 87 10000 0.5 0 02:19 08.04.2020
5301 Clear 9 1020 81 10000 1 300 01:30 08.04.2020
5302 Clear 13 1020 66 10000 2.1 310 00:57 08.04.2020
5303 Clear 13 1020 66 10000 2.1 310 00:39 08.04.2020
5304 Clear 13 1020 66 10000 2.1 310 00:19 08.04.2020
5305 Haze 16 1020 55 10000 2.1 330 23:39 07.04.2020
5306 Haze 16 1020 55 10000 2.1 330 23:20 07.04.2020
5307 Clear 18 1020 42 10000 1.5 0 22:56 07.04.2020
5308 Clear 18 1020 42 10000 1.5 0 22:38 07.04.2020
5309 Clear 18 1020 42 10000 1.5 0 22:19 07.04.2020
5310 Clear 17 1021 42 10000 1 0 21:54 07.04.2020
5311 Clear 17 1021 42 10000 1 0 21:36 07.04.2020
5312 Clear 17 1021 42 10000 1 0 21:18 07.04.2020
5313 Clear 15 1022 47 10000 1.5 320 20:41 07.04.2020
5314 Clear 15 1022 47 10000 1.5 320 20:21 07.04.2020
5315 Clear 13 1023 54 10000 1.5 230 19:58 07.04.2020
5316 Clear 13 1023 54 10000 1.5 230 19:38 07.04.2020
5317 Clear 13 1023 54 10000 1.5 230 19:20 07.04.2020
5318 Clear 10 1024 66 10000 1.5 30 18:59 07.04.2020
5319 Clear 10 1024 66 10000 1.5 30 18:40 07.04.2020
5320 Clear 10 1024 66 10000 1.5 30 18:21 07.04.2020
5321 Clear 8 1025 75 10000 1.5 0 17:47 07.04.2020
5322 Clear 8 1025 75 10000 1.5 0 17:25 07.04.2020
5323 Fog 6 1025 75 10000 1 0 16:59 07.04.2020
5324 Fog 6 1025 75 10000 1 0 16:41 07.04.2020
5325 Fog 6 1025 75 10000 1 0 16:22 07.04.2020
5326 Fog 3 1026 93 10000 1 0 15:44 07.04.2020
5327 Fog 3 1026 93 10000 1 0 15:26 07.04.2020
5328 Clouds 2 1026 100 10000 1.5 130 14:55 07.04.2020
5329 Clouds 2 1026 100 10000 1.5 130 14:36 07.04.2020
5330 Clouds 2 1026 100 10000 1.5 130 14:18 07.04.2020
5331 Mist 2 1025 100 2800 1.5 140 13:41 07.04.2020
5332 Mist 2 1025 100 2800 1.5 140 13:19 07.04.2020
5333 Clouds 2 1025 100 7000 1.5 150 12:56 07.04.2020
5334 Clouds 2 1025 100 7000 1.5 150 12:37 07.04.2020
5335 Clouds 2 1025 100 7000 1.5 150 12:19 07.04.2020
5336 Fog 1 1025 100 500 0.5 0 11:45 07.04.2020
5337 Fog 1 1025 100 500 0.5 0 11:27 07.04.2020
5338 Fog 1 1025 100 500 0.43 276 10:59 07.04.2020
5339 Fog 1 1025 100 500 0.43 276 10:39 07.04.2020
5340 Fog 1 1025 100 500 0.43 276 10:19 07.04.2020
5341 Clouds 2 1025 100 10000 1 280 09:46 07.04.2020
5342 Clouds 2 1025 100 10000 1 280 09:20 07.04.2020
5343 Clouds 3 1025 93 10000 1 0 08:57 07.04.2020
5344 Clouds 3 1025 93 10000 1 0 08:38 07.04.2020
5345 Clouds 3 1025 93 10000 1 0 08:19 07.04.2020
5346 Clouds 3 1026 93 10000 1.5 290 07:43 07.04.2020
5347 Clouds 3 1026 93 10000 1.5 290 07:25 07.04.2020
5348 Clouds 4 1026 93 10000 1.5 280 06:51 07.04.2020
5349 Clouds 4 1026 93 10000 1.5 280 06:24 07.04.2020
5350 Clouds 4 1026 93 10000 1.5 300 05:43 07.04.2020
5351 Clouds 4 1026 93 10000 1.5 300 05:22 07.04.2020
5352 Clouds 7 1025 75 10000 3.1 270 03:32 07.04.2020
5353 Clouds 7 1025 75 10000 3.1 290 02:59 07.04.2020
5354 Clouds 9 1025 66 10000 3.6 300 01:57 07.04.2020
5355 Clouds 9 1025 66 10000 3.6 300 01:29 07.04.2020
5356 Clear 10 1024 61 10000 2.6 320 00:29 07.04.2020
5357 Clear 14 1025 47 10000 3.1 320 23:56 06.04.2020
5358 Clear 14 1025 47 10000 3.1 320 23:36 06.04.2020
5359 Clear 14 1025 47 10000 3.1 320 23:18 06.04.2020
5360 Clear 14 1025 35 10000 3.6 310 22:40 06.04.2020
5361 Clear 14 1025 35 10000 3.6 310 22:40 06.04.2020
5362 Clear 14 1025 35 10000 3.6 310 22:21 06.04.2020
5363 Clear 14 1025 41 10000 4.6 300 21:57 06.04.2020
5364 Clear 14 1025 41 10000 4.6 300 21:39 06.04.2020
5365 Clear 14 1025 41 10000 4.6 300 21:19 06.04.2020
5366 Clear 13 1025 32 10000 4.1 300 20:55 06.04.2020
5367 Clear 13 1025 32 10000 4.1 300 20:37 06.04.2020
5368 Clear 13 1025 32 10000 4.1 300 20:18 06.04.2020
5369 Clear 12 1027 46 10000 3.6 300 19:41 06.04.2020
5370 Clear 12 1027 46 10000 3.6 300 19:23 06.04.2020
5371 Clear 10 1027 61 10000 3.1 330 18:58 06.04.2020
5372 Clear 10 1027 61 10000 3.1 330 18:39 06.04.2020
5373 Clear 10 1027 61 10000 3.1 330 18:20 06.04.2020
5374 Clear 9 1028 66 10000 3.1 320 17:42 06.04.2020
5375 Clear 9 1028 66 10000 3.1 320 17:20 06.04.2020
5376 Clear 5 1028 93 10000 3.1 310 16:50 06.04.2020
5377 Clear 5 1028 93 10000 3.1 310 16:31 06.04.2020
5378 Fog 2 1028 100 5000 2.1 300 15:41 06.04.2020
5379 Fog 0 1027 65 900 1.5 270 13:55 06.04.2020
5380 Fog 0 1027 65 900 1.5 270 13:37 06.04.2020
5381 Fog 0 1027 65 900 1.5 270 13:18 06.04.2020
5382 Clouds 0 1027 65 10000 1.69 281 12:22 06.04.2020
5383 Clouds 1 1027 69 10000 1 0 11:54 06.04.2020
5384 Clouds 1 1027 69 10000 1 0 11:54 06.04.2020
5385 Clouds 1 1027 69 10000 1 0 11:33 06.04.2020
5386 Clouds 1 1027 69 10000 1 0 11:33 06.04.2020
5387 Clouds 1 1027 69 10000 1 0 11:33 06.04.2020
5388 Clouds 1 1027 69 10000 1 0 11:33 06.04.2020
5389 Clouds 1 1027 69 10000 1 0 11:33 06.04.2020
5390 Clouds 1 1026 69 10000 1.64 276 10:52 06.04.2020
5391 Clouds 1 1026 69 10000 1.64 276 10:52 06.04.2020
5392 Clouds 1 1026 69 10000 1.64 276 10:52 06.04.2020
5393 Clouds 1 1026 69 10000 1.64 276 10:52 06.04.2020
5394 Clouds 1 1026 69 10000 1.64 276 10:21 06.04.2020
5395 Clouds 2 1026 100 10000 1.5 290 09:47 06.04.2020
5396 Clouds 2 1026 100 10000 1.5 290 09:47 06.04.2020
5397 Clouds 2 1026 100 10000 1.5 290 09:47 06.04.2020
5398 Clouds 2 1026 100 10000 1.5 290 09:47 06.04.2020
5399 Clouds 2 1026 100 10000 1.5 290 09:47 06.04.2020
5400 Clouds 2 1026 100 10000 1.5 290 09:21 06.04.2020
5401 Clouds 2 1026 100 10000 1.5 290 09:21 06.04.2020
5402 Clouds 3 1026 93 10000 0.5 0 08:54 06.04.2020
5403 Clouds 3 1026 93 10000 0.5 0 08:30 06.04.2020
5404 Clouds 5 1026 80 10000 2.6 270 07:37 06.04.2020
5405 Clouds 5 1026 80 10000 2.6 270 07:37 06.04.2020
5406 Clouds 6 1025 75 10000 2.6 300 06:42 06.04.2020
5407 Clouds 6 1025 75 10000 2.6 300 06:23 06.04.2020
5408 Clear 5 1024 80 10000 2.6 270 04:19 06.04.2020
5409 Clouds 7 1021 70 10000 3.6 0 02:58 06.04.2020
5410 Clouds 7 1021 70 10000 3.6 0 02:25 06.04.2020
5411 Clouds 7 1020 65 10000 4.6 250 01:23 06.04.2020
5412 Clouds 8 1019 61 10000 3.6 220 00:41 06.04.2020
5413 Clouds 8 1019 61 10000 3.6 220 00:41 06.04.2020
5414 Clouds 8 1019 61 10000 3.6 220 00:21 06.04.2020
5415 Clouds 8 1019 61 10000 3.6 220 00:21 06.04.2020
5416 Clouds 8 1018 70 10000 4.1 310 23:43 05.04.2020
5417 Clouds 8 1018 70 10000 4.1 310 23:24 05.04.2020
5418 Rain 7 1017 75 10000 4.1 0 22:55 05.04.2020
5419 Rain 7 1017 75 10000 4.1 0 22:37 05.04.2020
5420 Rain 7 1017 75 10000 4.1 0 22:18 05.04.2020
5421 Clouds 8 1016 70 10000 3.1 0 21:44 05.04.2020
5422 Clouds 8 1016 70 10000 3.1 0 21:23 05.04.2020
5423 Rain 9 1014 61 10000 9.3 300 20:26 05.04.2020
5424 Rain 9 1014 61 10000 9.3 300 20:26 05.04.2020
5425 Rain 9 1014 61 10000 9.3 300 20:26 05.04.2020
5426 Rain 11 1013 38 10000 10.3 290 19:45 05.04.2020
5427 Rain 11 1013 38 10000 10.3 290 19:26 05.04.2020
5428 Rain 11 1013 50 10000 7.7 290 18:50 05.04.2020
5429 Rain 11 1013 50 10000 7.7 290 18:28 05.04.2020
5430 Rain 11 1013 50 10000 7.7 290 18:28 05.04.2020
5431 Rain 11 1013 50 10000 7.7 290 18:28 05.04.2020
5432 Rain 11 1013 50 10000 7.7 290 18:28 05.04.2020
5433 Rain 11 1013 50 10000 7.7 290 18:28 05.04.2020
5434 Rain 9 1012 70 10000 4.1 270 17:49 05.04.2020
5435 Rain 9 1012 70 10000 4.1 270 17:49 05.04.2020
5436 Rain 9 1012 70 10000 4.1 270 17:49 05.04.2020
5437 Rain 9 1012 70 10000 4.1 270 17:49 05.04.2020
5438 Rain 9 1012 70 10000 4.1 270 17:49 05.04.2020
5439 Rain 9 1012 70 10000 4.1 270 17:23 05.04.2020
5440 Rain 7 1010 87 10000 6.7 310 16:47 05.04.2020
5441 Rain 7 1010 87 10000 6.7 310 16:19 05.04.2020
5442 Rain 9 1008 81 10000 6.7 300 15:46 05.04.2020
5443 Rain 9 1008 81 10000 6.7 300 15:46 05.04.2020
5444 Rain 9 1008 81 10000 6.7 300 15:28 05.04.2020
5445 Rain 9 1006 81 9000 3.6 0 14:48 05.04.2020
5446 Rain 9 1006 81 9000 3.6 0 14:48 05.04.2020
5447 Rain 9 1006 81 9000 3.6 0 14:48 05.04.2020
5448 Rain 9 1006 81 9000 3.6 0 14:48 05.04.2020
5449 Rain 9 1005 81 9000 6.7 270 13:59 05.04.2020
5450 Rain 9 1005 81 9000 6.7 270 13:40 05.04.2020
5451 Rain 9 1005 81 9000 6.7 270 13:40 05.04.2020
5452 Rain 9 1005 81 9000 6.7 270 13:40 05.04.2020
5453 Rain 9 1005 81 9000 6.7 270 13:40 05.04.2020
5454 Rain 9 1005 81 9000 6.7 270 13:40 05.04.2020
5455 Rain 9 1005 81 10000 5.1 270 12:21 05.04.2020
5456 Rain 11 1005 62 10000 10.8 270 11:40 05.04.2020
5457 Rain 11 1005 62 10000 10.8 270 11:20 05.04.2020
5458 Rain 11 1006 62 10000 7.7 270 10:47 05.04.2020
5459 Rain 11 1006 62 10000 7.7 270 10:23 05.04.2020
5460 Rain 11 1006 62 10000 7.7 270 10:23 05.04.2020
5461 Rain 11 1006 62 10000 7.2 270 09:55 05.04.2020
5462 Rain 11 1006 62 10000 7.2 270 09:27 05.04.2020
5463 Rain 11 1006 62 10000 7.2 270 09:27 05.04.2020
5464 Clouds 11 1007 53 10000 6.2 260 08:34 05.04.2020
5465 Clouds 11 1007 53 10000 6.2 260 08:34 05.04.2020
5466 Clouds 11 1007 53 10000 6.2 260 08:34 05.04.2020
5467 Rain 10 1008 66 10000 6.7 270 07:21 05.04.2020
5468 Rain 10 1008 66 10000 6.7 270 07:21 05.04.2020
5469 Rain 10 1010 61 10000 6.7 270 04:32 05.04.2020
5470 Clear 11 1010 57 10000 6.7 270 03:28 05.04.2020
5471 Clouds 11 1011 57 10000 6.2 270 02:27 05.04.2020
5472 Clear 11 1012 57 10000 5.7 260 01:44 05.04.2020
5473 Clear 11 1012 57 10000 5.7 260 01:22 05.04.2020
5474 Clear 11 1012 53 10000 4.1 260 00:37 05.04.2020
5475 Clear 11 1012 53 10000 4.1 260 00:18 05.04.2020
5476 Clear 12 1012 50 10000 6.7 270 23:41 04.04.2020
5477 Clear 12 1012 50 10000 6.7 270 23:22 04.04.2020
5478 Clear 13 1012 47 10000 7.7 290 22:57 04.04.2020
5479 Clear 13 1012 47 10000 7.7 290 22:39 04.04.2020
5480 Clear 13 1012 47 10000 7.7 290 22:20 04.04.2020
5481 Clear 14 1013 44 10000 7.2 280 21:57 04.04.2020
5482 Clear 14 1013 44 10000 7.2 280 21:38 04.04.2020
5483 Clear 14 1013 44 10000 7.2 280 21:19 04.04.2020
5484 Clear 14 1013 44 10000 7.2 280 21:19 04.04.2020
5485 Clear 14 1013 44 10000 8.7 280 20:54 04.04.2020
5486 Clear 14 1013 44 10000 8.7 280 20:36 04.04.2020
5487 Clear 14 1013 44 10000 8.7 280 20:18 04.04.2020
5488 Clear 14 1014 47 10000 3.6 0 19:40 04.04.2020
5489 Clear 14 1014 47 10000 3.6 0 19:20 04.04.2020
5490 Clear 12 1015 54 10000 3.1 0 18:59 04.04.2020
5491 Clear 12 1015 54 10000 3.1 0 18:59 04.04.2020
5492 Clear 12 1015 54 10000 3.1 0 18:39 04.04.2020
5493 Clouds 12 1015 54 10000 3.1 0 18:20 04.04.2020
5494 Clouds 11 1016 57 10000 3.6 0 17:58 04.04.2020
5495 Clouds 11 1016 57 10000 3.6 0 17:38 04.04.2020
5496 Clouds 11 1016 57 10000 3.6 0 17:19 04.04.2020
5497 Clouds 10 1016 66 10000 2.6 320 16:42 04.04.2020
5498 Clouds 10 1016 66 10000 2.6 320 16:24 04.04.2020
5499 Clouds 9 1016 66 10000 1.5 300 15:58 04.04.2020
5500 Clouds 9 1016 66 10000 1.5 300 15:38 04.04.2020
5501 Clouds 9 1016 66 10000 1.5 300 15:19 04.04.2020
5502 Clouds 9 1016 66 10000 1.5 300 15:19 04.04.2020
5503 Clouds 6 1016 87 10000 2.6 290 14:46 04.04.2020
5504 Clouds 6 1016 87 10000 2.6 290 14:25 04.04.2020
5505 Clouds 7 1015 75 10000 2.1 290 13:58 04.04.2020
5506 Clouds 7 1015 75 10000 2.1 290 13:40 04.04.2020
5507 Clouds 7 1015 75 10000 2.1 290 13:20 04.04.2020
5508 Clouds 8 1015 65 10000 1.5 0 12:55 04.04.2020
5509 Clouds 8 1015 65 10000 1.5 0 12:55 04.04.2020
5510 Clouds 8 1015 65 10000 1.5 0 12:36 04.04.2020
5511 Clouds 8 1015 65 10000 1.5 0 12:18 04.04.2020
5512 Clouds 8 1015 65 10000 2.6 0 11:40 04.04.2020
5513 Clouds 8 1015 65 10000 2.6 0 11:21 04.04.2020
5514 Clouds 9 1015 57 10000 2.6 270 10:57 04.04.2020
5515 Clouds 9 1015 57 10000 2.6 270 10:39 04.04.2020
5516 Clouds 9 1015 57 10000 2.6 270 10:21 04.04.2020
5517 Clouds 9 1015 57 10000 2.1 270 09:55 04.04.2020
5518 Clouds 9 1015 57 10000 2.1 270 09:37 04.04.2020
5519 Clouds 9 1015 57 10000 2.1 270 09:19 04.04.2020
5520 Clouds 9 1015 57 10000 2.6 0 08:42 04.04.2020
5521 Clouds 9 1015 57 10000 2.6 0 08:21 04.04.2020
5522 Clouds 10 1015 53 10000 3.6 210 07:47 04.04.2020
5523 Clouds 10 1015 53 10000 3.6 210 07:28 04.04.2020
5524 Clouds 10 1014 57 10000 3.6 0 06:57 04.04.2020
5525 Clouds 10 1014 57 10000 3.6 0 06:20 04.04.2020
5526 Clear 10 1014 57 10000 4.1 240 05:43 04.04.2020
5527 Clear 10 1014 57 10000 4.1 240 05:24 04.04.2020
5528 Clear 11 1014 57 10000 3.6 260 04:32 04.04.2020
5529 Clear 12 1013 54 10000 8.2 290 03:53 04.04.2020
5530 Clouds 12 1012 58 10000 5.1 270 02:54 04.04.2020
5531 Clouds 12 1012 58 10000 5.1 270 02:34 04.04.2020
5532 Rain 13 1011 58 10000 5.1 270 01:57 04.04.2020
5533 Rain 13 1011 58 10000 5.1 270 01:25 04.04.2020
5534 Rain 14 1009 67 10000 6.7 290 00:50 04.04.2020
5535 Rain 14 1009 67 10000 6.7 290 00:30 04.04.2020
5536 Rain 14 1009 82 10000 3.6 0 23:40 03.04.2020
5537 Rain 14 1009 82 10000 3.6 0 23:21 03.04.2020
5538 Rain 14 1008 82 10000 5.1 0 22:59 03.04.2020
5539 Rain 14 1008 82 10000 5.1 0 22:39 03.04.2020
5540 Rain 14 1008 82 10000 5.1 0 22:39 03.04.2020
5541 Rain 14 1008 82 10000 5.1 0 22:19 03.04.2020
5542 Rain 14 1008 82 6000 3.6 300 21:44 03.04.2020
5543 Rain 14 1008 82 6000 3.6 300 21:25 03.04.2020
5544 Rain 14 1009 76 7000 3.1 250 20:57 03.04.2020
5545 Rain 14 1009 76 7000 3.1 250 20:38 03.04.2020
5546 Rain 14 1009 76 7000 3.1 250 20:20 03.04.2020
5547 Rain 14 1010 82 10000 3.1 320 19:57 03.04.2020
5548 Rain 14 1010 82 10000 3.1 320 19:39 03.04.2020
5549 Rain 14 1010 82 10000 3.1 320 19:21 03.04.2020
5550 Rain 14 1009 67 10000 1.5 260 18:59 03.04.2020
5551 Rain 14 1009 67 10000 1.5 260 18:41 03.04.2020
5552 Rain 14 1009 67 10000 1.5 260 18:22 03.04.2020
5553 Rain 11 1011 71 10000 3.1 290 17:55 03.04.2020
5554 Rain 11 1011 71 10000 3.1 290 17:36 03.04.2020
5555 Rain 11 1011 71 10000 3.1 290 17:18 03.04.2020
5556 Clear 11 1012 76 10000 2.6 280 16:43 03.04.2020
5557 Clear 11 1012 76 10000 2.6 280 16:21 03.04.2020
5558 Clear 9 1013 81 10000 2.1 300 15:58 03.04.2020
5559 Clear 9 1013 81 10000 2.1 300 15:39 03.04.2020
5560 Clear 9 1013 81 10000 2.1 300 15:20 03.04.2020
5561 Clouds 6 1014 93 10000 2.6 290 14:55 03.04.2020
5562 Clouds 6 1014 93 10000 2.6 290 14:55 03.04.2020
5563 Clouds 7 1014 45 0 2.05 276 14:37 03.04.2020
5564 Clouds 5 1015 93 10000 3.1 300 14:19 03.04.2020
5565 Clouds 5 1015 93 10000 3.1 300 13:42 03.04.2020
5566 Clouds 5 1015 93 10000 3.1 300 13:24 03.04.2020
5567 Clouds 6 1016 93 10000 3.1 290 12:44 03.04.2020
5568 Clouds 6 1016 93 10000 3.1 290 12:20 03.04.2020
5569 Clouds 5 1016 93 10000 3.6 300 11:57 03.04.2020
5570 Clouds 5 1016 93 10000 3.6 300 11:39 03.04.2020
5571 Clouds 5 1016 93 10000 3.6 300 11:20 03.04.2020
5572 Clouds 6 1017 93 10000 2.6 290 10:59 03.04.2020
5573 Clouds 6 1017 93 10000 2.6 290 10:38 03.04.2020
5574 Clouds 6 1017 93 10000 2.6 290 10:20 03.04.2020
5575 Clouds 7 1017 87 10000 3.1 280 09:59 03.04.2020
5576 Clouds 7 1017 87 10000 3.1 280 09:40 03.04.2020
5577 Clouds 7 1017 87 10000 3.1 280 09:40 03.04.2020
5578 Clouds 7 1017 87 10000 3.1 280 09:21 03.04.2020
5579 Clouds 7 1018 87 10000 1.5 0 08:55 03.04.2020
5580 Clouds 7 1018 87 10000 1.5 0 08:37 03.04.2020
5581 Clouds 7 1018 87 10000 1.5 0 08:37 03.04.2020
5582 Clouds 7 1018 87 10000 1.5 0 08:18 03.04.2020
5583 Clouds 8 1018 87 10000 3.6 290 07:46 03.04.2020
5584 Clouds 8 1018 87 10000 3.6 290 07:27 03.04.2020
5585 Clouds 9 1019 87 10000 2.1 310 06:40 03.04.2020
5586 Clouds 9 1019 87 10000 2.1 310 06:21 03.04.2020
5587 Clouds 10 1020 76 10000 3.6 280 05:34 03.04.2020
5588 Clouds 11 1020 71 10000 3.6 290 03:40 03.04.2020
5589 Clouds 12 1020 66 10000 2.6 300 02:55 03.04.2020
5590 Clouds 13 1020 66 10000 3.1 290 01:53 03.04.2020
5591 Clouds 13 1020 66 10000 3.1 290 01:18 03.04.2020
5592 Clouds 16 1020 59 10000 3.6 300 00:34 03.04.2020
5593 Clouds 20 1020 45 10000 3.1 310 23:57 02.04.2020
5594 Clouds 20 1020 45 10000 3.1 310 23:39 02.04.2020
5595 Clouds 20 1020 45 10000 3.1 310 23:19 02.04.2020
5596 Clouds 20 1020 45 10000 3.1 310 23:19 02.04.2020
5597 Clouds 21 1021 40 10000 3.1 320 22:43 02.04.2020
5598 Clouds 21 1021 40 10000 3.1 320 22:25 02.04.2020
5599 Clouds 20 1022 42 10000 2.6 290 21:59 02.04.2020
5600 Clouds 20 1022 42 10000 2.6 290 21:38 02.04.2020
5601 Clear 20 1022 42 10000 2.6 290 21:19 02.04.2020
5602 Clear 19 1021 27 0 1.3 233 20:55 02.04.2020
5603 Clear 19 1021 27 0 1.3 233 20:37 02.04.2020
5604 Clear 16 1025 55 10000 2.6 320 20:18 02.04.2020
5605 Clear 16 1025 55 10000 2.6 320 19:42 02.04.2020
5606 Clear 16 1025 55 10000 2.6 320 19:20 02.04.2020
5607 Clear 14 1026 58 10000 1 0 18:56 02.04.2020
5608 Clear 14 1026 58 10000 1 0 18:38 02.04.2020
5609 Clear 14 1026 58 10000 1 0 18:19 02.04.2020
5610 Clear 11 1027 66 10000 0.49 251 17:43 02.04.2020
5611 Clear 11 1027 66 10000 0.49 251 17:24 02.04.2020
5612 Clear 8 1028 81 10000 1.5 0 16:58 02.04.2020
5613 Clear 8 1028 81 10000 1.5 0 16:40 02.04.2020
5614 Clear 8 1028 81 10000 1.5 0 16:22 02.04.2020
5615 Fog 5 1029 100 10000 0.49 251 15:57 02.04.2020
5616 Fog 5 1029 100 10000 0.49 251 15:39 02.04.2020
5617 Fog 5 1029 100 10000 1.15 279 15:19 02.04.2020
5618 Fog 3 1029 100 500 1.5 80 14:57 02.04.2020
5619 Fog 3 1029 100 500 1.5 80 14:38 02.04.2020
5620 Fog 3 1029 100 500 1.5 80 14:18 02.04.2020
5621 Clear 3 1029 100 10000 1.5 130 13:54 02.04.2020
5622 Clear 3 1029 100 10000 1.5 130 13:54 02.04.2020
5623 Clear 3 1029 100 10000 1.5 130 13:36 02.04.2020
5624 Clear 3 1029 100 10000 1.5 130 13:18 02.04.2020
5625 Fog 3 1029 100 400 1.1 281 12:44 02.04.2020
5626 Fog 3 1029 100 400 1.36 281 12:19 02.04.2020
5627 Clear 4 1029 93 10000 2.1 300 11:57 02.04.2020
5628 Clear 4 1029 93 10000 2.1 300 11:39 02.04.2020
5629 Clear 4 1029 93 10000 2.1 300 11:20 02.04.2020
5630 Clear 4 1029 100 10000 2.1 280 10:56 02.04.2020
5631 Clear 4 1029 100 10000 2.1 280 10:38 02.04.2020
5632 Clear 4 1029 100 10000 2.1 280 10:19 02.04.2020
5633 Clear 4 1029 100 10000 1.5 310 09:58 02.04.2020
5634 Clear 4 1029 100 10000 1.5 310 09:58 02.04.2020
5635 Clear 4 1029 100 10000 1.5 310 09:39 02.04.2020
5636 Clear 4 1029 100 10000 1.5 310 09:19 02.04.2020
5637 Clear 4 1029 100 10000 1.5 290 08:47 02.04.2020
5638 Clear 4 1029 100 10000 1.5 290 08:27 02.04.2020
5639 Clear 6 1029 87 10000 1 0 07:45 02.04.2020
5640 Clear 6 1029 87 10000 1 0 07:21 02.04.2020
5641 Clear 6 1029 87 10000 1.5 290 06:59 02.04.2020
5642 Clear 6 1029 87 10000 1.5 290 06:22 02.04.2020
5643 Clear 7 1029 87 10000 2.1 290 05:45 02.04.2020
5644 Clear 9 1030 81 10000 2.6 290 04:46 02.04.2020
5645 Clear 11 1028 71 10000 2.1 320 01:54 02.04.2020
5646 Clear 14 1027 58 10000 3.1 320 00:51 02.04.2020
5647 Clear 14 1027 58 10000 3.1 320 00:29 02.04.2020
5648 Clear 17 1027 42 10000 4.1 320 23:57 01.04.2020
5649 Clear 17 1027 42 10000 4.1 320 23:37 01.04.2020
5650 Clear 17 1027 42 10000 4.1 320 23:18 01.04.2020
5651 Clear 18 1026 39 10000 4.1 0 22:41 01.04.2020
5652 Clear 18 1026 39 10000 4.1 0 22:22 01.04.2020
5653 Clear 17 1026 42 10000 2.6 0 21:57 01.04.2020
5654 Clear 17 1026 42 10000 2.6 0 21:39 01.04.2020
5655 Clear 17 1026 42 10000 2.6 0 21:18 01.04.2020
5656 Clear 17 1026 48 10000 3.6 300 20:55 01.04.2020
5657 Clear 17 1026 48 10000 3.6 300 20:55 01.04.2020
5658 Clear 17 1026 48 10000 3.6 300 20:37 01.04.2020
5659 Clear 17 1026 48 10000 3.6 300 20:18 01.04.2020
5660 Clouds 17 1027 45 10000 3.1 310 19:43 01.04.2020
5661 Clouds 17 1027 45 10000 3.1 310 19:22 01.04.2020
5662 Clouds 14 1027 54 10000 2.1 330 18:59 01.04.2020
5663 Clouds 14 1027 54 10000 2.1 330 18:40 01.04.2020
5664 Clouds 14 1027 54 10000 2.1 330 18:21 01.04.2020
5665 Clear 13 1027 58 10000 2.6 300 17:55 01.04.2020
5666 Clear 13 1027 58 10000 2.6 300 17:36 01.04.2020
5667 Clear 13 1027 58 10000 2.6 300 17:18 01.04.2020
5668 Clouds 10 1027 71 10000 2.6 290 16:42 01.04.2020
5669 Clouds 10 1027 71 10000 2.6 290 16:42 01.04.2020
5670 Clouds 10 1027 71 10000 2.6 290 16:24 01.04.2020
5671 Clouds 9 1027 70 10000 2.1 280 15:58 01.04.2020
5672 Clouds 9 1027 70 10000 2.1 280 15:40 01.04.2020
5673 Clouds 9 1027 70 10000 2.1 280 15:21 01.04.2020
5674 Clouds 8 1026 75 10000 3.1 290 14:57 01.04.2020
5675 Clouds 8 1026 75 10000 3.1 290 14:57 01.04.2020
5676 Clouds 8 1026 75 10000 3.1 290 14:38 01.04.2020
5677 Clouds 8 1026 75 10000 3.1 290 14:19 01.04.2020
5678 Clouds 8 1026 75 10000 3.1 290 14:19 01.04.2020
5679 Clouds 7 1025 81 10000 1.5 310 13:57 01.04.2020
5680 Clouds 7 1025 81 10000 1.5 310 13:37 01.04.2020
5681 Clouds 7 1025 81 10000 1.5 310 13:18 01.04.2020
5682 Clouds 8 1024 75 10000 2.1 280 12:54 01.04.2020
5683 Clouds 8 1024 75 10000 2.1 280 12:36 01.04.2020
5684 Clouds 8 1024 75 10000 2.1 280 12:18 01.04.2020
5685 Clouds 8 1024 75 10000 2.6 300 11:40 01.04.2020
5686 Clouds 8 1024 75 10000 2.6 300 11:21 01.04.2020
5687 Clouds 7 1024 75 10000 1.94 265 10:57 01.04.2020
5688 Clouds 7 1024 75 10000 1.94 265 10:37 01.04.2020
5689 Clouds 7 1024 75 10000 1.94 265 10:18 01.04.2020
5690 Clouds 7 1024 75 10000 3.1 310 09:54 01.04.2020
5691 Clouds 7 1024 75 10000 3.1 310 09:36 01.04.2020
5692 Clouds 7 1024 75 10000 3.1 310 09:18 01.04.2020
5693 Clouds 8 1023 70 10000 2.6 300 08:40 01.04.2020
5694 Clouds 8 1023 70 10000 2.6 300 08:40 01.04.2020
5695 Clouds 8 1023 70 10000 2.6 300 08:18 01.04.2020
5696 Clouds 8 1023 65 10000 1 0 07:42 01.04.2020
5697 Clouds 8 1023 65 10000 1 0 07:20 01.04.2020
5698 Clouds 10 1023 53 10000 2.1 250 06:47 01.04.2020
5699 Clouds 10 1023 53 10000 2.1 250 06:22 01.04.2020
5700 Clouds 11 1022 50 10000 3.1 240 05:53 01.04.2020
5701 Clouds 11 1022 53 10000 3.6 270 04:30 01.04.2020
5702 Clouds 11 1021 57 10000 5.1 280 03:27 01.04.2020
5703 Clear 12 1020 54 10000 5.1 270 02:46 01.04.2020
5704 Clear 13 1019 50 10000 6.7 280 01:54 01.04.2020
5705 Clear 13 1019 50 10000 6.7 280 01:29 01.04.2020
5706 Clear 15 1018 44 10000 7.2 280 00:48 01.04.2020
5707 Clear 15 1018 44 10000 7.2 280 00:25 01.04.2020
5708 Clear 18 1017 42 10000 5.7 280 23:59 31.03.2020
5709 Clear 18 1017 42 10000 5.7 280 23:41 31.03.2020
5710 Clear 18 1017 42 10000 5.7 280 23:22 31.03.2020
5711 Clear 18 1017 42 10000 5.7 280 23:22 31.03.2020
5712 Clear 19 1016 39 10000 4.6 270 22:42 31.03.2020
5713 Clear 19 1016 39 10000 4.6 270 22:22 31.03.2020
5714 Clear 19 1016 39 10000 2.6 0 21:59 31.03.2020
5715 Clear 19 1016 39 10000 2.6 0 21:40 31.03.2020
5716 Clear 19 1016 39 10000 2.6 0 21:40 31.03.2020
5717 Clear 19 1016 39 10000 2.6 0 21:21 31.03.2020
5718 Clear 17 1017 51 10000 4.1 320 20:58 31.03.2020
5719 Clear 17 1017 51 10000 4.1 320 20:38 31.03.2020
5720 Clear 17 1017 51 10000 4.1 320 20:19 31.03.2020
5721 Clear 15 1017 51 10000 3.6 330 19:57 31.03.2020
5722 Clear 15 1017 51 10000 3.6 330 19:38 31.03.2020
5723 Clear 15 1017 51 10000 3.6 330 19:19 31.03.2020
5724 Clear 13 1018 58 10000 2.6 310 18:44 31.03.2020
5725 Clear 13 1018 58 10000 2.6 310 18:21 31.03.2020
5726 Clear 14 1017 30 0 0.87 240 17:57 31.03.2020
5727 Clear 14 1017 30 0 0.87 240 17:57 31.03.2020
5728 Clear 14 1017 30 0 0.87 240 17:39 31.03.2020
5729 Clear 14 1017 30 0 0.87 240 17:39 31.03.2020
5730 Clear 6 1020 87 10000 1 0 17:21 31.03.2020
5731 Clear 6 1020 87 10000 1 0 16:56 31.03.2020
5732 Clear 6 1020 87 10000 1 0 16:36 31.03.2020
5733 Clear 6 1020 87 10000 1 0 16:18 31.03.2020
5734 Clouds 3 1020 100 10000 0.5 0 15:55 31.03.2020
5735 Clouds 3 1020 100 10000 0.5 0 15:36 31.03.2020
5736 Clouds 3 1020 100 10000 0.5 0 15:18 31.03.2020
5737 Fog 1 1020 100 800 1 0 14:42 31.03.2020
5738 Fog 1 1020 100 800 1 0 14:22 31.03.2020
5739 Fog 1 1020 100 450 1 0 13:58 31.03.2020
5740 Fog 1 1020 100 450 1 0 13:40 31.03.2020
5741 Fog 1 1020 100 450 1 0 13:19 31.03.2020
5742 Fog 1 1020 100 450 1 0 13:19 31.03.2020
5743 Mist 1 1020 100 2000 1.26 284 12:45 31.03.2020
5744 Mist 1 1020 100 2000 1.26 284 12:20 31.03.2020
5745 Fog 1 1020 100 400 1.1 273 11:56 31.03.2020
5746 Fog 1 1020 100 400 1.1 273 11:37 31.03.2020
5747 Fog 1 1020 100 400 1.1 273 11:19 31.03.2020
5748 Fog 2 1020 93 600 1.1 273 10:55 31.03.2020
5749 Fog 2 1020 93 600 1.1 273 10:37 31.03.2020
5750 Fog 2 1020 93 600 1.1 273 10:18 31.03.2020
5751 Fog 2 1020 93 600 1.1 273 10:18 31.03.2020
5752 Mist 2 1021 100 3000 1.1 273 09:43 31.03.2020
5753 Mist 2 1021 100 3000 0.99 271 09:25 31.03.2020
5754 Clear 2 1021 100 10000 0.5 0 08:58 31.03.2020
5755 Clear 2 1021 100 10000 0.5 0 08:39 31.03.2020
5756 Clear 2 1021 100 10000 0.5 0 08:20 31.03.2020
5757 Clear 3 1022 100 10000 1.07 278 07:56 31.03.2020
5758 Clear 3 1022 100 10000 1.07 278 07:38 31.03.2020
5759 Clear 3 1022 100 10000 1.07 278 07:19 31.03.2020
5760 Clear 4 1022 93 10000 1 0 06:47 31.03.2020
5761 Clear 4 1022 93 10000 1 0 06:23 31.03.2020
5762 Clear 5 1022 86 10000 1.15 264 05:39 31.03.2020
5763 Clear 7 1022 81 10000 2.1 290 03:43 31.03.2020
5764 Clear 7 1022 81 10000 0.73 274 02:19 31.03.2020
5765 Clear 10 1022 71 10000 1 0 01:45 31.03.2020
5766 Clear 15 1021 47 10000 2.1 300 00:49 31.03.2020
5767 Clear 15 1021 47 10000 2.1 300 00:25 31.03.2020
5768 Clear 17 1021 45 10000 2.1 340 23:57 30.03.2020
5769 Clear 17 1021 45 10000 2.1 340 23:37 30.03.2020
5770 Clear 17 1021 45 10000 2.1 340 23:18 30.03.2020
5771 Clear 18 1022 34 10000 1 0 22:55 30.03.2020
5772 Clear 18 1022 34 10000 1 0 22:36 30.03.2020
5773 Clear 18 1022 34 10000 1 0 22:18 30.03.2020
5774 Clear 17 1023 36 10000 1.5 300 21:54 30.03.2020
5775 Clear 17 1023 36 10000 1.5 300 21:36 30.03.2020
5776 Clear 17 1023 36 10000 1.5 300 21:36 30.03.2020
5777 Clear 17 1023 36 10000 1.5 300 21:18 30.03.2020
5778 Clear 16 1024 41 10000 2.1 310 20:40 30.03.2020
5779 Clear 16 1024 41 10000 2.1 310 20:22 30.03.2020
5780 Clear 14 1024 50 10000 2.6 150 19:58 30.03.2020
5781 Clear 14 1024 50 10000 2.6 150 19:39 30.03.2020
5782 Clear 14 1024 50 10000 2.6 150 19:21 30.03.2020
5783 Clear 12 1025 62 10000 1 0 18:56 30.03.2020
5784 Clear 12 1025 62 10000 1 0 18:36 30.03.2020
5785 Clear 12 1025 62 10000 1 0 18:18 30.03.2020
5786 Clear 9 1026 66 10000 1.5 0 17:55 30.03.2020
5787 Clear 9 1026 66 10000 1.5 0 17:36 30.03.2020
5788 Clear 9 1026 66 10000 1.5 0 17:18 30.03.2020
5789 Clear 5 1027 93 10000 2.6 120 16:41 30.03.2020
5790 Clear 5 1027 93 10000 2.6 120 16:21 30.03.2020
5791 Clear 5 1027 93 10000 2.6 120 16:21 30.03.2020
5792 Fog 2 1027 100 300 1.5 110 15:56 30.03.2020
5793 Fog 2 1027 100 300 1.5 110 15:38 30.03.2020
5794 Fog 2 1027 100 300 1.5 110 15:20 30.03.2020
5795 Fog 1 1027 100 50 1 0 14:58 30.03.2020
5796 Fog 1 1027 100 50 1 0 14:37 30.03.2020
5797 Fog 1 1027 100 50 1 0 14:18 30.03.2020
5798 Mist 1 1026 100 700 0.82 261 13:57 30.03.2020
5799 Mist 1 1026 100 700 0.82 261 13:38 30.03.2020
5800 Mist 1 1026 100 700 0.82 261 13:19 30.03.2020
5801 Mist 1 1026 100 1300 0.5 0 12:44 30.03.2020
5802 Mist 1 1026 100 1300 0.5 0 12:21 30.03.2020
5803 Mist 1 1026 100 1300 0.5 0 12:21 30.03.2020
5804 Clear 1 1026 100 10000 1 280 11:57 30.03.2020
5805 Clear 1 1026 100 10000 1 280 11:39 30.03.2020
5806 Clear 1 1026 100 10000 1 280 11:21 30.03.2020
5807 Clear 2 1026 100 10000 1.5 280 10:41 30.03.2020
5808 Clear 2 1026 100 10000 1.5 280 10:23 30.03.2020
5809 Clear 2 1026 100 10000 1 310 09:59 30.03.2020
5810 Clear 2 1026 100 10000 1 310 09:40 30.03.2020
5811 Clear 2 1026 100 10000 1 310 09:19 30.03.2020
5812 Clear 3 1026 93 10000 1.5 300 08:44 30.03.2020
5813 Clear 3 1026 93 10000 1.5 300 08:23 30.03.2020
5814 Clear 4 1026 93 10000 2.6 290 07:55 30.03.2020
5815 Clear 4 1026 93 10000 2.6 290 07:37 30.03.2020
5816 Clear 4 1026 93 10000 1.55 264 06:59 30.03.2020
5817 Clear 4 1026 93 10000 1.55 264 06:33 30.03.2020
5818 Clear 5 1026 93 10000 2.6 290 05:59 30.03.2020
5819 Clear 5 1026 93 10000 2.6 290 05:34 30.03.2020
5820 Clear 6 1025 87 10000 0.5 0 04:26 30.03.2020
5821 Clear 8 1025 81 10000 2.1 300 03:44 30.03.2020
5822 Clear 9 1024 76 10000 2.6 300 02:42 30.03.2020
5823 Clear 11 1023 62 10000 2.6 290 01:48 30.03.2020
5824 Clear 12 1023 58 10000 4.1 310 00:55 30.03.2020
5825 Clear 12 1023 58 10000 4.1 310 00:24 30.03.2020
5826 Clear 15 1022 44 10000 4.6 300 23:43 29.03.2020
5827 Clear 15 1022 44 10000 4.6 300 23:24 29.03.2020
5828 Clear 15 1021 44 10000 4.1 0 22:59 29.03.2020
5829 Clear 15 1021 44 10000 4.1 0 22:39 29.03.2020
5830 Clear 15 1021 44 10000 4.1 0 22:19 29.03.2020
5831 Clear 14 1021 44 10000 2.1 330 21:57 29.03.2020
5832 Clear 14 1021 44 10000 2.1 330 21:36 29.03.2020
5833 Clear 14 1021 44 10000 2.1 330 21:36 29.03.2020
5834 Clear 14 1021 44 10000 2.1 330 21:18 29.03.2020
5835 Clear 15 1021 47 10000 3.1 0 20:55 29.03.2020
5836 Clear 15 1021 47 10000 3.1 0 20:36 29.03.2020
5837 Clear 15 1021 47 10000 3.1 0 20:18 29.03.2020
5838 Clear 15 1021 47 10000 3.1 0 20:18 29.03.2020
5839 Clear 14 1022 47 10000 3.1 0 19:42 29.03.2020
5840 Clear 14 1022 47 10000 3.1 0 19:42 29.03.2020
5841 Clear 14 1022 47 10000 3.1 0 19:24 29.03.2020
5842 Clear 13 1022 58 10000 2.6 340 18:58 29.03.2020
5843 Clear 13 1022 58 10000 2.6 340 18:40 29.03.2020
5844 Clear 13 1022 58 10000 2.6 340 18:20 29.03.2020
5845 Clear 13 1022 58 10000 2.6 340 18:20 29.03.2020
5846 Clear 10 1023 76 10000 2.1 300 17:58 29.03.2020
5847 Clear 10 1023 76 10000 2.1 300 17:40 29.03.2020
5848 Clear 10 1023 76 10000 2.1 300 17:20 29.03.2020
5849 Clear 8 1023 81 10000 1 0 16:58 29.03.2020
5850 Clear 8 1023 81 10000 1 0 16:39 29.03.2020
5851 Clear 8 1023 81 10000 1 0 16:39 29.03.2020
5852 Clear 8 1023 81 10000 1 0 16:20 29.03.2020
5853 Clear 5 1023 93 10000 1.5 90 15:43 29.03.2020
5854 Clear 5 1023 93 10000 1.5 90 15:25 29.03.2020
5855 Clear 5 1023 93 10000 1 0 14:59 29.03.2020
5856 Clear 5 1023 93 10000 1 0 14:40 29.03.2020
5857 Clear 5 1023 93 10000 1 0 14:21 29.03.2020
5858 Clear 5 1022 93 10000 1 0 13:59 29.03.2020
5859 Clear 5 1022 93 10000 1 0 13:41 29.03.2020
5860 Clear 5 1022 93 10000 1 0 13:21 29.03.2020
5861 Clear 5 1021 100 10000 1 0 12:57 29.03.2020
5862 Clear 5 1021 100 10000 1 0 12:38 29.03.2020
5863 Clear 5 1021 100 10000 1 0 12:19 29.03.2020
5864 Rain 5 1021 100 10000 0.5 0 11:55 29.03.2020
5865 Rain 5 1021 100 10000 0.5 0 11:37 29.03.2020
5866 Rain 5 1021 100 10000 0.5 0 11:19 29.03.2020
5867 Clear 5 1021 100 10000 1 0 10:38 29.03.2020
5868 Clear 5 1021 100 10000 1 0 10:19 29.03.2020
5869 Clear 5 1021 100 10000 1.5 0 09:41 29.03.2020
5870 Clear 5 1021 100 10000 1.5 0 09:23 29.03.2020
5871 Clear 5 1021 93 10000 0.5 0 08:57 29.03.2020
5872 Clear 5 1021 93 10000 0.5 0 08:39 29.03.2020
5873 Clear 5 1021 93 10000 0.5 0 08:20 29.03.2020
5874 Clear 6 1021 87 10000 0.5 0 07:44 29.03.2020
5875 Clear 6 1021 87 10000 0.5 0 07:21 29.03.2020
5876 Clear 9 1020 76 10000 1.5 280 05:58 29.03.2020
5877 Clear 9 1020 76 10000 1.5 300 04:55 29.03.2020
5878 Clear 10 1019 71 10000 1 0 03:33 29.03.2020
5879 Clear 11 1019 66 10000 1 0 01:52 29.03.2020
5880 Clear 11 1019 66 10000 1 0 01:24 29.03.2020
5881 Clear 12 1018 62 10000 4.1 270 00:58 29.03.2020
5882 Clear 12 1018 62 10000 4.1 270 00:33 29.03.2020
5883 Clear 12 1017 62 10000 4.6 260 23:57 28.03.2020
5884 Clear 12 1017 62 10000 4.6 260 23:39 28.03.2020
5885 Clear 12 1017 62 10000 4.6 260 23:20 28.03.2020
5886 Rain 12 1017 62 10000 8.2 300 22:41 28.03.2020
5887 Rain 12 1017 62 10000 8.2 300 22:22 28.03.2020
5888 Clouds 15 1015 44 10000 5.7 280 21:56 28.03.2020
5889 Clouds 15 1015 44 10000 5.7 280 21:38 28.03.2020
5890 Clouds 15 1015 44 10000 5.7 280 21:19 28.03.2020
5891 Clouds 16 1015 41 10000 6.2 290 20:42 28.03.2020
5892 Clouds 16 1015 41 10000 6.2 290 20:24 28.03.2020
5893 Rain 15 1016 51 10000 3.1 0 19:58 28.03.2020
5894 Rain 15 1016 51 10000 3.1 0 19:39 28.03.2020
5895 Rain 15 1016 51 10000 3.1 0 19:21 28.03.2020
5896 Rain 12 1016 66 10000 2.1 0 18:59 28.03.2020
5897 Rain 12 1016 66 10000 2.1 0 18:39 28.03.2020
5898 Rain 12 1016 66 10000 2.1 0 18:20 28.03.2020
5899 Rain 12 1016 66 10000 3.6 300 17:39 28.03.2020
5900 Rain 12 1016 66 10000 3.6 300 17:39 28.03.2020
5901 Rain 12 1016 66 10000 3.6 300 17:21 28.03.2020
5902 Clouds 11 1016 76 10000 3.1 280 16:55 28.03.2020
5903 Clouds 11 1016 76 10000 3.1 280 16:37 28.03.2020
5904 Clouds 11 1016 76 10000 3.1 280 16:37 28.03.2020
5905 Clouds 11 1016 76 10000 3.1 280 16:18 28.03.2020
5906 Clouds 10 1015 81 10000 3.1 290 15:39 28.03.2020
5907 Clouds 10 1015 81 10000 3.1 290 15:19 28.03.2020
5908 Clouds 8 1015 93 10000 2.6 280 14:56 28.03.2020
5909 Clouds 8 1015 93 10000 2.6 280 14:38 28.03.2020
5910 Clouds 8 1015 93 10000 2.6 280 14:20 28.03.2020
5911 Clouds 8 1014 87 10000 1.5 260 13:40 28.03.2020
5912 Clouds 8 1014 87 10000 1.5 260 13:21 28.03.2020
5913 Clouds 7 1014 93 10000 2.1 270 12:40 28.03.2020
5914 Clouds 7 1014 93 10000 2.1 270 12:22 28.03.2020
5915 Clouds 7 1013 93 10000 2.1 310 11:43 28.03.2020
5916 Clouds 7 1013 93 10000 2.1 310 11:23 28.03.2020
5917 Clouds 7 1013 93 10000 1 0 10:57 28.03.2020
5918 Clouds 7 1013 93 10000 1 0 10:38 28.03.2020
5919 Clouds 7 1013 93 10000 1 0 10:18 28.03.2020
5920 Clouds 7 1013 93 10000 2.1 280 09:42 28.03.2020
5921 Clouds 7 1013 93 10000 2.1 280 09:23 28.03.2020
5922 Clouds 7 1013 93 10000 2.1 300 08:47 28.03.2020
5923 Clouds 7 1013 93 10000 2.1 300 08:28 28.03.2020
5924 Rain 6 1013 93 10000 1 0 07:59 28.03.2020
5925 Rain 6 1013 93 10000 1 0 07:41 28.03.2020
5926 Rain 7 1013 93 10000 1 0 06:56 28.03.2020
5927 Rain 7 1013 93 10000 1 0 06:33 28.03.2020
5928 Rain 7 1013 93 10000 1 0 05:41 28.03.2020
5929 Rain 7 1013 93 10000 1 0 05:19 28.03.2020
5930 Rain 8 1013 93 10000 2.6 270 04:40 28.03.2020
5931 Rain 13 1012 62 10000 3.1 0 02:55 28.03.2020
5932 Rain 13 1011 71 10000 5.1 270 01:48 28.03.2020
5933 Rain 13 1011 71 10000 5.1 270 01:24 28.03.2020
5934 Rain 14 1010 71 10000 3.1 0 00:54 28.03.2020
5935 Rain 14 1010 71 10000 3.1 0 00:33 28.03.2020
5936 Rain 14 1008 82 10000 2.6 290 23:45 27.03.2020
5937 Rain 14 1008 82 10000 2.6 290 23:26 27.03.2020
5938 Rain 14 1008 82 10000 2.6 290 23:26 27.03.2020
5939 Rain 15 1007 77 10000 3.6 290 22:58 27.03.2020
5940 Rain 15 1007 77 10000 3.6 290 22:39 27.03.2020
5941 Rain 15 1007 77 10000 3.6 290 22:21 27.03.2020
5942 Rain 16 1008 63 10000 4.6 260 21:59 27.03.2020
5943 Rain 16 1008 63 10000 4.6 260 21:40 27.03.2020
5944 Rain 16 1008 63 10000 4.6 260 21:22 27.03.2020
5945 Rain 17 1008 55 10000 4.6 260 20:57 27.03.2020
5946 Rain 17 1008 55 10000 4.6 260 20:39 27.03.2020
5947 Rain 17 1008 55 10000 4.6 260 20:19 27.03.2020
5948 Rain 17 1008 55 10000 3.6 0 19:55 27.03.2020
5949 Rain 17 1008 55 10000 3.6 0 19:36 27.03.2020
5950 Rain 17 1008 55 10000 3.6 0 19:18 27.03.2020
5951 Rain 17 1009 55 10000 5.1 260 18:42 27.03.2020
5952 Rain 17 1009 55 10000 5.1 260 18:23 27.03.2020
5953 Clouds 17 1009 55 10000 5.1 270 17:54 27.03.2020
5954 Clouds 17 1009 55 10000 5.1 270 17:36 27.03.2020
5955 Clouds 17 1009 55 10000 5.1 270 17:18 27.03.2020
5956 Rain 17 1009 51 10000 5.1 260 16:42 27.03.2020
5957 Rain 17 1009 51 10000 5.1 260 16:23 27.03.2020
5958 Clouds 17 1009 48 10000 5.1 280 15:43 27.03.2020
5959 Clouds 16 1009 42 0 3.32 290 15:25 27.03.2020
5960 Clouds 16 1009 42 0 3.32 290 14:48 27.03.2020
5961 Clouds 16 1009 42 0 3.32 290 14:27 27.03.2020
5962 Clouds 11 1010 65 0 2.02 295 13:58 27.03.2020
5963 Clouds 11 1010 65 0 2.02 295 13:40 27.03.2020
5964 Clouds 10 1010 66 0 1.95 286 13:21 27.03.2020
5965 Clouds 10 1010 66 0 1.95 286 12:57 27.03.2020
5966 Clouds 10 1010 66 0 1.95 286 12:39 27.03.2020
5967 Clouds 10 1010 66 0 1.95 286 12:19 27.03.2020
5968 Clouds 10 1010 66 0 1.95 286 11:41 27.03.2020
5969 Clouds 10 1010 66 0 1.95 286 11:23 27.03.2020
5970 Clouds 9 1009 71 0 1.67 279 10:55 27.03.2020
5971 Clouds 9 1009 71 0 1.67 279 10:37 27.03.2020
5972 Clouds 9 1009 71 0 1.67 279 10:19 27.03.2020
5973 Clouds 9 1009 71 0 1.67 279 09:57 27.03.2020
5974 Clouds 9 1009 71 0 1.67 279 09:37 27.03.2020
5975 Clouds 9 1009 71 0 1.67 279 09:18 27.03.2020
5976 Clouds 9 1009 71 0 1.67 279 08:56 27.03.2020
5977 Clouds 9 1009 71 0 1.67 279 08:38 27.03.2020
5978 Clear 10 1009 67 0 1.87 276 08:20 27.03.2020
5979 Clear 10 1009 67 0 1.87 276 07:50 27.03.2020
5980 Clear 10 1009 67 0 1.87 276 07:24 27.03.2020
5981 Clear 10 1009 67 0 1.87 276 06:53 27.03.2020
5982 Clear 10 1009 67 0 1.87 276 06:35 27.03.2020
5983 Clear 12 1009 62 0 2.46 277 04:24 27.03.2020
5984 Clear 12 1009 62 0 2.46 277 02:32 27.03.2020
5985 Clear 15 1009 53 0 2.8 271 01:23 27.03.2020
5986 Clear 15 1009 52 0 2.53 270 00:48 27.03.2020
5987 Clear 15 1009 52 0 2.53 270 00:23 27.03.2020
5988 Clear 15 1009 52 0 2.53 270 23:43 26.03.2020
5989 Clear 15 1009 52 0 2.53 270 23:21 26.03.2020
5990 Clear 22 1007 25 0 4.07 274 22:58 26.03.2020
5991 Clear 22 1007 25 0 4.07 274 22:37 26.03.2020
5992 Clear 22 1007 25 0 4.07 274 22:19 26.03.2020
5993 Clear 22 1007 25 0 4.07 274 21:55 26.03.2020
5994 Clear 22 1007 25 0 4.07 274 21:37 26.03.2020
5995 Clear 22 1007 25 0 4.07 274 21:18 26.03.2020
5996 Clear 22 1007 25 0 4.07 274 20:41 26.03.2020
5997 Clear 22 1007 25 0 4.07 274 20:23 26.03.2020
5998 Clear 23 1009 23 0 2.49 260 19:58 26.03.2020
5999 Clear 23 1009 23 0 2.49 260 19:40 26.03.2020
6000 Clear 23 1009 23 0 2.49 260 19:22 26.03.2020
6001 Clear 23 1009 23 0 2.49 260 18:59 26.03.2020
6002 Clear 23 1009 23 0 2.49 260 18:41 26.03.2020
6003 Clear 23 1009 23 0 2.49 260 18:23 26.03.2020
6004 Clear 23 1009 23 0 2.49 260 17:45 26.03.2020
6005 Clear 23 1009 23 0 2.49 260 17:21 26.03.2020
6006 Clear 19 1012 32 0 0.81 251 16:59 26.03.2020
6007 Clear 19 1012 32 0 0.81 251 16:39 26.03.2020
6008 Clear 19 1012 32 0 0.81 251 16:21 26.03.2020
6009 Clear 19 1012 32 0 0.81 251 15:56 26.03.2020
6010 Clear 19 1012 32 0 0.81 251 15:38 26.03.2020
6011 Clear 19 1012 32 0 0.81 251 15:19 26.03.2020
6012 Clear 19 1012 32 0 0.81 251 14:43 26.03.2020
6013 Clear 19 1012 32 0 0.81 251 14:25 26.03.2020
6014 Clear 19 1012 32 0 0.81 251 14:25 26.03.2020
6015 Clear 11 1014 53 0 1.34 274 13:58 26.03.2020
6016 Clear 11 1014 53 0 1.34 274 13:40 26.03.2020
6017 Clear 11 1014 53 0 1.27 278 13:21 26.03.2020
6018 Clear 11 1014 53 0 1.27 278 12:39 26.03.2020
6019 Clear 11 1014 53 0 1.27 278 12:21 26.03.2020
6020 Clear 11 1014 53 0 1.27 278 11:55 26.03.2020
6021 Clear 11 1014 53 0 1.27 278 11:37 26.03.2020
6022 Clear 9 1014 61 0 1.32 286 11:18 26.03.2020
6023 Clear 9 1014 61 0 1.32 286 10:42 26.03.2020
6024 Clear 9 1014 61 0 1.32 286 10:20 26.03.2020
6025 Clear 9 1014 61 0 1.32 286 10:20 26.03.2020
6026 Clear 9 1014 61 0 1.32 286 09:46 26.03.2020
6027 Clear 9 1014 61 0 1.32 286 09:24 26.03.2020
6028 Clear 9 1014 61 0 1.32 286 08:58 26.03.2020
6029 Clear 9 1014 61 0 1.32 286 08:39 26.03.2020
6030 Clear 9 1014 61 0 1.32 286 08:20 26.03.2020
6031 Clear 11 1016 63 0 1.43 285 07:46 26.03.2020
6032 Clear 11 1016 63 0 1.43 285 07:24 26.03.2020
6033 Clear 11 1016 63 0 1.43 285 06:59 26.03.2020
6034 Clear 11 1016 63 0 1.43 285 06:32 26.03.2020
6035 Clear 11 1016 63 0 1.43 285 05:29 26.03.2020
6036 Clear 13 1018 62 0 1.82 287 03:45 26.03.2020
6037 Clear 13 1018 62 0 1.82 287 02:57 26.03.2020
6038 Clear 15 1018 53 0 1.92 274 01:51 26.03.2020
6039 Clear 15 1018 53 0 1.92 274 01:18 26.03.2020
6040 Clear 15 1018 53 0 1.98 276 00:23 26.03.2020
6041 Clear 15 1018 53 0 1.98 276 23:42 25.03.2020
6042 Clear 15 1018 53 0 1.98 276 23:22 25.03.2020
6043 Clear 22 1017 31 0 2.55 245 22:42 25.03.2020
6044 Clear 22 1017 31 0 2.55 245 22:22 25.03.2020
6045 Clear 22 1017 31 0 2.55 245 21:57 25.03.2020
6046 Clear 22 1017 31 0 2.55 245 21:38 25.03.2020
6047 Clear 22 1017 31 0 2.55 245 21:20 25.03.2020
6048 Clear 22 1017 31 0 2.55 245 20:56 25.03.2020
6049 Clear 22 1017 31 0 2.55 245 20:37 25.03.2020
6050 Clear 22 1019 29 0 0.83 258 20:18 25.03.2020
6051 Clear 22 1019 29 0 0.83 258 20:18 25.03.2020
6052 Clear 22 1018 28 0 0.86 249 19:43 25.03.2020
6053 Clear 22 1018 28 0 0.86 249 19:23 25.03.2020
6054 Clear 22 1018 28 0 0.86 249 18:59 25.03.2020
6055 Clear 22 1018 28 0 0.66 244 18:40 25.03.2020
6056 Clear 22 1018 28 0 0.86 249 18:22 25.03.2020
6057 Clear 22 1018 28 0 0.86 249 17:56 25.03.2020
6058 Clear 22 1018 28 0 0.86 249 17:38 25.03.2020
6059 Clear 22 1018 28 0 0.86 249 17:38 25.03.2020
6060 Clear 16 1021 39 0 0.36 77 17:20 25.03.2020
6061 Clear 16 1021 39 0 0.51 73 16:44 25.03.2020
6062 Clear 16 1021 39 0 0.36 77 16:26 25.03.2020
6063 Clear 16 1021 39 0 0.36 77 15:59 25.03.2020
6064 Clear 16 1021 39 0 0.36 77 15:41 25.03.2020
6065 Clear 16 1021 39 0 0.36 77 15:41 25.03.2020
6066 Clear 16 1021 39 0 0.36 77 15:20 25.03.2020
6067 Clear 16 1021 39 0 0.36 77 14:45 25.03.2020
6068 Clear 16 1021 39 0 0.36 77 14:22 25.03.2020
6069 Clear 10 1023 60 0 0.84 296 13:59 25.03.2020
6070 Clear 10 1023 60 0 0.84 296 13:41 25.03.2020
6071 Clear 9 1023 60 0 0.72 296 13:22 25.03.2020
6072 Clear 9 1023 60 0 0.72 296 12:38 25.03.2020
6073 Clear 10 1023 60 0 0.84 296 12:19 25.03.2020
6074 Clear 9 1023 60 0 0.72 296 11:55 25.03.2020
6075 Clear 9 1023 60 0 0.72 296 11:36 25.03.2020
6076 Clear 7 1022 69 0 1.37 269 11:18 25.03.2020
6077 Clear 7 1022 69 0 1.37 269 10:56 25.03.2020
6078 Clear 7 1022 69 0 1.37 269 10:37 25.03.2020
6079 Clear 7 1022 69 0 1.37 269 10:18 25.03.2020
6080 Clear 7 1022 69 0 1.37 269 09:42 25.03.2020
6081 Clear 7 1022 69 0 1.37 269 09:23 25.03.2020
6082 Clear 7 1022 69 0 1.37 269 08:56 25.03.2020
6083 Clear 7 1022 69 0 1.37 269 08:38 25.03.2020
6084 Clear 9 1022 70 0 1.62 275 08:19 25.03.2020
6085 Clear 9 1022 68 0 1.52 273 07:41 25.03.2020
6086 Clear 9 1022 68 0 1.52 273 07:20 25.03.2020
6087 Clear 9 1022 68 0 1.52 273 06:47 25.03.2020
6088 Clear 9 1022 68 0 1.52 273 06:26 25.03.2020
6089 Clear 9 1022 68 0 1.52 273 05:53 25.03.2020
6090 Clear 11 1021 65 0 1.94 277 04:59 25.03.2020
6091 Clear 11 1021 65 0 1.94 277 04:39 25.03.2020
6092 Clear 11 1021 65 0 1.94 277 03:36 25.03.2020
6093 Clear 13 1019 56 0 2.52 269 01:58 25.03.2020
6094 Clear 13 1019 55 0 2.61 268 01:20 25.03.2020
6095 Clear 13 1019 55 0 2.61 268 00:47 25.03.2020
6096 Clear 13 1019 55 0 2.61 268 00:19 25.03.2020
6097 Clear 13 1019 55 0 2.61 268 23:44 24.03.2020
6098 Clear 13 1019 55 0 2.61 268 23:25 24.03.2020
6099 Clear 19 1016 33 0 3.99 266 22:55 24.03.2020
6100 Clear 19 1016 33 0 3.99 266 22:37 24.03.2020
6101 Clear 19 1016 33 0 3.99 266 22:19 24.03.2020
6102 Clear 19 1016 33 0 3.99 266 21:55 24.03.2020
6103 Clear 19 1016 33 0 3.99 266 21:36 24.03.2020
6104 Clear 19 1016 33 0 3.99 266 21:36 24.03.2020
6105 Clear 19 1016 33 0 3.99 266 21:18 24.03.2020
6106 Clear 19 1016 33 0 3.99 266 20:41 24.03.2020
6107 Clear 19 1016 35 0 3.83 268 20:23 24.03.2020
6108 Rain 18 1015 37 0 2.57 275 19:54 24.03.2020
6109 Rain 18 1015 37 0 2.57 275 19:36 24.03.2020
6110 Rain 18 1015 37 0 2.57 275 19:18 24.03.2020
6111 Rain 18 1015 37 0 2.57 275 18:54 24.03.2020
6112 Rain 18 1015 37 0 2.57 275 18:36 24.03.2020
6113 Rain 18 1015 37 0 2.57 275 18:18 24.03.2020
6114 Rain 18 1015 37 0 2.57 275 17:41 24.03.2020
6115 Rain 18 1015 37 0 2.57 275 17:22 24.03.2020
6116 Clouds 17 1015 63 10000 4.1 260 16:57 24.03.2020
6117 Clouds 17 1015 63 10000 4.1 260 16:39 24.03.2020
6118 Clouds 17 1015 63 10000 4.1 260 16:20 24.03.2020
6119 Clouds 16 1015 72 10000 3.6 0 15:44 24.03.2020
6120 Clouds 16 1015 72 10000 3.6 0 15:25 24.03.2020
6121 Clouds 15 1014 82 10000 2.6 300 14:59 24.03.2020
6122 Clouds 15 1014 82 10000 2.6 300 14:40 24.03.2020
6123 Clouds 11 1013 70 0 1.23 282 14:18 24.03.2020
6124 Clouds 11 1013 70 0 1.23 282 13:42 24.03.2020
6125 Clouds 11 1014 70 0 1.31 287 13:22 24.03.2020
6126 Clouds 11 1014 70 0 1.31 287 12:47 24.03.2020
6127 Clouds 11 1014 70 0 1.31 287 12:28 24.03.2020
6128 Clouds 11 1014 70 0 1.31 287 11:58 24.03.2020
6129 Clouds 11 1014 70 0 1.31 287 11:39 24.03.2020
6130 Clouds 13 1011 87 10000 2.6 300 11:19 24.03.2020
6131 Rain 13 1010 87 10000 2.1 0 10:42 24.03.2020
6132 Rain 13 1010 87 10000 2.1 0 10:19 24.03.2020
6133 Clouds 14 1010 87 10000 3.1 280 09:55 24.03.2020
6134 Clouds 14 1010 87 10000 3.1 280 09:37 24.03.2020
6135 Clouds 14 1010 87 10000 3.1 280 09:19 24.03.2020
6136 Rain 13 1009 93 10000 2.6 310 08:38 24.03.2020
6137 Rain 13 1009 93 10000 2.6 310 08:20 24.03.2020
6138 Clouds 13 1010 93 10000 2.6 280 07:47 24.03.2020
6139 Clouds 13 1010 93 10000 2.6 280 07:23 24.03.2020
6140 Clouds 13 1009 93 10000 3.1 310 06:50 24.03.2020
6141 Clouds 13 1009 93 10000 3.1 310 06:24 24.03.2020
6142 Clouds 13 1009 93 10000 2.6 280 04:57 24.03.2020
6143 Rain 13 1009 100 10000 2.1 280 03:46 24.03.2020
6144 Rain 13 1008 93 10000 2.1 280 02:45 24.03.2020
6145 Rain 13 1008 100 10000 2.1 0 01:38 24.03.2020
6146 Rain 14 1007 93 10000 2.6 290 00:42 24.03.2020
6147 Rain 14 1007 93 10000 2.6 290 00:22 24.03.2020
6148 Rain 15 1006 87 10000 1 0 23:39 23.03.2020
6149 Rain 15 1006 87 10000 1 0 23:20 23.03.2020
6150 Rain 15 1006 87 10000 1 0 22:45 23.03.2020
6151 Rain 15 1006 87 10000 1 0 22:24 23.03.2020
6152 Rain 15 1005 87 8000 1.5 350 21:57 23.03.2020
6153 Rain 15 1005 87 8000 1.5 350 21:38 23.03.2020
6154 Rain 15 1005 87 8000 1.5 350 21:20 23.03.2020
6155 Rain 16 1005 82 9000 1.5 0 20:56 23.03.2020
6156 Rain 16 1005 82 9000 1.5 0 20:38 23.03.2020
6157 Rain 16 1005 82 9000 1.5 0 20:19 23.03.2020
6158 Clouds 16 1005 82 10000 1 0 19:42 23.03.2020
6159 Clouds 16 1005 82 10000 1 0 19:23 23.03.2020
6160 Rain 15 1005 87 5000 1.5 310 18:56 23.03.2020
6161 Rain 15 1005 87 5000 1.5 310 18:38 23.03.2020
6162 Rain 15 1005 87 5000 1.5 310 18:19 23.03.2020
6163 Rain 14 1006 93 4000 2.1 290 17:42 23.03.2020
6164 Rain 14 1006 93 4000 2.1 290 17:20 23.03.2020
6165 Rain 13 1005 93 4000 1 0 16:56 23.03.2020
6166 Rain 13 1005 93 4000 1 0 16:37 23.03.2020
6167 Rain 13 1005 93 4000 1 0 16:18 23.03.2020
6168 Rain 11 1005 100 4000 1.5 130 15:41 23.03.2020
6169 Rain 11 1005 100 4000 1.5 130 15:19 23.03.2020
6170 Rain 11 1005 93 4000 1 0 14:38 23.03.2020
6171 Rain 11 1005 93 4000 1 0 14:19 23.03.2020
6172 Rain 10 1005 93 5000 2.52 324 13:57 23.03.2020
6173 Rain 10 1005 93 5000 2.52 324 13:39 23.03.2020
6174 Rain 10 1005 93 5000 2.52 324 13:20 23.03.2020
6175 Rain 10 1004 93 10000 2.1 130 12:44 23.03.2020
6176 Rain 10 1004 93 10000 2.1 130 12:25 23.03.2020
6177 Clouds 11 1004 81 10000 1.5 0 11:57 23.03.2020
6178 Clouds 11 1004 81 10000 1.5 0 11:38 23.03.2020
6179 Clouds 11 1004 81 10000 1.5 0 11:19 23.03.2020
6180 Clouds 10 1004 87 10000 1.5 100 10:56 23.03.2020
6181 Clouds 10 1004 87 10000 1.5 100 10:37 23.03.2020
6182 Clouds 10 1004 87 10000 1.5 100 10:19 23.03.2020
6183 Clouds 9 1005 93 10000 0.5 0 09:43 23.03.2020
6184 Clouds 9 1005 93 10000 0.5 0 09:21 23.03.2020
6185 Clouds 9 1006 87 10000 2.6 120 08:40 23.03.2020
6186 Clouds 9 1006 87 10000 2.6 120 08:20 23.03.2020
6187 Clouds 9 1006 87 10000 2.6 120 08:20 23.03.2020
6188 Clouds 9 1007 93 10000 1.5 100 07:58 23.03.2020
6189 Clouds 9 1007 93 10000 1.5 100 07:37 23.03.2020
6190 Clouds 9 1007 93 10000 1.5 100 07:18 23.03.2020
6191 Clouds 9 1008 93 10000 2.95 326 06:48 23.03.2020
6192 Clouds 10 1008 87 10000 2.6 300 05:45 23.03.2020
6193 Clouds 11 1009 87 10000 2.6 310 04:41 23.03.2020
6194 Clouds 11 1010 87 10000 2.1 270 03:23 23.03.2020
6195 Clouds 12 1010 81 10000 1.5 300 01:50 23.03.2020
6196 Clouds 14 1010 76 10000 2.1 280 00:50 23.03.2020
6197 Clouds 14 1010 76 10000 2.1 280 00:29 23.03.2020
6198 Clouds 16 1010 63 10000 2.6 330 23:44 22.03.2020
6199 Clouds 16 1010 63 10000 2.6 330 23:24 22.03.2020
6200 Clouds 16 1010 63 10000 5.1 300 22:42 22.03.2020
6201 Clouds 16 1010 63 10000 5.1 300 22:22 22.03.2020
6202 Clouds 17 1010 63 10000 3.1 320 21:54 22.03.2020
6203 Clouds 17 1010 63 10000 3.1 320 21:36 22.03.2020
6204 Clouds 17 1010 63 10000 3.1 320 21:18 22.03.2020
6205 Clouds 17 1010 59 10000 4.1 300 20:42 22.03.2020
6206 Clouds 17 1010 59 10000 4.1 300 20:24 22.03.2020
6207 Clouds 17 1011 59 10000 3.6 320 19:56 22.03.2020
6208 Clouds 17 1011 59 10000 3.6 320 19:38 22.03.2020
6209 Clouds 17 1011 59 10000 3.6 320 19:19 22.03.2020
6210 Clouds 17 1011 59 10000 2.1 330 18:57 22.03.2020
6211 Clouds 17 1011 59 10000 2.1 330 18:39 22.03.2020
6212 Clouds 17 1011 59 10000 2.1 330 18:20 22.03.2020
6213 Clouds 15 1012 67 10000 3.1 310 17:56 22.03.2020
6214 Clouds 15 1012 67 10000 3.1 310 17:37 22.03.2020
6215 Clouds 15 1012 67 10000 3.1 310 17:19 22.03.2020
6216 Clouds 15 1012 67 10000 2.1 340 16:55 22.03.2020
6217 Clouds 15 1012 67 10000 2.1 340 16:37 22.03.2020
6218 Clouds 15 1012 67 10000 2.1 340 16:19 22.03.2020
6219 Clouds 15 1012 67 10000 2.1 340 16:19 22.03.2020
6220 Clouds 15 1012 62 10000 1.5 290 15:39 22.03.2020
6221 Clouds 15 1012 62 10000 1.5 290 15:19 22.03.2020
6222 Clouds 15 1011 67 10000 2.1 290 14:46 22.03.2020
6223 Clouds 15 1011 67 10000 2.1 290 14:18 22.03.2020
6224 Clouds 14 1011 71 10000 0.5 0 13:41 22.03.2020
6225 Clouds 14 1011 71 10000 0.5 0 13:20 22.03.2020
6226 Clouds 15 1011 58 10000 3.1 300 12:47 22.03.2020
6227 Clouds 15 1011 58 10000 3.1 300 12:23 22.03.2020
6228 Clouds 15 1010 58 10000 2.6 260 11:59 22.03.2020
6229 Clouds 15 1010 58 10000 2.6 260 11:41 22.03.2020
6230 Clouds 15 1010 58 10000 2.6 260 11:23 22.03.2020
6231 Clouds 15 1010 58 10000 3.1 0 10:54 22.03.2020
6232 Clouds 15 1010 58 10000 3.1 0 10:36 22.03.2020
6233 Clouds 15 1010 58 10000 3.1 0 10:18 22.03.2020
6234 Clouds 13 1010 71 10000 1 0 09:41 22.03.2020
6235 Clouds 13 1010 71 10000 1 0 09:19 22.03.2020
6236 Clouds 15 1010 58 10000 3.1 0 08:43 22.03.2020
6237 Clouds 15 1010 58 10000 3.1 0 08:24 22.03.2020
6238 Rain 15 1010 58 10000 4.1 260 07:51 22.03.2020
6239 Rain 15 1010 58 10000 4.1 260 07:23 22.03.2020
6240 Rain 15 1010 58 10000 4.1 250 06:35 22.03.2020
6241 Rain 16 1009 55 10000 4.6 250 05:31 22.03.2020
6242 Clouds 16 1009 51 10000 4.1 260 03:25 22.03.2020
6243 Clouds 16 1008 55 10000 4.1 250 01:26 22.03.2020
6244 Clouds 16 1008 59 10000 5.1 250 00:47 22.03.2020
6245 Clouds 16 1008 59 10000 5.1 250 00:25 22.03.2020
6246 Clouds 16 1007 59 10000 3.6 240 23:42 21.03.2020
6247 Clouds 16 1007 59 10000 3.6 240 23:19 21.03.2020
6248 Clouds 17 1007 55 10000 4.1 270 22:39 21.03.2020
6249 Clouds 17 1007 55 10000 4.1 270 22:39 21.03.2020
6250 Clouds 17 1007 55 10000 4.1 270 22:21 21.03.2020
6251 Clouds 18 1007 52 10000 4.6 270 21:59 21.03.2020
6252 Clouds 18 1007 52 10000 4.6 270 21:41 21.03.2020
6253 Clouds 18 1007 52 10000 4.6 270 21:22 21.03.2020
6254 Clouds 18 1007 52 10000 4.6 270 21:22 21.03.2020
6255 Clouds 18 1006 48 10000 6.7 270 20:56 21.03.2020
6256 Clouds 18 1006 48 10000 6.7 270 20:38 21.03.2020
6257 Rain 18 1006 48 10000 6.7 270 20:18 21.03.2020
6258 Clouds 18 1006 48 10000 5.7 260 19:43 21.03.2020
6259 Clouds 18 1006 48 10000 5.7 260 19:23 21.03.2020
6260 Clouds 17 1006 51 10000 4.1 270 18:55 21.03.2020
6261 Clouds 17 1006 51 10000 4.1 270 18:55 21.03.2020
6262 Clouds 17 1006 51 10000 4.1 270 18:37 21.03.2020
6263 Clouds 17 1006 51 10000 4.1 270 18:19 21.03.2020
6264 Clouds 17 1006 51 10000 4.6 260 17:43 21.03.2020
6265 Clouds 17 1006 51 10000 4.6 260 17:24 21.03.2020
6266 Rain 18 1006 48 10000 3.6 250 16:57 21.03.2020
6267 Rain 18 1006 48 10000 3.6 250 16:39 21.03.2020
6268 Rain 18 1006 48 10000 3.6 250 16:19 21.03.2020
6269 Rain 18 1006 48 10000 3.6 0 15:43 21.03.2020
6270 Rain 18 1006 48 10000 3.6 0 15:23 21.03.2020
6271 Rain 17 1006 48 10000 5.7 260 14:59 21.03.2020
6272 Rain 17 1006 48 10000 5.7 260 14:40 21.03.2020
6273 Rain 17 1006 48 10000 5.7 260 14:20 21.03.2020
6274 -273 0 0 0 0 0 14:20 21.03.2020
6275 Clouds 17 1006 51 10000 2.6 0 13:59 21.03.2020
6276 Clouds 17 1006 51 10000 2.6 0 13:40 21.03.2020
6277 Clouds 17 1006 51 10000 2.6 0 13:22 21.03.2020
6278 Clouds 17 1005 51 10000 1.5 0 12:59 21.03.2020
6279 Clouds 17 1005 51 10000 1.5 0 12:38 21.03.2020
6280 Clouds 17 1005 51 10000 1.5 0 12:19 21.03.2020
6281 Clouds 17 1005 51 10000 1.5 0 12:19 21.03.2020
6282 Clouds 14 1005 71 10000 1.5 0 11:56 21.03.2020
6283 Clouds 14 1005 71 10000 1.5 0 11:38 21.03.2020
6284 Clouds 14 1005 71 10000 1.5 0 11:19 21.03.2020
6285 Clouds 15 1005 72 10000 2.6 280 10:56 21.03.2020
6286 Clouds 15 1005 72 10000 2.6 280 10:38 21.03.2020
6287 Clouds 15 1005 72 10000 2.6 280 10:19 21.03.2020
6288 Clouds 14 1005 76 10000 2.1 0 09:55 21.03.2020
6289 Clouds 14 1005 76 10000 2.1 0 09:36 21.03.2020
6290 Clouds 14 1005 76 10000 2.1 0 09:18 21.03.2020
6291 Clouds 15 1005 72 10000 2.1 290 08:42 21.03.2020
6292 Clouds 15 1005 72 10000 2.1 290 08:23 21.03.2020
6293 Clouds 15 1006 77 10000 2.1 0 07:42 21.03.2020
6294 Clouds 15 1006 77 10000 2.1 0 07:23 21.03.2020
6295 Clouds 14 1006 82 10000 2.6 290 06:46 21.03.2020
6296 Clouds 14 1006 82 10000 2.6 290 06:27 21.03.2020
6297 Clouds 14 1007 87 10000 2.6 290 05:46 21.03.2020
6298 Clouds 13 1007 87 10000 2.27 298 04:42 21.03.2020
6299 Clouds 15 1007 77 10000 2.1 290 02:40 21.03.2020
6300 Clouds 15 1007 77 10000 2.1 290 02:18 21.03.2020
6301 Clouds 16 1007 72 10000 2.6 280 01:31 21.03.2020
6302 Clouds 18 1007 63 10000 1.5 270 00:47 21.03.2020
6303 Clouds 18 1007 63 10000 1.5 270 00:25 21.03.2020
6304 Clouds 21 1007 49 10000 3.6 300 23:48 20.03.2020
6305 Clouds 21 1007 49 10000 3.6 300 23:24 20.03.2020
6306 Clouds 22 1008 49 10000 3.6 310 22:55 20.03.2020
6307 Clouds 22 1008 49 10000 3.6 310 22:36 20.03.2020
6308 Clouds 22 1008 49 10000 3.6 310 22:18 20.03.2020
6309 Clouds 22 1008 49 10000 4.1 300 21:54 20.03.2020
6310 Clouds 22 1008 49 10000 4.1 300 21:36 20.03.2020
6311 Clouds 22 1008 49 10000 4.1 300 21:18 20.03.2020
6312 Clouds 22 1009 49 10000 5.1 290 20:41 20.03.2020
6313 Clouds 22 1009 49 10000 5.1 290 20:41 20.03.2020
6314 Clear 22 1009 49 10000 5.1 290 20:21 20.03.2020
6315 Clouds 21 1010 52 10000 4.1 300 19:58 20.03.2020
6316 Clouds 21 1010 52 10000 4.1 300 19:40 20.03.2020
6317 Clouds 21 1010 52 10000 4.1 300 19:18 20.03.2020
6318 Clouds 21 1011 56 10000 4.1 290 18:39 20.03.2020
6319 Clouds 21 1011 56 10000 4.1 290 18:39 20.03.2020
6320 Clouds 21 1011 56 10000 4.1 290 18:20 20.03.2020
6321 Clouds 19 1013 63 10000 3.1 350 17:57 20.03.2020
6322 Clouds 19 1013 63 10000 3.1 350 17:39 20.03.2020
6323 Clouds 19 1013 63 10000 3.1 350 17:19 20.03.2020
6324 Clouds 19 1013 63 10000 3.1 350 17:19 20.03.2020
6325 Clouds 18 1013 68 10000 3.6 290 16:43 20.03.2020
6326 Clouds 18 1013 68 10000 3.6 290 16:21 20.03.2020
6327 Clouds 16 1014 77 10000 2.1 280 15:58 20.03.2020
6328 Clouds 16 1014 77 10000 2.1 280 15:39 20.03.2020
6329 Clouds 16 1014 77 10000 2.1 280 15:20 20.03.2020
6330 Clouds 15 1014 82 10000 2.6 260 14:42 20.03.2020
6331 Clouds 15 1014 82 10000 2.6 260 14:21 20.03.2020
6332 Clouds 15 1015 82 10000 2.6 270 13:51 20.03.2020
6333 Clouds 15 1015 82 10000 2.6 270 13:26 20.03.2020
6334 Clouds 14 1015 87 10000 2.1 280 12:59 20.03.2020
6335 Clouds 14 1015 87 10000 2.1 280 12:38 20.03.2020
6336 Clouds 14 1015 87 10000 2.1 280 12:20 20.03.2020
6337 Clouds 15 1015 77 10000 2.6 270 11:41 20.03.2020
6338 Clouds 15 1015 77 10000 2.6 270 11:21 20.03.2020
6339 Clouds 15 1015 82 10000 3.1 300 10:58 20.03.2020
6340 Clouds 15 1015 82 10000 3.1 300 10:40 20.03.2020
6341 Clouds 15 1015 82 10000 3.1 300 10:18 20.03.2020
6342 Clouds 15 1016 77 10000 2.6 300 09:46 20.03.2020
6343 Clouds 15 1016 77 10000 2.6 300 09:21 20.03.2020
6344 Clouds 16 1016 72 10000 2.6 300 08:58 20.03.2020
6345 Clouds 16 1016 72 10000 2.6 300 08:39 20.03.2020
6346 Clouds 16 1016 72 10000 2.6 300 08:19 20.03.2020
6347 Clouds 16 1017 72 10000 3.1 0 07:43 20.03.2020
6348 Clouds 16 1017 72 10000 3.1 0 07:25 20.03.2020
6349 Clouds 16 1017 72 10000 3.1 260 06:43 20.03.2020
6350 Clouds 16 1017 72 10000 3.1 260 06:22 20.03.2020
6351 Clouds 16 1018 72 10000 4.1 290 04:48 20.03.2020
6352 Clouds 17 1018 63 10000 3.1 0 02:54 20.03.2020
6353 Clouds 17 1018 67 10000 5.1 310 01:50 20.03.2020
6354 Clouds 17 1018 67 10000 4.6 0 00:45 20.03.2020
6355 Clouds 17 1018 67 10000 4.6 0 00:24 20.03.2020
6356 Clouds 17 1018 67 10000 6.2 270 23:42 19.03.2020
6357 Clouds 17 1018 67 10000 6.2 270 23:23 19.03.2020
6358 Clouds 18 1018 63 10000 3.1 0 22:54 19.03.2020
6359 Clouds 18 1018 63 10000 3.1 0 22:36 19.03.2020
6360 Clouds 18 1018 63 10000 3.1 0 22:18 19.03.2020
6361 Rain 18 1018 59 9000 5.1 290 21:39 19.03.2020
6362 Rain 18 1018 59 9000 5.1 290 21:20 19.03.2020
6363 Rain 18 1018 59 10000 2.6 0 20:54 19.03.2020
6364 Rain 18 1018 59 10000 2.6 0 20:36 19.03.2020
6365 Rain 18 1018 59 10000 2.6 0 20:18 19.03.2020
6366 Clouds 17 1019 55 0 3.11 268 19:39 19.03.2020
6367 Clouds 17 1020 63 10000 2.6 0 19:21 19.03.2020
6368 Clouds 17 1020 63 10000 2.6 0 18:58 19.03.2020
6369 Clouds 17 1020 63 10000 2.6 0 18:40 19.03.2020
6370 Clouds 17 1020 63 10000 2.6 0 18:22 19.03.2020
6371 Clouds 15 1021 62 10000 4.6 310 17:54 19.03.2020
6372 Clouds 15 1021 62 10000 4.6 310 17:36 19.03.2020
6373 Clouds 15 1021 62 10000 4.6 310 17:18 19.03.2020
6374 Clouds 13 1022 71 10000 3.1 280 16:41 19.03.2020
6375 Clouds 13 1022 71 10000 3.1 280 16:21 19.03.2020
6376 Clouds 12 1022 71 10000 2.6 270 15:42 19.03.2020
6377 Clouds 12 1022 71 10000 2.6 270 15:23 19.03.2020
6378 Clouds 11 1022 71 10000 2.6 270 14:43 19.03.2020
6379 Clouds 11 1022 71 10000 2.6 270 14:23 19.03.2020
6380 Clouds 9 1022 81 10000 2.6 290 13:57 19.03.2020
6381 Clouds 9 1022 81 10000 2.6 290 13:37 19.03.2020
6382 Clouds 9 1022 81 10000 2.6 290 13:18 19.03.2020
6383 Clear 9 1022 81 10000 2.6 280 12:41 19.03.2020
6384 Clear 9 1022 81 10000 2.6 280 12:22 19.03.2020
6385 Clear 9 1022 81 10000 2.6 290 11:57 19.03.2020
6386 Clear 9 1022 81 10000 2.6 290 11:57 19.03.2020
6387 Clear 9 1022 81 10000 2.6 290 11:38 19.03.2020
6388 Clear 9 1022 81 10000 2.6 290 11:20 19.03.2020
6389 Clear 8 1022 81 10000 2.1 300 10:41 19.03.2020
6390 Clear 8 1022 81 10000 2.1 300 10:20 19.03.2020
6391 Clear 8 1022 81 10000 3.6 290 09:57 19.03.2020
6392 Clear 8 1022 81 10000 3.6 290 09:37 19.03.2020
6393 Clear 8 1022 81 10000 3.6 290 09:18 19.03.2020
6394 Clear 8 1022 75 10000 3.1 290 08:42 19.03.2020
6395 Clear 8 1022 75 10000 3.1 290 08:21 19.03.2020
6396 Clear 9 1022 76 10000 3.1 290 07:46 19.03.2020
6397 Clear 9 1022 76 10000 3.1 290 07:28 19.03.2020
6398 Clear 9 1021 70 10000 3.6 300 06:48 19.03.2020
6399 Clear 11 1021 62 10000 3.6 310 05:49 19.03.2020
6400 Clear 10 1021 66 10000 3.6 300 04:58 19.03.2020
6401 Clear 10 1021 66 10000 3.6 300 04:40 19.03.2020
6402 Clear 13 1019 54 10000 2.1 270 02:50 19.03.2020
6403 Clear 15 1018 44 10000 3.6 310 01:21 19.03.2020
6404 Clear 17 1017 42 10000 2.1 0 00:28 19.03.2020
6405 Clear 20 1016 32 10000 3.1 0 23:51 18.03.2020
6406 Clear 20 1016 32 10000 3.1 0 23:30 18.03.2020
6407 Clear 22 1016 28 10000 4.6 300 22:56 18.03.2020
6408 Clear 22 1016 28 10000 4.6 300 22:38 18.03.2020
6409 Clear 22 1016 28 10000 4.6 300 22:20 18.03.2020
6410 Clear 22 1016 26 10000 3.1 0 21:42 18.03.2020
6411 Clear 22 1016 26 10000 3.1 0 21:21 18.03.2020
6412 Clear 22 1016 26 10000 4.6 310 20:57 18.03.2020
6413 Clear 22 1016 26 10000 4.6 310 20:39 18.03.2020
6414 Clear 22 1016 26 10000 4.6 310 20:20 18.03.2020
6415 Clear 22 1016 26 10000 4.6 310 20:20 18.03.2020
6416 Clear 21 1016 35 10000 4.1 310 19:56 18.03.2020
6417 Clear 21 1016 35 10000 4.1 310 19:37 18.03.2020
6418 Clear 21 1016 35 10000 4.1 310 19:19 18.03.2020
6419 Clear 21 1016 35 10000 4.1 310 19:19 18.03.2020
6420 Clear 18 1017 55 10000 4.1 320 18:41 18.03.2020
6421 Clear 18 1017 55 10000 4.1 320 18:20 18.03.2020
6422 Clear 16 1018 63 10000 3.1 300 17:58 18.03.2020
6423 Clear 16 1018 63 10000 3.1 300 17:39 18.03.2020
6424 Clear 16 1018 63 10000 3.1 300 17:21 18.03.2020
6425 Clouds 12 1019 81 10000 2.6 290 16:55 18.03.2020
6426 Clouds 12 1019 81 10000 2.6 290 16:37 18.03.2020
6427 Clouds 12 1019 81 10000 2.6 290 16:19 18.03.2020
6428 Clouds 10 1020 87 10000 1.5 0 15:45 18.03.2020
6429 Clouds 10 1020 87 10000 1.5 0 15:20 18.03.2020
6430 Clouds 9 1020 93 10000 1.5 0 14:45 18.03.2020
6431 Clouds 9 1020 93 10000 1.5 0 14:22 18.03.2020
6432 Clouds 9 1020 93 10000 2.1 260 13:58 18.03.2020
6433 Clouds 9 1020 93 10000 2.1 260 13:36 18.03.2020
6434 Clouds 9 1020 93 10000 2.1 260 13:18 18.03.2020
6435 Clear 9 1020 93 10000 2.1 270 12:41 18.03.2020
6436 Clear 9 1020 93 10000 2.1 270 12:19 18.03.2020
6437 Clear 9 1020 100 10000 2.1 280 11:40 18.03.2020
6438 Clear 9 1020 100 10000 2.1 280 11:21 18.03.2020
6439 Clear 9 1020 100 10000 2.6 260 10:58 18.03.2020
6440 Clear 9 1020 100 10000 2.6 260 10:39 18.03.2020
6441 Clear 9 1020 100 10000 2.6 260 10:20 18.03.2020
6442 Clear 8 1020 100 10000 2.6 300 09:43 18.03.2020
6443 Clear 8 1020 100 10000 2.6 300 09:25 18.03.2020
6444 Clear 8 1020 100 10000 2.6 300 08:57 18.03.2020
6445 Clear 8 1020 100 10000 2.6 300 08:39 18.03.2020
6446 Clear 8 1020 100 10000 2.6 300 08:39 18.03.2020
6447 Clear 8 1020 100 10000 2.6 300 08:20 18.03.2020
6448 Clear 9 1020 93 10000 3.1 300 07:46 18.03.2020
6449 Clear 9 1020 93 10000 3.1 300 07:28 18.03.2020
6450 Clear 9 1020 93 10000 2.6 300 06:44 18.03.2020
6451 Clear 9 1020 93 10000 2.6 300 06:22 18.03.2020
6452 Clear 10 1021 93 10000 3.1 290 05:35 18.03.2020
6453 Clear 11 1021 87 10000 2.6 280 04:25 18.03.2020
6454 Clear 13 1020 76 10000 3.1 290 02:44 18.03.2020
6455 Clear 14 1020 76 10000 3.1 300 01:48 18.03.2020
6456 Clear 14 1020 76 10000 3.1 300 01:26 18.03.2020
6457 Clear 16 1020 67 10000 3.6 290 00:24 18.03.2020
6458 Clear 20 1019 49 10000 2.6 290 23:48 17.03.2020
6459 Clear 20 1019 49 10000 2.6 290 23:27 17.03.2020
6460 Clear 21 1019 43 10000 4.1 290 22:55 17.03.2020
6461 Clear 21 1019 43 10000 4.1 290 22:37 17.03.2020
6462 Clear 21 1019 43 10000 4.1 290 22:18 17.03.2020
6463 Clear 21 1019 43 10000 2.1 300 21:39 17.03.2020
6464 Clear 21 1019 43 10000 2.1 300 21:21 17.03.2020
6465 Clear 21 1019 43 10000 3.6 300 20:40 17.03.2020
6466 Clear 21 1019 43 10000 3.6 300 20:21 17.03.2020
6467 Clouds 20 1020 45 10000 4.1 290 19:58 17.03.2020
6468 Clouds 20 1020 45 10000 4.1 290 19:39 17.03.2020
6469 Clouds 20 1020 45 10000 4.1 290 19:18 17.03.2020
6470 Clouds 19 1021 55 10000 3.1 310 18:55 17.03.2020
6471 Clouds 19 1021 55 10000 3.1 310 18:37 17.03.2020
6472 Clouds 19 1021 55 10000 3.1 310 18:19 17.03.2020
6473 Clouds 17 1021 63 10000 3.1 320 17:40 17.03.2020
6474 Clouds 17 1021 63 10000 3.1 320 17:20 17.03.2020
6475 Clouds 10 1021 80 0 0.96 263 16:45 17.03.2020
6476 Clouds 10 1021 80 0 0.96 263 16:20 17.03.2020
6477 Clouds 10 1021 80 0 0.96 263 15:56 17.03.2020
6478 Clouds 10 1021 80 0 0.96 263 15:56 17.03.2020
6479 Clouds 10 1021 80 0 0.96 263 15:38 17.03.2020
6480 Clouds 13 1021 87 10000 2.1 320 15:18 17.03.2020
6481 Clouds 13 1021 87 10000 2.1 320 14:41 17.03.2020
6482 -273 0 0 0 0 0 14:41 17.03.2020
6483 Clouds 13 1021 87 10000 2.1 320 14:18 17.03.2020
6484 Clouds 12 1021 93 10000 2.1 270 13:43 17.03.2020
6485 Clouds 12 1021 93 10000 2.1 270 13:24 17.03.2020
6486 Clouds 11 1020 93 10000 2.1 300 12:48 17.03.2020
6487 Clouds 11 1020 93 10000 2.1 300 12:26 17.03.2020
6488 Clouds 11 1020 100 10000 2.1 300 11:59 17.03.2020
6489 Clouds 11 1020 100 10000 2.1 300 11:40 17.03.2020
6490 Clouds 11 1020 100 10000 2.1 300 11:22 17.03.2020
6491 Clouds 11 1019 100 10000 1 0 10:55 17.03.2020
6492 Clouds 11 1019 100 10000 1 0 10:36 17.03.2020
6493 Clouds 11 1019 100 10000 1 0 10:36 17.03.2020
6494 Clouds 11 1019 100 10000 1 0 10:18 17.03.2020
6495 Clouds 12 1018 93 10000 1.5 250 09:45 17.03.2020
6496 Clouds 12 1018 93 10000 1.5 250 09:45 17.03.2020
6497 Clouds 12 1018 93 10000 1.5 250 09:20 17.03.2020
6498 Clouds 12 1018 93 10000 1.5 310 08:57 17.03.2020
6499 Clouds 12 1018 93 10000 1.5 310 08:39 17.03.2020
6500 Clouds 12 1018 93 10000 1.5 310 08:18 17.03.2020
6501 Clouds 12 1018 100 10000 2.6 280 07:47 17.03.2020
6502 Clouds 12 1018 100 10000 2.6 280 07:20 17.03.2020
6503 Clouds 12 1017 100 10000 2.6 290 06:45 17.03.2020
6504 Clouds 12 1017 100 10000 2.6 290 06:24 17.03.2020
6505 Rain 13 1017 93 10000 2.1 290 04:51 17.03.2020
6506 Rain 13 1017 93 10000 2.6 260 03:26 17.03.2020
6507 Clouds 15 1015 77 10000 3.1 310 01:49 17.03.2020
6508 Clouds 15 1015 77 10000 3.1 310 01:29 17.03.2020
6509 Clouds 16 1014 67 10000 3.1 0 00:50 17.03.2020
6510 Clouds 16 1014 67 10000 6.2 270 23:51 16.03.2020
6511 Clouds 16 1014 67 10000 6.2 270 23:33 16.03.2020
6512 Clouds 18 1013 59 10000 5.1 270 22:47 16.03.2020
6513 Clouds 18 1013 59 10000 5.1 270 22:27 16.03.2020
6514 Clouds 19 1013 52 10000 7.2 280 21:59 16.03.2020
6515 Clouds 19 1013 52 10000 7.2 280 21:41 16.03.2020
6516 Clouds 19 1013 52 10000 7.2 280 21:23 16.03.2020
6517 Clouds 19 1013 48 10000 8.2 290 20:57 16.03.2020
6518 Clouds 19 1013 48 10000 8.2 290 20:38 16.03.2020
6519 Clouds 19 1013 48 10000 8.2 290 20:19 16.03.2020
6520 Clouds 19 1013 48 10000 6.2 280 19:42 16.03.2020
6521 Clouds 19 1013 48 10000 6.2 280 19:22 16.03.2020
6522 Clouds 18 1013 52 10000 4.6 280 18:56 16.03.2020
6523 Clouds 18 1013 52 10000 4.6 280 18:37 16.03.2020
6524 Clouds 18 1013 52 10000 4.6 280 18:18 16.03.2020
6525 Clouds 17 1014 55 10000 2.1 0 17:42 16.03.2020
6526 Clouds 17 1014 55 10000 2.1 0 17:22 16.03.2020
6527 Clouds 15 1014 67 10000 2.1 300 16:46 16.03.2020
6528 Clouds 15 1014 67 10000 2.1 300 16:28 16.03.2020
6529 Clouds 14 1014 71 10000 1.5 300 15:56 16.03.2020
6530 Clouds 14 1014 71 10000 1.5 300 15:37 16.03.2020
6531 Clouds 14 1014 71 10000 1.5 300 15:18 16.03.2020
6532 Clouds 12 1014 81 10000 2.6 300 14:42 16.03.2020
6533 Clouds 12 1014 81 10000 2.6 300 14:19 16.03.2020
6534 Clouds 11 1014 81 10000 2.6 0 13:42 16.03.2020
6535 Clouds 11 1014 81 10000 2.6 0 13:23 16.03.2020
6536 Clouds 10 1014 87 10000 3.6 280 12:46 16.03.2020
6537 Clouds 10 1014 87 10000 3.6 280 12:26 16.03.2020
6538 Clouds 10 1014 87 10000 3.6 280 11:58 16.03.2020
6539 Clouds 10 1014 87 10000 3.6 280 11:39 16.03.2020
6540 Clouds 10 1014 87 10000 3.6 280 11:18 16.03.2020
6541 Clouds 10 1014 87 9000 3.6 280 10:41 16.03.2020
6542 Clouds 10 1014 87 9000 3.6 280 10:19 16.03.2020
6543 Clouds 10 1015 87 10000 2.6 290 09:44 16.03.2020
6544 Clouds 10 1015 87 10000 2.6 290 09:24 16.03.2020
6545 Clouds 10 1015 87 10000 3.1 280 08:54 16.03.2020
6546 Clouds 10 1015 87 10000 3.1 280 08:25 16.03.2020
6547 Clear 10 1016 87 10000 3.1 290 07:50 16.03.2020
6548 Clear 10 1016 87 10000 3.1 290 07:27 16.03.2020
6549 Clear 10 1016 93 10000 3.6 290 06:54 16.03.2020
6550 Clear 10 1016 93 10000 3.6 290 06:25 16.03.2020
6551 Clouds 11 1016 87 10000 3.1 290 04:55 16.03.2020
6552 Clouds 12 1017 87 10000 3.1 290 02:42 16.03.2020
6553 Clear 16 1016 67 10000 2.1 310 00:52 16.03.2020
6554 Clear 16 1016 67 10000 2.1 310 00:33 16.03.2020
6555 Clear 20 1016 45 10000 4.1 290 23:46 15.03.2020
6556 Clear 20 1016 45 10000 4.1 290 23:20 15.03.2020
6557 Clear 21 1016 43 10000 4.1 300 22:43 15.03.2020
6558 Clear 21 1016 43 10000 4.1 300 22:23 15.03.2020
6559 Clear 21 1016 40 10000 3.6 0 21:58 15.03.2020
6560 Clear 21 1016 40 10000 3.6 0 21:38 15.03.2020
6561 Clear 21 1016 40 10000 3.6 0 21:18 15.03.2020
6562 Clear 20 1017 52 10000 2.6 320 20:42 15.03.2020
6563 Clear 20 1017 52 10000 2.6 320 20:20 15.03.2020
6564 Clear 19 1018 48 10000 3.1 330 19:58 15.03.2020
6565 Clear 19 1018 48 10000 3.1 330 19:38 15.03.2020
6566 Clear 19 1018 48 10000 3.1 330 19:19 15.03.2020
6567 Clear 17 1019 55 10000 2.6 330 18:55 15.03.2020
6568 Clear 17 1019 55 10000 2.6 330 18:37 15.03.2020
6569 Clear 17 1019 55 10000 2.6 330 18:19 15.03.2020
6570 Clear 15 1021 62 10000 2.6 330 17:41 15.03.2020
6571 Clear 15 1021 62 10000 2.6 330 17:21 15.03.2020
6572 Clear 12 1022 71 10000 1 0 16:58 15.03.2020
6573 Clear 12 1022 71 10000 1 0 16:58 15.03.2020
6574 Clear 12 1022 71 10000 1 0 16:38 15.03.2020
6575 Clear 12 1022 71 10000 1 0 16:19 15.03.2020
6576 Clear 9 1023 87 10000 1 0 15:45 15.03.2020
6577 Clear 9 1023 87 10000 1 0 15:27 15.03.2020
6578 Clear 7 1023 93 10000 1 0 14:57 15.03.2020
6579 Clear 7 1023 93 10000 1 0 14:38 15.03.2020
6580 Clear 7 1023 93 10000 1 0 14:18 15.03.2020
6581 Clear 7 1023 93 10000 1 0 14:18 15.03.2020
6582 Clear 6 1023 100 10000 0.5 0 13:42 15.03.2020
6583 Clear 6 1023 100 10000 0.5 0 13:23 15.03.2020
6584 Clear 6 1023 93 10000 1 0 12:59 15.03.2020
6585 Clear 6 1023 93 10000 1 0 12:39 15.03.2020
6586 Clear 6 1023 93 10000 1 0 12:21 15.03.2020
6587 Clear 5 1023 93 10000 1 0 11:43 15.03.2020
6588 Clear 5 1023 93 10000 1 0 11:24 15.03.2020
6589 Clear 5 1024 93 10000 1.31 286 10:57 15.03.2020
6590 Clear 5 1024 93 10000 1.31 286 10:39 15.03.2020
6591 Clear 5 1024 93 10000 1.31 286 10:20 15.03.2020
6592 Clear 6 1024 93 10000 2.6 300 09:42 15.03.2020
6593 Clear 6 1024 93 10000 2.6 300 09:23 15.03.2020
6594 Clear 6 1024 93 10000 1 0 08:58 15.03.2020
6595 Clear 6 1024 93 10000 1 0 08:39 15.03.2020
6596 Clear 6 1024 93 10000 1 0 08:18 15.03.2020
6597 Clear 7 1024 93 10000 3.6 280 07:44 15.03.2020
6598 Clear 7 1024 93 10000 2.6 290 06:55 15.03.2020
6599 Clear 7 1024 93 10000 2.6 290 06:34 15.03.2020
6600 Clear 8 1024 87 10000 2.6 290 05:43 15.03.2020
6601 Clear 8 1024 87 10000 1 0 04:47 15.03.2020
6602 Clear 8 1024 87 10000 1 0 04:28 15.03.2020
6603 Clear 9 1024 87 10000 3.1 300 03:54 15.03.2020
6604 Clear 9 1024 87 10000 2.1 300 02:47 15.03.2020
6605 Clear 11 1024 76 10000 1.5 320 01:40 15.03.2020
6606 Clear 14 1023 58 10000 2.1 310 00:47 15.03.2020
6607 Clear 14 1023 58 10000 2.1 310 00:27 15.03.2020
6608 Clear 15 1023 51 10000 3.6 310 23:56 14.03.2020
6609 Clear 15 1023 51 10000 3.6 310 23:37 14.03.2020
6610 Clear 15 1023 51 10000 3.6 310 23:18 14.03.2020
6611 Clear 16 1022 51 10000 4.1 300 22:44 14.03.2020
6612 Clear 16 1022 51 10000 4.1 300 22:26 14.03.2020
6613 Clear 16 1022 51 10000 4.1 300 21:57 14.03.2020
6614 Clear 16 1022 51 10000 4.1 300 21:36 14.03.2020
6615 Clear 16 1022 51 10000 4.1 300 21:18 14.03.2020
6616 Clear 16 1022 48 10000 2.6 0 20:59 14.03.2020
6617 Clear 16 1022 48 10000 2.6 0 20:40 14.03.2020
6618 Clouds 16 1022 48 10000 2.6 0 20:19 14.03.2020
6619 Clouds 16 1022 48 10000 2.6 0 20:19 14.03.2020
6620 Clouds 16 1023 48 10000 2.6 0 19:44 14.03.2020
6621 Clouds 16 1023 48 10000 2.6 0 19:25 14.03.2020
6622 Clouds 15 1023 51 10000 3.1 300 18:56 14.03.2020
6623 Clouds 15 1023 51 10000 3.1 300 18:37 14.03.2020
6624 Clouds 15 1023 51 10000 3.1 300 18:19 14.03.2020
6625 Clouds 15 1024 51 10000 4.1 300 17:39 14.03.2020
6626 Clouds 15 1024 51 10000 4.1 300 17:20 14.03.2020
6627 Clouds 14 1024 62 10000 2.6 0 16:41 14.03.2020
6628 Clouds 14 1024 62 10000 2.6 0 16:23 14.03.2020
6629 Clouds 12 1024 71 10000 2.6 280 15:58 14.03.2020
6630 Clouds 12 1024 71 10000 2.6 280 15:27 14.03.2020
6631 Clouds 10 1024 76 10000 2.6 280 14:58 14.03.2020
6632 Clouds 10 1024 76 10000 2.6 280 14:36 14.03.2020
6633 Clouds 10 1024 76 10000 2.6 280 14:18 14.03.2020
6634 Clouds 8 1024 87 10000 3.6 290 13:42 14.03.2020
6635 Clouds 8 1024 87 10000 3.6 290 13:23 14.03.2020
6636 Clouds 8 1023 87 10000 3.6 270 12:47 14.03.2020
6637 Clouds 8 1023 87 10000 3.6 270 12:27 14.03.2020
6638 Clouds 8 1023 87 10000 3.1 290 11:59 14.03.2020
6639 Clouds 8 1023 87 10000 3.1 290 11:39 14.03.2020
6640 Clouds 8 1023 87 10000 3.1 290 11:20 14.03.2020
6641 Clouds 8 1023 87 10000 2.6 300 10:46 14.03.2020
6642 Clouds 8 1023 87 10000 2.6 300 10:27 14.03.2020
6643 Clouds 8 1022 87 10000 2.1 290 09:58 14.03.2020
6644 Clouds 8 1022 87 10000 2.1 290 09:39 14.03.2020
6645 Clouds 8 1022 87 10000 2.1 290 09:19 14.03.2020
6646 Clouds 8 1022 87 10000 2.1 300 08:45 14.03.2020
6647 Clouds 8 1022 87 10000 2.1 300 08:22 14.03.2020
6648 Clouds 9 1022 76 10000 2.6 0 07:39 14.03.2020
6649 Clouds 9 1022 76 10000 2.6 0 07:39 14.03.2020
6650 Clouds 9 1022 76 10000 2.6 0 07:20 14.03.2020
6651 Clouds 9 1022 76 10000 2.6 260 06:41 14.03.2020
6652 Clouds 9 1021 76 10000 2.1 270 05:49 14.03.2020
6653 Clear 9 1021 76 10000 3.1 290 04:43 14.03.2020
6654 Clear 9 1021 76 10000 2.6 260 03:24 14.03.2020
6655 Clear 9 1020 76 10000 4.6 260 02:28 14.03.2020
6656 Clouds 9 1019 76 10000 3.6 250 01:20 14.03.2020
6657 Clouds 10 1017 71 10000 5.7 270 23:56 13.03.2020
6658 Clouds 10 1017 71 10000 5.7 270 23:31 13.03.2020
6659 Rain 11 1016 71 10000 4.1 0 22:52 13.03.2020
6660 Rain 11 1016 71 10000 4.1 0 22:27 13.03.2020
6661 Rain 10 1015 76 10000 5.7 260 21:54 13.03.2020
6662 Rain 10 1015 76 10000 5.7 260 21:36 13.03.2020
6663 Rain 10 1015 76 10000 5.7 260 21:18 13.03.2020
6664 Rain 10 1014 54 0 5.67 286 20:41 13.03.2020
6665 Rain 11 1012 76 10000 4.1 0 20:21 13.03.2020
6666 Rain 11 1012 76 10000 4.1 0 19:49 13.03.2020
6667 Rain 11 1012 76 10000 4.1 0 19:30 13.03.2020
6668 Rain 8 1013 81 4000 5.1 260 18:51 13.03.2020
6669 Rain 8 1013 81 4000 5.1 260 18:32 13.03.2020
6670 Rain 9 1011 87 4000 4.6 270 17:59 13.03.2020
6671 Rain 9 1011 87 4000 4.6 270 17:41 13.03.2020
6672 Rain 9 1011 87 4000 4.6 270 17:20 13.03.2020
6673 Rain 11 1010 81 4000 4.1 260 16:42 13.03.2020
6674 Rain 13 1008 87 6000 3.1 270 16:24 13.03.2020
6675 Rain 13 1008 87 6000 3.1 270 15:59 13.03.2020
6676 Rain 13 1008 87 6000 3.1 270 15:39 13.03.2020
6677 Rain 13 1008 87 6000 3.1 270 15:20 13.03.2020
6678 Rain 13 1008 87 4000 4.6 250 14:44 13.03.2020
6679 Clouds 13 1008 87 10000 1 0 14:23 13.03.2020
6680 Clouds 12 1009 93 10000 3.1 290 13:58 13.03.2020
6681 Clouds 12 1009 93 10000 3.1 290 13:39 13.03.2020
6682 Clouds 12 1009 93 10000 3.1 290 13:20 13.03.2020
6683 Rain 12 1009 93 10000 2.1 300 12:55 13.03.2020
6684 Rain 12 1009 93 10000 2.1 300 12:36 13.03.2020
6685 Rain 12 1009 93 10000 2.1 300 12:18 13.03.2020
6686 Rain 12 1009 93 10000 2.1 310 11:42 13.03.2020
6687 Rain 12 1009 93 10000 2.1 310 11:24 13.03.2020
6688 Rain 12 1009 93 10000 2.1 300 10:57 13.03.2020
6689 Rain 12 1009 93 10000 2.1 300 10:38 13.03.2020
6690 Rain 12 1009 93 10000 2.1 300 10:20 13.03.2020
6691 Clouds 12 1009 100 10000 1.5 300 09:43 13.03.2020
6692 Clouds 12 1009 100 10000 1.5 300 09:24 13.03.2020
6693 Clouds 13 1009 93 10000 2.1 290 08:47 13.03.2020
6694 Clouds 13 1009 93 10000 2.1 290 08:23 13.03.2020
6695 Clouds 13 1009 93 10000 2.1 290 08:23 13.03.2020
6696 Clouds 13 1010 93 10000 2.1 290 07:52 13.03.2020
6697 Clouds 13 1010 93 10000 2.1 290 07:28 13.03.2020
6698 Clouds 8 1010 96 0 1.74 294 06:57 13.03.2020
6699 Clouds 8 1010 96 0 1.74 294 06:32 13.03.2020
6700 Clouds 8 1010 96 0 1.74 294 05:55 13.03.2020
6701 Rain 13 1010 93 10000 0.5 0 05:24 13.03.2020
6702 Rain 13 1010 93 10000 0.5 0 04:38 13.03.2020
6703 Rain 12 1010 100 10000 1.5 280 03:42 13.03.2020
6704 Rain 14 1008 93 10000 2.1 310 01:47 13.03.2020
6705 Rain 14 1008 93 10000 2.1 310 01:19 13.03.2020
6706 Rain 15 1008 93 10000 0.82 327 00:53 13.03.2020
6707 Rain 15 1008 93 10000 0.82 327 00:24 13.03.2020
6708 Rain 16 1008 87 10000 1 0 23:50 12.03.2020
6709 Rain 16 1008 87 10000 1 0 23:27 12.03.2020
6710 Rain 16 1007 87 10000 1.5 340 22:56 12.03.2020
6711 Rain 16 1007 87 10000 1.5 340 22:38 12.03.2020
6712 Rain 16 1007 87 10000 1.5 340 22:20 12.03.2020
6713 Rain 16 1007 82 9000 0.5 0 21:44 12.03.2020
6714 Rain 16 1007 82 9000 0.5 0 21:26 12.03.2020
6715 Rain 15 1007 93 6000 0.5 0 20:57 12.03.2020
6716 Rain 15 1007 93 6000 0.5 0 20:37 12.03.2020
6717 Rain 15 1007 93 6000 0.5 0 20:19 12.03.2020
6718 Clouds 15 1007 87 10000 2.6 280 19:40 12.03.2020
6719 Clouds 15 1007 87 10000 2.6 280 19:20 12.03.2020
6720 Rain 14 1008 93 9000 2.6 270 18:44 12.03.2020
6721 Rain 14 1008 93 9000 2.6 270 18:24 12.03.2020
6722 Rain 12 1008 93 7000 2.1 290 17:57 12.03.2020
6723 Rain 12 1008 93 7000 2.1 290 17:38 12.03.2020
6724 Rain 12 1008 93 7000 2.1 290 17:19 12.03.2020
6725 Rain 12 1008 87 10000 1 0 16:54 12.03.2020
6726 Rain 12 1008 87 10000 1 0 16:36 12.03.2020
6727 Rain 12 1008 87 10000 1 0 16:18 12.03.2020
6728 Rain 11 1008 87 6000 1 0 15:43 12.03.2020
6729 Rain 11 1008 87 6000 1 0 15:24 12.03.2020
6730 Rain 11 1008 87 10000 0.5 0 14:39 12.03.2020
6731 Rain 11 1008 87 10000 0.5 0 14:19 12.03.2020
6732 Rain 10 1008 87 8000 1 0 13:41 12.03.2020
6733 Rain 10 1008 87 8000 1 0 13:22 12.03.2020
6734 Clouds 10 1008 87 10000 1 0 12:56 12.03.2020
6735 Clouds 10 1008 87 10000 1 0 12:38 12.03.2020
6736 Clouds 10 1008 87 10000 1 0 12:19 12.03.2020
6737 Rain 10 1008 93 10000 1.01 348 11:56 12.03.2020
6738 Rain 10 1008 93 10000 1.01 348 11:56 12.03.2020
6739 Rain 10 1008 93 10000 1.01 348 11:37 12.03.2020
6740 Clouds 10 1008 87 10000 0.5 0 11:19 12.03.2020
6741 Clouds 8 1009 85 0 0.48 356 10:56 12.03.2020
6742 Clouds 8 1009 85 0 0.48 356 10:38 12.03.2020
6743 Clouds 8 1009 85 0 0.48 356 10:19 12.03.2020
6744 Clouds 8 1009 85 0 0.48 356 09:43 12.03.2020
6745 Clouds 8 1009 85 0 0.48 356 09:25 12.03.2020
6746 Clouds 8 1009 85 0 0.48 356 08:41 12.03.2020
6747 Clouds 7 1009 95 0 1.66 326 08:19 12.03.2020
6748 Clouds 7 1010 91